# Wetter Temperatur Luftdruck Luftfeuchtigkeit Sichtweite Windgeschwindigkeit Windrichtung Zeit
1 Clear 14 1017 67 10000 2.06 110 12:48 22.04.2021
2 Clear 15 1017 67 10000 2.06 110 12:29 22.04.2021
3 Clear 14 1017 72 10000 2.06 110 11:48 22.04.2021
4 Clear 14 1017 72 10000 2.06 110 11:25 22.04.2021
5 Clear 13 1017 71 10000 2.06 90 10:46 22.04.2021
6 Rain 13 1017 71 10000 2.06 90 10:27 22.04.2021
7 Rain 13 1017 71 10000 2.06 100 09:58 22.04.2021
8 Rain 12 1017 71 10000 2.06 100 09:31 22.04.2021
9 Clouds 11 1017 82 10000 1.03 0 08:45 22.04.2021
10 Clouds 11 1017 82 10000 2.06 60 08:23 22.04.2021
11 Clouds 11 1017 76 10000 3.09 100 07:46 22.04.2021
12 Clouds 11 1017 87 10000 1.54 10 07:27 22.04.2021
13 Clouds 10 1017 87 10000 3.09 310 06:41 22.04.2021
14 Clouds 11 1016 76 10000 2.57 60 05:53 22.04.2021
15 Clouds 11 1017 81 10000 2.06 70 05:20 22.04.2021
16 Rain 12 1018 71 10000 1.03 0 01:41 22.04.2021
17 Rain 13 1019 71 10000 1.54 60 23:54 21.04.2021
18 Clouds 13 1019 71 10000 1.54 60 23:35 21.04.2021
19 Rain 13 1019 76 10000 1.54 150 22:45 21.04.2021
20 Rain 13 1019 76 10000 1.03 0 22:25 21.04.2021
21 Rain 14 1019 82 10000 2.06 220 21:57 21.04.2021
22 Rain 14 1019 82 10000 2.06 220 21:38 21.04.2021
23 Rain 14 1018 67 10000 4.12 240 21:18 21.04.2021
24 Clear 14 1018 67 10000 4.12 240 20:23 21.04.2021
25 Clear 14 1017 63 10000 3.6 240 19:46 21.04.2021
26 Clear 15 1017 63 10000 3.6 240 19:27 21.04.2021
27 Clouds 16 1017 55 10000 3.09 250 18:50 21.04.2021
28 Clouds 17 1017 55 10000 3.09 250 18:31 21.04.2021
29 Clouds 17 1017 55 10000 3.09 250 18:31 21.04.2021
30 Clouds 17 1017 55 10000 2.57 230 17:57 21.04.2021
31 Clouds 17 1017 55 10000 2.57 230 17:39 21.04.2021
32 Clouds 17 1017 55 10000 2.57 230 17:19 21.04.2021
33 Clouds 18 1018 59 10000 2.06 190 16:32 21.04.2021
34 Clouds 18 1018 59 10000 3.09 220 15:43 21.04.2021
35 Clouds 18 1018 59 10000 3.09 220 15:18 21.04.2021
36 Clouds 17 1019 55 10000 1.54 0 14:44 21.04.2021
37 Clouds 17 1019 55 10000 1.54 0 14:23 21.04.2021
38 Clouds 17 1019 45 10000 2.06 240 13:48 21.04.2021
39 Clouds 17 1019 45 10000 2.06 240 13:21 21.04.2021
40 Clouds 17 1019 63 10000 1.03 0 12:40 21.04.2021
41 Clear 16 1020 77 10000 1.54 330 11:58 21.04.2021
42 Clear 15 1020 77 10000 1.54 330 11:39 21.04.2021
43 Clear 15 1020 77 10000 1.54 330 11:21 21.04.2021
44 Clear 14 1020 87 10000 1.54 340 10:36 21.04.2021
45 Clear 14 1019 76 10000 1.54 360 09:56 21.04.2021
46 Clear 12 1019 71 10000 1.03 0 09:20 21.04.2021
47 Clear 9 1020 100 10000 1.54 360 08:42 21.04.2021
48 Clear 9 1019 81 10000 0.51 0 08:23 21.04.2021
49 Clear 8 1019 76 10000 1.54 140 07:43 21.04.2021
50 Clear 7 1018 87 10000 1.54 80 07:21 21.04.2021
51 Clear 6 1018 93 10000 0.51 0 05:53 21.04.2021
52 Clear 8 1018 81 10000 2.06 150 01:50 21.04.2021
53 Clear 9 1018 76 10000 2.06 130 00:19 21.04.2021
54 Clear 10 1018 71 10000 1.54 150 23:38 20.04.2021
55 Clear 10 1018 71 10000 1.03 0 22:45 20.04.2021
56 Clear 11 1018 71 10000 1.03 0 22:23 20.04.2021
57 Clear 11 1018 71 10000 0.51 0 21:48 20.04.2021
58 Clear 12 1017 58 10000 0.51 0 21:28 20.04.2021
59 Clear 13 1017 58 10000 0.51 0 20:58 20.04.2021
60 Clear 13 1017 58 10000 0.51 0 20:38 20.04.2021
61 Clear 13 1017 58 10000 0.51 0 20:18 20.04.2021
62 Clear 15 1016 51 10000 1.03 0 19:44 20.04.2021
63 Clear 14 1016 51 10000 1.03 0 19:26 20.04.2021
64 Clouds 15 1016 58 10000 2.57 200 18:41 20.04.2021
65 Clouds 15 1016 58 10000 2.57 200 18:21 20.04.2021
66 Clouds 15 1016 67 10000 3.09 320 17:39 20.04.2021
67 Clouds 16 1016 67 10000 1.03 0 16:50 20.04.2021
68 Clouds 15 1016 71 10000 3.6 220 15:53 20.04.2021
69 Clouds 14 1016 71 10000 3.6 220 15:30 20.04.2021
70 Clouds 14 1016 71 10000 3.6 220 15:30 20.04.2021
71 Rain 14 1016 67 8000 6.69 310 14:59 20.04.2021
72 Rain 15 1016 67 8000 6.69 310 14:35 20.04.2021
73 Clouds 16 1016 67 8000 6.69 310 13:54 20.04.2021
74 Clouds 17 1016 51 10000 2.06 30 13:24 20.04.2021
75 Clear 16 1017 67 10000 1.03 0 12:48 20.04.2021
76 Clear 16 1017 67 10000 1.03 0 12:22 20.04.2021
77 Clear 14 1017 82 10000 1.03 0 11:46 20.04.2021
78 Clear 14 1017 82 10000 1.03 0 11:24 20.04.2021
79 Clear 13 1017 93 10000 1.54 330 10:45 20.04.2021
80 Clear 12 1017 93 10000 1.54 330 10:23 20.04.2021
81 Mist 10 1017 100 4000 1.54 10 09:44 20.04.2021
82 Fog 9 1017 93 100 2.06 340 08:56 20.04.2021
83 Fog 8 1017 93 100 2.06 340 08:29 20.04.2021
84 Clear 7 1015 100 10000 1.54 40 07:50 20.04.2021
85 Clear 6 1015 100 10000 1.03 0 06:54 20.04.2021
86 Clear 7 1015 93 10000 1.03 30 05:40 20.04.2021
87 Clear 7 1015 87 10000 0.51 0 04:42 20.04.2021
88 Clear 8 1016 87 10000 1.03 100 01:58 20.04.2021
89 Clear 8 1016 87 10000 1.54 130 00:41 20.04.2021
90 Clear 9 1016 93 10000 0.51 0 23:39 19.04.2021
91 Clear 8 1016 93 10000 0.51 0 22:58 19.04.2021
92 Clear 9 1016 93 10000 0.51 0 22:36 19.04.2021
93 Clear 9 1015 93 10000 0.51 0 21:52 19.04.2021
94 Clear 9 1015 93 10000 0.51 0 21:34 19.04.2021
95 Clouds 9 1015 93 10000 2.06 60 20:56 19.04.2021
96 Clouds 9 1015 93 10000 2.06 60 20:38 19.04.2021
97 Clouds 10 1015 93 10000 2.06 60 20:19 19.04.2021
98 Clouds 10 1015 93 10000 1.03 0 19:42 19.04.2021
99 Rain 10 1015 93 10000 1.03 0 19:24 19.04.2021
100 Rain 10 1015 87 8000 0.51 0 18:47 19.04.2021
101 Rain 10 1015 87 8000 0.51 0 18:22 19.04.2021
102 Rain 10 1014 93 10000 1.54 180 17:54 19.04.2021
103 Rain 10 1014 93 10000 1.54 180 17:29 19.04.2021
104 Rain 10 1015 93 6000 3.09 160 16:57 19.04.2021
105 Rain 10 1015 93 6000 3.09 160 16:38 19.04.2021
106 Rain 10 1015 93 6000 3.09 160 16:20 19.04.2021
107 Rain 10 1014 81 10000 4.12 70 15:33 19.04.2021
108 Rain 11 1014 76 10000 2.57 160 14:56 19.04.2021
109 Rain 12 1014 76 10000 2.57 160 14:37 19.04.2021
110 Rain 13 1013 71 10000 3.09 0 14:18 19.04.2021
111 Clouds 14 1013 55 10000 2.06 100 13:36 19.04.2021
112 Clouds 14 1014 58 10000 1.54 350 13:18 19.04.2021
113 Clouds 14 1014 58 10000 2.06 160 12:40 19.04.2021
114 Clouds 14 1014 76 10000 1.54 300 12:20 19.04.2021
115 Clouds 14 1014 76 10000 1.54 300 11:52 19.04.2021
116 Clouds 13 1014 76 10000 1.54 300 11:21 19.04.2021
117 Clouds 12 1014 93 10000 1.03 0 10:45 19.04.2021
118 Clouds 11 1014 93 10000 1.03 0 10:20 19.04.2021
119 Clouds 10 1014 100 10000 1.03 0 09:48 19.04.2021
120 Clouds 9 1014 100 10000 1.03 0 09:27 19.04.2021
121 Fog 9 1014 100 200 1.54 350 08:55 19.04.2021
122 Fog 8 1014 100 200 1.54 350 08:24 19.04.2021
123 Clear 7 1013 93 10000 2.57 30 07:45 19.04.2021
124 Clear 7 1013 93 10000 2.57 50 07:18 19.04.2021
125 Clouds 7 1013 100 10000 1.54 60 05:43 19.04.2021
126 Clear 7 1014 93 10000 2.57 40 02:34 19.04.2021
127 Clouds 7 1014 100 10000 3.09 30 00:45 19.04.2021
128 Clouds 8 1015 93 10000 2.57 50 23:38 18.04.2021
129 Clouds 8 1015 93 10000 1.54 10 23:18 18.04.2021
130 Rain 8 1015 93 8000 0.51 0 22:43 18.04.2021
131 Rain 8 1015 93 7000 1.03 0 22:23 18.04.2021
132 Rain 8 1015 93 6000 3.6 120 21:29 18.04.2021
133 Rain 8 1015 93 6000 3.6 120 20:56 18.04.2021
134 Rain 8 1015 93 6000 3.6 120 20:37 18.04.2021
135 Rain 9 1015 93 6000 3.6 120 20:19 18.04.2021
136 Rain 8 1015 87 8000 4.12 110 19:44 18.04.2021
137 Rain 9 1015 87 8000 4.12 110 19:21 18.04.2021
138 Rain 9 1015 87 3500 5.14 80 18:46 18.04.2021
139 Rain 9 1015 87 3500 5.14 80 18:26 18.04.2021
140 Rain 9 1014 93 3000 6.17 40 17:49 18.04.2021
141 Rain 10 1014 93 3000 6.17 40 17:29 18.04.2021
142 Rain 11 1014 87 4000 5.14 40 16:53 18.04.2021
143 Rain 12 1014 87 4000 5.14 40 16:35 18.04.2021
144 Clouds 12 1013 76 10000 3.6 90 15:51 18.04.2021
145 Clouds 12 1013 76 10000 3.6 90 15:28 18.04.2021
146 Clouds 13 1013 66 8000 5.14 130 14:54 18.04.2021
147 Clouds 14 1013 66 8000 5.14 130 14:36 18.04.2021
148 Clouds 13 1013 66 8000 5.14 130 14:18 18.04.2021
149 Clouds 13 1013 62 10000 4.63 250 13:38 18.04.2021
150 Clouds 15 1013 59 10000 3.09 150 13:19 18.04.2021
151 Clouds 14 1013 62 10000 1.54 270 12:33 18.04.2021
152 Rain 14 1013 58 10000 1.54 0 11:45 18.04.2021
153 Rain 15 1013 58 10000 1.54 0 11:22 18.04.2021
154 Clear 14 1013 62 10000 2.06 30 10:48 18.04.2021
155 Clear 13 1013 62 10000 2.06 30 10:28 18.04.2021
156 Clear 12 1013 71 10000 1.54 10 09:54 18.04.2021
157 Clear 11 1013 71 10000 1.54 10 09:36 18.04.2021
158 Clear 10 1013 76 10000 2.06 20 08:58 18.04.2021
159 Clear 9 1013 76 10000 2.06 20 08:39 18.04.2021
160 Clear 8 1013 76 10000 1.54 40 08:18 18.04.2021
161 Clear 7 1013 76 10000 1.54 50 07:39 18.04.2021
162 Clear 7 1012 70 10000 1.03 70 05:45 18.04.2021
163 Clear 7 1012 70 10000 1.03 70 05:45 18.04.2021
164 Clear 7 1012 70 10000 1.03 70 05:24 18.04.2021
165 Clear 9 1012 66 10000 1.03 60 03:26 18.04.2021
166 Clear 9 1013 71 10000 0.51 70 02:22 18.04.2021
167 Clear 10 1013 62 10000 1.03 200 00:40 18.04.2021
168 Clouds 11 1013 58 10000 1.54 180 23:39 17.04.2021
169 Clouds 11 1013 54 10000 1.03 210 22:54 17.04.2021
170 Clouds 12 1012 50 10000 1.54 200 22:31 17.04.2021
171 Clouds 12 1012 50 10000 2.57 200 21:51 17.04.2021
172 Clear 13 1012 50 10000 2.06 190 21:31 17.04.2021
173 Clear 13 1011 50 10000 2.06 210 20:59 17.04.2021
174 Clear 14 1010 41 10000 3.09 270 20:28 17.04.2021
175 Clear 14 1010 41 10000 3.09 270 19:46 17.04.2021
176 Clear 14 1010 41 10000 3.09 270 19:22 17.04.2021
177 Clear 14 1010 38 10000 4.63 260 18:57 17.04.2021
178 Clear 15 1010 38 10000 4.63 260 18:36 17.04.2021
179 Clear 16 1010 39 10000 5.14 270 17:58 17.04.2021
180 Clear 16 1010 39 10000 5.14 270 17:39 17.04.2021
181 Clear 16 1010 39 10000 5.66 270 16:54 17.04.2021
182 Clear 16 1010 39 10000 5.66 270 16:28 17.04.2021
183 Clear 16 1010 36 10000 2.57 320 15:50 17.04.2021
184 Clear 17 1011 36 10000 2.06 0 14:50 17.04.2021
185 Clear 17 1011 36 10000 2.06 0 14:50 17.04.2021
186 Clear 17 1011 36 10000 2.06 0 14:31 17.04.2021
187 Clear 16 1011 31 10000 1.54 0 13:48 17.04.2021
188 Clear 16 1011 31 10000 1.54 0 13:22 17.04.2021
189 Clear 16 1012 36 10000 2.06 0 12:41 17.04.2021
190 Clear 16 1012 36 10000 2.06 0 12:18 17.04.2021
191 Clear 15 1012 38 10000 2.57 40 11:39 17.04.2021
192 Clear 15 1012 38 10000 2.57 40 11:21 17.04.2021
193 Clear 13 1012 58 10000 1.54 350 10:41 17.04.2021
194 Clear 12 1012 58 10000 1.54 350 10:23 17.04.2021
195 Clear 9 1012 66 10000 1.03 0 09:22 17.04.2021
196 Clear 8 1012 70 10000 1.54 360 08:34 17.04.2021
197 Clear 7 1011 70 10000 2.57 70 07:59 17.04.2021
198 Clear 7 1011 75 10000 3.09 60 06:42 17.04.2021
199 Clear 8 1012 81 10000 2.57 30 03:49 17.04.2021
200 Clear 9 1013 71 10000 1.03 50 02:40 17.04.2021
201 Clear 11 1014 66 10000 1.54 110 00:44 17.04.2021
202 Clear 11 1014 62 10000 1.54 40 00:23 17.04.2021
203 Clear 11 1014 62 10000 1.03 0 23:43 16.04.2021
204 Clear 11 1014 62 10000 1.03 320 23:20 16.04.2021
205 Clouds 12 1014 58 10000 1.03 0 22:42 16.04.2021
206 Clouds 12 1015 58 10000 0.51 0 22:20 16.04.2021
207 Clouds 12 1014 58 10000 1.54 220 21:49 16.04.2021
208 Clouds 13 1014 58 10000 4.12 240 21:28 16.04.2021
209 Clouds 13 1014 58 10000 4.12 240 20:47 16.04.2021
210 Clouds 13 1014 58 10000 4.12 240 20:24 16.04.2021
211 Clouds 14 1013 58 10000 5.66 240 19:50 16.04.2021
212 Clouds 14 1013 58 10000 5.66 240 19:22 16.04.2021
213 Clouds 15 1013 51 10000 4.12 230 18:28 16.04.2021
214 Clouds 15 1013 51 10000 4.12 230 17:54 16.04.2021
215 Clouds 16 1013 51 10000 4.12 230 17:20 16.04.2021
216 Clouds 16 1013 51 10000 4.63 230 16:58 16.04.2021
217 Clouds 17 1013 51 10000 4.63 230 16:40 16.04.2021
218 Clear 17 1014 48 10000 2.57 0 16:21 16.04.2021
219 Clear 17 1014 48 10000 2.57 0 15:40 16.04.2021
220 Clear 17 1014 51 10000 2.06 0 14:59 16.04.2021
221 Clear 17 1014 51 10000 2.06 0 14:40 16.04.2021
222 Clear 16 1015 55 10000 2.57 360 13:59 16.04.2021
223 Clear 16 1015 55 10000 2.57 360 13:37 16.04.2021
224 Clear 16 1015 55 10000 2.57 360 13:18 16.04.2021
225 Clear 15 1016 62 10000 1.03 0 12:44 16.04.2021
226 Clear 14 1016 62 10000 1.03 0 12:23 16.04.2021
227 Clouds 13 1015 50 10000 5.66 50 11:43 16.04.2021
228 Clear 13 1015 50 10000 4.63 60 11:23 16.04.2021
229 Clear 12 1015 54 10000 5.66 50 10:43 16.04.2021
230 Clear 11 1015 54 10000 5.14 50 10:23 16.04.2021
231 Clear 10 1017 100 10000 1.54 360 09:45 16.04.2021
232 Clear 10 1017 100 10000 1.54 360 09:45 16.04.2021
233 Clear 9 1017 100 10000 1.54 360 09:23 16.04.2021
234 Clear 8 1017 100 10000 1.03 330 08:45 16.04.2021
235 Clear 7 1017 100 10000 1.03 330 08:24 16.04.2021
236 Clear 7 1016 81 10000 3.09 30 07:47 16.04.2021
237 Clouds 6 1015 81 10000 2.57 60 07:27 16.04.2021
238 Clear 6 1015 87 10000 2.06 60 06:46 16.04.2021
239 Clear 6 1016 93 10000 1.03 0 05:32 16.04.2021
240 Clear 6 1016 87 10000 1.54 30 03:59 16.04.2021
241 Clear 8 1018 81 10000 1.54 30 00:47 16.04.2021
242 Clear 8 1018 76 10000 1.54 60 00:22 16.04.2021
243 Clear 9 1018 71 10000 2.06 130 23:58 15.04.2021
244 Clear 9 1018 71 10000 2.06 130 23:34 15.04.2021
245 Clear 9 1018 66 10000 3.09 120 22:51 15.04.2021
246 Clear 9 1018 76 10000 3.09 100 22:26 15.04.2021
247 Clear 9 1018 76 10000 3.09 100 22:26 15.04.2021
248 Clouds 10 1018 76 10000 3.09 80 21:48 15.04.2021
249 Clouds 10 1018 93 10000 2.57 90 21:29 15.04.2021
250 Clouds 10 1018 93 10000 2.57 90 20:58 15.04.2021
251 Clouds 10 1018 93 10000 2.57 90 20:38 15.04.2021
252 Clouds 10 1018 93 10000 2.57 90 20:18 15.04.2021
253 Clouds 11 1018 87 5000 2.57 60 19:41 15.04.2021
254 Clouds 11 1018 87 5000 2.57 60 19:21 15.04.2021
255 Rain 11 1018 87 3000 2.57 40 18:41 15.04.2021
256 Rain 11 1018 87 3000 2.57 40 18:41 15.04.2021
257 Rain 12 1018 76 10000 2.57 90 18:20 15.04.2021
258 Clouds 13 1018 76 10000 3.09 10 17:54 15.04.2021
259 Clouds 13 1018 76 10000 3.09 10 17:33 15.04.2021
260 Clouds 14 1018 71 8000 3.6 340 16:45 15.04.2021
261 Clouds 13 1018 71 8000 3.6 340 16:25 15.04.2021
262 Clouds 15 1018 51 10000 2.57 250 15:51 15.04.2021
263 Clouds 15 1018 51 10000 2.57 250 15:28 15.04.2021
264 Clouds 15 1018 51 10000 3.09 230 14:47 15.04.2021
265 Clouds 15 1018 51 10000 3.09 230 14:28 15.04.2021
266 Clouds 15 1019 55 10000 2.06 270 13:58 15.04.2021
267 Clouds 15 1019 55 10000 2.06 270 13:40 15.04.2021
268 Clouds 15 1019 51 10000 1.03 0 12:55 15.04.2021
269 Clouds 15 1019 51 10000 1.03 0 12:28 15.04.2021
270 Clouds 14 1019 58 10000 2.57 60 11:59 15.04.2021
271 Clouds 14 1019 58 10000 2.57 60 11:40 15.04.2021
272 Clouds 15 1019 58 10000 2.57 60 11:21 15.04.2021
273 Clear 14 1019 62 10000 1.54 70 10:46 15.04.2021
274 Clear 13 1019 62 10000 1.54 70 10:26 15.04.2021
275 Clouds 12 1020 76 10000 2.06 10 09:35 15.04.2021
276 Clouds 10 1020 81 10000 2.06 360 08:54 15.04.2021
277 Clouds 10 1020 81 10000 2.06 360 08:36 15.04.2021
278 Clouds 9 1019 71 10000 2.06 90 07:48 15.04.2021
279 Clouds 8 1019 76 10000 0.51 0 07:20 15.04.2021
280 Clouds 8 1019 66 10000 2.06 130 06:37 15.04.2021
281 Clouds 8 1019 66 10000 2.06 130 06:19 15.04.2021
282 Clear 9 1019 66 10000 2.06 150 04:23 15.04.2021
283 Clouds 10 1019 76 10000 1.54 120 00:23 15.04.2021
284 Clouds 10 1019 76 10000 1.54 140 23:36 14.04.2021
285 Clouds 10 1019 76 10000 1.03 0 22:59 14.04.2021
286 Clouds 11 1019 76 10000 1.03 0 22:41 14.04.2021
287 Clouds 10 1019 71 10000 1.03 0 22:21 14.04.2021
288 Clouds 11 1019 66 10000 2.06 180 21:42 14.04.2021
289 Clear 12 1019 54 10000 3.09 230 21:22 14.04.2021
290 Clear 12 1019 54 10000 3.09 230 20:54 14.04.2021
291 Clear 12 1019 54 10000 3.09 230 20:31 14.04.2021
292 Clear 12 1019 54 10000 3.09 230 20:31 14.04.2021
293 Clear 13 1018 54 10000 3.09 230 19:48 14.04.2021
294 Clear 13 1018 54 10000 3.09 230 19:19 14.04.2021
295 Clouds 13 1018 58 10000 3.6 240 18:55 14.04.2021
296 Clouds 14 1018 54 10000 4.12 240 18:21 14.04.2021
297 Clouds 15 1019 54 10000 4.63 240 17:58 14.04.2021
298 Clouds 15 1019 48 10000 3.09 170 17:25 14.04.2021
299 Clouds 15 1019 48 10000 3.09 170 16:53 14.04.2021
300 Clouds 15 1019 48 10000 3.09 170 16:25 14.04.2021
301 Clouds 15 1019 55 10000 5.14 220 15:42 14.04.2021
302 Clouds 15 1019 55 10000 5.14 220 15:22 14.04.2021
303 Clouds 15 1019 51 10000 1.54 170 14:48 14.04.2021
304 Clouds 15 1019 51 10000 1.54 170 14:24 14.04.2021
305 Clouds 14 1019 58 10000 5.14 210 13:54 14.04.2021
306 Clouds 15 1019 62 10000 3.09 230 13:23 14.04.2021
307 Clouds 15 1019 54 10000 1.03 0 12:38 14.04.2021
308 Clear 14 1020 62 10000 2.57 20 11:43 14.04.2021
309 Clear 14 1020 62 10000 2.57 20 11:25 14.04.2021
310 Clear 12 1020 71 10000 3.6 30 10:50 14.04.2021
311 Clear 11 1020 71 10000 3.6 30 10:31 14.04.2021
312 Clear 10 1019 81 10000 3.6 30 09:42 14.04.2021
313 Clear 8 1020 81 10000 4.12 10 09:21 14.04.2021
314 Clear 8 1019 93 10000 3.09 30 08:45 14.04.2021
315 Clear 7 1019 87 10000 2.57 30 08:21 14.04.2021
316 Clouds 5 1019 87 10000 3.6 40 07:20 14.04.2021
317 Fog 5 1019 93 10000 2.57 40 06:25 14.04.2021
318 Clear 6 1019 87 10000 3.09 60 04:45 14.04.2021
319 Clear 7 1019 93 10000 2.06 20 01:51 14.04.2021
320 Clear 8 1019 87 10000 1.54 50 00:40 14.04.2021
321 Clouds 9 1019 93 10000 3.09 20 23:55 13.04.2021
322 Clouds 9 1019 93 10000 2.06 20 23:30 13.04.2021
323 Clouds 10 1018 93 10000 1.54 50 22:43 13.04.2021
324 Clouds 10 1018 87 10000 1.54 80 22:19 13.04.2021
325 Clouds 10 1018 87 10000 1.03 0 21:46 13.04.2021
326 Clouds 11 1017 93 10000 0.51 0 21:28 13.04.2021
327 Clouds 11 1017 93 10000 0.51 0 20:43 13.04.2021
328 Clouds 11 1017 93 10000 0.51 0 20:21 13.04.2021
329 Clouds 12 1017 87 10000 0.51 0 19:48 13.04.2021
330 Clouds 12 1017 87 10000 0.51 0 19:24 13.04.2021
331 Clouds 13 1016 76 10000 3.6 100 18:44 13.04.2021
332 Clouds 13 1017 87 5000 1.54 310 18:23 13.04.2021
333 Clouds 13 1017 87 5000 1.54 310 17:37 13.04.2021
334 Clouds 13 1017 87 5000 1.54 310 17:18 13.04.2021
335 Clouds 13 1017 87 7000 1.03 0 16:44 13.04.2021
336 Clouds 14 1017 87 1000 2.06 310 16:21 13.04.2021
337 Clouds 15 1017 82 1500 2.06 330 15:50 13.04.2021
338 Clouds 15 1017 59 10000 5.14 300 15:30 13.04.2021
339 Clouds 16 1017 58 10000 5.66 280 14:47 13.04.2021
340 Clouds 16 1017 55 10000 3.6 290 14:20 13.04.2021
341 Clouds 16 1017 55 10000 3.6 290 13:45 13.04.2021
342 Clouds 15 1017 55 10000 3.09 310 13:24 13.04.2021
343 Clouds 15 1017 58 10000 4.12 270 12:56 13.04.2021
344 Clouds 15 1017 58 10000 4.12 270 12:28 13.04.2021
345 Clouds 14 1017 58 10000 5.66 280 11:56 13.04.2021
346 Clear 14 1016 71 10000 4.12 270 11:30 13.04.2021
347 Clear 14 1016 71 10000 4.12 270 10:53 13.04.2021
348 Clear 13 1016 71 10000 4.12 270 10:21 13.04.2021
349 Clear 13 1016 71 10000 4.12 270 10:21 13.04.2021
350 Clouds 12 1015 82 8000 2.06 230 09:57 13.04.2021
351 Clouds 12 1015 82 8000 2.06 230 09:36 13.04.2021
352 Clouds 12 1015 87 10000 1.54 180 08:56 13.04.2021
353 Clouds 11 1015 87 10000 1.54 180 08:38 13.04.2021
354 Clouds 11 1015 87 10000 1.54 180 08:20 13.04.2021
355 Clouds 10 1014 81 10000 4.12 180 07:36 13.04.2021
356 Clouds 10 1014 76 8000 4.63 170 06:31 13.04.2021
357 Clouds 9 1015 76 8000 3.09 170 04:49 13.04.2021
358 Clouds 10 1017 81 8000 2.57 190 02:25 13.04.2021
359 Clouds 10 1017 100 5000 2.57 190 00:26 13.04.2021
360 Clouds 11 1017 93 5000 3.6 240 23:48 12.04.2021
361 Rain 11 1017 100 6000 5.14 220 23:25 12.04.2021
362 Rain 12 1016 87 7000 5.66 180 22:39 12.04.2021
363 Rain 12 1013 100 3343 4.2 218 21:58 12.04.2021
364 Rain 12 1016 87 7000 6.69 180 21:38 12.04.2021
365 Rain 12 1016 87 7000 5.14 180 21:19 12.04.2021
366 Rain 12 1016 87 8000 5.66 180 20:38 12.04.2021
367 Rain 12 1016 87 8000 5.14 170 20:20 12.04.2021
368 Rain 12 1017 94 8000 4.12 180 19:43 12.04.2021
369 Rain 12 1017 94 4000 2.57 0 19:23 12.04.2021
370 Rain 12 1017 94 4000 2.57 0 18:59 12.04.2021
371 Rain 13 1017 94 4000 2.57 0 18:40 12.04.2021
372 Rain 13 1017 88 4000 5.66 170 18:22 12.04.2021
373 Rain 13 1017 88 4000 6.17 170 17:43 12.04.2021
374 Rain 13 1017 88 6000 6.17 170 17:22 12.04.2021
375 Clouds 13 1017 88 6000 6.17 170 16:46 12.04.2021
376 Clouds 13 1017 88 6000 6.17 170 16:46 12.04.2021
377 Drizzle 14 1018 88 4500 5.14 170 16:27 12.04.2021
378 Drizzle 14 1018 88 4500 5.14 170 15:48 12.04.2021
379 Drizzle 14 1018 88 4500 5.14 170 15:25 12.04.2021
380 Drizzle 15 1018 77 4500 4.12 170 14:50 12.04.2021
381 Drizzle 15 1018 77 4500 4.12 170 14:29 12.04.2021
382 Clouds 15 1019 72 10000 4.63 170 13:46 12.04.2021
383 Clouds 16 1019 72 10000 4.63 170 13:26 12.04.2021
384 Clouds 16 1019 67 10000 5.66 170 12:45 12.04.2021
385 Clouds 16 1019 67 10000 5.66 170 12:24 12.04.2021
386 Clouds 16 1019 67 10000 5.66 170 12:24 12.04.2021
387 Clouds 16 1019 77 9000 4.12 170 11:56 12.04.2021
388 Clouds 15 1019 77 9000 4.12 170 11:18 12.04.2021
389 Clouds 13 1019 100 10000 1.03 0 10:41 12.04.2021
390 Clouds 13 1019 100 10000 1.03 0 10:22 12.04.2021
391 Drizzle 13 1019 100 8000 0.51 0 09:40 12.04.2021
392 Drizzle 12 1019 100 8000 0.51 0 09:18 12.04.2021
393 Rain 12 1019 93 8000 1.03 280 08:35 12.04.2021
394 Clouds 11 1019 76 10000 1.54 80 07:38 12.04.2021
395 Clouds 11 1019 82 10000 2.06 140 07:19 12.04.2021
396 Clear 11 1019 87 10000 1.54 150 05:52 12.04.2021
397 Clear 12 1020 87 10000 1.54 200 04:28 12.04.2021
398 Clear 13 1021 76 10000 2.57 90 00:52 12.04.2021
399 Clouds 13 1021 76 10000 1.54 40 00:24 12.04.2021
400 Clouds 13 1021 76 10000 2.06 100 23:46 11.04.2021
401 Clouds 13 1021 76 10000 2.06 100 23:46 11.04.2021
402 Clouds 14 1021 76 10000 1.03 0 23:27 11.04.2021
403 Clouds 14 1021 72 10000 0.51 0 22:46 11.04.2021
404 Clouds 14 1021 67 10000 2.06 210 22:23 11.04.2021
405 Rain 14 1021 63 10000 2.57 190 21:46 11.04.2021
406 Clouds 14 1020 72 10000 2.06 190 21:27 11.04.2021
407 Clouds 15 1020 72 10000 2.06 190 20:55 11.04.2021
408 Clouds 15 1020 72 10000 2.06 190 20:30 11.04.2021
409 Clouds 15 1020 63 10000 3.09 180 19:54 11.04.2021
410 Clouds 15 1020 67 10000 3.09 170 19:36 11.04.2021
411 Clouds 16 1020 67 10000 3.09 170 19:18 11.04.2021
412 Clouds 16 1020 72 10000 4.12 170 18:42 11.04.2021
413 Clouds 16 1020 72 10000 4.12 170 18:24 11.04.2021
414 Clouds 16 1020 72 8000 4.12 180 17:46 11.04.2021
415 Clouds 16 1020 72 8000 4.12 180 17:27 11.04.2021
416 Clouds 16 1020 77 8000 4.63 160 16:51 11.04.2021
417 Clouds 15 1020 77 8000 4.63 160 16:23 11.04.2021
418 Clouds 15 1020 77 8000 5.14 180 15:54 11.04.2021
419 Clouds 15 1020 77 8000 5.14 180 15:27 11.04.2021
420 Clouds 15 1020 77 8000 5.14 180 15:27 11.04.2021
421 Clouds 15 1020 67 10000 4.63 170 14:59 11.04.2021
422 Clouds 16 1020 67 10000 4.63 170 14:41 11.04.2021
423 Clouds 16 1020 67 10000 5.14 170 13:53 11.04.2021
424 Clouds 16 1020 67 10000 5.14 170 13:31 11.04.2021
425 Clouds 15 1020 72 10000 2.06 140 12:54 11.04.2021
426 Clouds 15 1020 72 10000 2.06 140 12:54 11.04.2021
427 Clouds 15 1020 72 10000 2.06 140 12:22 11.04.2021
428 Clouds 14 1020 77 10000 2.57 130 11:52 11.04.2021
429 Clouds 14 1020 77 10000 2.57 130 11:27 11.04.2021
430 Clouds 13 1020 76 10000 2.57 130 10:50 11.04.2021
431 Rain 13 1020 76 10000 2.57 130 10:31 11.04.2021
432 Drizzle 12 1020 82 10000 2.57 130 09:58 11.04.2021
433 Drizzle 12 1020 82 10000 2.57 130 09:35 11.04.2021
434 Clouds 12 1019 62 10000 6.17 160 08:59 11.04.2021
435 Rain 12 1019 50 10000 6.17 170 08:26 11.04.2021
436 Rain 12 1019 47 10000 4.63 180 07:24 11.04.2021
437 Rain 12 1019 58 10000 4.12 160 06:54 11.04.2021
438 Rain 12 1019 66 10000 3.6 180 05:43 11.04.2021
439 Clear 12 1019 66 10000 3.6 180 05:21 11.04.2021
440 Clear 11 1020 71 10000 4.63 180 04:34 11.04.2021
441 Clear 11 1021 71 10000 3.6 150 01:56 11.04.2021
442 Clear 11 1022 76 10000 2.06 210 00:39 11.04.2021
443 Clouds 11 1022 82 10000 1.54 220 23:48 10.04.2021
444 Clouds 12 1022 71 10000 1.54 190 23:26 10.04.2021
445 Clouds 12 1022 71 10000 1.54 180 22:43 10.04.2021
446 Clear 12 1022 71 10000 3.6 160 22:21 10.04.2021
447 Clear 12 1022 71 10000 3.09 170 21:41 10.04.2021
448 Clear 12 1022 76 10000 1.03 0 21:21 10.04.2021
449 Clear 13 1022 76 10000 1.03 0 20:46 10.04.2021
450 Clear 13 1022 76 10000 1.03 0 20:23 10.04.2021
451 Clouds 13 1022 72 10000 2.57 210 19:45 10.04.2021
452 Rain 14 1022 72 10000 2.57 210 19:25 10.04.2021
453 Clouds 14 1022 58 10000 3.09 190 18:51 10.04.2021
454 Rain 14 1022 58 10000 3.09 190 18:29 10.04.2021
455 Clouds 15 1023 67 10000 4.63 190 17:40 10.04.2021
456 Clouds 14 1023 67 10000 4.63 190 17:20 10.04.2021
457 Clouds 14 1023 58 10000 4.12 180 16:30 10.04.2021
458 Clouds 15 1024 72 10000 4.12 200 15:55 10.04.2021
459 Clouds 15 1024 72 10000 4.12 200 15:29 10.04.2021
460 Clouds 15 1024 63 10000 4.12 180 14:45 10.04.2021
461 Clouds 15 1024 63 10000 4.12 180 14:19 10.04.2021
462 Clouds 15 1024 58 10000 5.14 180 13:43 10.04.2021
463 Rain 15 1025 58 10000 3.6 170 12:54 10.04.2021
464 Rain 15 1025 58 10000 3.6 170 12:29 10.04.2021
465 Clouds 15 1025 51 10000 2.57 140 11:49 10.04.2021
466 Clouds 15 1025 51 10000 2.57 140 11:26 10.04.2021
467 Clouds 15 1025 51 10000 2.57 140 11:26 10.04.2021
468 Clouds 15 1025 54 10000 6.17 160 10:52 10.04.2021
469 Clouds 14 1024 51 10000 4.63 170 10:31 10.04.2021
470 Clouds 13 1024 51 10000 5.66 170 09:50 10.04.2021
471 Clouds 12 1024 71 10000 0.51 0 09:20 10.04.2021
472 Clouds 12 1024 71 10000 0.51 0 09:20 10.04.2021
473 Clouds 11 1025 81 10000 0.51 0 08:48 10.04.2021
474 Clouds 10 1025 81 10000 0.51 0 08:29 10.04.2021
475 Clouds 10 1025 81 10000 0.51 0 08:29 10.04.2021
476 Clouds 8 1024 71 10000 0.51 0 07:38 10.04.2021
477 Clouds 8 1024 66 10000 1.03 340 07:19 10.04.2021
478 Clear 8 1024 66 10000 1.03 270 06:24 10.04.2021
479 Clear 8 1025 62 10000 2.06 110 04:25 10.04.2021
480 Clear 7 1026 61 10000 2.57 130 02:51 10.04.2021
481 Clear 7 1026 61 10000 2.57 130 02:33 10.04.2021
482 Clear 8 1026 66 10000 1.54 150 00:44 10.04.2021
483 Clear 8 1026 57 10000 3.09 120 00:25 10.04.2021
484 Clear 8 1026 62 10000 3.6 150 23:41 09.04.2021
485 Clear 9 1027 66 10000 2.57 150 22:59 09.04.2021
486 Clear 9 1027 66 10000 2.57 150 22:38 09.04.2021
487 Clear 10 1027 66 10000 2.57 150 21:56 09.04.2021
488 Clear 10 1027 66 10000 2.57 150 21:38 09.04.2021
489 Clear 11 1027 58 10000 3.6 210 21:18 09.04.2021
490 Clear 11 1027 58 10000 3.6 210 20:42 09.04.2021
491 Clear 12 1027 58 10000 3.6 210 20:22 09.04.2021
492 Clear 12 1026 54 10000 4.63 230 19:44 09.04.2021
493 Clear 13 1026 50 10000 4.63 220 19:23 09.04.2021
494 Clear 14 1027 41 10000 6.17 230 18:54 09.04.2021
495 Clear 14 1027 41 10000 6.17 230 18:32 09.04.2021
496 Clear 15 1027 27 10000 4.12 210 17:54 09.04.2021
497 Clear 15 1027 27 10000 4.12 210 17:36 09.04.2021
498 Clear 15 1027 25 10000 4.12 230 16:56 09.04.2021
499 Clear 16 1027 25 10000 4.12 230 16:34 09.04.2021
500 Clear 16 1028 34 10000 4.63 210 15:51 09.04.2021
501 Clear 16 1028 34 10000 4.63 210 15:33 09.04.2021
502 Clouds 16 1028 36 10000 4.63 220 14:57 09.04.2021
503 Clouds 15 1028 36 10000 4.63 220 14:33 09.04.2021
504 Clear 16 1029 27 10000 3.6 210 13:52 09.04.2021
505 Clear 16 1029 27 10000 3.6 210 13:24 09.04.2021
506 Clear 15 1029 38 10000 1.03 0 12:51 09.04.2021
507 Clear 15 1029 38 10000 1.03 0 12:32 09.04.2021
508 Clear 15 1029 47 10000 1.03 0 11:46 09.04.2021
509 Clear 15 1029 47 10000 1.03 0 11:46 09.04.2021
510 Clear 14 1029 47 10000 1.03 0 11:22 09.04.2021
511 Clear 13 1029 40 10000 2.57 30 10:46 09.04.2021
512 Clear 11 1029 57 10000 1.54 0 10:20 09.04.2021
513 Clear 9 1029 46 10000 1.54 20 09:39 09.04.2021
514 Clear 8 1029 81 10000 1.54 340 09:20 09.04.2021
515 Clear 6 1028 60 10000 2.06 30 08:51 09.04.2021
516 Clear 3 1028 69 10000 1.03 50 07:36 09.04.2021
517 Clear 3 1027 65 10000 1.03 60 06:34 09.04.2021
518 Clear 3 1027 65 10000 1.54 50 05:53 09.04.2021
519 Clear 4 1028 52 10000 1.54 110 03:52 09.04.2021
520 Clear 5 1028 45 10000 1.03 140 01:32 09.04.2021
521 Clear 6 1028 45 10000 1.03 0 00:37 09.04.2021
522 Clear 6 1028 42 10000 2.06 150 00:18 09.04.2021
523 Clear 6 1028 42 10000 2.06 130 23:18 08.04.2021
524 Clear 7 1028 39 10000 1.54 140 22:42 08.04.2021
525 Clear 8 1028 39 10000 2.06 160 22:21 08.04.2021
526 Clear 9 1028 34 10000 2.06 160 21:55 08.04.2021
527 Clear 9 1028 34 10000 2.06 160 21:36 08.04.2021
528 Clear 9 1027 30 10000 3.09 240 21:18 08.04.2021
529 Clear 10 1027 30 10000 3.09 240 20:47 08.04.2021
530 Clear 11 1027 30 10000 3.09 240 20:25 08.04.2021
531 Clear 12 1026 24 10000 4.63 240 19:42 08.04.2021
532 Clear 12 1026 24 10000 4.63 240 19:19 08.04.2021
533 Clear 13 1026 23 10000 4.63 240 18:45 08.04.2021
534 Clear 13 1026 23 10000 4.63 240 18:20 08.04.2021
535 Clear 14 1026 24 10000 4.63 0 17:49 08.04.2021
536 Clear 14 1026 24 10000 4.63 0 17:24 08.04.2021
537 Clear 14 1026 23 10000 6.17 230 16:49 08.04.2021
538 Clear 14 1026 23 10000 6.17 230 16:28 08.04.2021
539 Clear 14 1026 23 10000 5.14 260 15:47 08.04.2021
540 Clear 14 1026 23 10000 5.14 260 15:28 08.04.2021
541 Clear 14 1026 14 10000 2.06 110 14:45 08.04.2021
542 Clear 14 1026 14 10000 2.06 110 14:25 08.04.2021
543 Clear 14 1026 15 10000 2.57 340 13:56 08.04.2021
544 Clear 14 1026 15 10000 2.57 340 13:38 08.04.2021
545 Clear 14 1026 15 10000 2.57 340 13:19 08.04.2021
546 Clear 13 1027 18 10000 2.57 10 12:38 08.04.2021
547 Clear 13 1027 18 10000 2.57 10 12:18 08.04.2021
548 Clear 12 1027 28 10000 3.09 10 11:42 08.04.2021
549 Clear 10 1026 31 10000 3.09 70 10:58 08.04.2021
550 Clear 8 1026 60 10000 1.03 0 10:28 08.04.2021
551 Clear 7 1026 60 10000 1.03 0 09:59 08.04.2021
552 Clear 6 1026 60 10000 1.03 0 09:40 08.04.2021
553 Clear 4 1025 52 10000 3.09 40 08:45 08.04.2021
554 Clear 3 1025 60 10000 2.06 30 08:25 08.04.2021
555 Clear 2 1025 55 10000 2.06 70 07:53 08.04.2021
556 Clear 1 1025 55 10000 2.57 80 07:27 08.04.2021
557 Clear 2 1022 55 10000 3.09 30 03:31 08.04.2021
558 Clear 5 1021 48 10000 2.57 360 00:44 08.04.2021
559 Clear 6 1020 52 10000 2.06 10 23:57 07.04.2021
560 Clear 6 1020 52 10000 2.06 10 23:38 07.04.2021
561 Clear 6 1019 48 10000 2.57 50 23:19 07.04.2021
562 Clear 7 1019 49 10000 4.12 60 22:43 07.04.2021
563 Clear 7 1018 52 10000 5.66 60 22:25 07.04.2021
564 Clouds 8 1017 57 10000 5.14 70 21:44 07.04.2021
565 Clear 8 1015 53 10000 5.14 30 21:22 07.04.2021
566 Clear 9 1015 53 10000 5.14 30 20:43 07.04.2021
567 Clear 9 1015 53 10000 5.14 30 20:21 07.04.2021
568 Clouds 11 1014 46 10000 5.66 40 19:43 07.04.2021
569 Clouds 11 1014 46 10000 5.66 40 19:24 07.04.2021
570 Clear 12 1012 30 10000 7.2 360 18:47 07.04.2021
571 Clear 12 1012 30 10000 7.2 360 18:19 07.04.2021
572 Clear 13 1011 32 10000 5.14 340 17:54 07.04.2021
573 Clear 13 1011 32 10000 5.14 340 17:36 07.04.2021
574 Clear 13 1011 32 10000 6.17 350 16:49 07.04.2021
575 Clear 13 1011 32 10000 6.17 350 16:22 07.04.2021
576 Clouds 13 1011 30 10000 4.63 320 15:57 07.04.2021
577 Clouds 13 1011 30 10000 4.63 320 15:38 07.04.2021
578 Clear 13 1010 30 10000 4.63 10 14:56 07.04.2021
579 Clear 14 1010 30 10000 4.63 10 14:29 07.04.2021
580 Clear 14 1010 35 10000 5.14 10 13:49 07.04.2021
581 Clear 14 1010 35 10000 5.14 10 13:23 07.04.2021
582 Clear 14 1010 35 10000 5.14 10 13:23 07.04.2021
583 Clear 13 1010 43 10000 4.63 360 12:50 07.04.2021
584 Clear 13 1010 43 10000 4.63 360 12:24 07.04.2021
585 Clear 12 1010 46 10000 3.6 10 11:48 07.04.2021
586 Clear 12 1010 46 10000 3.6 10 11:25 07.04.2021
587 Clear 11 1009 46 10000 4.12 360 10:52 07.04.2021
588 Clear 9 1009 57 10000 3.09 10 09:57 07.04.2021
589 Clear 9 1009 57 10000 3.09 10 09:38 07.04.2021
590 Clear 8 1009 57 10000 3.09 10 09:19 07.04.2021
591 Clear 6 1008 61 10000 3.09 20 08:33 07.04.2021
592 Clear 6 1008 61 10000 3.09 20 08:33 07.04.2021
593 Clear 5 1007 70 10000 1.03 90 07:58 07.04.2021
594 Clear 5 1007 70 10000 2.06 50 07:30 07.04.2021
595 Clear 4 1006 70 10000 3.09 50 06:59 07.04.2021
596 Clear 5 1006 70 10000 2.57 50 06:21 07.04.2021
597 Clear 6 1004 70 10000 3.09 30 03:54 07.04.2021
598 Clouds 8 1003 70 10000 5.14 20 23:52 06.04.2021
599 Clouds 8 1003 70 10000 5.14 20 23:52 06.04.2021
600 Clouds 9 1003 66 10000 4.12 40 23:23 06.04.2021
601 Clouds 9 1002 66 10000 5.14 20 22:59 06.04.2021
602 Clouds 10 1002 66 10000 4.63 20 22:22 06.04.2021
603 Clouds 11 1002 76 10000 3.09 200 21:59 06.04.2021
604 Clouds 11 1002 76 10000 3.09 200 21:39 06.04.2021
605 Clear 12 1001 71 10000 2.06 270 21:21 06.04.2021
606 Clear 12 1001 71 10000 2.06 270 21:21 06.04.2021
607 Clear 13 1001 71 10000 2.06 270 20:51 06.04.2021
608 Clear 13 1001 71 10000 2.06 270 20:21 06.04.2021
609 Clouds 13 1000 72 8000 7.2 250 19:50 06.04.2021
610 Clouds 14 1000 72 8000 7.2 250 19:31 06.04.2021
611 Clear 15 1000 63 10000 8.75 240 18:48 06.04.2021
612 Clear 15 1000 63 10000 8.75 240 18:24 06.04.2021
613 Clear 16 999 55 10000 7.2 250 17:52 06.04.2021
614 Clear 17 999 55 10000 7.2 250 17:30 06.04.2021
615 Clouds 17 999 63 10000 5.66 240 16:56 06.04.2021
616 Clouds 17 999 63 10000 5.66 240 16:56 06.04.2021
617 Clouds 17 999 63 10000 5.66 240 16:38 06.04.2021
618 Clouds 17 1000 63 10000 5.14 220 15:41 06.04.2021
619 Clouds 17 1000 63 10000 5.14 220 15:20 06.04.2021
620 Clouds 17 1000 63 8000 6.69 220 14:39 06.04.2021
621 Clouds 17 1000 63 8000 6.69 220 14:18 06.04.2021
622 Clouds 17 1001 67 8000 6.17 200 13:43 06.04.2021
623 Clouds 16 1001 67 8000 6.17 200 13:23 06.04.2021
624 Clouds 16 1002 72 8000 5.14 180 12:42 06.04.2021
625 Clouds 16 1002 72 8000 5.14 180 12:22 06.04.2021
626 Clouds 15 1003 77 8000 4.63 170 11:51 06.04.2021
627 Clouds 14 1003 77 8000 4.63 170 11:21 06.04.2021
628 Clouds 13 1003 82 8000 5.14 170 10:47 06.04.2021
629 Clouds 13 1003 88 5000 5.14 170 10:28 06.04.2021
630 Clouds 13 1004 82 10000 3.09 170 09:49 06.04.2021
631 Clouds 12 1004 82 10000 3.09 170 09:30 06.04.2021
632 Clouds 12 1004 93 10000 1.03 0 08:45 06.04.2021
633 Clouds 12 1004 76 10000 4.63 170 08:19 06.04.2021
634 Clouds 11 1005 71 10000 4.63 170 06:55 06.04.2021
635 Clouds 11 1006 71 10000 3.6 170 05:41 06.04.2021
636 Clear 9 1009 81 10000 3.09 160 02:57 06.04.2021
637 Clear 8 1010 81 10000 1.03 0 00:45 06.04.2021
638 Clear 8 1010 76 10000 2.06 170 00:21 06.04.2021
639 Clear 9 1010 76 10000 1.54 160 23:43 05.04.2021
640 Clear 9 1011 76 10000 1.54 170 23:20 05.04.2021
641 Clear 9 1011 76 10000 1.03 0 22:48 05.04.2021
642 Clear 10 1011 76 10000 1.54 200 22:26 05.04.2021
643 Clear 11 1011 76 10000 2.06 220 21:44 05.04.2021
644 Clear 12 1011 62 10000 3.6 230 21:22 05.04.2021
645 Clear 12 1011 62 10000 3.6 230 20:45 05.04.2021
646 Clear 12 1011 62 10000 3.6 230 20:26 05.04.2021
647 Clear 13 1011 51 10000 3.6 230 19:43 05.04.2021
648 Clear 14 1011 51 10000 3.6 230 19:23 05.04.2021
649 Clouds 14 1011 55 10000 4.63 240 18:54 05.04.2021
650 Clouds 15 1011 55 10000 4.63 240 18:36 05.04.2021
651 Clouds 15 1011 55 10000 4.63 240 18:18 05.04.2021
652 Clouds 15 1011 55 10000 3.6 220 17:42 05.04.2021
653 Clouds 16 1011 55 10000 3.6 220 17:19 05.04.2021
654 Clouds 16 1012 51 10000 3.09 220 16:43 05.04.2021
655 Clouds 16 1012 51 10000 3.09 220 16:20 05.04.2021
656 Clouds 16 1013 48 10000 3.09 200 15:52 05.04.2021
657 Clouds 16 1013 48 10000 3.09 200 15:52 05.04.2021
658 Clouds 16 1013 48 10000 3.09 200 15:29 05.04.2021
659 Clouds 16 1013 47 10000 3.6 230 14:50 05.04.2021
660 Clouds 16 1014 51 10000 2.06 240 14:28 05.04.2021
661 Clouds 16 1014 51 10000 2.06 240 13:31 05.04.2021
662 Clouds 16 1014 51 10000 2.06 280 12:50 05.04.2021
663 Clouds 15 1014 51 10000 2.06 280 12:27 05.04.2021
664 Clouds 15 1015 51 10000 1.54 0 11:56 05.04.2021
665 Clouds 15 1015 51 10000 1.54 0 11:34 05.04.2021
666 Clear 13 1015 58 10000 2.06 10 10:59 05.04.2021
667 Clear 14 1015 58 10000 2.06 10 10:41 05.04.2021
668 Clear 13 1015 58 10000 2.06 10 10:22 05.04.2021
669 Clear 12 1015 62 10000 2.06 20 09:47 05.04.2021
670 Clear 11 1015 62 10000 2.06 20 09:22 05.04.2021
671 Clear 10 1015 71 10000 1.54 360 08:42 05.04.2021
672 Clear 9 1015 71 10000 1.54 360 08:24 05.04.2021
673 Clouds 9 1014 71 10000 0.51 0 07:35 05.04.2021
674 Clear 9 1014 66 10000 1.03 0 04:25 05.04.2021
675 Clouds 12 1014 62 10000 1.54 150 01:35 05.04.2021
676 Clouds 12 1014 62 10000 1.54 150 01:35 05.04.2021
677 Clear 12 1014 62 10000 0.51 0 00:36 05.04.2021
678 Clouds 12 1014 71 10000 3.09 160 23:47 04.04.2021
679 Clouds 12 1014 71 10000 3.09 160 23:23 04.04.2021
680 Clouds 12 1013 76 10000 3.09 160 22:50 04.04.2021
681 Clouds 12 1013 71 10000 3.6 160 22:29 04.04.2021
682 Clear 14 1012 36 10000 4.12 10 21:27 04.04.2021
683 Clear 14 1012 36 10000 4.12 10 20:56 04.04.2021
684 Clear 14 1012 36 10000 4.12 10 20:29 04.04.2021
685 Clear 15 1011 31 10000 6.17 340 19:54 04.04.2021
686 Clear 16 1011 31 10000 6.17 340 19:36 04.04.2021
687 Clear 16 1011 31 10000 6.17 340 19:18 04.04.2021
688 Clear 17 1011 32 10000 2.57 360 18:41 04.04.2021
689 Clear 17 1011 32 10000 2.57 360 18:20 04.04.2021
690 Clear 19 1011 26 10000 2.57 0 17:41 04.04.2021
691 Clear 19 1011 26 10000 2.57 0 17:41 04.04.2021
692 Clear 19 1011 26 10000 2.57 0 17:22 04.04.2021
693 Clear 19 1011 28 10000 3.6 340 16:43 04.04.2021
694 Clear 20 1011 28 10000 3.6 340 16:18 04.04.2021
695 Clear 19 1011 26 10000 5.14 10 15:34 04.04.2021
696 Clear 18 1012 34 10000 4.63 20 14:46 04.04.2021
697 Clear 20 1012 34 10000 4.63 20 14:27 04.04.2021
698 Clear 19 1012 30 10000 5.14 10 13:47 04.04.2021
699 Clear 18 1012 30 10000 5.14 10 13:23 04.04.2021
700 Clear 18 1012 32 10000 4.63 30 12:41 04.04.2021
701 Clear 17 1012 32 10000 4.63 30 12:23 04.04.2021
702 Clear 17 1012 36 10000 6.17 40 11:42 04.04.2021
703 Clear 16 1012 36 10000 6.17 40 11:23 04.04.2021
704 Clear 16 1012 44 10000 5.66 30 10:43 04.04.2021
705 Clear 14 1012 50 10000 4.63 30 09:54 04.04.2021
706 Clear 13 1012 50 10000 4.63 30 09:26 04.04.2021
707 Clear 12 1011 58 10000 3.6 30 08:53 04.04.2021
708 Clear 12 1011 58 10000 3.6 30 08:35 04.04.2021
709 Clear 11 1011 76 10000 4.12 50 07:55 04.04.2021
710 Clear 11 1010 82 10000 3.09 70 06:38 04.04.2021
711 Clouds 12 1010 82 10000 3.09 60 05:33 04.04.2021
712 Clouds 13 1011 82 10000 2.06 60 01:29 04.04.2021
713 Clouds 14 1011 94 10000 2.06 360 00:22 04.04.2021
714 Clouds 14 1010 88 8000 2.57 130 23:49 03.04.2021
715 Clouds 14 1010 94 10000 2.06 150 23:31 03.04.2021
716 Clouds 15 1010 88 7000 1.03 0 22:52 03.04.2021
717 Clouds 15 1010 88 10000 2.57 20 22:22 03.04.2021
718 Clouds 15 1011 91 10000 0.43 273 21:54 03.04.2021
719 Clouds 15 1009 72 10000 1.54 220 21:25 03.04.2021
720 Clouds 16 1009 72 10000 1.54 220 20:54 03.04.2021
721 Clouds 16 1009 72 10000 1.54 220 20:28 03.04.2021
722 Clouds 16 1009 67 10000 2.57 200 19:51 03.04.2021
723 Clouds 16 1009 67 10000 2.57 200 19:29 03.04.2021
724 Clouds 17 1008 67 10000 2.57 210 18:54 03.04.2021
725 Clouds 17 1008 67 10000 2.57 210 18:34 03.04.2021
726 Clouds 17 1009 68 10000 2.57 170 17:56 03.04.2021
727 Clouds 18 1009 68 10000 2.57 170 17:27 03.04.2021
728 Clouds 17 1009 67 10000 4.12 220 16:55 03.04.2021
729 Clouds 17 1009 67 10000 4.12 220 16:28 03.04.2021
730 Clouds 17 1010 55 10000 4.63 220 15:52 03.04.2021
731 Clouds 18 1010 55 10000 4.63 220 15:32 03.04.2021
732 Clouds 18 1010 48 10000 4.63 200 14:52 03.04.2021
733 Clouds 18 1010 48 10000 4.63 200 14:27 03.04.2021
734 Clouds 19 1010 49 10000 3.6 200 13:58 03.04.2021
735 Clouds 19 1010 49 10000 3.6 200 13:35 03.04.2021
736 Clear 19 1010 55 10000 2.06 80 12:59 03.04.2021
737 Clear 20 1010 55 10000 2.06 80 12:35 03.04.2021
738 Clear 19 1010 39 10000 3.09 170 11:54 03.04.2021
739 Clear 19 1010 72 10000 1.03 0 11:30 03.04.2021
740 Clear 17 1010 51 10000 4.12 170 10:49 03.04.2021
741 Clear 16 1011 72 10000 4.63 190 10:27 03.04.2021
742 Clear 14 1011 100 6000 1.03 0 09:47 03.04.2021
743 Clear 13 1011 100 6000 1.03 0 09:25 03.04.2021
744 Clear 11 1011 71 10000 1.03 0 08:38 03.04.2021
745 Clear 11 1011 81 8000 2.06 240 07:48 03.04.2021
746 Clear 10 1011 76 10000 1.03 80 07:27 03.04.2021
747 Clear 10 1012 71 10000 1.03 230 04:26 03.04.2021
748 Clear 11 1013 82 10000 1.54 60 02:57 03.04.2021
749 Clear 11 1014 76 10000 2.06 40 02:34 03.04.2021
750 Clear 13 1014 62 10000 1.54 160 00:51 03.04.2021
751 Clear 13 1014 67 10000 1.54 100 00:18 03.04.2021
752 Clear 13 1014 71 10000 1.03 80 23:44 02.04.2021
753 Clear 14 1015 76 10000 1.54 90 23:19 02.04.2021
754 Clear 14 1015 88 10000 2.06 200 22:45 02.04.2021
755 Clear 14 1015 88 10000 2.57 200 22:25 02.04.2021
756 Clear 14 1015 88 10000 3.09 210 21:42 02.04.2021
757 Clear 15 1014 72 10000 2.06 220 21:19 02.04.2021
758 Clear 15 1014 72 10000 2.06 220 20:45 02.04.2021
759 Clear 15 1014 72 10000 2.06 220 20:25 02.04.2021
760 Clear 17 1014 63 10000 3.6 230 19:42 02.04.2021
761 Clear 17 1014 63 10000 3.6 230 19:23 02.04.2021
762 Clear 19 1014 56 10000 3.6 220 18:50 02.04.2021
763 Clear 19 1014 56 10000 3.6 220 18:30 02.04.2021
764 Clear 20 1014 56 10000 4.12 220 17:57 02.04.2021
765 Clear 21 1014 56 10000 4.12 220 17:34 02.04.2021
766 Clear 21 1015 60 10000 3.6 220 16:43 02.04.2021
767 Clear 20 1015 64 10000 3.6 230 15:50 02.04.2021
768 Clear 21 1015 64 10000 3.6 230 15:28 02.04.2021
769 Clear 21 1016 56 10000 2.57 230 14:41 02.04.2021
770 Clear 21 1016 56 10000 2.57 230 14:21 02.04.2021
771 Clear 21 1017 64 10000 1.54 0 13:39 02.04.2021
772 Clear 20 1017 64 10000 1.54 0 13:19 02.04.2021
773 Clouds 20 1017 72 8000 1.03 0 12:39 02.04.2021
774 Clouds 19 1017 72 8000 1.03 0 12:19 02.04.2021
775 Clouds 18 1018 72 8000 1.03 0 11:48 02.04.2021
776 Clouds 17 1018 72 8000 1.03 0 11:19 02.04.2021
777 Clouds 16 1018 72 8000 1.03 0 10:44 02.04.2021
778 Mist 16 1018 82 2800 2.57 120 10:24 02.04.2021
779 Mist 14 1018 94 1800 0.51 0 09:52 02.04.2021
780 Mist 13 1018 94 1800 0.51 0 09:26 02.04.2021
781 Mist 13 1018 94 1800 1.03 360 08:46 02.04.2021
782 Mist 12 1018 94 1800 1.03 360 08:27 02.04.2021
783 Fog 12 1017 100 150 1.54 70 07:22 02.04.2021
784 Fog 12 1017 93 100 2.57 80 06:34 02.04.2021
785 Clear 11 1018 93 10000 0.51 0 03:46 02.04.2021
786 Clear 12 1018 93 10000 1.03 170 01:49 02.04.2021
787 Mist 13 1018 100 5000 1.54 160 00:44 02.04.2021
788 Fog 13 1019 94 100 1.03 0 23:48 01.04.2021
789 Fog 14 1018 94 100 1.03 240 23:27 01.04.2021
790 Clouds 14 1018 94 10000 1.54 250 22:50 01.04.2021
791 Clear 14 1018 94 10000 2.06 220 22:18 01.04.2021
792 Clear 15 1018 94 10000 2.06 230 21:44 01.04.2021
793 Clear 16 1018 77 10000 2.57 230 21:23 01.04.2021
794 Clear 16 1018 77 10000 2.57 230 20:41 01.04.2021
795 Clear 16 1018 77 10000 2.57 230 20:41 01.04.2021
796 Clear 16 1018 77 10000 2.57 230 20:22 01.04.2021
797 Clear 17 1017 68 10000 3.09 240 19:43 01.04.2021
798 Clear 17 1017 68 10000 3.09 240 19:24 01.04.2021
799 Clear 19 1017 63 10000 3.6 230 18:45 01.04.2021
800 Clear 19 1017 63 10000 3.6 230 18:18 01.04.2021
801 Clear 20 1018 60 10000 4.63 230 17:45 01.04.2021
802 Clear 20 1018 60 10000 4.63 230 17:24 01.04.2021
803 Clear 21 1018 52 10000 4.12 210 16:50 01.04.2021
804 Clear 21 1018 52 10000 4.12 210 16:18 01.04.2021
805 Clear 21 1018 52 10000 4.12 210 16:18 01.04.2021
806 Clear 20 1019 56 10000 4.12 220 15:40 01.04.2021
807 Clear 21 1019 56 10000 4.12 220 15:19 01.04.2021
808 Clear 21 1019 53 10000 2.57 230 14:40 01.04.2021
809 Clear 21 1019 53 10000 2.57 230 14:40 01.04.2021
810 Clear 21 1019 53 10000 2.57 230 14:40 01.04.2021
811 Clear 21 1019 53 10000 2.57 230 14:40 01.04.2021
812 Clear 21 1019 53 10000 2.57 230 14:21 01.04.2021
813 Clear 21 1020 46 10000 2.06 0 13:50 01.04.2021
814 Clear 21 1020 46 10000 2.06 0 13:30 01.04.2021
815 Clear 21 1020 52 10000 1.03 0 12:47 01.04.2021
816 Clear 21 1020 52 10000 1.03 0 12:29 01.04.2021
817 Clear 19 1021 67 10000 1.03 0 11:45 01.04.2021
818 Clear 19 1021 67 10000 1.03 0 11:24 01.04.2021
819 Clear 17 1021 82 10000 2.06 350 10:53 01.04.2021
820 Clear 17 1021 82 10000 2.06 350 10:53 01.04.2021
821 Clear 16 1021 82 10000 2.06 350 10:33 01.04.2021
822 Clear 13 1021 93 10000 1.03 0 09:53 01.04.2021
823 Fog 12 1021 93 2000 1.54 60 09:24 01.04.2021
824 Fog 11 1021 93 2000 1.54 60 08:33 01.04.2021
825 Mist 11 1020 100 2000 1.03 20 07:52 01.04.2021
826 Mist 11 1020 100 2000 1.03 20 07:18 01.04.2021
827 Mist 11 1020 100 1500 1.54 70 06:31 01.04.2021
828 Fog 11 1021 87 50 1.03 0 03:28 01.04.2021
829 Clear 13 1022 77 10000 1.54 170 00:38 01.04.2021
830 Clear 13 1022 88 10000 2.06 160 23:44 31.03.2021
831 Clear 14 1022 88 10000 1.03 210 22:59 31.03.2021
832 Clear 15 1022 88 10000 1.03 210 22:40 31.03.2021
833 Clear 15 1022 82 10000 1.54 210 22:20 31.03.2021
834 Clear 15 1022 82 10000 2.06 200 21:44 31.03.2021
835 Clear 16 1021 72 10000 2.06 280 21:20 31.03.2021
836 Clear 16 1021 72 10000 2.06 280 20:43 31.03.2021
837 Clear 17 1021 72 10000 2.06 280 20:23 31.03.2021
838 Clear 17 1021 52 10000 2.06 240 19:55 31.03.2021
839 Clear 18 1021 52 10000 2.06 240 19:36 31.03.2021
840 Clear 19 1021 42 10000 4.63 240 19:18 31.03.2021
841 Clear 20 1021 42 10000 4.63 240 18:41 31.03.2021
842 Clear 21 1021 35 10000 4.63 250 17:56 31.03.2021
843 Clear 21 1021 35 10000 4.63 250 17:34 31.03.2021
844 Clear 22 1022 31 10000 4.12 250 16:58 31.03.2021
845 Clear 22 1022 31 10000 4.12 250 16:38 31.03.2021
846 Clear 23 1022 31 10000 4.12 250 16:19 31.03.2021
847 Clear 23 1022 31 10000 4.12 250 16:19 31.03.2021
848 Clear 23 1022 35 10000 3.09 220 15:50 31.03.2021
849 Clear 23 1022 35 10000 3.09 220 15:19 31.03.2021
850 Clear 23 1023 33 10000 3.09 260 14:44 31.03.2021
851 Clear 23 1023 33 10000 3.09 260 14:22 31.03.2021
852 Clear 22 1024 37 10000 2.57 220 13:41 31.03.2021
853 Clear 21 1025 43 10000 0.51 0 12:42 31.03.2021
854 Clear 22 1025 43 10000 0.51 0 12:21 31.03.2021
855 Clear 20 1025 55 10000 0.51 0 11:56 31.03.2021
856 Clear 19 1025 55 10000 0.51 0 11:21 31.03.2021
857 Clear 18 1025 55 10000 0.51 0 10:47 31.03.2021
858 Clear 16 1025 77 10000 1.03 0 10:26 31.03.2021
859 Clear 15 1025 67 10000 1.54 40 09:43 31.03.2021
860 Clear 13 1025 71 10000 2.06 20 08:59 31.03.2021
861 Clear 12 1025 71 10000 2.06 20 08:38 31.03.2021
862 Clear 10 1025 71 10000 1.03 0 07:53 31.03.2021
863 Clear 10 1025 66 10000 0.51 0 06:49 31.03.2021
864 Clear 11 1026 58 10000 1.03 0 03:52 31.03.2021
865 Clear 12 1026 44 10000 2.06 120 01:43 31.03.2021
866 Clear 12 1026 47 10000 1.03 120 00:53 31.03.2021
867 Clear 13 1026 66 10000 1.03 0 00:21 31.03.2021
868 Clear 13 1026 58 10000 2.57 150 23:46 30.03.2021
869 Clear 14 1027 58 10000 2.06 150 23:19 30.03.2021
870 Clear 14 1027 67 10000 2.06 150 22:41 30.03.2021
871 Clear 14 1027 72 10000 1.54 190 22:23 30.03.2021
872 Clear 15 1027 72 10000 2.06 170 21:51 30.03.2021
873 Clear 15 1026 59 10000 2.57 190 21:21 30.03.2021
874 Clear 15 1026 59 10000 2.57 190 20:55 30.03.2021
875 Clear 16 1026 59 10000 2.57 190 20:28 30.03.2021
876 Clear 17 1026 48 10000 3.6 230 19:51 30.03.2021
877 Clear 18 1026 48 10000 3.6 230 19:28 30.03.2021
878 Clear 19 1026 35 10000 4.12 250 18:47 30.03.2021
879 Clear 20 1026 35 10000 4.12 250 18:24 30.03.2021
880 Clear 21 1026 40 10000 3.6 240 17:42 30.03.2021
881 Clear 22 1027 40 10000 3.6 240 17:24 30.03.2021
882 Clear 23 1027 40 10000 3.6 240 16:46 30.03.2021
883 Clear 23 1027 40 10000 3.6 240 16:25 30.03.2021
884 Clear 23 1027 27 10000 1.54 0 15:21 30.03.2021
885 Clear 23 1028 27 10000 1.03 0 14:58 30.03.2021
886 Clear 23 1028 27 10000 1.03 0 14:39 30.03.2021
887 Clear 23 1028 27 10000 1.03 0 14:18 30.03.2021
888 Clear 23 1029 31 10000 1.03 0 13:38 30.03.2021
889 Clear 21 1030 49 10000 1.03 0 12:49 30.03.2021
890 Clear 21 1030 49 10000 1.03 0 12:29 30.03.2021
891 Clear 20 1030 63 10000 2.06 360 11:59 30.03.2021
892 Clear 18 1030 63 10000 2.06 360 11:24 30.03.2021
893 Clear 16 1030 82 10000 3.09 360 10:47 30.03.2021
894 Clear 15 1030 82 10000 3.09 360 10:29 30.03.2021
895 Clear 13 1031 93 10000 1.03 0 09:57 30.03.2021
896 Clear 14 1030 71 10000 2.57 20 09:37 30.03.2021
897 Clear 12 1031 93 10000 1.03 0 09:19 30.03.2021
898 Clear 10 1030 100 10000 1.54 360 08:39 30.03.2021
899 Clear 10 1030 76 10000 2.06 50 07:52 30.03.2021
900 Clear 9 1030 76 10000 1.03 0 07:22 30.03.2021
901 Clear 10 1029 76 10000 1.03 170 05:53 30.03.2021
902 Clear 9 1030 81 10000 1.03 0 05:19 30.03.2021
903 Clear 12 1030 87 10000 0.51 210 00:58 30.03.2021
904 Clear 12 1031 82 10000 1.54 220 23:51 29.03.2021
905 Clear 13 1031 82 10000 0.51 0 22:55 29.03.2021
906 Clear 13 1031 82 10000 0.51 0 22:33 29.03.2021
907 Clear 14 1031 76 10000 0.51 0 21:52 29.03.2021
908 Clear 14 1031 76 10000 1.03 260 21:31 29.03.2021
909 Clear 15 1030 72 10000 2.57 220 20:50 29.03.2021
910 Clear 15 1030 72 10000 2.57 220 20:28 29.03.2021
911 Clear 16 1030 59 10000 3.09 230 19:50 29.03.2021
912 Clear 17 1030 59 10000 3.09 230 19:27 29.03.2021
913 Clear 18 1030 45 10000 4.12 240 18:51 29.03.2021
914 Clear 19 1030 45 10000 4.12 240 18:27 29.03.2021
915 Clear 19 1030 52 10000 4.12 240 17:52 29.03.2021
916 Clear 19 1030 52 10000 4.12 240 17:32 29.03.2021
917 Clear 19 1030 49 10000 3.6 260 16:45 29.03.2021
918 Clear 20 1030 49 10000 3.6 260 16:24 29.03.2021
919 Clear 20 1031 49 10000 3.09 250 15:37 29.03.2021
920 Clear 20 1031 49 10000 3.09 250 15:18 29.03.2021
921 Clear 20 1031 52 10000 3.6 280 14:46 29.03.2021
922 Clear 20 1032 52 10000 0.51 0 13:55 29.03.2021
923 Clear 20 1032 52 10000 0.51 0 13:36 29.03.2021
924 Clear 19 1032 59 10000 1.03 0 12:57 29.03.2021
925 Clear 18 1032 59 10000 1.03 0 12:39 29.03.2021
926 Clear 17 1032 72 10000 1.54 0 11:43 29.03.2021
927 Clear 16 1032 72 10000 1.54 0 11:25 29.03.2021
928 Clear 14 1032 93 10000 0.51 0 10:45 29.03.2021
929 Clear 13 1032 93 10000 0.51 0 10:19 29.03.2021
930 Clear 11 1032 76 10000 2.57 50 09:31 29.03.2021
931 Clear 8 1032 100 10000 0.51 0 08:30 29.03.2021
932 Clear 9 1031 87 10000 2.57 50 07:54 29.03.2021
933 Clear 8 1031 87 10000 2.06 360 06:57 29.03.2021
934 Clear 8 1031 87 10000 1.54 20 06:22 29.03.2021
935 Clear 9 1032 76 10000 0.51 0 02:32 29.03.2021
936 Clear 10 1032 76 10000 0.51 0 00:27 29.03.2021
937 Clear 11 1032 82 10000 1.03 0 23:57 28.03.2021
938 Clear 11 1031 82 10000 1.03 0 23:25 28.03.2021
939 Clear 12 1031 76 10000 1.54 110 22:43 28.03.2021
940 Clear 12 1031 76 10000 0.51 0 22:25 28.03.2021
941 Clear 13 1031 76 10000 0.51 0 21:47 28.03.2021
942 Clear 14 1030 72 10000 3.09 250 21:24 28.03.2021
943 Clear 14 1030 72 10000 3.09 250 20:53 28.03.2021
944 Clear 14 1030 72 10000 3.09 250 20:35 28.03.2021
945 Clear 15 1030 67 10000 3.6 260 19:56 28.03.2021
946 Clear 15 1030 67 10000 3.6 260 19:38 28.03.2021
947 Clear 16 1030 67 10000 3.6 260 19:20 28.03.2021
948 Clear 17 1030 59 10000 3.6 260 18:41 28.03.2021
949 Clear 18 1030 59 10000 3.6 260 18:19 28.03.2021
950 Clear 18 1030 52 10000 3.6 250 17:37 28.03.2021
951 Clear 19 1030 52 10000 2.57 270 16:57 28.03.2021
952 Clear 19 1030 59 10000 3.6 260 16:29 28.03.2021
953 Clear 19 1030 59 10000 3.6 260 15:58 28.03.2021
954 Clear 19 1030 59 10000 3.6 260 15:24 28.03.2021
955 Clear 19 1031 55 10000 2.57 0 14:49 28.03.2021
956 Clear 19 1031 55 10000 2.57 0 14:24 28.03.2021
957 Clear 19 1031 55 10000 0.51 0 13:36 28.03.2021
958 Clear 18 1031 63 10000 1.03 0 12:58 28.03.2021
959 Clear 17 1031 63 10000 1.03 0 12:35 28.03.2021
960 Clear 17 1031 72 10000 0.51 0 11:59 28.03.2021
961 Clear 16 1031 72 10000 0.51 0 11:37 28.03.2021
962 Mist 14 1031 87 5000 1.03 0 10:54 28.03.2021
963 Mist 14 1031 87 5000 1.03 0 10:31 28.03.2021
964 Clear 12 1030 82 10000 2.57 50 09:53 28.03.2021
965 Mist 11 1031 100 3500 0.51 0 09:28 28.03.2021
966 Clear 10 1030 93 8000 1.54 20 08:52 28.03.2021
967 Clear 9 1030 93 8000 1.54 20 08:34 28.03.2021
968 Clear 8 1030 93 8000 1.03 40 07:42 28.03.2021
969 Clear 8 1029 93 10000 1.03 80 06:21 28.03.2021
970 Clouds 9 1029 81 10000 1.54 150 03:50 28.03.2021
971 Clouds 11 1029 81 10000 1.03 160 00:45 28.03.2021
972 Clear 11 1029 82 10000 1.03 170 23:53 27.03.2021
973 Clear 11 1029 82 10000 1.03 160 23:35 27.03.2021
974 Clear 11 1029 82 10000 1.54 100 22:42 27.03.2021
975 Clear 11 1029 76 10000 1.54 140 22:22 27.03.2021
976 Clear 11 1028 82 10000 1.03 160 21:45 27.03.2021
977 Clear 12 1028 82 10000 2.06 140 21:21 27.03.2021
978 Clear 12 1028 82 10000 2.06 200 20:59 27.03.2021
979 Clear 12 1027 82 10000 2.57 190 20:37 27.03.2021
980 Clear 13 1027 82 10000 2.57 210 19:57 27.03.2021
981 Clear 13 1027 82 10000 2.57 210 19:38 27.03.2021
982 Clear 14 1027 82 10000 2.06 220 19:20 27.03.2021
983 Clear 14 1027 76 10000 3.09 230 18:46 27.03.2021
984 Clear 15 1026 59 10000 4.12 240 18:22 27.03.2021
985 Clear 16 1026 59 10000 4.12 240 17:36 27.03.2021
986 Clear 16 1026 59 10000 4.12 240 17:18 27.03.2021
987 Clear 17 1026 59 10000 4.12 230 16:43 27.03.2021
988 Clear 17 1026 59 10000 4.12 230 16:23 27.03.2021
989 Clouds 17 1027 59 10000 3.6 210 15:45 27.03.2021
990 Clouds 18 1027 59 10000 3.6 210 15:18 27.03.2021
991 Clouds 17 1027 55 10000 3.09 190 14:39 27.03.2021
992 Clouds 18 1027 55 10000 3.6 190 13:39 27.03.2021
993 Clouds 18 1027 55 10000 3.6 190 13:19 27.03.2021
994 Clouds 17 1028 63 10000 3.09 180 12:43 27.03.2021
995 Clouds 17 1028 67 10000 4.12 160 11:50 27.03.2021
996 Clouds 16 1028 67 10000 4.12 160 11:31 27.03.2021
997 Clouds 16 1028 72 10000 2.57 210 10:49 27.03.2021
998 Clouds 15 1028 72 10000 2.57 210 10:30 27.03.2021
999 Clouds 15 1027 72 10000 2.06 0 09:50 27.03.2021
1000 Clouds 13 1028 76 7000 2.06 70 09:20 27.03.2021
1001 Clouds 12 1027 87 7000 1.54 40 08:40 27.03.2021
1002 Clear 9 1027 87 10000 1.54 350 07:52 27.03.2021
1003 Clear 8 1026 81 10000 2.57 130 06:59 27.03.2021
1004 Clear 9 1026 81 10000 2.57 130 06:39 27.03.2021
1005 Clear 9 1026 81 10000 3.6 110 04:42 27.03.2021
1006 Clear 10 1026 76 10000 1.54 160 02:26 27.03.2021
1007 Clear 10 1026 81 10000 1.54 180 00:44 27.03.2021
1008 Clear 10 1027 76 10000 1.54 160 00:25 27.03.2021
1009 Clear 10 1026 81 10000 1.54 150 23:27 26.03.2021
1010 Clear 11 1026 82 10000 2.06 150 22:40 26.03.2021
1011 Clear 11 1026 82 10000 2.06 150 22:40 26.03.2021
1012 Clear 11 1027 82 10000 1.03 0 21:45 26.03.2021
1013 Clear 12 1026 82 10000 2.57 190 21:23 26.03.2021
1014 Clear 12 1026 82 10000 2.06 200 20:57 26.03.2021
1015 Clear 12 1026 87 10000 2.06 210 20:31 26.03.2021
1016 Clear 12 1026 82 10000 2.06 210 19:52 26.03.2021
1017 Clouds 13 1025 82 10000 2.57 220 19:33 26.03.2021
1018 Clouds 13 1025 76 10000 3.09 240 18:51 26.03.2021
1019 Clouds 15 1025 72 10000 3.09 240 18:31 26.03.2021
1020 Clouds 15 1025 63 10000 4.12 230 17:58 26.03.2021
1021 Clouds 15 1025 63 10000 4.12 230 17:35 26.03.2021
1022 Clouds 16 1025 63 10000 4.12 210 16:49 26.03.2021
1023 Clouds 17 1025 63 10000 4.12 210 16:22 26.03.2021
1024 Clouds 17 1025 59 10000 3.6 250 15:42 26.03.2021
1025 Clouds 18 1025 59 10000 3.09 190 14:50 26.03.2021
1026 Clouds 17 1026 59 10000 2.57 250 13:52 26.03.2021
1027 Clouds 17 1026 59 10000 2.57 250 13:52 26.03.2021
1028 Clouds 17 1026 59 10000 2.57 250 13:26 26.03.2021
1029 Clouds 17 1026 55 10000 2.06 210 12:40 26.03.2021
1030 Clear 17 1026 63 10000 1.03 0 11:49 26.03.2021
1031 Clear 16 1026 63 10000 1.03 0 11:31 26.03.2021
1032 Clouds 16 1026 63 10000 1.54 0 10:44 26.03.2021
1033 Clouds 15 1025 71 10000 1.54 20 10:23 26.03.2021
1034 Clouds 14 1025 71 10000 1.54 20 09:41 26.03.2021
1035 Clouds 11 1025 81 10000 1.54 340 08:49 26.03.2021
1036 Clouds 10 1024 81 10000 1.54 20 08:31 26.03.2021
1037 Clear 9 1024 87 10000 1.03 0 07:57 26.03.2021
1038 Clouds 7 1024 87 10000 1.54 360 07:22 26.03.2021
1039 Clouds 7 1024 87 10000 1.03 0 06:56 26.03.2021
1040 Clear 7 1024 81 10000 1.54 130 05:32 26.03.2021
1041 Clear 7 1023 71 10000 1.03 170 04:23 26.03.2021
1042 Clear 8 1024 76 10000 1.03 0 01:18 26.03.2021
1043 Clear 9 1024 81 10000 1.54 170 00:18 26.03.2021
1044 Clear 9 1024 87 10000 1.54 170 23:42 25.03.2021
1045 Clear 10 1023 87 10000 2.06 190 22:50 25.03.2021
1046 Clear 10 1023 87 10000 2.06 190 22:27 25.03.2021
1047 Clear 11 1023 87 10000 2.06 190 21:49 25.03.2021
1048 Clear 11 1023 87 10000 2.57 180 21:29 25.03.2021
1049 Clear 12 1022 82 10000 2.57 200 20:41 25.03.2021
1050 Clear 12 1022 82 10000 2.57 200 20:23 25.03.2021
1051 Clear 12 1022 82 10000 3.09 210 19:43 25.03.2021
1052 Clear 13 1022 76 10000 3.09 220 19:24 25.03.2021
1053 Clear 13 1021 67 10000 2.57 240 18:46 25.03.2021
1054 Clear 14 1021 62 10000 2.57 240 18:26 25.03.2021
1055 Clear 15 1021 51 10000 3.6 180 17:43 25.03.2021
1056 Clear 15 1022 59 10000 1.34 180 17:23 25.03.2021
1057 Clear 16 1022 58 10000 0.89 209 16:47 25.03.2021
1058 Clear 17 1021 48 10000 4.63 250 16:28 25.03.2021
1059 Clear 17 1021 48 10000 4.63 250 15:43 25.03.2021
1060 Clear 17 1021 48 10000 4.63 250 15:19 25.03.2021
1061 Clear 17 1022 48 10000 3.6 220 14:43 25.03.2021
1062 Clear 17 1022 45 10000 4.12 240 13:48 25.03.2021
1063 Clear 17 1022 45 10000 4.12 240 13:23 25.03.2021
1064 Clear 16 1023 51 10000 2.57 0 12:42 25.03.2021
1065 Clear 16 1023 51 10000 2.57 0 12:20 25.03.2021
1066 Clear 16 1023 55 10000 2.06 230 11:52 25.03.2021
1067 Clear 15 1023 55 10000 2.06 230 11:26 25.03.2021
1068 Clear 15 1023 62 10000 1.54 300 10:54 25.03.2021
1069 Clear 14 1023 62 10000 1.54 300 10:25 25.03.2021
1070 Clear 12 1023 76 10000 1.54 340 09:56 25.03.2021
1071 Clear 12 1023 76 10000 1.54 340 09:38 25.03.2021
1072 Clear 10 1022 57 10000 2.06 40 08:54 25.03.2021
1073 Clear 8 1022 61 10000 1.54 40 08:21 25.03.2021
1074 Clear 5 1022 75 10000 1.54 110 07:19 25.03.2021
1075 Clear 4 1021 75 10000 0.51 0 06:26 25.03.2021
1076 Clear 4 1021 87 10000 1.54 120 05:49 25.03.2021
1077 Clear 6 1021 87 10000 1.54 350 02:48 25.03.2021
1078 Clear 7 1021 76 10000 0.51 0 00:34 25.03.2021
1079 Clear 8 1021 71 10000 1.03 160 23:53 24.03.2021
1080 Clear 8 1021 71 10000 0.51 0 23:30 24.03.2021
1081 Clear 9 1021 66 10000 1.54 150 22:50 24.03.2021
1082 Clear 9 1021 71 10000 1.03 170 22:28 24.03.2021
1083 Clear 10 1021 66 10000 1.54 200 21:46 24.03.2021
1084 Clear 10 1021 66 10000 1.54 160 21:24 24.03.2021
1085 Clear 11 1021 66 10000 1.03 0 20:45 24.03.2021
1086 Clear 11 1021 71 10000 1.03 0 20:20 24.03.2021
1087 Clear 11 1020 66 10000 2.57 290 19:49 24.03.2021
1088 Clear 12 1020 66 10000 3.6 290 19:29 24.03.2021
1089 Clear 12 1020 66 10000 3.6 290 19:29 24.03.2021
1090 Clear 12 1020 58 10000 4.12 290 18:51 24.03.2021
1091 Clear 13 1020 47 10000 7.2 270 18:23 24.03.2021
1092 Clear 14 1020 47 10000 7.2 270 17:52 24.03.2021
1093 Clear 14 1020 47 10000 7.2 270 17:32 24.03.2021
1094 Clear 15 1020 29 10000 4.12 330 16:53 24.03.2021
1095 Clear 16 1020 29 10000 4.12 330 16:31 24.03.2021
1096 Clear 16 1020 27 10000 4.12 330 15:50 24.03.2021
1097 Clear 16 1020 27 10000 4.12 330 15:32 24.03.2021
1098 Clear 16 1021 31 10000 5.66 350 14:48 24.03.2021
1099 Clear 15 1021 31 10000 5.66 350 14:26 24.03.2021
1100 Clear 16 1022 27 10000 5.66 340 13:55 24.03.2021
1101 Clear 16 1022 27 10000 5.66 340 13:28 24.03.2021
1102 Clear 15 1022 36 10000 2.57 350 12:44 24.03.2021
1103 Clear 15 1022 36 10000 2.57 350 12:23 24.03.2021
1104 Clear 13 1023 38 10000 2.06 0 11:49 24.03.2021
1105 Clear 12 1023 43 10000 2.57 20 10:59 24.03.2021
1106 Clear 11 1023 43 10000 2.57 20 10:40 24.03.2021
1107 Clear 11 1023 43 10000 2.57 20 10:21 24.03.2021
1108 Clear 10 1024 57 10000 1.03 0 09:52 24.03.2021
1109 Clear 9 1024 57 10000 1.03 0 09:22 24.03.2021
1110 Clear 7 1023 75 10000 0.51 0 08:51 24.03.2021
1111 Clear 5 1023 75 10000 0.51 0 08:26 24.03.2021
1112 Clear 4 1023 60 10000 2.06 40 07:40 24.03.2021
1113 Clear 4 1022 64 10000 2.57 30 06:54 24.03.2021
1114 Clear 3 1022 56 10000 2.06 80 05:30 24.03.2021
1115 Clear 5 1022 48 10000 1.54 350 00:51 24.03.2021
1116 Clear 6 1021 45 10000 1.54 50 23:59 23.03.2021
1117 Clear 6 1021 42 10000 3.09 80 23:22 23.03.2021
1118 Clear 7 1021 42 10000 2.06 50 22:54 23.03.2021
1119 Clear 7 1021 42 10000 2.06 50 22:36 23.03.2021
1120 Clear 6 1021 39 10000 2.57 80 21:54 23.03.2021
1121 Clear 7 1020 39 10000 2.57 40 21:34 23.03.2021
1122 Clear 8 1020 39 10000 4.12 20 20:56 23.03.2021
1123 Clear 8 1020 39 10000 4.12 20 20:38 23.03.2021
1124 Clear 8 1020 36 10000 4.63 20 20:19 23.03.2021
1125 Clear 9 1019 34 10000 5.14 10 19:41 23.03.2021
1126 Clear 10 1019 34 10000 5.14 360 19:22 23.03.2021
1127 Clear 11 1018 32 10000 8.23 350 18:38 23.03.2021
1128 Clear 11 1018 32 10000 8.23 350 18:19 23.03.2021
1129 Clear 11 1018 32 10000 8.23 350 18:19 23.03.2021
1130 Clear 11 1018 32 10000 8.23 350 17:43 23.03.2021
1131 Clear 12 1018 30 10000 7.72 340 17:21 23.03.2021
1132 Clear 13 1017 30 10000 7.2 10 16:26 23.03.2021
1133 Clear 13 1017 30 10000 7.2 10 15:52 23.03.2021
1134 Clear 13 1017 30 10000 7.2 10 15:25 23.03.2021
1135 Clear 13 1018 24 10000 7.72 20 14:49 23.03.2021
1136 Clear 13 1018 26 10000 7.72 30 14:20 23.03.2021
1137 Clear 13 1018 26 10000 7.72 30 13:48 23.03.2021
1138 Clear 13 1018 26 10000 7.72 10 13:25 23.03.2021
1139 Clear 12 1018 30 10000 7.2 20 12:46 23.03.2021
1140 Clear 12 1018 30 10000 7.2 20 12:26 23.03.2021
1141 Clear 12 1018 28 10000 6.17 50 11:49 23.03.2021
1142 Clear 12 1018 28 10000 6.17 50 11:30 23.03.2021
1143 Clear 11 1018 28 10000 6.69 60 10:43 23.03.2021
1144 Clear 11 1018 28 10000 6.69 60 10:21 23.03.2021
1145 Clear 10 1017 40 10000 6.17 360 09:54 23.03.2021
1146 Clear 10 1017 40 10000 6.17 360 09:25 23.03.2021
1147 Clear 9 1017 42 10000 1.54 0 08:56 23.03.2021
1148 Clear 8 1017 42 10000 1.54 0 08:38 23.03.2021
1149 Clear 8 1017 42 10000 1.54 0 08:19 23.03.2021
1150 Clouds 6 1015 52 10000 4.12 360 07:28 23.03.2021
1151 Clouds 6 1015 48 10000 5.66 360 06:54 23.03.2021
1152 Clouds 6 1015 45 10000 4.12 360 05:48 23.03.2021
1153 Clear 6 1014 39 10000 4.63 340 03:20 23.03.2021
1154 Clear 7 1014 45 10000 3.6 30 00:22 23.03.2021
1155 Clear 7 1013 42 10000 3.09 70 23:23 22.03.2021
1156 Clear 7 1013 39 10000 3.6 50 22:44 22.03.2021
1157 Clear 8 1012 36 10000 6.69 40 22:22 22.03.2021
1158 Clear 8 1012 39 10000 4.63 40 21:51 22.03.2021
1159 Clear 9 1012 39 10000 3.09 30 21:27 22.03.2021
1160 Clear 9 1011 36 10000 4.12 30 20:54 22.03.2021
1161 Clear 9 1011 42 10000 3.09 30 20:30 22.03.2021
1162 Clear 10 1011 37 10000 3.6 60 19:58 22.03.2021
1163 Clear 10 1011 37 10000 3.6 60 19:40 22.03.2021
1164 Clear 10 1010 34 10000 4.63 40 19:21 22.03.2021
1165 Clear 10 1010 34 10000 4.63 40 19:21 22.03.2021
1166 Clouds 11 1009 32 10000 7.72 30 18:42 22.03.2021
1167 Clouds 11 1009 32 10000 7.72 30 18:23 22.03.2021
1168 Clouds 12 1009 32 10000 7.72 30 17:51 22.03.2021
1169 Clouds 12 1009 32 10000 7.72 30 17:23 22.03.2021
1170 Clouds 13 1008 38 10000 7.2 30 16:58 22.03.2021
1171 Clouds 13 1008 38 10000 7.2 30 16:39 22.03.2021
1172 Clouds 14 1007 33 10000 6.17 30 15:55 22.03.2021
1173 Clouds 14 1007 33 10000 6.17 30 15:37 22.03.2021
1174 Clouds 14 1007 33 10000 6.17 30 15:18 22.03.2021
1175 Clouds 14 1007 33 10000 6.17 30 15:18 22.03.2021
1176 Clouds 14 1007 33 10000 5.14 10 14:44 22.03.2021
1177 Clouds 14 1007 33 10000 5.14 10 14:24 22.03.2021
1178 Clouds 14 1007 30 10000 4.12 360 13:38 22.03.2021
1179 Clouds 15 1007 30 10000 4.12 360 13:18 22.03.2021
1180 Clear 14 1006 30 10000 5.14 360 12:41 22.03.2021
1181 Clear 14 1006 30 10000 5.14 360 12:19 22.03.2021
1182 Clear 14 1006 35 10000 5.14 10 11:44 22.03.2021
1183 Clear 13 1006 35 10000 5.14 10 11:21 22.03.2021
1184 Clear 13 1006 37 10000 6.17 20 10:43 22.03.2021
1185 Clear 12 1006 37 10000 6.17 20 10:24 22.03.2021
1186 Clear 10 1006 40 10000 6.17 20 09:39 22.03.2021
1187 Clear 10 1006 40 10000 6.17 20 09:21 22.03.2021
1188 Clear 8 1005 46 10000 3.6 30 08:42 22.03.2021
1189 Clear 7 1005 46 10000 3.6 30 08:24 22.03.2021
1190 Clear 5 1004 60 10000 3.09 40 07:44 22.03.2021
1191 Clear 4 1004 60 10000 2.57 60 06:52 22.03.2021
1192 Clear 4 1004 60 10000 2.57 40 06:27 22.03.2021
1193 Clouds 6 1004 52 10000 3.6 30 02:32 22.03.2021
1194 Clouds 6 1004 52 10000 4.63 40 00:29 22.03.2021
1195 Clouds 7 1004 52 10000 4.63 30 23:53 21.03.2021
1196 Clouds 7 1004 52 10000 4.63 30 23:53 21.03.2021
1197 Clouds 7 1004 49 10000 4.63 30 23:19 21.03.2021
1198 Clouds 7 1004 49 10000 4.63 30 22:55 21.03.2021
1199 Clear 7 1004 49 10000 4.63 30 21:59 21.03.2021
1200 Clear 8 1004 49 10000 4.63 30 21:40 21.03.2021
1201 Clear 8 1004 53 10000 4.12 30 21:22 21.03.2021
1202 Clear 8 1004 53 10000 3.09 30 20:42 21.03.2021
1203 Clear 9 1004 46 10000 4.12 50 20:24 21.03.2021
1204 Clear 10 1003 43 10000 4.12 70 19:52 21.03.2021
1205 Clear 10 1003 40 10000 3.6 60 19:21 21.03.2021
1206 Clouds 11 1003 37 10000 4.63 50 18:47 21.03.2021
1207 Clear 11 1003 33 10000 5.66 360 18:27 21.03.2021
1208 Clear 12 1003 33 10000 5.66 360 17:46 21.03.2021
1209 Clear 13 1003 33 10000 5.66 360 17:20 21.03.2021
1210 Clear 13 1004 30 10000 6.17 10 16:57 21.03.2021
1211 Clear 14 1004 30 10000 6.17 10 16:30 21.03.2021
1212 Clouds 14 1004 33 10000 6.69 20 15:58 21.03.2021
1213 Clouds 14 1004 33 10000 6.69 20 15:38 21.03.2021
1214 Clouds 14 1004 33 10000 6.69 20 15:19 21.03.2021
1215 Clouds 14 1004 33 10000 6.69 20 15:19 21.03.2021
1216 Clouds 14 1006 33 10000 5.14 10 14:42 21.03.2021
1217 Clouds 14 1006 33 10000 5.14 10 14:24 21.03.2021
1218 Clouds 14 1007 38 10000 6.17 10 13:52 21.03.2021
1219 Clear 13 1007 35 10000 6.17 360 12:46 21.03.2021
1220 Clear 13 1007 35 10000 6.17 360 12:27 21.03.2021
1221 Clear 13 1007 35 10000 6.17 360 12:27 21.03.2021
1222 Clear 13 1008 35 10000 6.17 10 11:53 21.03.2021
1223 Clear 12 1008 35 10000 6.17 10 11:28 21.03.2021
1224 Clear 12 1008 40 10000 5.66 10 10:59 21.03.2021
1225 Clear 12 1008 40 10000 5.66 10 10:41 21.03.2021
1226 Clear 11 1008 43 10000 5.66 10 10:21 21.03.2021
1227 Clear 11 1008 46 10000 6.17 20 09:44 21.03.2021
1228 Clear 10 1008 46 10000 6.17 20 09:26 21.03.2021
1229 Clear 8 1009 49 10000 4.63 10 08:39 21.03.2021
1230 Clear 8 1009 49 10000 4.63 10 08:20 21.03.2021
1231 Clear 7 1008 56 10000 3.09 30 07:37 21.03.2021
1232 Clear 6 1008 56 10000 4.12 20 06:52 21.03.2021
1233 Clear 6 1008 49 10000 2.57 50 05:25 21.03.2021
1234 Clear 6 1010 48 10000 2.57 40 01:54 21.03.2021
1235 Clear 7 1010 45 10000 2.57 50 00:41 21.03.2021
1236 Clear 7 1011 45 10000 3.09 50 00:21 21.03.2021
1237 Clouds 8 1011 49 10000 2.57 50 23:47 20.03.2021
1238 Clouds 8 1011 49 10000 3.09 50 23:22 20.03.2021
1239 Clouds 9 1011 49 10000 3.6 50 22:55 20.03.2021
1240 Clouds 8 1011 49 10000 3.09 60 22:22 20.03.2021
1241 Clouds 9 1011 49 10000 3.6 60 21:46 20.03.2021
1242 Clouds 9 1010 46 10000 4.12 80 21:24 20.03.2021
1243 Clouds 10 1010 46 10000 4.12 70 20:45 20.03.2021
1244 Clear 10 1010 53 10000 3.6 120 20:23 20.03.2021
1245 Clear 10 1009 57 10000 4.63 150 19:50 20.03.2021
1246 Clouds 10 1009 57 10000 3.6 190 19:27 20.03.2021
1247 Clouds 11 1009 53 10000 3.09 210 18:50 20.03.2021
1248 Clouds 12 1009 35 10000 4.12 360 18:27 20.03.2021
1249 Clouds 13 1009 35 10000 4.12 360 17:55 20.03.2021
1250 Clouds 13 1009 35 10000 4.12 360 17:33 20.03.2021
1251 Clouds 14 1009 33 10000 4.63 30 16:56 20.03.2021
1252 Clouds 14 1009 33 10000 4.63 30 16:37 20.03.2021
1253 Clouds 14 1009 33 10000 4.63 30 16:18 20.03.2021
1254 Clear 14 1010 35 10000 2.27 349 15:39 20.03.2021
1255 Clouds 14 1010 38 10000 3.6 10 14:49 20.03.2021
1256 Clouds 14 1010 38 10000 3.6 10 14:49 20.03.2021
1257 Clouds 14 1010 38 10000 3.6 10 14:28 20.03.2021
1258 Clear 13 1012 41 10000 3.09 350 13:42 20.03.2021
1259 Clear 13 1012 41 10000 3.09 350 13:18 20.03.2021
1260 Clear 12 1012 47 10000 1.54 350 12:27 20.03.2021
1261 Clear 12 1012 50 10000 2.06 360 11:50 20.03.2021
1262 Clear 11 1012 50 10000 2.06 360 11:30 20.03.2021
1263 Clouds 11 1013 53 10000 1.54 360 10:56 20.03.2021
1264 Clouds 10 1013 53 10000 1.54 360 10:38 20.03.2021
1265 Clouds 9 1013 53 10000 1.54 360 10:19 20.03.2021
1266 Clouds 8 1013 65 10000 1.54 340 09:42 20.03.2021
1267 Clouds 8 1013 65 10000 1.54 340 09:21 20.03.2021
1268 Clouds 7 1012 75 10000 0.51 280 08:45 20.03.2021
1269 Clear 6 1012 70 10000 2.06 10 07:55 20.03.2021
1270 Clear 6 1012 70 10000 2.06 10 07:54 20.03.2021
1271 Clear 6 1012 70 10000 2.06 10 07:32 20.03.2021
1272 Clear 6 1011 61 10000 2.57 60 06:56 20.03.2021
1273 Clear 5 1011 65 10000 2.57 40 06:27 20.03.2021
1274 Clear 6 1011 65 10000 3.09 30 04:24 20.03.2021
1275 Clear 6 1011 65 10000 3.09 30 03:42 20.03.2021
1276 Clouds 8 1012 57 10000 2.57 70 00:42 20.03.2021
1277 Clear 8 1012 57 10000 1.54 70 23:36 19.03.2021
1278 Clear 8 1012 53 10000 3.09 120 22:59 19.03.2021
1279 Clear 8 1012 53 10000 3.09 120 22:40 19.03.2021
1280 Clear 9 1012 53 10000 3.09 100 22:22 19.03.2021
1281 Clear 9 1012 49 10000 4.12 110 21:36 19.03.2021
1282 Clear 9 1012 61 10000 1.54 80 21:18 19.03.2021
1283 Clear 9 1012 49 10000 1.54 90 20:41 19.03.2021
1284 Clear 10 1011 49 10000 2.57 180 20:22 19.03.2021
1285 Clear 10 1011 49 10000 3.09 190 19:46 19.03.2021
1286 Clear 10 1011 53 10000 2.57 200 19:21 19.03.2021
1287 Clear 11 1011 57 10000 2.57 210 18:42 19.03.2021
1288 Clouds 11 1011 54 10000 2.57 270 18:20 19.03.2021
1289 Clouds 11 1011 54 10000 2.57 270 17:55 19.03.2021
1290 Clouds 11 1011 54 10000 2.57 270 17:33 19.03.2021
1291 Clouds 12 1011 50 10000 2.06 250 16:56 19.03.2021
1292 Clouds 13 1011 50 10000 2.06 250 16:32 19.03.2021
1293 Clouds 12 1011 43 10000 3.09 210 15:58 19.03.2021
1294 Clouds 13 1011 43 10000 3.09 210 15:28 19.03.2021
1295 Clouds 13 1011 28 10000 1.03 0 14:48 19.03.2021
1296 Clouds 13 1011 28 10000 1.03 0 14:28 19.03.2021
1297 Clouds 13 1008 31 10000 2.41 198 13:42 19.03.2021
1298 Clouds 13 1011 40 10000 1.54 30 13:18 19.03.2021
1299 Clouds 13 1012 43 10000 1.03 0 12:38 19.03.2021
1300 Clear 12 1012 54 10000 2.57 50 11:49 19.03.2021
1301 Clear 11 1012 46 10000 1.54 30 10:57 19.03.2021
1302 Clear 10 1012 46 10000 1.54 30 10:39 19.03.2021
1303 Clear 10 1012 53 10000 2.57 50 10:18 19.03.2021
1304 Clear 9 1012 61 10000 2.57 60 09:41 19.03.2021
1305 Clear 7 1012 75 10000 2.57 30 09:22 19.03.2021
1306 Clear 5 1012 75 10000 2.06 30 08:41 19.03.2021
1307 Clouds 5 1009 52 10000 1.83 37 08:22 19.03.2021
1308 Clear 4 1012 75 10000 2.57 40 07:42 19.03.2021
1309 Clear 2 1012 80 10000 2.57 30 06:58 19.03.2021
1310 Clear 2 1012 80 10000 2.57 20 05:19 19.03.2021
1311 Clear 4 1013 81 10000 1.54 10 00:58 19.03.2021
1312 Clear 5 1013 70 10000 1.03 40 23:50 18.03.2021
1313 Clear 6 1013 70 10000 1.54 360 23:26 18.03.2021
1314 Clear 6 1013 65 10000 1.54 50 22:44 18.03.2021
1315 Clear 7 1013 61 10000 1.54 50 22:25 18.03.2021
1316 Clear 7 1013 65 10000 2.06 40 21:40 18.03.2021
1317 Clear 7 1013 61 10000 2.57 90 21:20 18.03.2021
1318 Clear 8 1013 57 10000 2.57 90 20:36 18.03.2021
1319 Clouds 9 1013 53 10000 0.51 0 19:59 18.03.2021
1320 Clouds 9 1013 53 10000 0.51 0 19:59 18.03.2021
1321 Clouds 9 1013 53 10000 0.51 0 19:41 18.03.2021
1322 Clouds 9 1013 49 10000 1.03 0 19:21 18.03.2021
1323 Clouds 10 1012 49 10000 2.06 270 18:38 18.03.2021
1324 Clear 11 1012 43 10000 5.14 260 17:51 18.03.2021
1325 Clear 12 1012 43 10000 5.14 260 17:26 18.03.2021
1326 Clear 13 1012 24 10000 3.09 300 16:51 18.03.2021
1327 Clear 13 1012 24 10000 3.09 300 16:32 18.03.2021
1328 Clear 13 1012 30 10000 3.09 10 15:49 18.03.2021
1329 Clear 14 1012 30 10000 3.09 10 15:30 18.03.2021
1330 Clouds 14 1013 30 10000 3.09 290 14:59 18.03.2021
1331 Clouds 13 1013 30 10000 3.09 290 14:40 18.03.2021
1332 Clouds 13 1014 32 10000 3.09 270 13:56 18.03.2021
1333 Clear 13 1015 33 10000 1.03 0 13:27 18.03.2021
1334 Clear 13 1015 33 10000 1.03 0 12:47 18.03.2021
1335 Clear 13 1015 33 10000 1.03 0 12:28 18.03.2021
1336 Clear 11 1015 53 10000 2.57 360 11:55 18.03.2021
1337 Clear 11 1015 53 10000 2.57 360 11:34 18.03.2021
1338 Clear 10 1016 76 10000 2.57 350 10:51 18.03.2021
1339 Clear 9 1016 76 10000 2.57 350 10:29 18.03.2021
1340 Clear 7 1016 87 10000 2.57 10 09:58 18.03.2021
1341 Clear 6 1016 87 10000 2.57 10 09:30 18.03.2021
1342 Clouds 5 1015 100 8000 1.03 0 08:57 18.03.2021
1343 Clouds 4 1015 100 8000 1.03 0 08:33 18.03.2021
1344 Clear 5 1014 87 10000 2.06 10 07:58 18.03.2021
1345 Clear 4 1014 87 10000 2.06 10 07:40 18.03.2021
1346 Clear 4 1014 81 10000 3.09 50 06:40 18.03.2021
1347 Clear 5 1014 81 10000 3.09 50 06:21 18.03.2021
1348 Clear 5 1014 75 10000 2.06 70 05:25 18.03.2021
1349 Clear 7 1015 70 10000 3.09 150 00:40 18.03.2021
1350 Clear 7 1015 65 10000 6.17 140 23:19 17.03.2021
1351 Clear 7 1016 65 10000 5.14 80 22:38 17.03.2021
1352 Clear 6 1016 75 10000 1.54 50 22:20 17.03.2021
1353 Clear 7 1015 65 10000 3.09 80 21:49 17.03.2021
1354 Clear 7 1015 70 10000 3.6 110 21:30 17.03.2021
1355 Clear 8 1015 70 10000 4.12 90 20:48 17.03.2021
1356 Clouds 8 1015 70 10000 5.66 130 20:26 17.03.2021
1357 Clouds 8 1015 70 10000 5.66 130 19:58 17.03.2021
1358 Clouds 8 1015 70 10000 5.66 130 19:58 17.03.2021
1359 Clouds 8 1015 70 10000 5.66 130 19:36 17.03.2021
1360 Clouds 9 1015 66 10000 3.6 140 19:18 17.03.2021
1361 Clouds 9 1015 70 10000 2.57 110 18:43 17.03.2021
1362 Rain 10 1015 62 10000 0.51 0 18:25 17.03.2021
1363 Clouds 10 1015 62 10000 0.51 0 17:32 17.03.2021
1364 Clouds 10 1015 66 10000 1.03 0 16:57 17.03.2021
1365 Clouds 10 1015 66 10000 1.03 0 16:38 17.03.2021
1366 Clouds 10 1015 66 10000 1.03 0 16:19 17.03.2021
1367 Rain 10 1015 57 10000 5.66 280 15:41 17.03.2021
1368 Rain 13 1015 43 10000 6.69 260 14:57 17.03.2021
1369 Rain 12 1015 43 10000 6.69 260 14:36 17.03.2021
1370 Rain 13 1015 43 10000 6.69 260 14:18 17.03.2021
1371 Rain 13 1015 43 10000 6.69 260 14:18 17.03.2021
1372 Rain 13 1015 43 10000 6.69 260 13:52 17.03.2021
1373 Rain 13 1015 35 10000 6.69 280 13:22 17.03.2021
1374 Rain 15 1015 26 10000 3.09 210 12:36 17.03.2021
1375 Clear 14 1016 41 10000 1.03 0 12:18 17.03.2021
1376 Clear 14 1016 41 10000 1.03 0 11:38 17.03.2021
1377 Clear 14 1016 41 10000 1.03 0 11:20 17.03.2021
1378 Clear 13 1016 40 10000 1.03 0 10:40 17.03.2021
1379 Clear 11 1016 57 10000 1.54 340 10:19 17.03.2021
1380 Clear 9 1017 75 10000 1.54 330 09:42 17.03.2021
1381 Clear 8 1017 75 10000 1.54 330 09:20 17.03.2021
1382 Clear 6 1017 93 10000 1.54 330 08:45 17.03.2021
1383 Clear 6 1016 56 10000 2.57 90 08:25 17.03.2021
1384 Clear 4 1016 60 10000 1.03 0 07:38 17.03.2021
1385 Clear 3 1015 75 10000 1.54 50 06:52 17.03.2021
1386 Clear 3 1015 65 10000 1.03 0 06:27 17.03.2021
1387 Clear 5 1016 65 10000 1.03 140 03:32 17.03.2021
1388 Clear 5 1017 65 10000 0.51 0 01:58 17.03.2021
1389 Clear 5 1017 70 10000 1.54 190 00:33 17.03.2021
1390 Clear 7 1016 65 10000 1.03 340 23:27 16.03.2021
1391 Clear 7 1016 61 10000 0.51 90 22:45 16.03.2021
1392 Clear 7 1016 61 10000 1.03 0 22:26 16.03.2021
1393 Clear 8 1015 57 10000 2.57 100 21:44 16.03.2021
1394 Clear 8 1016 57 10000 1.54 60 21:26 16.03.2021
1395 Clear 8 1015 53 10000 2.57 70 20:57 16.03.2021
1396 Clear 8 1015 57 10000 2.06 70 20:19 16.03.2021
1397 Clouds 9 1015 57 10000 2.57 60 19:48 16.03.2021
1398 Clouds 10 1015 53 10000 3.09 50 19:28 16.03.2021
1399 Clouds 10 1014 49 10000 3.09 60 18:56 16.03.2021
1400 Clouds 10 1014 49 10000 3.09 60 18:36 16.03.2021
1401 Clouds 11 1013 46 10000 4.63 80 17:55 16.03.2021
1402 Clouds 11 1013 46 10000 4.63 80 17:36 16.03.2021
1403 Clouds 13 1012 47 10000 3.09 110 16:58 16.03.2021
1404 Clouds 13 1012 47 10000 3.09 110 16:38 16.03.2021
1405 Clouds 13 1012 47 10000 3.09 110 16:19 16.03.2021
1406 Rain 13 1012 50 10000 5.14 100 15:40 16.03.2021
1407 Clouds 12 1012 50 10000 5.14 100 15:19 16.03.2021
1408 Clouds 13 1011 47 10000 1.03 0 14:56 16.03.2021
1409 Clouds 13 1011 47 10000 1.03 0 14:37 16.03.2021
1410 Clouds 14 1011 47 10000 1.03 0 14:18 16.03.2021
1411 Clouds 14 1012 51 10000 4.12 320 13:41 16.03.2021
1412 Clouds 14 1012 51 10000 4.12 320 13:19 16.03.2021
1413 Clouds 13 1012 62 10000 2.06 10 12:38 16.03.2021
1414 Clouds 12 1012 62 10000 2.06 10 12:18 16.03.2021
1415 Clouds 12 1012 62 10000 2.06 10 12:18 16.03.2021
1416 Rain 12 1012 71 10000 2.06 330 11:35 16.03.2021
1417 Rain 10 1012 87 10000 1.03 0 10:50 16.03.2021
1418 Rain 10 1012 87 10000 1.03 0 10:50 16.03.2021
1419 Clouds 10 1012 87 10000 1.03 0 10:21 16.03.2021
1420 Clouds 10 1012 87 10000 1.03 0 10:21 16.03.2021
1421 Clear 8 1012 87 10000 1.03 350 09:41 16.03.2021
1422 Clear 8 1012 87 10000 1.03 350 09:21 16.03.2021
1423 Clear 7 1011 93 10000 1.54 310 08:56 16.03.2021
1424 Clear 7 1011 93 10000 1.54 310 08:37 16.03.2021
1425 Clear 6 1010 93 10000 1.54 10 07:55 16.03.2021
1426 Clear 5 1010 87 10000 1.03 0 07:27 16.03.2021
1427 Clear 6 1010 81 10000 1.54 80 06:38 16.03.2021
1428 Clear 6 1010 81 10000 2.06 90 05:37 16.03.2021
1429 Clear 6 1009 81 10000 1.03 0 04:28 16.03.2021
1430 Clear 6 1010 75 10000 1.54 130 02:27 16.03.2021
1431 Clear 7 1010 70 10000 1.03 150 00:47 16.03.2021
1432 Clear 8 1010 66 10000 1.54 150 23:54 15.03.2021
1433 Clear 9 1010 71 10000 1.03 170 23:19 15.03.2021
1434 Clear 9 1010 66 10000 1.54 170 22:43 15.03.2021
1435 Clear 9 1010 66 10000 1.03 0 22:25 15.03.2021
1436 Clear 9 1010 66 10000 1.54 150 21:51 15.03.2021
1437 Clear 10 1010 66 10000 1.03 170 21:29 15.03.2021
1438 Clear 10 1010 66 10000 1.03 170 20:55 15.03.2021
1439 Clear 10 1010 66 10000 1.03 170 20:37 15.03.2021
1440 Clear 11 1010 66 10000 1.03 0 20:19 15.03.2021
1441 Clear 11 1010 71 10000 1.54 250 19:43 15.03.2021
1442 Clear 12 1010 66 10000 2.06 300 19:24 15.03.2021
1443 Clear 12 1009 58 10000 4.12 290 18:47 15.03.2021
1444 Clouds 13 1010 50 10000 8.23 360 18:23 15.03.2021
1445 Clouds 13 1010 50 10000 8.23 360 17:55 15.03.2021
1446 Clouds 14 1010 50 10000 8.23 360 17:28 15.03.2021
1447 Rain 14 1010 50 10000 8.23 340 16:50 15.03.2021
1448 Rain 15 1010 58 10000 7.72 280 16:25 15.03.2021
1449 Clouds 15 1010 39 10000 6.17 280 15:44 15.03.2021
1450 Clouds 15 1010 39 10000 6.17 280 15:25 15.03.2021
1451 Clouds 15 1010 29 10000 4.63 290 14:42 15.03.2021
1452 Clouds 15 1010 29 10000 4.63 290 14:21 15.03.2021
1453 Clear 15 1011 36 10000 2.57 20 13:46 15.03.2021
1454 Clear 15 1011 36 10000 2.57 20 13:24 15.03.2021
1455 Clear 14 1012 41 10000 2.06 0 12:47 15.03.2021
1456 Clear 13 1013 50 10000 0.51 0 12:18 15.03.2021
1457 Clear 13 1013 50 10000 0.51 0 11:48 15.03.2021
1458 Clear 13 1013 50 10000 0.51 0 11:30 15.03.2021
1459 Clear 11 1013 57 10000 2.06 10 10:45 15.03.2021
1460 Clear 11 1013 57 10000 2.06 10 10:27 15.03.2021
1461 Clear 9 1013 61 10000 2.06 60 09:51 15.03.2021
1462 Clear 9 1013 61 10000 2.06 60 09:31 15.03.2021
1463 Clear 7 1012 76 10000 0.51 0 08:49 15.03.2021
1464 Clear 7 1012 76 10000 0.51 0 08:28 15.03.2021
1465 Clear 5 1012 75 10000 0.51 0 07:49 15.03.2021
1466 Clear 5 1012 81 10000 0.51 0 07:30 15.03.2021
1467 Clear 4 1012 81 10000 0.51 0 06:36 15.03.2021
1468 Clear 4 1011 75 10000 1.54 60 05:24 15.03.2021
1469 Clear 7 1011 70 10000 4.12 40 01:26 15.03.2021
1470 Clear 7 1011 70 10000 4.12 40 01:26 15.03.2021
1471 Clear 8 1010 65 10000 5.14 30 23:52 14.03.2021
1472 Clear 8 1010 61 10000 4.12 10 23:19 14.03.2021
1473 Clear 8 1010 61 10000 3.09 20 22:42 14.03.2021
1474 Clear 8 1010 61 10000 3.09 10 22:19 14.03.2021
1475 Clouds 9 1010 57 10000 4.12 30 21:44 14.03.2021
1476 Clouds 9 1010 53 10000 5.14 20 21:18 14.03.2021
1477 Clouds 9 1010 53 10000 8.23 10 20:43 14.03.2021
1478 Rain 10 1009 53 10000 6.17 360 20:24 14.03.2021
1479 Clouds 12 1008 50 10000 3.09 310 19:42 14.03.2021
1480 Clouds 12 1008 50 10000 3.6 310 19:22 14.03.2021
1481 Clouds 12 1008 47 10000 5.66 310 18:46 14.03.2021
1482 Clouds 14 1008 44 10000 4.12 310 18:18 14.03.2021
1483 Clouds 14 1008 44 10000 4.12 310 17:39 14.03.2021
1484 Clouds 15 1008 44 10000 4.12 310 17:20 14.03.2021
1485 Clouds 15 1008 44 10000 5.66 300 16:46 14.03.2021
1486 Clouds 15 1008 44 10000 5.66 300 16:24 14.03.2021
1487 Clouds 16 1008 59 10000 3.09 310 15:52 14.03.2021
1488 Rain 16 1008 59 10000 3.09 310 15:30 14.03.2021
1489 Clouds 16 1008 59 10000 3.6 220 14:41 14.03.2021
1490 Clouds 16 1009 63 10000 3.09 190 14:20 14.03.2021
1491 Clouds 16 1010 63 10000 2.06 200 13:49 14.03.2021
1492 Clouds 15 1010 63 10000 2.06 200 13:28 14.03.2021
1493 Clouds 15 1011 72 10000 3.09 240 12:45 14.03.2021
1494 Clouds 15 1011 72 10000 3.09 240 12:27 14.03.2021
1495 Clouds 14 1011 77 10000 4.63 240 11:44 14.03.2021
1496 Clouds 14 1011 77 10000 4.63 240 11:26 14.03.2021
1497 Clouds 14 1011 72 10000 5.14 230 10:39 14.03.2021
1498 Clouds 14 1011 72 10000 5.14 230 10:20 14.03.2021
1499 Clouds 14 1012 82 10000 2.57 140 09:59 14.03.2021
1500 Clouds 14 1012 82 10000 2.57 140 09:41 14.03.2021
1501 Clouds 14 1012 82 10000 2.57 140 09:21 14.03.2021
1502 Clouds 13 1012 87 10000 2.06 150 08:40 14.03.2021
1503 Clouds 11 1012 82 10000 3.09 170 07:59 14.03.2021
1504 Clouds 11 1012 82 10000 3.09 170 07:34 14.03.2021
1505 Clear 11 1012 82 10000 4.63 170 05:42 14.03.2021
1506 Clouds 11 1015 82 10000 4.12 180 01:35 14.03.2021
1507 Clouds 11 1015 82 10000 5.14 180 00:49 14.03.2021
1508 Clouds 11 1015 76 10000 4.12 180 00:18 14.03.2021
1509 Clouds 11 1016 82 10000 3.6 180 23:42 13.03.2021
1510 Clouds 12 1016 76 10000 3.09 170 23:20 13.03.2021
1511 Clouds 12 1016 82 10000 3.09 180 22:47 13.03.2021
1512 Clouds 12 1016 82 10000 3.6 180 22:24 13.03.2021
1513 Clouds 12 1016 82 10000 3.6 190 21:36 13.03.2021
1514 Clouds 12 1016 82 10000 3.6 190 21:18 13.03.2021
1515 Clouds 12 1016 82 10000 3.09 180 20:47 13.03.2021
1516 Clouds 12 1016 82 10000 3.09 190 20:26 13.03.2021
1517 Clouds 12 1016 82 10000 3.09 190 19:45 13.03.2021
1518 Clouds 13 1016 76 10000 2.57 210 19:24 13.03.2021
1519 Clouds 14 1016 82 10000 4.12 230 18:43 13.03.2021
1520 Clouds 15 1015 72 10000 5.14 240 18:20 13.03.2021
1521 Clouds 15 1015 72 10000 5.14 240 17:51 13.03.2021
1522 Clouds 16 1015 72 10000 5.14 240 17:32 13.03.2021
1523 Clouds 16 1015 63 10000 4.63 240 16:55 13.03.2021
1524 Clouds 17 1015 63 10000 4.63 240 16:37 13.03.2021
1525 Clouds 17 1016 67 10000 4.63 230 15:56 13.03.2021
1526 Clouds 17 1016 67 10000 4.63 230 15:19 13.03.2021
1527 Clouds 18 1016 52 10000 3.09 200 14:42 13.03.2021
1528 Clouds 18 1017 59 10000 2.57 180 14:21 13.03.2021
1529 Clouds 18 1017 59 10000 2.57 180 13:30 13.03.2021
1530 Clouds 18 1017 63 10000 3.09 170 12:53 13.03.2021
1531 Clouds 18 1017 63 10000 3.09 170 12:35 13.03.2021
1532 Clouds 17 1017 67 10000 3.09 170 11:57 13.03.2021
1533 Clouds 17 1017 67 10000 3.09 170 11:38 13.03.2021
1534 Clouds 17 1017 67 10000 3.09 170 11:19 13.03.2021
1535 Clouds 16 1017 77 10000 1.54 140 10:31 13.03.2021
1536 Clouds 15 1017 88 10000 0.51 0 09:59 13.03.2021
1537 Clouds 14 1017 88 10000 0.51 0 09:33 13.03.2021
1538 Clouds 13 1016 82 10000 2.57 160 08:54 13.03.2021
1539 Clouds 13 1016 82 10000 2.57 160 08:54 13.03.2021
1540 Clouds 12 1016 100 6000 0.51 0 08:26 13.03.2021
1541 Clouds 12 1016 87 10000 2.57 170 07:57 13.03.2021
1542 Clouds 12 1015 82 10000 3.6 180 07:33 13.03.2021
1543 Clouds 12 1014 87 10000 4.12 190 05:30 13.03.2021
1544 Clouds 13 1015 76 10000 3.09 170 02:42 13.03.2021
1545 Clouds 13 1016 76 10000 4.63 180 00:36 13.03.2021
1546 Clouds 13 1016 82 10000 5.66 180 23:46 12.03.2021
1547 Drizzle 13 1016 82 10000 6.17 180 23:26 12.03.2021
1548 Clouds 13 1015 76 10000 6.69 190 22:32 12.03.2021
1549 Clouds 13 1015 76 10000 7.2 180 21:59 12.03.2021
1550 Clouds 13 1015 76 10000 7.2 180 21:38 12.03.2021
1551 Clouds 13 1016 76 10000 6.69 180 21:19 12.03.2021
1552 Clouds 13 1016 76 10000 4.63 180 20:48 12.03.2021
1553 Clouds 13 1016 76 10000 6.17 180 20:24 12.03.2021
1554 Clouds 13 1016 71 10000 4.63 180 19:45 12.03.2021
1555 Clouds 13 1016 71 10000 4.63 180 19:45 12.03.2021
1556 Clouds 13 1016 71 10000 3.6 170 19:26 12.03.2021
1557 Clouds 13 1016 76 10000 4.12 190 18:53 12.03.2021
1558 Clear 13 1016 77 10000 3.6 160 18:29 12.03.2021
1559 Clear 14 1016 77 10000 3.6 160 17:45 12.03.2021
1560 Clear 14 1016 77 10000 3.6 160 17:27 12.03.2021
1561 Clouds 14 1016 72 10000 3.6 180 16:44 12.03.2021
1562 Clouds 14 1016 77 10000 3.09 170 16:25 12.03.2021
1563 Clouds 14 1017 77 10000 3.6 180 15:38 12.03.2021
1564 Clouds 14 1017 72 10000 4.63 180 14:58 12.03.2021
1565 Clouds 14 1017 72 10000 4.63 180 14:38 12.03.2021
1566 Clouds 14 1017 72 10000 4.63 180 14:18 12.03.2021
1567 Clouds 14 1018 72 10000 7.2 190 13:38 12.03.2021
1568 Clouds 15 1019 77 10000 4.63 170 13:19 12.03.2021
1569 Clouds 14 1019 77 10000 4.63 170 12:48 12.03.2021
1570 Clouds 14 1019 77 10000 4.63 170 12:27 12.03.2021
1571 Clouds 14 1019 71 10000 3.09 120 11:54 12.03.2021
1572 Clouds 14 1019 71 10000 3.09 120 11:24 12.03.2021
1573 Clouds 13 1020 71 10000 2.57 120 10:57 12.03.2021
1574 Clouds 13 1020 71 10000 2.57 120 10:28 12.03.2021
1575 Clouds 13 1020 71 10000 2.57 120 10:28 12.03.2021
1576 Clouds 13 1019 67 10000 3.09 120 09:57 12.03.2021
1577 Clouds 13 1019 67 10000 3.09 120 09:27 12.03.2021
1578 Clear 12 1019 76 10000 1.54 140 08:47 12.03.2021
1579 Clear 12 1019 76 10000 1.54 140 08:26 12.03.2021
1580 Clouds 12 1019 71 10000 4.63 170 07:40 12.03.2021
1581 Clouds 12 1019 76 10000 5.14 160 06:57 12.03.2021
1582 Clear 12 1019 76 10000 4.12 170 06:29 12.03.2021
1583 Clear 12 1020 71 10000 4.12 170 02:58 12.03.2021
1584 Clear 12 1022 71 10000 3.09 190 00:51 12.03.2021
1585 Clouds 12 1022 66 10000 3.09 170 23:34 11.03.2021
1586 Clouds 12 1022 66 10000 3.09 180 22:51 11.03.2021
1587 Clouds 12 1023 71 10000 3.09 170 22:31 11.03.2021
1588 Clouds 12 1023 71 10000 2.57 170 21:56 11.03.2021
1589 Clouds 12 1023 71 10000 2.57 170 21:37 11.03.2021
1590 Clouds 12 1023 76 10000 2.57 180 21:19 11.03.2021
1591 Clouds 12 1023 76 10000 2.06 190 20:41 11.03.2021
1592 Clouds 12 1019 57 10000 1.81 177 20:19 11.03.2021
1593 Clouds 12 1023 71 10000 2.57 200 19:45 11.03.2021
1594 Clouds 13 1023 66 10000 2.57 210 19:26 11.03.2021
1595 Clouds 13 1022 66 10000 2.57 220 18:48 11.03.2021
1596 Clear 13 1022 62 10000 3.6 240 18:29 11.03.2021
1597 Clear 14 1022 62 10000 3.6 240 17:44 11.03.2021
1598 Clouds 14 1023 58 10000 3.09 240 16:54 11.03.2021
1599 Clouds 15 1023 58 10000 3.09 240 16:28 11.03.2021
1600 Clouds 15 1023 51 10000 4.63 240 15:49 11.03.2021
1601 Clouds 15 1023 51 10000 4.63 240 15:22 11.03.2021
1602 Clear 16 1023 44 10000 4.63 230 14:49 11.03.2021
1603 Clear 16 1023 44 10000 4.63 230 14:20 11.03.2021
1604 Clear 16 1023 36 10000 2.57 190 13:49 11.03.2021
1605 Clear 15 1023 36 10000 2.57 190 13:31 11.03.2021
1606 Clear 15 1024 33 10000 1.54 270 12:58 11.03.2021
1607 Clear 15 1024 33 10000 1.54 270 12:39 11.03.2021
1608 Clear 15 1024 33 10000 1.54 270 12:21 11.03.2021
1609 Clear 15 1024 38 10000 0.51 0 11:43 11.03.2021
1610 Clear 14 1024 38 10000 0.51 0 11:21 11.03.2021
1611 Clear 13 1024 54 10000 1.54 0 10:42 11.03.2021
1612 Clear 11 1024 50 10000 0.51 0 10:20 11.03.2021
1613 Clear 8 1023 70 10000 1.54 10 09:41 11.03.2021
1614 Clear 8 1023 70 10000 1.54 10 09:22 11.03.2021
1615 Clear 6 1023 93 10000 0.51 0 08:47 11.03.2021
1616 Clear 5 1023 93 10000 0.51 0 08:19 11.03.2021
1617 Clear 3 1021 75 10000 1.03 0 07:29 11.03.2021
1618 Clear 4 1021 65 10000 1.54 40 06:50 11.03.2021
1619 Clear 4 1021 69 10000 2.57 70 06:30 11.03.2021
1620 Clear 5 1020 70 10000 2.06 80 03:43 11.03.2021
1621 Clear 7 1020 56 10000 1.54 70 01:18 11.03.2021
1622 Clear 8 1019 49 10000 1.03 350 23:32 10.03.2021
1623 Clear 8 1019 49 10000 1.03 350 23:32 10.03.2021
1624 Clear 8 1019 46 10000 2.06 50 22:57 10.03.2021
1625 Clear 9 1018 46 10000 3.6 50 22:33 10.03.2021
1626 Clear 10 1018 43 10000 2.57 50 21:47 10.03.2021
1627 Clear 10 1018 43 10000 3.09 50 21:26 10.03.2021
1628 Clear 10 1018 46 10000 2.57 60 20:51 10.03.2021
1629 Clear 11 1018 46 10000 2.57 60 20:33 10.03.2021
1630 Clear 11 1017 40 10000 5.66 360 19:54 10.03.2021
1631 Clear 12 1016 40 10000 5.14 360 19:30 10.03.2021
1632 Clear 12 1016 43 10000 5.14 360 18:55 10.03.2021
1633 Clear 13 1016 43 10000 5.14 360 18:36 10.03.2021
1634 Clear 13 1015 36 10000 6.17 360 18:18 10.03.2021
1635 Clear 14 1015 36 10000 6.17 360 17:41 10.03.2021
1636 Clear 15 1015 36 10000 6.17 360 17:19 10.03.2021
1637 Clear 15 1014 38 10000 7.2 350 16:47 10.03.2021
1638 Clear 15 1014 38 10000 7.2 350 16:25 10.03.2021
1639 Clear 16 1014 41 10000 7.2 350 15:49 10.03.2021
1640 Clear 16 1014 41 10000 7.2 350 15:25 10.03.2021
1641 Clear 16 1014 41 10000 6.17 10 14:57 10.03.2021
1642 Clear 16 1014 41 10000 6.17 10 14:22 10.03.2021
1643 Clear 16 1014 44 10000 5.66 360 13:54 10.03.2021
1644 Clear 15 1014 44 10000 5.66 360 13:31 10.03.2021
1645 Clear 15 1014 47 10000 4.63 360 12:48 10.03.2021
1646 Clear 14 1014 47 10000 4.63 360 12:24 10.03.2021
1647 Clear 14 1014 54 10000 5.14 20 11:50 10.03.2021
1648 Clear 13 1014 54 10000 5.14 20 11:25 10.03.2021
1649 Clear 12 1013 71 10000 2.57 20 10:51 10.03.2021
1650 Clear 12 1013 71 10000 2.57 20 10:32 10.03.2021
1651 Clear 10 1013 87 10000 1.03 0 09:55 10.03.2021
1652 Clear 10 1013 87 10000 1.03 0 09:37 10.03.2021
1653 Clear 8 1012 100 10000 3.59 6 09:18 10.03.2021
1654 Clear 8 1012 100 10000 3.59 6 08:43 10.03.2021
1655 Clear 7 1012 100 10000 3.91 6 08:25 10.03.2021
1656 Clouds 6 1012 87 10000 2.57 50 07:42 10.03.2021
1657 Clouds 6 1011 87 10000 2.57 50 07:24 10.03.2021
1658 Clouds 6 1011 87 10000 3.09 50 06:51 10.03.2021
1659 Clouds 7 1010 93 10000 3.09 30 02:44 10.03.2021
1660 Clouds 8 1010 87 10000 2.57 30 00:31 10.03.2021
1661 Clouds 9 1010 87 8000 3.09 30 23:33 09.03.2021
1662 Clouds 9 1009 93 7000 2.57 10 22:52 09.03.2021
1663 Mist 9 1009 93 5000 2.06 350 22:34 09.03.2021
1664 Mist 9 1009 93 5000 3.09 360 21:58 09.03.2021
1665 Mist 9 1009 93 5000 3.09 360 21:38 09.03.2021
1666 Mist 9 1009 93 5000 2.57 30 21:19 09.03.2021
1667 Mist 9 1009 93 5000 2.57 30 20:45 09.03.2021
1668 Mist 10 1009 93 5000 3.09 40 20:23 09.03.2021
1669 Clouds 10 1009 93 6000 3.09 40 19:57 09.03.2021
1670 Clouds 10 1009 93 10000 3.6 40 19:29 09.03.2021
1671 Clouds 10 1005 100 10000 2.99 358 18:54 09.03.2021
1672 Clouds 10 1005 100 10000 2.99 358 18:30 09.03.2021
1673 Mist 10 1008 93 3000 3.6 360 17:59 09.03.2021
1674 Mist 10 1008 93 3000 3.6 360 17:39 09.03.2021
1675 Mist 10 1008 93 3000 3.6 360 17:20 09.03.2021
1676 Clouds 11 1008 87 10000 3.6 10 16:40 09.03.2021
1677 Clouds 11 1008 87 10000 3.6 10 16:20 09.03.2021
1678 Clouds 11 1008 87 8000 3.09 10 15:47 09.03.2021
1679 Clouds 11 1008 87 8000 3.09 10 15:24 09.03.2021
1680 Clouds 11 1009 87 9000 3.09 10 14:46 09.03.2021
1681 Clouds 12 1009 87 9000 3.09 10 14:24 09.03.2021
1682 Clouds 12 1009 87 9000 3.09 30 13:39 09.03.2021
1683 Clouds 12 1009 87 9000 3.09 30 13:21 09.03.2021
1684 Rain 12 1009 87 10000 3.6 50 12:46 09.03.2021
1685 Rain 12 1009 87 10000 3.6 50 12:27 09.03.2021
1686 Clouds 12 1010 82 10000 3.09 20 11:42 09.03.2021
1687 Clouds 12 1010 82 10000 3.09 20 11:21 09.03.2021
1688 Rain 12 1010 82 10000 3.09 30 10:57 09.03.2021
1689 Clouds 12 1010 82 10000 3.09 30 10:39 09.03.2021
1690 Clouds 11 1010 82 10000 3.09 30 10:20 09.03.2021
1691 Clouds 11 1010 87 10000 4.12 20 09:45 09.03.2021
1692 Clouds 11 1010 87 10000 4.12 20 09:26 09.03.2021
1693 Clouds 10 1010 93 10000 2.57 10 08:48 09.03.2021
1694 Clouds 10 1010 93 10000 2.57 10 08:29 09.03.2021
1695 Clouds 9 1009 93 6000 1.54 160 07:41 09.03.2021
1696 Clouds 10 1009 87 6000 3.09 150 07:22 09.03.2021
1697 Rain 9 1009 93 5000 4.12 150 06:38 09.03.2021
1698 Rain 9 1009 93 6000 4.63 60 05:48 09.03.2021
1699 Rain 9 1012 93 7000 2.57 30 00:43 09.03.2021
1700 Rain 10 1013 87 8000 3.09 90 23:45 08.03.2021
1701 Rain 10 1013 87 9000 4.63 110 23:27 08.03.2021
1702 Rain 10 1013 87 9000 2.57 100 22:58 08.03.2021
1703 Rain 10 1013 87 9000 2.57 100 22:39 08.03.2021
1704 Rain 10 1013 93 9000 1.54 70 22:20 08.03.2021
1705 Rain 10 1013 87 9000 2.06 70 21:40 08.03.2021
1706 Rain 10 1013 81 9000 3.6 110 21:20 08.03.2021
1707 Rain 10 1013 81 9000 4.12 120 20:38 08.03.2021
1708 Rain 10 1013 81 9000 4.63 140 20:18 08.03.2021
1709 Rain 11 1013 71 10000 6.17 130 19:38 08.03.2021
1710 Drizzle 11 1012 71 10000 5.14 110 18:48 08.03.2021
1711 Clouds 11 1013 87 10000 2.57 50 18:23 08.03.2021
1712 Clouds 11 1013 87 10000 2.57 50 17:58 08.03.2021
1713 Clouds 11 1013 87 10000 2.57 50 17:39 08.03.2021
1714 Clouds 11 1014 87 10000 2.06 80 16:59 08.03.2021
1715 Clouds 11 1014 87 10000 2.06 80 16:40 08.03.2021
1716 Clouds 11 1014 87 10000 2.06 80 16:21 08.03.2021
1717 Rain 11 1014 93 4000 2.57 90 15:38 08.03.2021
1718 Rain 11 1014 93 4000 2.57 90 15:18 08.03.2021
1719 Rain 11 1014 87 3000 4.12 100 14:21 08.03.2021
1720 Rain 11 1015 93 3000 3.09 110 13:47 08.03.2021
1721 Rain 11 1015 93 3000 3.09 110 13:23 08.03.2021
1722 Rain 11 1015 93 4000 3.6 110 12:55 08.03.2021
1723 Rain 11 1015 93 4000 3.6 110 12:29 08.03.2021
1724 Rain 11 1015 93 3500 3.6 110 11:45 08.03.2021
1725 Rain 11 1015 93 3500 3.6 110 11:20 08.03.2021
1726 Mist 11 1015 93 3500 3.09 110 10:47 08.03.2021
1727 Rain 11 1015 93 3500 3.09 110 10:28 08.03.2021
1728 Rain 10 1015 93 3500 3.09 120 09:45 08.03.2021
1729 Mist 10 1015 100 2000 1.54 50 09:25 08.03.2021
1730 Rain 10 1015 93 2000 1.54 350 08:31 08.03.2021
1731 Rain 10 1015 93 3000 2.06 210 07:51 08.03.2021
1732 Clouds 10 1014 93 10000 1.03 0 07:21 08.03.2021
1733 Clouds 10 1015 93 10000 3.09 80 05:20 08.03.2021
1734 Rain 10 1017 93 7000 3.09 50 01:45 08.03.2021
1735 Rain 10 1018 93 8000 2.06 30 00:41 08.03.2021
1736 Rain 10 1018 93 8000 1.54 70 23:53 07.03.2021
1737 Rain 10 1018 93 8000 1.03 0 23:20 07.03.2021
1738 Rain 10 1018 93 8000 2.57 80 22:47 07.03.2021
1739 Rain 11 1019 93 6000 2.57 60 22:27 07.03.2021
1740 Rain 11 1019 93 8000 2.57 40 21:50 07.03.2021
1741 Rain 11 1019 93 8000 2.57 40 21:32 07.03.2021
1742 Clouds 11 1019 93 10000 1.03 0 20:58 07.03.2021
1743 Rain 11 1019 93 10000 1.03 0 20:40 07.03.2021
1744 Rain 11 1019 93 10000 2.06 50 20:18 07.03.2021
1745 Clouds 11 1019 87 10000 1.54 50 19:40 07.03.2021
1746 Clouds 11 1019 87 9000 2.06 50 19:22 07.03.2021
1747 Drizzle 12 1019 87 10000 1.54 20 18:50 07.03.2021
1748 Drizzle 12 1020 87 4000 1.54 340 18:20 07.03.2021
1749 Drizzle 12 1020 87 4000 1.54 340 17:56 07.03.2021
1750 Drizzle 12 1020 87 4000 1.54 340 17:37 07.03.2021
1751 Drizzle 12 1020 87 4000 1.54 340 17:18 07.03.2021
1752 Drizzle 12 1020 87 4000 1.54 340 17:18 07.03.2021
1753 Drizzle 12 1020 87 4000 1.54 340 17:18 07.03.2021
1754 Clouds 12 1020 87 4000 1.54 350 16:42 07.03.2021
1755 Clouds 12 1020 87 4000 1.54 350 16:20 07.03.2021
1756 Clouds 12 1020 87 4000 1.54 340 15:47 07.03.2021
1757 Clouds 13 1021 87 8000 2.57 360 15:29 07.03.2021
1758 Clouds 13 1022 82 9000 3.6 360 14:47 07.03.2021
1759 Clouds 13 1021 71 10000 2.57 10 14:28 07.03.2021
1760 Clouds 14 1022 76 10000 3.09 30 13:44 07.03.2021
1761 Clouds 13 1022 76 10000 2.06 10 13:24 07.03.2021
1762 Clouds 12 1023 82 10000 2.57 30 12:47 07.03.2021
1763 Clouds 12 1023 82 10000 2.06 50 12:29 07.03.2021
1764 Clouds 12 1023 82 10000 2.06 50 12:29 07.03.2021
1765 Clouds 11 1023 82 10000 2.57 30 11:52 07.03.2021
1766 Clouds 11 1023 81 10000 2.57 30 11:23 07.03.2021
1767 Clouds 10 1024 87 8000 3.6 30 10:50 07.03.2021
1768 Clouds 9 1024 87 8000 3.6 30 10:31 07.03.2021
1769 Clouds 9 1024 87 8000 2.57 20 09:51 07.03.2021
1770 Clouds 9 1024 87 8000 2.57 20 09:26 07.03.2021
1771 Drizzle 9 1024 93 6000 2.57 10 08:48 07.03.2021
1772 Rain 8 1024 93 6000 2.57 10 08:25 07.03.2021
1773 Clouds 8 1023 87 10000 2.06 30 07:51 07.03.2021
1774 Clouds 9 1024 81 10000 2.06 40 02:44 07.03.2021
1775 Clouds 10 1024 81 10000 2.57 30 01:45 07.03.2021
1776 Clouds 11 1024 82 10000 1.03 330 23:56 06.03.2021
1777 Clouds 11 1024 82 10000 1.03 330 23:37 06.03.2021
1778 Clouds 11 1024 82 8000 0.51 0 22:52 06.03.2021
1779 Clouds 12 1024 87 8000 1.03 30 22:30 06.03.2021
1780 Clouds 12 1024 87 8000 1.03 0 21:59 06.03.2021
1781 Clouds 12 1024 82 8000 2.06 80 21:25 06.03.2021
1782 Clouds 12 1024 82 8000 2.06 110 20:55 06.03.2021
1783 Clouds 12 1024 82 8000 2.06 110 20:36 06.03.2021
1784 Clouds 13 1024 82 8000 1.54 70 19:50 06.03.2021
1785 Clouds 13 1024 82 8000 2.06 120 19:23 06.03.2021
1786 Clouds 13 1023 76 10000 1.03 0 18:57 06.03.2021
1787 Clouds 14 1023 76 10000 1.03 0 18:38 06.03.2021
1788 Clouds 14 1023 88 7000 2.06 30 18:18 06.03.2021
1789 Clouds 14 1023 88 7000 2.06 30 17:45 06.03.2021
1790 Clouds 14 1023 88 7000 2.06 30 17:25 06.03.2021
1791 Clouds 14 1023 77 10000 1.54 230 16:52 06.03.2021
1792 Rain 14 1023 72 10000 3.6 250 16:29 06.03.2021
1793 Rain 15 1022 59 10000 0.51 0 15:54 06.03.2021
1794 Clouds 16 1022 59 10000 0.51 0 15:34 06.03.2021
1795 Clouds 16 1023 59 10000 1.54 310 14:54 06.03.2021
1796 Clouds 16 1023 59 10000 1.54 310 14:30 06.03.2021
1797 Clouds 16 1023 59 10000 1.03 0 13:44 06.03.2021
1798 Clouds 15 1023 59 10000 1.03 0 13:23 06.03.2021
1799 Clear 16 1023 67 10000 1.03 0 12:46 06.03.2021
1800 Clear 15 1023 67 10000 1.03 0 12:20 06.03.2021
1801 Clouds 15 1023 72 10000 1.54 100 12:20 06.03.2021
1802 Clouds 15 1023 76 8000 1.54 40 11:57 06.03.2021
1803 Mist 14 1023 87 4000 1.03 330 11:22 06.03.2021
1804 Mist 13 1023 87 4000 1.03 330 10:52 06.03.2021
1805 Mist 12 1023 87 4000 1.03 330 10:28 06.03.2021
1806 Mist 12 1023 93 3000 1.54 20 09:50 06.03.2021
1807 Mist 11 1023 93 3000 1.54 20 09:21 06.03.2021
1808 Mist 11 1023 93 3000 1.03 10 08:52 06.03.2021
1809 Mist 10 1022 93 2000 2.06 360 08:25 06.03.2021
1810 Mist 10 1021 93 2000 0.51 0 07:42 06.03.2021
1811 Mist 10 1021 93 4500 1.03 50 07:21 06.03.2021
1812 Clouds 10 1020 93 10000 3.09 60 05:40 06.03.2021
1813 Rain 11 1020 87 7000 0.51 0 02:52 06.03.2021
1814 Clouds 11 1020 76 10000 0.51 150 01:28 06.03.2021
1815 Clouds 11 1020 76 10000 1.03 100 00:44 06.03.2021
1816 Clouds 11 1020 76 10000 1.03 0 23:39 05.03.2021
1817 Clouds 11 1020 76 10000 1.03 0 23:39 05.03.2021
1818 Clouds 11 1020 81 10000 0.51 0 23:18 05.03.2021
1819 Clouds 11 1019 76 10000 0.51 0 22:43 05.03.2021
1820 Clouds 11 1019 82 10000 0.51 0 22:20 05.03.2021
1821 Clouds 12 1019 76 10000 1.03 0 21:42 05.03.2021
1822 Clouds 12 1019 76 10000 2.06 140 21:23 05.03.2021
1823 Clouds 12 1019 76 10000 2.06 150 20:43 05.03.2021
1824 Clouds 12 1019 76 10000 1.54 170 20:23 05.03.2021
1825 Clouds 12 1018 76 10000 2.57 170 19:44 05.03.2021
1826 Clouds 12 1018 82 10000 3.09 180 19:22 05.03.2021
1827 Clouds 13 1018 82 10000 3.09 190 18:44 05.03.2021
1828 Clouds 13 1017 72 10000 4.12 220 18:25 05.03.2021
1829 Clouds 13 1017 72 10000 4.12 220 17:49 05.03.2021
1830 Clouds 14 1017 72 10000 4.12 220 17:31 05.03.2021
1831 Clouds 14 1017 63 10000 3.6 210 16:42 05.03.2021
1832 Clouds 14 1017 63 10000 3.6 210 16:23 05.03.2021
1833 Clear 15 1017 63 10000 2.57 200 15:54 05.03.2021
1834 Clear 15 1017 63 10000 2.57 200 15:27 05.03.2021
1835 Clouds 15 1017 63 10000 3.6 200 14:46 05.03.2021
1836 Clouds 15 1017 63 10000 3.6 200 14:27 05.03.2021
1837 Clouds 14 1018 55 10000 3.09 210 13:43 05.03.2021
1838 Clouds 14 1018 55 10000 3.09 210 13:21 05.03.2021
1839 Clouds 15 1018 62 10000 4.63 210 12:45 05.03.2021
1840 Clear 15 1018 58 10000 1.54 350 11:40 05.03.2021
1841 Clear 15 1018 58 10000 1.54 350 11:19 05.03.2021
1842 Clouds 15 1018 54 10000 1.54 0 10:57 05.03.2021
1843 Clouds 14 1018 54 10000 1.54 0 10:37 05.03.2021
1844 Clouds 13 1018 54 10000 1.03 0 10:18 05.03.2021
1845 Clouds 12 1018 71 10000 0.51 0 09:38 05.03.2021
1846 Clouds 11 1019 66 10000 1.03 0 09:20 05.03.2021
1847 Clouds 9 1019 81 10000 1.03 20 08:39 05.03.2021
1848 Rain 8 1019 100 10000 1.54 350 08:20 05.03.2021
1849 Rain 8 1018 76 10000 1.54 50 07:34 05.03.2021
1850 Clear 8 1019 81 10000 1.54 20 06:35 05.03.2021
1851 Clear 8 1019 76 10000 1.03 0 05:42 05.03.2021
1852 Clear 8 1021 76 10000 2.57 140 01:18 05.03.2021
1853 Clear 9 1021 76 10000 2.06 150 23:55 04.03.2021
1854 Clear 10 1021 71 10000 2.06 150 23:24 04.03.2021
1855 Clouds 10 1021 71 10000 1.54 170 22:30 04.03.2021
1856 Clouds 10 1022 71 10000 1.54 150 21:54 04.03.2021
1857 Clouds 10 1022 71 10000 1.54 150 21:33 04.03.2021
1858 Clouds 10 1022 71 10000 1.54 150 20:58 04.03.2021
1859 Clouds 11 1022 71 10000 1.54 150 20:39 04.03.2021
1860 Clouds 11 1022 71 10000 1.54 170 20:20 04.03.2021
1861 Clear 11 1022 66 10000 1.54 190 19:49 04.03.2021
1862 Clear 12 1022 66 10000 2.06 190 19:23 04.03.2021
1863 Clear 12 1022 69 10000 1.45 233 18:51 04.03.2021
1864 Clouds 13 1022 58 10000 3.6 230 18:30 04.03.2021
1865 Clear 14 1022 51 10000 3.6 260 17:48 04.03.2021
1866 Clear 14 1022 51 10000 3.6 260 17:30 04.03.2021
1867 Clouds 15 1022 58 10000 3.09 230 16:51 04.03.2021
1868 Clouds 15 1022 58 10000 3.09 230 16:32 04.03.2021
1869 Clouds 16 1023 48 10000 1.54 0 15:57 04.03.2021
1870 Clouds 16 1023 48 10000 1.54 0 15:38 04.03.2021
1871 Clouds 16 1023 48 10000 1.54 0 15:20 04.03.2021
1872 Clouds 16 1024 51 10000 2.57 50 14:39 04.03.2021
1873 Clouds 16 1025 58 10000 2.57 340 13:57 04.03.2021
1874 Clouds 16 1025 58 10000 2.57 340 13:36 04.03.2021
1875 Clouds 16 1025 58 10000 2.57 340 13:18 04.03.2021
1876 Clear 15 1026 58 10000 1.03 0 12:40 04.03.2021
1877 Clear 14 1026 76 10000 0.51 0 11:49 04.03.2021
1878 Clear 14 1026 76 10000 0.51 0 11:28 04.03.2021
1879 Clouds 14 1026 82 9000 1.54 360 10:57 04.03.2021
1880 Clouds 13 1026 82 9000 1.54 360 10:35 04.03.2021
1881 Mist 10 1027 100 3000 2.06 350 09:51 04.03.2021
1882 Clear 10 1026 81 10000 1.54 10 09:26 04.03.2021
1883 Mist 7 1027 100 1500 1.54 350 08:49 04.03.2021
1884 Fog 7 1027 93 1500 2.06 350 08:23 04.03.2021
1885 Clear 6 1026 93 10000 0.51 0 07:35 04.03.2021
1886 Clear 7 1026 87 10000 1.03 160 06:28 04.03.2021
1887 Clear 6 1026 87 10000 0.51 0 05:42 04.03.2021
1888 Clear 8 1028 87 10000 2.57 160 02:20 04.03.2021
1889 Clear 9 1029 76 10000 2.57 160 23:36 03.03.2021
1890 Clear 10 1029 71 10000 2.57 160 22:29 03.03.2021
1891 Clear 10 1029 76 10000 2.06 170 21:57 03.03.2021
1892 Clear 10 1029 76 10000 2.06 170 21:39 03.03.2021
1893 Clear 10 1029 76 10000 2.06 170 21:21 03.03.2021
1894 Clear 11 1029 71 10000 2.06 170 20:43 03.03.2021
1895 Clear 11 1029 71 10000 1.54 190 20:24 03.03.2021
1896 Clear 12 1029 71 10000 2.06 210 19:47 03.03.2021
1897 Clear 12 1029 71 10000 2.06 210 19:28 03.03.2021
1898 Clear 13 1030 72 10000 0.45 231 18:53 03.03.2021
1899 Clear 13 1029 66 10000 2.57 210 18:34 03.03.2021
1900 Clear 15 1029 62 10000 3.09 230 17:57 03.03.2021
1901 Clear 16 1029 63 10000 3.6 230 17:20 03.03.2021
1902 Clear 16 1029 67 10000 3.6 230 16:51 03.03.2021
1903 Clear 17 1029 59 10000 3.6 250 16:27 03.03.2021
1904 Clear 17 1030 59 10000 3.6 240 15:51 03.03.2021
1905 Clear 17 1030 59 10000 4.12 250 15:31 03.03.2021
1906 Clear 18 1030 34 10000 0.51 0 14:39 03.03.2021
1907 Clear 18 1030 34 10000 0.51 0 14:20 03.03.2021
1908 Clear 18 1031 34 10000 0.51 0 13:39 03.03.2021
1909 Clear 18 1032 48 10000 1.03 0 13:21 03.03.2021
1910 Clear 17 1032 48 10000 1.03 0 12:41 03.03.2021
1911 Clear 16 1032 51 10000 1.54 0 12:22 03.03.2021
1912 Clear 15 1032 62 10000 1.03 0 11:44 03.03.2021
1913 Clear 15 1032 62 10000 1.03 0 11:26 03.03.2021
1914 Clear 12 1032 71 10000 1.54 350 10:45 03.03.2021
1915 Clear 12 1032 71 10000 1.54 350 10:21 03.03.2021
1916 Clear 9 1033 93 10000 1.54 340 09:41 03.03.2021
1917 Clear 7 1032 93 8000 0.51 350 08:52 03.03.2021
1918 Clear 7 1032 93 8000 0.51 350 08:24 03.03.2021
1919 Clear 5 1032 87 10000 1.03 40 07:55 03.03.2021
1920 Clear 7 1031 81 10000 1.54 0 07:26 03.03.2021
1921 Clear 6 1031 87 10000 1.03 0 06:22 03.03.2021
1922 Clear 7 1031 75 10000 1.54 40 05:44 03.03.2021
1923 Clear 7 1031 81 10000 1.54 70 04:36 03.03.2021
1924 Clear 7 1031 81 10000 1.03 40 03:53 03.03.2021
1925 Clear 9 1032 53 10000 1.54 160 00:28 03.03.2021
1926 Clear 10 1032 50 10000 1.54 150 23:34 02.03.2021
1927 Clear 10 1032 66 10000 1.54 140 22:52 02.03.2021
1928 Clear 10 1032 76 10000 2.06 140 22:22 02.03.2021
1929 Clear 10 1032 76 10000 2.06 140 21:51 02.03.2021
1930 Clear 11 1031 76 10000 2.06 150 21:33 02.03.2021
1931 Clear 11 1031 76 10000 1.03 0 20:55 02.03.2021
1932 Clear 11 1031 76 10000 1.03 0 20:37 02.03.2021
1933 Clear 11 1031 76 10000 1.54 220 20:19 02.03.2021
1934 Clear 13 1028 54 10000 0.79 317 19:46 02.03.2021
1935 Clear 13 1031 62 10000 2.06 210 19:26 02.03.2021
1936 Clear 14 1031 50 10000 1.54 250 18:41 02.03.2021
1937 Clear 14 1031 47 10000 2.06 280 18:21 02.03.2021
1938 Clear 15 1030 47 10000 2.57 290 17:57 02.03.2021
1939 Clear 16 1030 48 10000 4.12 270 17:38 02.03.2021
1940 Clear 16 1030 48 10000 4.12 270 17:18 02.03.2021
1941 Clear 17 1030 42 10000 3.09 250 16:40 02.03.2021
1942 Clear 18 1030 45 10000 2.57 300 15:54 02.03.2021
1943 Clear 18 1030 45 10000 2.57 300 15:26 02.03.2021
1944 Clear 18 1031 42 10000 1.03 0 14:44 02.03.2021
1945 Clear 18 1031 42 10000 1.03 0 14:18 02.03.2021
1946 Clear 17 1031 48 10000 1.03 0 13:44 02.03.2021
1947 Clear 17 1031 48 10000 1.03 0 13:23 02.03.2021
1948 Clear 17 1032 51 10000 1.54 330 12:45 02.03.2021
1949 Clear 16 1032 51 10000 1.54 330 12:24 02.03.2021
1950 Clear 15 1032 50 10000 2.06 350 11:44 02.03.2021
1951 Clear 14 1032 50 10000 2.06 350 11:22 02.03.2021
1952 Clear 12 1032 66 10000 2.57 340 10:43 02.03.2021
1953 Clear 12 1032 66 10000 2.57 340 10:24 02.03.2021
1954 Clear 10 1032 76 10000 1.03 0 09:41 02.03.2021
1955 Clear 9 1032 76 10000 1.03 0 09:22 02.03.2021
1956 Clear 7 1031 93 10000 0.51 0 08:40 02.03.2021
1957 Clear 7 1030 75 10000 1.54 50 08:22 02.03.2021
1958 Clear 6 1030 81 10000 2.06 50 07:40 02.03.2021
1959 Clear 6 1029 87 10000 2.06 30 06:36 02.03.2021
1960 Clear 6 1029 87 10000 1.03 20 05:46 02.03.2021
1961 Clear 6 1029 87 10000 1.03 20 05:46 02.03.2021
1962 Clear 6 1029 87 10000 1.54 30 05:28 02.03.2021
1963 Clear 7 1029 87 10000 0.51 0 01:46 02.03.2021
1964 Clear 9 1029 87 10000 1.54 110 01:28 02.03.2021
1965 Clear 9 1028 81 10000 1.54 80 00:52 02.03.2021
1966 Clear 9 1028 81 10000 2.06 160 23:29 01.03.2021
1967 Clear 10 1028 81 10000 1.54 180 22:43 01.03.2021
1968 Clear 10 1028 81 10000 1.54 160 22:23 01.03.2021
1969 Clear 11 1028 81 10000 1.54 170 21:51 01.03.2021
1970 Clear 11 1028 76 10000 1.54 120 21:24 01.03.2021
1971 Clear 11 1028 76 10000 1.54 170 20:49 01.03.2021
1972 Clear 11 1028 76 10000 1.54 160 20:28 01.03.2021
1973 Clear 12 1028 76 10000 1.03 200 19:56 01.03.2021
1974 Clear 12 1028 76 10000 1.03 200 19:34 01.03.2021
1975 Clear 13 1027 76 10000 2.06 250 18:59 01.03.2021
1976 Clear 13 1027 76 10000 2.06 250 18:36 01.03.2021
1977 Clear 14 1026 63 10000 4.63 270 18:18 01.03.2021
1978 Clear 15 1026 63 10000 4.63 270 17:41 01.03.2021
1979 Clear 15 1026 63 10000 4.63 270 17:19 01.03.2021
1980 Clear 16 1026 55 10000 4.12 280 16:44 01.03.2021
1981 Clear 17 1026 55 10000 4.12 280 16:26 01.03.2021
1982 Clear 17 1027 36 10000 1.03 0 15:42 01.03.2021
1983 Clear 17 1027 36 10000 1.03 0 15:21 01.03.2021
1984 Clear 17 1027 48 10000 1.54 10 14:48 01.03.2021
1985 Clear 17 1027 48 10000 1.54 10 14:29 01.03.2021
1986 Clear 16 1028 59 10000 1.03 0 13:43 01.03.2021
1987 Clear 16 1028 59 10000 1.03 0 13:24 01.03.2021
1988 Clear 15 1028 58 10000 1.03 0 12:55 01.03.2021
1989 Clear 16 1028 58 10000 1.03 0 12:36 01.03.2021
1990 Clear 15 1028 58 10000 1.03 0 12:18 01.03.2021
1991 Clear 14 1029 58 10000 1.54 360 11:40 01.03.2021
1992 Clear 12 1029 62 10000 2.57 350 10:45 01.03.2021
1993 Clear 11 1029 62 10000 2.57 350 10:23 01.03.2021
1994 Clear 9 1029 76 10000 1.54 350 09:58 01.03.2021
1995 Clear 9 1029 76 10000 1.54 350 09:40 01.03.2021
1996 Clear 8 1029 76 10000 1.54 350 09:21 01.03.2021
1997 Clear 6 1028 87 10000 1.54 360 08:48 01.03.2021
1998 Clear 6 1028 87 10000 1.54 360 08:18 01.03.2021
1999 Clear 6 1027 81 10000 2.57 50 06:53 01.03.2021
2000 Clear 6 1027 81 10000 1.54 50 04:21 01.03.2021
2001 Clear 9 1027 71 10000 1.54 40 00:44 01.03.2021
2002 Clear 9 1027 71 10000 2.06 70 23:36 28.02.2021
2003 Clear 10 1027 76 10000 2.06 150 22:51 28.02.2021
2004 Clear 10 1027 71 10000 2.06 160 22:23 28.02.2021
2005 Clear 11 1026 71 10000 2.06 170 21:51 28.02.2021
2006 Clear 11 1026 76 10000 2.06 170 21:28 28.02.2021
2007 Clear 11 1026 76 10000 2.06 170 21:28 28.02.2021
2008 Clear 11 1026 76 10000 2.57 170 20:56 28.02.2021
2009 Clear 12 1026 71 10000 2.06 180 20:36 28.02.2021
2010 Clear 13 1026 71 10000 2.57 210 19:47 28.02.2021
2011 Clear 13 1026 71 10000 2.57 210 19:47 28.02.2021
2012 Clear 14 1026 62 10000 2.06 190 19:28 28.02.2021
2013 Clear 14 1025 58 10000 2.06 220 18:57 28.02.2021
2014 Clear 14 1025 58 10000 2.06 220 18:57 28.02.2021
2015 Clear 14 1025 58 10000 2.06 220 18:37 28.02.2021
2016 Clear 15 1025 58 10000 2.57 260 18:18 28.02.2021
2017 Clear 16 1025 37 10000 2.06 350 17:45 28.02.2021
2018 Clear 17 1025 37 10000 2.06 350 17:27 28.02.2021
2019 Clear 18 1025 39 10000 2.57 300 16:50 28.02.2021
2020 Clear 18 1025 39 10000 2.57 300 16:30 28.02.2021
2021 Clear 19 1025 37 10000 2.57 360 15:53 28.02.2021
2022 Clear 19 1025 37 10000 2.57 360 15:31 28.02.2021
2023 Clear 19 1026 39 10000 0.51 0 14:59 28.02.2021
2024 Clear 19 1026 39 10000 0.51 0 14:39 28.02.2021
2025 Clear 19 1026 39 10000 0.51 0 14:20 28.02.2021
2026 Clear 18 1026 36 10000 1.54 0 13:41 28.02.2021
2027 Clear 18 1026 36 10000 1.54 0 13:41 28.02.2021
2028 Clear 18 1026 36 10000 1.54 0 13:19 28.02.2021
2029 Clear 18 1027 48 10000 3.09 30 12:55 28.02.2021
2030 Clear 17 1027 48 10000 3.09 30 12:36 28.02.2021
2031 Clear 16 1027 62 10000 2.57 20 12:18 28.02.2021
2032 Clear 15 1027 62 10000 2.57 20 11:42 28.02.2021
2033 Clear 15 1027 62 10000 2.57 20 11:22 28.02.2021
2034 Clear 13 1027 87 10000 1.54 20 10:45 28.02.2021
2035 Clear 12 1027 87 10000 1.54 20 10:25 28.02.2021
2036 Clear 10 1027 100 8000 0.51 0 09:40 28.02.2021
2037 Clear 9 1027 100 8000 0.51 0 09:22 28.02.2021
2038 Clear 7 1026 100 6000 0.51 0 08:46 28.02.2021
2039 Clear 7 1026 100 6000 0.51 0 08:28 28.02.2021
2040 Clear 6 1025 81 8000 2.06 70 07:50 28.02.2021
2041 Mist 7 1025 87 5000 1.03 0 07:28 28.02.2021
2042 Mist 6 1024 93 4000 1.54 50 06:25 28.02.2021
2043 Mist 6 1024 93 5000 2.06 90 05:23 28.02.2021
2044 Mist 7 1024 93 4000 1.03 0 02:40 28.02.2021
2045 Mist 7 1024 93 4000 1.03 70 01:36 28.02.2021
2046 Mist 9 1024 93 3000 0.51 0 00:43 28.02.2021
2047 Mist 10 1024 93 3000 0.51 0 00:21 28.02.2021
2048 Mist 9 1024 93 4000 0.51 0 23:44 27.02.2021
2049 Mist 10 1024 87 4000 1.54 80 23:18 27.02.2021
2050 Mist 10 1024 93 5000 1.03 0 22:43 27.02.2021
2051 Mist 10 1023 93 5000 0.51 20 22:18 27.02.2021
2052 Clear 11 1023 93 6000 0.51 0 21:38 27.02.2021
2053 Clear 11 1023 93 6000 0.51 0 21:38 27.02.2021
2054 Clear 11 1023 93 6000 0.51 0 21:38 27.02.2021
2055 Clear 11 1023 87 7000 0.51 0 21:20 27.02.2021
2056 Clear 11 1023 87 7000 1.03 220 20:46 27.02.2021
2057 Clear 11 1023 87 8000 1.54 250 20:26 27.02.2021
2058 Clear 11 1023 82 8000 1.03 0 19:45 27.02.2021
2059 Clear 12 1023 82 8000 1.03 290 19:25 27.02.2021
2060 Clear 13 1023 76 8000 2.57 320 18:43 27.02.2021
2061 Clear 13 1022 72 8000 1.54 40 18:21 27.02.2021
2062 Clear 14 1022 72 8000 1.54 40 17:54 27.02.2021
2063 Clear 14 1022 72 8000 1.54 40 17:36 27.02.2021
2064 Clear 14 1022 72 8000 1.54 40 17:18 27.02.2021
2065 Clear 15 1022 72 8000 2.06 360 16:44 27.02.2021
2066 Clear 15 1022 72 8000 2.06 360 16:25 27.02.2021
2067 Clear 15 1023 77 8000 2.06 50 15:41 27.02.2021
2068 Mist 15 1023 76 2500 1.54 60 14:56 27.02.2021
2069 Mist 14 1023 76 2500 1.54 60 14:37 27.02.2021
2070 Mist 13 1024 82 1500 1.03 0 13:56 27.02.2021
2071 Mist 13 1024 82 1500 1.03 0 13:37 27.02.2021
2072 Mist 13 1024 82 1500 1.03 0 13:18 27.02.2021
2073 Mist 12 1025 87 1400 1.54 60 12:38 27.02.2021
2074 Mist 12 1025 87 1400 1.54 60 12:19 27.02.2021
2075 Mist 12 1024 87 1400 2.06 230 11:42 27.02.2021
2076 Mist 11 1024 87 1400 2.06 230 11:24 27.02.2021
2077 Mist 11 1024 93 1400 0.51 0 10:46 27.02.2021
2078 Mist 11 1024 93 1400 0.51 0 10:28 27.02.2021
2079 Fog 10 1024 87 600 2.06 170 09:50 27.02.2021
2080 Fog 10 1024 87 600 2.06 170 09:26 27.02.2021
2081 Fog 10 1024 93 600 0.51 0 08:42 27.02.2021
2082 Fog 9 1024 93 600 0.51 0 08:21 27.02.2021
2083 Fog 9 1023 93 400 1.03 0 07:42 27.02.2021
2084 Mist 10 1023 93 1100 0.51 0 04:47 27.02.2021
2085 Mist 11 1025 93 1400 1.03 0 00:54 27.02.2021
2086 Mist 11 1025 93 1400 0.51 0 23:54 26.02.2021
2087 Mist 11 1025 93 1400 1.03 0 23:30 26.02.2021
2088 Clear 12 1022 84 10000 0.57 318 22:59 26.02.2021
2089 Clear 12 1022 84 10000 0.57 318 22:30 26.02.2021
2090 Fog 12 1025 100 200 1.54 260 21:47 26.02.2021
2091 Fog 12 1025 93 200 2.06 210 21:28 26.02.2021
2092 Fog 12 1025 100 500 2.06 220 20:44 26.02.2021
2093 Fog 12 1026 100 600 2.57 230 20:22 26.02.2021
2094 Mist 12 1026 93 3000 2.06 240 19:50 26.02.2021
2095 Clear 12 1026 93 7000 2.57 210 19:25 26.02.2021
2096 Clear 13 1026 87 7000 2.57 230 18:42 26.02.2021
2097 Clear 14 1025 82 8000 3.09 230 18:23 26.02.2021
2098 Clear 15 1025 67 8000 2.57 250 17:42 26.02.2021
2099 Clear 16 1025 67 8000 2.57 250 17:24 26.02.2021
2100 Clear 17 1026 63 8000 3.6 250 16:52 26.02.2021
2101 Clear 18 1026 63 8000 3.6 250 16:32 26.02.2021
2102 Clear 18 1026 59 10000 3.09 200 15:57 26.02.2021
2103 Clear 18 1026 59 10000 3.09 200 15:38 26.02.2021
2104 Clear 19 1026 59 10000 3.09 200 15:20 26.02.2021
2105 Clear 19 1027 63 10000 2.06 190 14:45 26.02.2021
2106 Clear 19 1027 63 10000 2.06 190 14:25 26.02.2021
2107 Clear 18 1028 55 10000 1.03 0 13:44 26.02.2021
2108 Clear 18 1028 55 10000 1.03 0 13:24 26.02.2021
2109 Clear 17 1029 63 10000 0.51 0 12:39 26.02.2021
2110 Clear 15 1029 94 6000 1.03 0 11:55 26.02.2021
2111 Clear 14 1029 94 6000 1.03 0 11:37 26.02.2021
2112 Mist 13 1030 100 4000 0.51 0 10:48 26.02.2021
2113 Mist 11 1030 100 3000 1.54 340 09:58 26.02.2021
2114 Mist 11 1030 100 2000 1.54 350 09:39 26.02.2021
2115 Fog 9 1029 100 50 0.51 0 09:20 26.02.2021
2116 Fog 9 1029 100 50 0.51 0 08:26 26.02.2021
2117 Clear 6 1029 87 6000 1.03 180 07:49 26.02.2021
2118 Clear 8 1028 87 8000 0.51 0 06:43 26.02.2021
2119 Rain 8 1028 87 10000 1.03 0 05:31 26.02.2021
2120 Clear 9 1029 81 10000 1.54 160 03:48 26.02.2021
2121 Clear 10 1029 93 6000 1.03 80 02:35 26.02.2021
2122 Clear 11 1030 87 6000 0.51 0 23:57 25.02.2021
2123 Clear 11 1030 87 6000 1.03 90 23:28 25.02.2021
2124 Clear 11 1030 93 6000 1.03 70 22:50 25.02.2021
2125 Clear 11 1030 93 6000 1.03 70 22:50 25.02.2021
2126 Clear 11 1030 93 7000 0.51 10 22:27 25.02.2021
2127 Clear 11 1030 93 7000 0.51 40 21:44 25.02.2021
2128 Clear 11 1030 93 8000 1.03 30 21:26 25.02.2021
2129 Clear 12 1030 93 8000 1.03 110 20:41 25.02.2021
2130 Clear 12 1030 93 8000 0.51 350 20:22 25.02.2021
2131 Clear 13 1030 87 8000 0.51 0 19:52 25.02.2021
2132 Clear 13 1030 87 8000 1.03 0 19:22 25.02.2021
2133 Clear 14 1030 82 10000 1.54 270 18:57 25.02.2021
2134 Clear 15 1030 72 9000 3.09 250 18:25 25.02.2021
2135 Clear 16 1030 72 9000 3.09 250 17:49 25.02.2021
2136 Clear 17 1030 72 9000 3.09 250 17:26 25.02.2021
2137 Clear 18 1029 63 8000 4.12 250 16:46 25.02.2021
2138 Clear 19 1029 63 8000 4.12 250 16:25 25.02.2021
2139 Clear 20 1030 56 8000 4.63 220 15:30 25.02.2021
2140 Clear 20 1030 43 8000 1.54 0 14:57 25.02.2021
2141 Clear 20 1030 43 8000 1.54 0 14:24 25.02.2021
2142 Clear 20 1031 42 10000 1.03 0 13:53 25.02.2021
2143 Clear 19 1031 52 8000 1.03 0 13:26 25.02.2021
2144 Clear 19 1031 52 8000 1.03 0 12:55 25.02.2021
2145 Clear 18 1031 45 10000 1.03 0 12:21 25.02.2021
2146 Clear 16 1032 67 8000 2.06 350 11:47 25.02.2021
2147 Clear 14 1032 81 8000 2.06 340 11:19 25.02.2021
2148 Clear 13 1032 81 8000 2.06 340 10:45 25.02.2021
2149 Clear 12 1032 81 8000 2.06 340 10:26 25.02.2021
2150 Mist 10 1032 100 5000 2.06 360 09:43 25.02.2021
2151 Mist 8 1032 100 5000 1.03 0 08:56 25.02.2021
2152 Mist 7 1032 100 3000 1.03 0 08:25 25.02.2021
2153 Clear 8 1031 93 8000 0.51 0 07:56 25.02.2021
2154 Clear 8 1031 87 6000 1.03 360 07:31 25.02.2021
2155 Clear 8 1031 87 8000 0.51 0 06:53 25.02.2021
2156 Clear 10 1031 76 10000 1.03 80 01:59 25.02.2021
2157 Clear 10 1031 76 10000 1.03 80 01:37 25.02.2021
2158 Clear 12 1032 71 10000 1.03 70 00:41 25.02.2021
2159 Clear 11 1032 82 6000 1.03 40 23:52 24.02.2021
2160 Mist 12 1032 82 5000 1.03 80 23:27 24.02.2021
2161 Mist 12 1032 82 4000 2.06 90 22:44 24.02.2021
2162 Mist 12 1032 87 4000 1.54 100 22:25 24.02.2021
2163 Mist 12 1031 87 4000 1.03 100 21:45 24.02.2021
2164 Mist 13 1032 88 5000 1.03 130 20:56 24.02.2021
2165 Mist 13 1032 88 5000 1.03 130 20:37 24.02.2021
2166 Mist 14 1031 88 4500 1.54 220 20:18 24.02.2021
2167 Mist 14 1031 82 5000 1.54 210 19:28 24.02.2021
2168 Mist 15 1031 77 5000 1.54 220 18:56 24.02.2021
2169 Mist 16 1031 77 5000 1.54 220 18:34 24.02.2021
2170 Clear 18 1031 55 10000 2.57 240 17:52 24.02.2021
2171 Clear 18 1031 55 10000 2.57 240 17:29 24.02.2021
2172 Clear 19 1031 68 10000 3.09 260 16:57 24.02.2021
2173 Clear 19 1031 68 10000 3.09 260 16:36 24.02.2021
2174 Clear 20 1031 63 10000 2.57 250 16:18 24.02.2021
2175 Clear 19 1031 63 10000 2.57 250 15:37 24.02.2021
2176 Clear 20 1032 43 10000 0.51 0 14:53 24.02.2021
2177 Clear 20 1032 43 10000 0.51 0 14:32 24.02.2021
2178 Clear 20 1033 48 8000 0.51 0 13:57 24.02.2021
2179 Clear 19 1033 48 8000 0.51 0 13:38 24.02.2021
2180 Clear 19 1033 59 10000 0.51 0 13:19 24.02.2021
2181 Clear 19 1033 59 10000 0.51 0 12:43 24.02.2021
2182 Clear 18 1033 59 10000 0.51 0 12:23 24.02.2021
2183 Clear 17 1034 59 10000 1.03 0 11:45 24.02.2021
2184 Clear 14 1034 100 8000 0.51 0 10:51 24.02.2021
2185 Clear 13 1034 100 8000 0.51 0 10:29 24.02.2021
2186 Clear 12 1034 71 10000 2.06 50 09:41 24.02.2021
2187 Clear 11 1034 81 10000 2.06 60 09:19 24.02.2021
2188 Fog 7 1034 93 1500 0.51 0 08:34 24.02.2021
2189 Clear 8 1033 87 7000 1.54 40 07:55 24.02.2021
2190 Clear 8 1033 93 7000 1.03 0 07:20 24.02.2021
2191 Clear 8 1033 93 7000 1.54 50 06:20 24.02.2021
2192 Clear 9 1034 87 9000 1.54 50 02:47 24.02.2021
2193 Clear 10 1035 81 10000 1.54 70 23:59 23.02.2021
2194 Clear 11 1035 76 8000 1.03 130 23:20 23.02.2021
2195 Clear 11 1035 76 8000 1.03 130 22:37 23.02.2021
2196 Clear 11 1035 87 8000 1.03 170 22:18 23.02.2021
2197 Clear 12 1035 93 8000 2.06 160 21:40 23.02.2021
2198 Clear 12 1035 87 8000 2.06 170 21:22 23.02.2021
2199 Clear 12 1034 87 10000 2.06 170 20:47 23.02.2021
2200 Clear 12 1034 87 10000 2.06 170 20:47 23.02.2021
2201 Clear 13 1034 87 10000 1.54 200 20:28 23.02.2021
2202 Clear 13 1035 89 10000 0.97 304 19:47 23.02.2021
2203 Clear 14 1034 82 10000 2.06 210 19:27 23.02.2021
2204 Clear 14 1034 82 10000 1.54 210 18:50 23.02.2021
2205 Clear 14 1034 77 10000 1.54 240 18:29 23.02.2021
2206 Clear 15 1034 72 10000 2.57 270 17:54 23.02.2021
2207 Clear 17 1033 63 10000 3.09 260 17:29 23.02.2021
2208 Clear 17 1033 63 10000 3.09 260 16:47 23.02.2021
2209 Clear 18 1033 63 10000 3.09 260 16:25 23.02.2021
2210 Clear 18 1033 52 10000 1.54 0 15:52 23.02.2021
2211 Clear 19 1033 52 10000 1.54 0 15:34 23.02.2021
2212 Clear 18 1034 52 10000 2.06 20 14:58 23.02.2021
2213 Clear 18 1034 52 10000 2.06 20 14:40 23.02.2021
2214 Clear 19 1034 52 10000 2.06 20 14:19 23.02.2021
2215 Clear 18 1034 63 10000 1.54 10 13:39 23.02.2021
2216 Clear 17 1034 63 10000 1.54 10 13:19 23.02.2021
2217 Clear 17 1035 72 10000 1.54 330 12:46 23.02.2021
2218 Clear 16 1035 72 10000 1.54 330 12:20 23.02.2021
2219 Clear 14 1035 93 6000 2.57 340 11:45 23.02.2021
2220 Clear 14 1035 93 6000 2.57 340 11:45 23.02.2021
2221 Clear 13 1035 93 6000 2.57 340 11:19 23.02.2021
2222 Mist 11 1035 100 4000 2.57 340 10:40 23.02.2021
2223 Fog 10 1035 100 900 1.54 10 10:19 23.02.2021
2224 Fog 9 1035 100 900 1.54 10 09:42 23.02.2021
2225 Fog 9 1035 100 900 1.54 10 09:21 23.02.2021
2226 Fog 8 1035 100 800 2.06 10 08:47 23.02.2021
2227 Fog 8 1034 93 100 2.57 40 08:21 23.02.2021
2228 Fog 8 1034 93 100 2.06 60 07:48 23.02.2021
2229 Clear 9 1033 93 6000 2.06 50 05:29 23.02.2021
2230 Clear 9 1033 87 10000 1.54 30 02:54 23.02.2021
2231 Clear 9 1033 87 10000 1.54 30 02:54 23.02.2021
2232 Clear 9 1033 87 10000 1.54 30 02:33 23.02.2021
2233 Clear 10 1032 87 7000 1.54 140 00:20 23.02.2021
2234 Mist 11 1032 87 5000 1.03 170 23:46 22.02.2021
2235 Clouds 11 1032 87 8000 1.54 80 23:18 22.02.2021
2236 Clouds 11 1032 87 8000 1.54 80 22:39 22.02.2021
2237 Clouds 11 1032 87 8000 1.54 80 22:20 22.02.2021
2238 Clouds 12 1032 87 9000 0.51 0 21:38 22.02.2021
2239 Clouds 12 1031 87 9000 0.51 0 21:20 22.02.2021
2240 Clear 12 1031 87 10000 1.54 150 20:48 22.02.2021
2241 Clear 13 1031 87 10000 1.54 200 20:27 22.02.2021
2242 Clear 13 1031 87 10000 1.54 220 19:50 22.02.2021
2243 Clear 13 1031 87 10000 1.54 230 19:30 22.02.2021
2244 Clear 14 1027 70 10000 1.31 252 19:30 22.02.2021
2245 Clear 14 1030 82 10000 2.06 230 18:49 22.02.2021
2246 Clear 14 1030 82 10000 2.57 250 18:30 22.02.2021
2247 Clear 14 1030 82 10000 2.57 250 18:30 22.02.2021
2248 Clear 16 1029 67 10000 3.09 240 17:51 22.02.2021
2249 Clear 16 1029 67 10000 3.09 240 17:22 22.02.2021
2250 Clear 17 1029 52 10000 1.03 0 16:51 22.02.2021
2251 Clear 18 1029 52 10000 1.03 0 16:31 22.02.2021
2252 Clear 18 1029 49 10000 1.03 0 15:39 22.02.2021
2253 Clear 18 1029 49 10000 1.03 0 15:21 22.02.2021
2254 Clear 18 1029 52 10000 1.54 0 14:42 22.02.2021
2255 Clear 18 1029 52 10000 1.54 0 14:21 22.02.2021
2256 Clear 18 1029 55 10000 1.54 0 13:41 22.02.2021
2257 Clear 17 1030 63 10000 1.54 0 12:56 22.02.2021
2258 Clear 17 1030 63 10000 1.54 0 12:23 22.02.2021
2259 Clear 16 1030 63 10000 2.57 30 11:57 22.02.2021
2260 Clear 15 1030 76 10000 2.06 360 11:33 22.02.2021
2261 Clear 13 1030 93 10000 2.06 10 10:59 22.02.2021
2262 Clear 13 1030 93 10000 2.06 10 10:59 22.02.2021
2263 Clear 13 1030 93 10000 2.06 10 10:41 22.02.2021
2264 Clear 12 1030 93 10000 2.06 10 10:20 22.02.2021
2265 Clear 9 1029 100 6000 2.06 340 09:39 22.02.2021
2266 Clear 10 1029 76 10000 1.03 0 09:21 22.02.2021
2267 Clear 10 1029 76 10000 1.03 0 09:21 22.02.2021
2268 Mist 6 1029 100 4000 1.54 350 08:49 22.02.2021
2269 Mist 7 1029 100 4000 1.54 350 08:21 22.02.2021
2270 Clear 7 1028 93 10000 1.54 0 07:50 22.02.2021
2271 Clear 7 1028 81 10000 1.03 0 07:22 22.02.2021
2272 Clear 7 1028 87 10000 1.54 50 06:28 22.02.2021
2273 Clear 8 1028 87 10000 1.54 90 04:55 22.02.2021
2274 Clear 8 1027 81 10000 2.06 80 03:23 22.02.2021
2275 Clear 8 1027 81 10000 1.03 0 01:59 22.02.2021
2276 Clear 9 1027 81 10000 1.03 110 00:44 22.02.2021
2277 Clear 9 1027 81 10000 1.03 0 00:18 22.02.2021
2278 Clear 10 1026 81 10000 1.03 210 23:26 21.02.2021
2279 Clear 10 1026 76 10000 2.57 100 22:36 21.02.2021
2280 Clear 10 1026 76 10000 1.54 100 21:53 21.02.2021
2281 Clear 10 1026 76 10000 1.54 100 21:35 21.02.2021
2282 Clear 10 1026 76 10000 1.54 100 21:35 21.02.2021
2283 Clear 11 1026 71 10000 1.03 0 20:58 21.02.2021
2284 Clear 11 1026 71 10000 1.03 0 20:39 21.02.2021
2285 Clear 12 1026 66 10000 2.06 170 20:18 21.02.2021
2286 Clear 12 1026 71 10000 3.09 180 19:46 21.02.2021
2287 Clear 13 1025 71 10000 4.12 200 19:26 21.02.2021
2288 Clear 13 1025 71 10000 3.09 220 18:39 21.02.2021
2289 Clear 14 1025 63 10000 3.09 250 18:21 21.02.2021
2290 Clear 16 1025 63 10000 3.09 250 17:29 21.02.2021
2291 Clear 17 1025 55 10000 2.57 230 16:55 21.02.2021
2292 Clear 17 1025 55 10000 2.57 230 16:33 21.02.2021
2293 Clear 18 1024 52 10000 2.57 220 15:54 21.02.2021
2294 Clear 18 1024 52 10000 2.57 220 15:21 21.02.2021
2295 Clear 18 1025 55 10000 2.06 210 14:42 21.02.2021
2296 Clear 17 1025 55 10000 2.06 210 14:42 21.02.2021
2297 Clear 18 1025 55 10000 2.06 210 14:22 21.02.2021
2298 Clear 17 1025 55 10000 1.03 0 13:46 21.02.2021
2299 Clear 17 1025 55 10000 1.03 0 13:23 21.02.2021
2300 Clear 16 1026 67 10000 2.57 350 12:31 21.02.2021
2301 Clear 14 1026 82 10000 1.54 340 11:45 21.02.2021
2302 Clear 13 1026 82 10000 1.54 30 10:59 21.02.2021
2303 Clear 10 1026 100 10000 2.06 360 10:24 21.02.2021
2304 Mist 9 1026 100 1500 1.54 10 09:55 21.02.2021
2305 Mist 8 1026 100 1500 1.54 10 09:31 21.02.2021
2306 Fog 5 1026 100 100 0.51 0 08:58 21.02.2021
2307 Fog 6 1026 100 100 0.51 0 08:23 21.02.2021
2308 Clear 7 1025 93 8000 1.03 60 07:35 21.02.2021
2309 Clear 7 1025 93 10000 1.54 60 06:55 21.02.2021
2310 Clear 7 1025 87 10000 1.54 160 03:39 21.02.2021
2311 Clear 8 1025 81 10000 1.03 160 02:30 21.02.2021
2312 Clear 8 1025 87 10000 1.54 160 00:44 21.02.2021
2313 Clear 9 1025 81 10000 2.06 160 00:19 21.02.2021
2314 Clear 9 1025 81 10000 2.06 150 23:25 20.02.2021
2315 Clear 9 1025 81 10000 2.06 150 22:44 20.02.2021
2316 Clear 9 1026 76 10000 2.06 140 22:25 20.02.2021
2317 Clear 10 1025 76 10000 2.06 140 21:45 20.02.2021
2318 Clear 10 1025 81 10000 1.54 160 21:24 20.02.2021
2319 Clear 10 1025 81 10000 1.03 0 20:46 20.02.2021
2320 Clear 11 1025 76 10000 1.54 170 20:22 20.02.2021
2321 Clear 12 1025 76 10000 2.06 170 19:52 20.02.2021
2322 Clear 12 1026 80 10000 1.64 275 19:29 20.02.2021
2323 Clear 13 1025 71 10000 2.06 210 18:41 20.02.2021
2324 Clear 14 1025 63 10000 3.09 250 18:21 20.02.2021
2325 Clear 15 1025 63 10000 3.09 250 17:38 20.02.2021
2326 Clear 16 1025 55 10000 3.6 260 16:56 20.02.2021
2327 Clear 16 1025 55 10000 3.6 260 16:32 20.02.2021
2328 Clear 16 1025 55 10000 3.6 260 16:32 20.02.2021
2329 Clear 16 1025 55 10000 3.6 270 15:53 20.02.2021
2330 Clear 17 1025 55 10000 3.6 270 15:31 20.02.2021
2331 Clear 17 1026 51 10000 1.54 90 14:47 20.02.2021
2332 Clear 17 1026 51 10000 1.54 90 14:23 20.02.2021
2333 Clear 17 1026 48 10000 1.54 0 13:47 20.02.2021
2334 Clear 17 1026 48 10000 1.54 0 13:47 20.02.2021
2335 Clear 17 1026 48 10000 1.54 0 13:24 20.02.2021
2336 Clear 16 1027 51 10000 1.03 0 12:50 20.02.2021
2337 Clear 16 1027 51 10000 1.03 0 12:23 20.02.2021
2338 Clear 15 1027 55 10000 0.51 0 11:44 20.02.2021
2339 Clear 15 1027 55 10000 0.51 0 11:44 20.02.2021
2340 Clear 15 1027 55 10000 0.51 0 11:24 20.02.2021
2341 Clear 14 1027 67 10000 0.51 0 10:49 20.02.2021
2342 Clouds 13 1027 82 10000 1.03 0 09:55 20.02.2021
2343 Clouds 12 1027 82 10000 1.03 0 09:28 20.02.2021
2344 Clouds 11 1026 87 10000 0.51 0 08:36 20.02.2021
2345 Clouds 10 1026 76 10000 1.54 150 07:57 20.02.2021
2346 Clear 10 1026 76 10000 2.57 110 02:46 20.02.2021
2347 Clear 9 1026 71 10000 2.57 90 02:24 20.02.2021
2348 Clear 9 1026 81 10000 2.57 90 01:48 20.02.2021
2349 Clear 9 1026 76 10000 1.54 170 00:45 20.02.2021
2350 Clear 9 1026 81 10000 1.54 160 23:55 19.02.2021
2351 Clear 9 1026 81 10000 1.54 170 23:18 19.02.2021
2352 Clear 9 1026 76 10000 2.06 160 22:27 19.02.2021
2353 Clear 10 1026 76 10000 2.57 160 21:54 19.02.2021
2354 Clear 10 1026 76 10000 2.06 180 21:31 19.02.2021
2355 Clear 10 1026 76 10000 3.09 190 20:48 19.02.2021
2356 Clear 11 1026 76 10000 3.6 180 20:28 19.02.2021
2357 Clear 11 1026 76 10000 3.09 190 19:57 19.02.2021
2358 Clear 11 1026 81 10000 2.06 210 19:27 19.02.2021
2359 Clouds 12 1026 76 10000 1.54 230 18:57 19.02.2021
2360 Clouds 12 1026 71 10000 2.57 240 18:34 19.02.2021
2361 Clouds 13 1026 63 10000 2.57 240 17:51 19.02.2021
2362 Clouds 14 1026 63 10000 2.57 240 17:22 19.02.2021
2363 Clouds 15 1026 63 10000 1.54 260 16:38 19.02.2021
2364 Clouds 15 1026 63 10000 1.54 260 16:18 19.02.2021
2365 Clouds 15 1026 63 10000 2.06 180 15:41 19.02.2021
2366 Clouds 15 1026 63 10000 2.06 180 15:20 19.02.2021
2367 Clouds 15 1026 63 10000 2.57 210 14:38 19.02.2021
2368 Clouds 15 1026 63 10000 2.57 210 14:20 19.02.2021
2369 Clouds 15 1027 58 10000 1.54 0 13:44 19.02.2021
2370 Clouds 14 1027 58 10000 1.54 0 13:24 19.02.2021
2371 Clear 14 1027 67 10000 2.06 360 12:42 19.02.2021
2372 Clear 14 1027 67 10000 2.06 360 12:23 19.02.2021
2373 Clouds 13 1027 66 10000 1.54 50 11:51 19.02.2021
2374 Clear 12 1027 81 10000 2.06 340 11:23 19.02.2021
2375 Clear 11 1027 71 10000 2.57 20 10:50 19.02.2021
2376 Clear 10 1026 71 10000 1.03 0 10:22 19.02.2021
2377 Clear 9 1026 76 10000 1.54 30 09:47 19.02.2021
2378 Clear 8 1026 76 10000 1.54 30 09:25 19.02.2021
2379 Clear 7 1026 81 10000 0.51 0 08:50 19.02.2021
2380 Mist 5 1026 100 4000 0.51 0 08:23 19.02.2021
2381 Clear 6 1025 81 10000 1.54 40 07:48 19.02.2021
2382 Clear 6 1025 75 10000 1.54 160 07:29 19.02.2021
2383 Clear 5 1025 81 10000 1.03 160 06:53 19.02.2021
2384 Clear 6 1025 75 10000 1.03 0 05:27 19.02.2021
2385 Clear 6 1025 75 10000 1.03 170 04:41 19.02.2021
2386 Clear 7 1025 66 10000 2.57 150 01:47 19.02.2021
2387 Clear 7 1025 66 10000 2.57 150 00:37 19.02.2021
2388 Clear 8 1025 71 10000 2.06 140 23:54 18.02.2021
2389 Clear 8 1025 71 10000 2.06 140 23:35 18.02.2021
2390 Clear 9 1025 71 10000 2.06 160 22:47 18.02.2021
2391 Clear 8 1025 76 10000 2.06 150 22:28 18.02.2021
2392 Clear 9 1025 76 10000 2.06 140 21:47 18.02.2021
2393 Clear 9 1025 76 10000 1.54 150 21:25 18.02.2021
2394 Clear 9 1025 76 10000 1.54 150 21:25 18.02.2021
2395 Clear 10 1025 76 10000 1.54 170 20:43 18.02.2021
2396 Clear 11 1024 76 10000 2.06 160 20:23 18.02.2021
2397 Clear 11 1024 76 10000 1.54 190 19:46 18.02.2021
2398 Clouds 12 1024 76 10000 2.06 200 19:26 18.02.2021
2399 Clouds 12 1024 76 10000 1.54 240 18:53 18.02.2021
2400 Clear 13 1023 58 10000 2.57 230 18:29 18.02.2021
2401 Clear 14 1023 58 10000 2.57 230 17:52 18.02.2021
2402 Clear 14 1023 58 10000 2.57 230 17:26 18.02.2021
2403 Clear 15 1023 55 10000 3.6 260 16:53 18.02.2021
2404 Clear 15 1023 55 10000 3.6 260 16:35 18.02.2021
2405 Clouds 15 1023 42 10000 1.03 0 15:55 18.02.2021
2406 Clouds 15 1023 42 10000 1.03 0 15:36 18.02.2021
2407 Clouds 15 1023 42 10000 1.03 0 15:18 18.02.2021
2408 Clouds 15 1023 47 10000 3.09 200 14:42 18.02.2021
2409 Clouds 15 1024 51 10000 1.54 240 14:23 18.02.2021
2410 Clouds 15 1024 51 10000 1.54 240 13:44 18.02.2021
2411 Clear 15 1025 54 10000 1.03 0 13:18 18.02.2021
2412 Clear 14 1025 54 10000 1.03 0 12:42 18.02.2021
2413 Clear 14 1025 54 10000 1.03 0 12:22 18.02.2021
2414 Clear 13 1025 62 10000 1.54 110 11:46 18.02.2021
2415 Clear 13 1025 62 10000 1.54 110 11:25 18.02.2021
2416 Clear 12 1025 66 10000 1.54 40 10:45 18.02.2021
2417 Clear 11 1025 66 10000 1.54 40 10:27 18.02.2021
2418 Clear 9 1024 76 10000 0.51 0 09:40 18.02.2021
2419 Clouds 8 1025 100 6000 1.03 340 09:21 18.02.2021
2420 Clear 7 1024 87 10000 0.51 0 08:41 18.02.2021
2421 Clear 6 1024 93 10000 0.51 0 08:23 18.02.2021
2422 Clear 5 1024 93 10000 0.51 180 07:32 18.02.2021
2423 Clear 6 1023 87 10000 0.51 0 06:50 18.02.2021
2424 Clouds 8 1023 76 10000 1.54 10 02:33 18.02.2021
2425 Clouds 10 1024 71 10000 1.54 120 23:55 17.02.2021
2426 Clouds 10 1024 71 10000 2.06 140 23:24 17.02.2021
2427 Clouds 10 1023 71 10000 2.06 160 22:52 17.02.2021
2428 Clouds 10 1023 71 10000 1.54 150 22:26 17.02.2021
2429 Clouds 10 1023 71 10000 0.51 0 21:54 17.02.2021
2430 Clouds 10 1023 71 10000 1.03 160 21:22 17.02.2021
2431 Clouds 9 1023 71 10000 1.03 160 20:48 17.02.2021
2432 Clouds 10 1023 71 10000 1.03 210 20:29 17.02.2021
2433 Clouds 10 1023 76 10000 2.06 210 19:49 17.02.2021
2434 Clouds 9 1023 71 10000 1.54 240 19:31 17.02.2021
2435 Clouds 9 1023 71 10000 1.03 230 18:45 17.02.2021
2436 Clear 11 1023 62 10000 2.06 260 18:25 17.02.2021
2437 Clear 12 1023 62 10000 2.06 260 17:42 17.02.2021
2438 Clear 12 1023 62 10000 2.06 260 17:20 17.02.2021
2439 Clear 12 1023 62 10000 2.57 260 16:46 17.02.2021
2440 Clouds 12 1022 62 10000 2.06 300 16:27 17.02.2021
2441 Clouds 13 1023 62 10000 2.57 250 15:44 17.02.2021
2442 Clouds 12 1023 62 10000 2.57 250 15:26 17.02.2021
2443 Clouds 12 1023 66 10000 2.57 260 14:49 17.02.2021
2444 Clouds 12 1023 66 10000 2.57 260 14:29 17.02.2021
2445 Clouds 12 1023 70 10000 0.89 268 13:48 17.02.2021
2446 Clouds 12 1023 71 9000 2.57 300 13:30 17.02.2021
2447 Clouds 11 1024 66 10000 0.51 0 12:49 17.02.2021
2448 Clouds 11 1024 66 10000 0.51 0 12:24 17.02.2021
2449 Clear 10 1024 76 10000 2.06 10 11:45 17.02.2021
2450 Clear 10 1024 76 10000 2.06 10 11:25 17.02.2021
2451 Clouds 10 1024 76 10000 0.51 0 10:49 17.02.2021
2452 Clouds 9 1024 76 10000 0.51 0 10:31 17.02.2021
2453 Clouds 8 1024 87 9000 1.54 310 09:55 17.02.2021
2454 Clouds 8 1024 87 9000 1.54 310 09:30 17.02.2021
2455 Clouds 7 1024 87 8000 1.54 320 08:45 17.02.2021
2456 Clouds 7 1024 87 8000 1.54 320 08:23 17.02.2021
2457 Clouds 7 1023 76 10000 0.51 0 07:37 17.02.2021
2458 Clouds 7 1023 76 10000 0.51 0 06:37 17.02.2021
2459 Clouds 7 1024 66 10000 1.54 150 03:52 17.02.2021
2460 Clouds 7 1025 70 10000 1.03 0 02:31 17.02.2021
2461 Clouds 7 1025 70 10000 1.54 0 01:34 17.02.2021
2462 Clouds 7 1026 70 10000 1.03 0 00:25 17.02.2021
2463 Clouds 7 1026 70 10000 1.03 50 23:39 16.02.2021
2464 Clouds 8 1026 65 10000 1.54 10 22:46 16.02.2021
2465 Clouds 8 1026 61 10000 1.54 50 22:26 16.02.2021
2466 Clouds 8 1026 61 10000 2.06 80 21:59 16.02.2021
2467 Clouds 8 1026 61 10000 1.54 70 21:39 16.02.2021
2468 Clouds 8 1026 61 10000 1.54 70 21:21 16.02.2021
2469 Clouds 8 1026 61 10000 2.06 80 20:47 16.02.2021
2470 Clouds 8 1027 61 10000 1.54 80 20:24 16.02.2021
2471 Clouds 8 1027 61 10000 1.54 80 20:24 16.02.2021
2472 Clouds 8 1027 61 10000 1.03 50 19:48 16.02.2021
2473 Clouds 8 1027 61 10000 1.54 50 19:28 16.02.2021
2474 Clouds 9 1027 57 10000 1.54 70 18:50 16.02.2021
2475 Clear 9 1028 57 10000 1.03 0 18:26 16.02.2021
2476 Clear 10 1028 57 10000 1.03 0 17:53 16.02.2021
2477 Clear 10 1028 57 10000 1.03 0 17:27 16.02.2021
2478 Clear 10 1028 54 10000 1.54 20 16:57 16.02.2021
2479 Clear 11 1028 54 10000 1.54 20 16:38 16.02.2021
2480 Clear 11 1028 54 10000 1.54 20 16:19 16.02.2021
2481 Clouds 10 1028 54 10000 2.57 330 15:36 16.02.2021
2482 Clouds 11 1028 54 10000 2.57 330 15:18 16.02.2021
2483 Clouds 10 1029 50 10000 1.03 0 14:40 16.02.2021
2484 Clouds 10 1029 50 10000 1.03 0 14:21 16.02.2021
2485 Clear 10 1030 46 10000 1.03 0 13:46 16.02.2021
2486 Clouds 9 1029 39 10000 2.57 40 12:59 16.02.2021
2487 Clear 9 1030 61 10000 1.03 0 12:41 16.02.2021
2488 Clear 8 1030 61 10000 1.03 0 12:19 16.02.2021
2489 Clear 6 1031 65 10000 1.54 350 11:40 16.02.2021
2490 Clear 6 1031 65 10000 1.54 350 11:20 16.02.2021
2491 Clear 5 1031 75 10000 1.03 0 10:46 16.02.2021
2492 Clouds 5 1030 56 10000 1.03 0 10:27 16.02.2021
2493 Clouds 3 1031 80 10000 1.03 20 09:53 16.02.2021
2494 Clouds 3 1031 80 10000 1.03 20 09:28 16.02.2021
2495 Clouds 2 1031 80 10000 1.03 20 09:28 16.02.2021
2496 Clear 2 1030 64 10000 1.03 0 08:52 16.02.2021
2497 Clouds 0 1032 93 10000 0.51 330 08:29 16.02.2021
2498 Clear 0 1031 74 10000 1.54 40 07:54 16.02.2021
2499 Clear 0 1031 74 10000 1.54 50 06:55 16.02.2021
2500 Clear 0 1033 64 10000 1.54 70 02:42 16.02.2021
2501 Clear 2 1034 55 10000 1.03 330 23:55 15.02.2021
2502 Clear 2 1034 51 10000 1.54 130 23:29 15.02.2021
2503 Clear 3 1034 41 10000 2.57 90 22:50 15.02.2021
2504 Clear 3 1034 45 10000 2.57 120 22:28 15.02.2021
2505 Clear 3 1035 48 10000 1.54 150 21:47 15.02.2021
2506 Clear 4 1035 48 10000 1.03 0 21:25 15.02.2021
2507 Clear 5 1034 45 10000 1.03 40 20:55 15.02.2021
2508 Clear 5 1034 45 10000 1.03 40 20:37 15.02.2021
2509 Clear 5 1034 38 10000 0.51 0 19:51 15.02.2021
2510 Clear 5 1034 31 10000 1.03 350 19:29 15.02.2021
2511 Clear 6 1034 31 10000 1.03 320 18:58 15.02.2021
2512 Clear 7 1034 33 10000 2.06 340 18:29 15.02.2021
2513 Clear 8 1035 27 10000 3.09 330 17:58 15.02.2021
2514 Clear 9 1035 27 10000 3.09 330 17:40 15.02.2021
2515 Clear 9 1035 27 10000 3.09 330 17:21 15.02.2021
2516 Clear 10 1036 25 10000 2.57 350 16:46 15.02.2021
2517 Clear 10 1036 25 10000 2.57 350 16:22 15.02.2021
2518 Clear 10 1036 25 10000 3.09 10 15:44 15.02.2021
2519 Clear 10 1036 25 10000 3.09 10 15:20 15.02.2021
2520 Clear 10 1035 27 10000 3.09 10 14:49 15.02.2021
2521 Clear 10 1037 31 10000 1.54 0 14:21 15.02.2021
2522 Clear 9 1037 31 10000 1.54 0 13:49 15.02.2021
2523 Clear 9 1037 31 10000 1.54 0 13:27 15.02.2021
2524 Clear 9 1037 29 10000 3.09 20 12:52 15.02.2021
2525 Clear 8 1037 29 10000 3.09 20 12:31 15.02.2021
2526 Clear 7 1038 45 10000 4.63 20 11:54 15.02.2021
2527 Clear 6 1038 45 10000 4.63 20 11:27 15.02.2021
2528 Clear 5 1037 52 10000 5.14 30 10:56 15.02.2021
2529 Clear 5 1037 52 10000 5.14 30 10:38 15.02.2021
2530 Clear 4 1037 52 10000 5.14 30 10:20 15.02.2021
2531 Clear 3 1037 60 10000 3.09 30 09:51 15.02.2021
2532 Clear 2 1037 60 10000 3.09 30 09:31 15.02.2021
2533 Clear 0 1037 64 10000 3.6 10 08:23 15.02.2021
2534 Clear 0 1035 59 10000 2.06 100 07:27 15.02.2021
2535 Clear 0 1035 59 10000 2.57 100 06:42 15.02.2021
2536 Clear 1 1035 59 10000 0.51 0 04:41 15.02.2021
2537 Clear 2 1035 47 10000 1.54 90 02:21 15.02.2021
2538 Clear 2 1034 51 10000 1.54 10 00:22 15.02.2021
2539 Clear 2 1034 47 10000 4.12 20 23:29 14.02.2021
2540 Clear 2 1034 55 10000 1.03 0 22:47 14.02.2021
2541 Clear 2 1034 51 10000 2.06 10 22:29 14.02.2021
2542 Clear 2 1034 51 10000 2.57 30 21:53 14.02.2021
2543 Clear 2 1033 51 10000 3.6 30 21:31 14.02.2021
2544 Clear 3 1033 48 10000 4.12 30 20:55 14.02.2021
2545 Clear 3 1033 44 10000 5.14 30 20:31 14.02.2021
2546 Clear 3 1032 44 10000 4.63 30 19:50 14.02.2021
2547 Clear 3 1032 38 10000 5.66 30 19:31 14.02.2021
2548 Clear 4 1031 38 10000 5.66 30 18:42 14.02.2021
2549 Clear 5 1031 28 10000 7.2 30 18:22 14.02.2021
2550 Clear 5 1031 28 10000 7.2 30 17:42 14.02.2021
2551 Clear 6 1031 28 10000 7.2 30 17:19 14.02.2021
2552 Clear 6 1031 31 10000 7.2 10 16:40 14.02.2021
2553 Clear 6 1031 31 10000 7.2 10 16:18 14.02.2021
2554 Clear 7 1030 39 10000 7.72 360 15:44 14.02.2021
2555 Clear 7 1030 31 10000 7.2 30 14:58 14.02.2021
2556 Clear 7 1030 31 10000 7.2 30 14:30 14.02.2021
2557 Clear 7 1030 29 10000 9.26 30 13:57 14.02.2021
2558 Clear 7 1030 29 10000 9.26 30 13:31 14.02.2021
2559 Clear 6 1030 31 10000 9.26 30 12:49 14.02.2021
2560 Clear 6 1030 31 10000 9.26 30 12:22 14.02.2021
2561 Clear 6 1030 33 10000 9.26 30 11:51 14.02.2021
2562 Clear 6 1030 33 10000 8.75 30 11:25 14.02.2021
2563 Clear 5 1030 38 10000 6.69 20 10:49 14.02.2021
2564 Clear 4 1029 38 10000 7.72 10 09:58 14.02.2021
2565 Clear 3 1029 38 10000 7.72 10 09:39 14.02.2021
2566 Clear 3 1029 38 10000 7.72 10 09:21 14.02.2021
2567 Clear 2 1028 41 10000 6.69 20 08:43 14.02.2021
2568 Clear 1 1026 43 10000 4.63 40 07:57 14.02.2021
2569 Clear 1 1025 40 10000 4.63 50 06:52 14.02.2021
2570 Clear 1 1024 40 10000 8.23 20 05:43 14.02.2021
2571 Clear 1 1023 47 10000 5.66 20 03:33 14.02.2021
2572 Clear 1 1023 51 10000 7.2 30 02:29 14.02.2021
2573 Clear 1 1022 51 10000 4.63 30 00:49 14.02.2021
2574 Clear 1 1022 55 10000 4.63 40 00:31 14.02.2021
2575 Clear 1 1022 55 10000 3.6 40 23:42 13.02.2021
2576 Clouds 1 1019 45 10000 6.33 4 23:21 13.02.2021
2577 Clear 1 1021 59 10000 7.2 30 22:44 13.02.2021
2578 Clear 2 1021 60 10000 7.2 20 22:20 13.02.2021
2579 Clear 2 1020 60 10000 6.17 20 21:43 13.02.2021
2580 Clear 2 1020 64 10000 6.69 10 21:22 13.02.2021
2581 Clear 2 1019 60 10000 6.69 20 20:30 13.02.2021
2582 Clear 3 1019 64 10000 7.2 10 19:57 13.02.2021
2583 Clear 3 1019 64 10000 7.2 10 19:38 13.02.2021
2584 Clear 4 1018 60 10000 6.17 20 19:18 13.02.2021
2585 Clear 4 1018 60 10000 6.17 20 18:44 13.02.2021
2586 Clear 5 1017 56 10000 4.12 30 18:22 13.02.2021
2587 Clear 6 1018 53 10000 6.69 360 17:42 13.02.2021
2588 Clear 7 1018 53 10000 6.69 360 17:22 13.02.2021
2589 Clear 8 1017 49 10000 7.72 20 16:44 13.02.2021
2590 Clear 8 1017 49 10000 7.72 20 16:26 13.02.2021
2591 Clear 8 1016 53 10000 8.75 20 15:40 13.02.2021
2592 Clear 8 1016 61 10000 7.2 360 14:58 13.02.2021
2593 Clear 8 1016 61 10000 7.2 360 14:32 13.02.2021
2594 Clear 8 1016 71 10000 6.17 360 13:48 13.02.2021
2595 Rain 8 1016 71 10000 6.17 360 13:25 13.02.2021
2596 Rain 8 1015 71 10000 5.14 60 12:46 13.02.2021
2597 Clouds 7 1015 76 10000 6.17 10 12:19 13.02.2021
2598 Clouds 7 1015 76 10000 6.17 10 11:45 13.02.2021
2599 Clouds 7 1015 76 10000 6.17 10 11:20 13.02.2021
2600 Clouds 6 1015 87 10000 5.14 10 10:46 13.02.2021
2601 Clouds 6 1015 87 10000 5.14 10 10:25 13.02.2021
2602 Clouds 6 1014 81 10000 6.69 60 09:56 13.02.2021
2603 Rain 6 1014 81 10000 7.72 50 09:30 13.02.2021
2604 Rain 6 1014 87 9000 4.63 20 08:56 13.02.2021
2605 Rain 6 1014 87 9000 4.63 20 08:35 13.02.2021
2606 Clouds 6 1013 81 10000 6.69 80 07:52 13.02.2021
2607 Clouds 6 1013 87 8000 4.63 50 06:41 13.02.2021
2608 Clouds 7 1013 87 7000 3.09 40 05:27 13.02.2021
2609 Clouds 8 1014 93 6000 2.57 60 03:58 13.02.2021
2610 Clouds 8 1015 93 6000 2.06 30 01:48 13.02.2021
2611 Clouds 10 1016 87 7000 2.06 160 00:42 13.02.2021
2612 Clouds 10 1016 87 8000 3.6 170 23:54 12.02.2021
2613 Clouds 10 1016 87 8000 4.12 170 23:26 12.02.2021
2614 Clouds 10 1016 87 8000 5.14 160 22:45 12.02.2021
2615 Clouds 10 1016 87 8000 4.63 170 22:26 12.02.2021
2616 Rain 11 1016 82 8000 5.14 170 21:50 12.02.2021
2617 Rain 11 1016 76 10000 5.66 160 21:29 12.02.2021
2618 Clouds 11 1016 76 10000 5.66 170 20:49 12.02.2021
2619 Clouds 12 1017 71 10000 4.63 160 20:30 12.02.2021
2620 Clouds 12 1017 71 10000 4.12 150 19:58 12.02.2021
2621 Clouds 12 1017 71 10000 4.12 150 19:38 12.02.2021
2622 Clouds 12 1017 71 10000 3.6 180 18:58 12.02.2021
2623 Clouds 13 1017 71 10000 3.6 170 18:30 12.02.2021
2624 Clouds 13 1017 72 10000 3.09 190 17:46 12.02.2021
2625 Clouds 13 1017 72 10000 3.09 190 17:22 12.02.2021
2626 Clouds 14 1017 67 10000 1.03 0 16:35 12.02.2021
2627 Clouds 14 1017 72 10000 2.57 340 15:47 12.02.2021
2628 Clouds 14 1017 72 10000 2.57 340 15:21 12.02.2021
2629 Clouds 15 1018 63 10000 2.57 40 14:42 12.02.2021
2630 Clouds 15 1018 63 10000 2.57 40 14:23 12.02.2021
2631 Clouds 14 1018 71 10000 3.6 360 13:41 12.02.2021
2632 Clouds 15 1018 71 10000 3.6 360 13:22 12.02.2021
2633 Clear 14 1018 71 10000 2.57 50 12:49 12.02.2021
2634 Clear 14 1018 71 10000 2.57 50 12:30 12.02.2021
2635 Clouds 14 1018 67 10000 2.06 0 11:42 12.02.2021
2636 Clouds 13 1018 62 10000 1.54 70 11:20 12.02.2021
2637 Clouds 12 1019 81 10000 2.57 360 10:44 12.02.2021
2638 Clouds 10 1019 87 10000 2.06 360 09:49 12.02.2021
2639 Clouds 9 1019 87 10000 2.06 360 09:29 12.02.2021
2640 Clouds 8 1018 87 10000 3.6 50 08:50 12.02.2021
2641 Clouds 8 1018 87 10000 3.09 30 08:28 12.02.2021
2642 Clouds 7 1017 93 10000 1.54 40 07:57 12.02.2021
2643 Clouds 7 1017 93 10000 1.54 40 07:35 12.02.2021
2644 Clouds 7 1017 93 8000 2.06 40 06:55 12.02.2021
2645 Clear 7 1017 93 10000 2.57 50 05:47 12.02.2021
2646 Clouds 8 1013 88 10000 1.75 31 04:31 12.02.2021
2647 Clear 8 1016 81 10000 1.03 0 01:35 12.02.2021
2648 Clear 9 1015 76 10000 2.57 150 23:41 11.02.2021
2649 Clear 10 1015 81 10000 3.6 130 23:22 11.02.2021
2650 Clear 10 1015 87 10000 2.06 140 22:47 11.02.2021
2651 Clear 10 1015 87 10000 2.57 160 22:25 11.02.2021
2652 Clear 10 1015 87 10000 3.09 150 21:59 11.02.2021
2653 Clear 10 1015 87 10000 3.09 150 21:38 11.02.2021
2654 Clear 10 1015 81 10000 2.06 160 21:18 11.02.2021
2655 Clear 10 1014 87 10000 2.57 160 20:42 11.02.2021
2656 Clear 11 1014 87 10000 3.09 160 20:21 11.02.2021
2657 Clear 11 1014 82 10000 2.06 170 19:48 11.02.2021
2658 Clear 12 1013 82 10000 2.57 160 19:28 11.02.2021
2659 Clear 12 1013 76 10000 2.57 200 18:49 11.02.2021
2660 Clear 13 1013 76 10000 2.57 200 18:28 11.02.2021
2661 Clear 13 1013 76 10000 2.57 200 18:28 11.02.2021
2662 Clouds 14 1012 63 10000 3.09 230 17:52 11.02.2021
2663 Clouds 15 1012 63 10000 3.09 230 17:22 11.02.2021
2664 Clouds 16 1011 55 10000 2.06 130 16:53 11.02.2021
2665 Clouds 16 1011 55 10000 2.06 130 16:35 11.02.2021
2666 Clouds 16 1011 55 10000 1.03 0 15:59 11.02.2021
2667 Clouds 17 1011 55 10000 1.03 0 15:40 11.02.2021
2668 Clouds 17 1011 55 10000 1.03 0 15:40 11.02.2021
2669 Clouds 16 1011 55 10000 1.03 0 15:20 11.02.2021
2670 Clear 16 1011 63 10000 1.03 0 14:40 11.02.2021
2671 Clear 16 1011 63 10000 1.03 0 14:21 11.02.2021
2672 Clouds 16 1011 77 10000 0.51 0 13:38 11.02.2021
2673 Clouds 15 1011 77 10000 0.51 0 13:19 11.02.2021
2674 Clouds 15 1011 94 9000 1.54 360 12:44 11.02.2021
2675 Clouds 14 1011 94 9000 1.54 360 12:21 11.02.2021
2676 Clear 13 1011 100 8000 2.06 340 11:42 11.02.2021
2677 Clear 13 1011 100 8000 2.06 340 11:20 11.02.2021
2678 Fog 12 1011 100 6000 1.54 360 10:44 11.02.2021
2679 Fog 11 1011 100 800 1.54 360 10:25 11.02.2021
2680 Fog 9 1010 100 50 1.54 310 09:45 11.02.2021
2681 Fog 8 1010 100 50 1.54 310 09:19 11.02.2021
2682 Fog 7 1009 100 50 1.54 280 08:50 11.02.2021
2683 Fog 7 1009 100 50 1.54 280 08:18 11.02.2021
2684 Fog 7 1008 100 8000 1.03 0 06:51 11.02.2021
2685 Fog 7 1008 100 8000 1.03 0 06:32 11.02.2021
2686 Clear 8 1005 93 10000 0.51 0 03:54 11.02.2021
2687 Clear 9 1004 100 10000 1.54 70 02:28 11.02.2021
2688 Clouds 10 1003 87 10000 2.06 150 00:46 11.02.2021
2689 Clouds 10 1003 87 10000 2.06 160 00:19 11.02.2021
2690 Clouds 11 1002 87 10000 2.57 160 23:39 10.02.2021
2691 Clouds 11 1003 87 4000 2.57 170 22:51 10.02.2021
2692 Clouds 11 1002 87 10000 2.06 150 22:27 10.02.2021
2693 Clouds 11 1002 87 10000 1.54 160 21:55 10.02.2021
2694 Clouds 12 1002 87 10000 1.54 160 21:37 10.02.2021
2695 Clouds 12 1002 87 10000 2.06 200 21:19 10.02.2021
2696 Clouds 12 1001 82 10000 2.06 210 20:40 10.02.2021
2697 Clouds 12 1002 82 10000 2.57 200 20:22 10.02.2021
2698 Clouds 12 1002 82 10000 3.6 160 19:44 10.02.2021
2699 Clouds 12 1001 82 10000 3.09 170 19:23 10.02.2021
2700 Clouds 12 1001 82 10000 3.6 180 18:40 10.02.2021
2701 Clouds 13 1001 76 10000 5.66 180 18:21 10.02.2021
2702 Clouds 13 1001 76 10000 5.14 190 17:50 10.02.2021
2703 Clear 13 1001 72 10000 3.09 210 17:22 10.02.2021
2704 Clouds 14 1001 77 10000 2.57 180 16:52 10.02.2021
2705 Clouds 13 1001 77 10000 2.57 180 16:29 10.02.2021
2706 Clouds 14 1001 82 8000 3.6 210 15:47 10.02.2021
2707 Clouds 14 1001 82 8000 3.6 210 15:22 10.02.2021
2708 Clouds 14 1002 88 10000 4.63 200 14:42 10.02.2021
2709 Clouds 15 1002 88 8000 3.6 200 14:21 10.02.2021
2710 Clouds 15 1002 88 8000 3.6 200 13:50 10.02.2021
2711 Clouds 15 1002 88 8000 3.6 200 13:27 10.02.2021
2712 Rain 15 1003 88 10000 5.66 190 12:48 10.02.2021
2713 Clouds 15 1004 88 6000 4.12 180 12:29 10.02.2021
2714 Clouds 15 1004 88 6000 4.12 180 11:47 10.02.2021
2715 Clouds 15 1004 88 6000 4.12 180 11:29 10.02.2021
2716 Clouds 14 1004 88 8000 5.14 180 10:49 10.02.2021
2717 Clouds 14 1004 88 8000 5.14 180 10:20 10.02.2021
2718 Clouds 14 1005 82 8000 6.69 180 09:43 10.02.2021
2719 Mist 14 1004 94 3500 5.66 190 09:22 10.02.2021
2720 Mist 13 1004 94 3500 5.66 190 08:50 10.02.2021
2721 Mist 13 1004 94 3500 5.66 190 08:29 10.02.2021
2722 Clouds 13 1005 88 4900 6.69 180 07:18 10.02.2021
2723 Clouds 13 1006 82 10000 5.66 180 04:47 10.02.2021
2724 Clouds 13 1008 82 10000 3.6 170 00:51 10.02.2021
2725 Clouds 13 1009 76 10000 3.6 180 23:39 09.02.2021
2726 Clouds 12 1009 82 10000 3.6 170 23:19 09.02.2021
2727 Clouds 13 1009 76 10000 3.6 190 22:41 09.02.2021
2728 Clouds 13 1009 76 10000 3.6 190 22:23 09.02.2021
2729 Clouds 13 1008 82 10000 2.57 190 21:40 09.02.2021
2730 Clouds 13 1008 76 10000 3.6 210 21:19 09.02.2021
2731 Clouds 13 1008 76 10000 3.09 190 20:41 09.02.2021
2732 Clouds 13 1008 71 10000 4.12 210 20:23 09.02.2021
2733 Clouds 13 1008 82 10000 3.09 210 19:40 09.02.2021
2734 Clouds 13 1008 76 10000 3.6 190 19:21 09.02.2021
2735 Clouds 13 1007 76 10000 3.09 230 18:42 09.02.2021
2736 Clouds 13 1007 71 10000 3.6 210 18:21 09.02.2021
2737 Clouds 14 1007 71 10000 4.12 230 17:45 09.02.2021
2738 Clouds 14 1006 72 10000 4.12 230 17:25 09.02.2021
2739 Clouds 14 1006 72 10000 4.63 250 16:50 09.02.2021
2740 Clouds 14 1006 67 10000 7.2 270 16:19 09.02.2021
2741 Clouds 14 1006 87 10000 3.6 240 15:50 09.02.2021
2742 Clouds 14 1005 67 10000 3.6 250 15:28 09.02.2021
2743 Rain 14 1005 62 10000 5.66 250 14:57 09.02.2021
2744 Clouds 15 1004 72 10000 2.06 300 14:29 09.02.2021
2745 Clouds 15 1004 72 10000 2.06 300 13:54 09.02.2021
2746 Clouds 15 1004 72 10000 2.06 300 13:29 09.02.2021
2747 Clouds 14 1004 72 10000 3.09 290 12:57 09.02.2021
2748 Clouds 14 1004 72 10000 3.09 290 12:38 09.02.2021
2749 Clouds 14 1004 72 10000 3.09 290 12:20 09.02.2021
2750 Clouds 14 1003 77 9000 5.14 240 11:41 09.02.2021
2751 Clouds 14 1003 77 9000 5.14 240 11:21 09.02.2021
2752 Clouds 12 1003 82 7000 5.66 230 10:51 09.02.2021
2753 Clouds 12 1003 82 7000 5.66 230 10:19 09.02.2021
2754 Clouds 12 1002 76 5000 4.12 210 09:44 09.02.2021
2755 Rain 12 1002 76 5000 4.12 210 09:25 09.02.2021
2756 Clouds 12 1002 87 8000 3.09 220 08:52 09.02.2021
2757 Clouds 11 1002 87 8000 3.09 220 08:27 09.02.2021
2758 Clouds 11 1001 82 7000 5.66 230 07:36 09.02.2021
2759 Clouds 12 1000 87 10000 4.12 170 04:58 09.02.2021
2760 Clouds 12 1001 94 4000 5.66 200 03:42 09.02.2021
2761 Clouds 13 1002 88 10000 6.69 180 01:20 09.02.2021
2762 Clouds 13 1003 82 10000 6.69 170 23:58 08.02.2021
2763 Drizzle 13 1003 76 10000 6.69 170 23:22 08.02.2021
2764 Clouds 13 1003 71 10000 6.69 170 22:46 08.02.2021
2765 Clouds 12 1003 71 10000 6.17 170 22:26 08.02.2021
2766 Clouds 12 1003 71 10000 5.66 170 21:58 08.02.2021
2767 Clouds 12 1003 71 10000 5.66 170 21:38 08.02.2021
2768 Clouds 12 1003 76 10000 5.14 170 21:18 08.02.2021
2769 Clouds 12 1003 76 10000 5.14 170 20:42 08.02.2021
2770 Clouds 12 1003 76 10000 4.63 180 20:22 08.02.2021
2771 Clouds 12 1003 76 10000 5.14 170 19:49 08.02.2021
2772 Clouds 12 1003 76 10000 4.63 190 19:26 08.02.2021
2773 Clouds 12 1003 82 10000 3.6 190 18:49 08.02.2021
2774 Clouds 12 1002 71 9000 4.63 200 18:25 08.02.2021
2775 Clouds 12 1002 71 9000 4.63 200 17:47 08.02.2021
2776 Clouds 12 1002 71 9000 4.63 200 17:26 08.02.2021
2777 Clouds 12 1001 76 9000 3.09 230 16:50 08.02.2021
2778 Clouds 12 1001 76 9000 3.09 230 16:28 08.02.2021
2779 Clouds 13 1001 76 6000 4.63 220 15:56 08.02.2021
2780 Clouds 13 1001 76 6000 4.63 220 15:37 08.02.2021
2781 Clouds 13 1000 67 10000 6.17 240 15:18 08.02.2021
2782 Clouds 13 1000 67 10000 6.17 240 14:42 08.02.2021
2783 Clouds 13 1000 67 10000 6.17 240 14:24 08.02.2021
2784 Clouds 13 1000 67 10000 6.17 250 13:45 08.02.2021
2785 Clouds 13 1000 72 10000 3.6 230 13:25 08.02.2021
2786 Clouds 13 1000 67 10000 6.17 260 12:39 08.02.2021
2787 Clouds 13 1000 76 10000 3.6 190 11:58 08.02.2021
2788 Clouds 12 1000 76 10000 3.6 190 11:35 08.02.2021
2789 Clouds 12 1000 81 10000 3.09 230 10:46 08.02.2021
2790 Clouds 11 999 81 10000 3.09 170 10:26 08.02.2021
2791 Clouds 11 999 76 10000 2.57 230 09:56 08.02.2021
2792 Clouds 11 999 76 10000 2.57 210 09:36 08.02.2021
2793 Clouds 11 999 76 10000 2.57 210 09:36 08.02.2021
2794 Clouds 10 998 81 10000 2.57 230 08:55 08.02.2021
2795 Clouds 10 998 81 10000 2.57 230 08:26 08.02.2021
2796 Clouds 10 998 76 10000 2.57 170 07:40 08.02.2021
2797 Clouds 10 997 76 10000 2.57 180 06:33 08.02.2021
2798 Clear 10 997 81 10000 4.12 200 05:18 08.02.2021
2799 Clouds 11 998 87 10000 2.06 230 02:26 08.02.2021
2800 Clouds 12 998 87 10000 3.6 200 00:25 08.02.2021
2801 Clouds 12 998 87 10000 2.57 190 23:54 07.02.2021
2802 Clouds 12 998 94 10000 4.12 200 23:28 07.02.2021
2803 Clouds 12 998 94 10000 3.09 200 22:57 07.02.2021
2804 Clouds 12 998 94 10000 3.09 200 22:38 07.02.2021
2805 Clouds 12 998 94 10000 2.57 200 22:20 07.02.2021
2806 Clouds 12 999 94 10000 3.6 200 21:49 07.02.2021
2807 Clouds 12 999 94 8000 2.57 210 21:24 07.02.2021
2808 Clouds 12 999 94 8000 2.57 210 21:24 07.02.2021
2809 Rain 12 1000 88 10000 3.6 190 20:50 07.02.2021
2810 Clouds 12 999 82 10000 2.57 190 20:29 07.02.2021
2811 Clouds 12 1000 82 10000 2.57 180 19:49 07.02.2021
2812 Clouds 12 999 87 10000 3.09 180 19:29 07.02.2021
2813 Clouds 13 999 82 10000 2.57 190 18:48 07.02.2021
2814 Clouds 12 999 100 8000 1.03 0 18:27 07.02.2021
2815 Clouds 12 999 100 8000 1.03 0 17:58 07.02.2021
2816 Clouds 12 999 100 8000 1.03 0 17:39 07.02.2021
2817 Clouds 12 999 100 8000 1.03 0 17:18 07.02.2021
2818 Clouds 12 999 100 3000 1.54 0 16:42 07.02.2021
2819 Clouds 12 999 100 3000 1.54 0 16:21 07.02.2021
2820 Clouds 13 1000 94 3000 4.12 270 15:44 07.02.2021
2821 Rain 13 1000 94 3000 4.12 270 15:21 07.02.2021
2822 Rain 13 1000 88 6000 5.14 160 14:46 07.02.2021
2823 Rain 13 1000 88 6000 5.14 160 14:26 07.02.2021
2824 Rain 14 1001 82 10000 2.57 160 13:50 07.02.2021
2825 Clouds 14 1001 82 10000 2.57 160 13:30 07.02.2021
2826 Rain 14 1001 72 10000 2.57 140 12:42 07.02.2021
2827 Rain 15 1001 72 10000 2.57 140 12:22 07.02.2021
2828 Clouds 15 1002 72 10000 4.63 140 11:45 07.02.2021
2829 Rain 14 1002 72 10000 4.63 140 11:26 07.02.2021
2830 Rain 15 1003 67 8000 4.12 150 10:42 07.02.2021
2831 Rain 15 1003 67 8000 4.12 150 10:42 07.02.2021
2832 Rain 15 1003 67 8000 4.12 150 10:22 07.02.2021
2833 Rain 16 1002 59 10000 8.23 130 09:43 07.02.2021
2834 Rain 16 1002 59 10000 8.23 130 09:20 07.02.2021
2835 Rain 16 1002 55 10000 9.77 130 08:22 07.02.2021
2836 Rain 16 1005 51 10000 7.72 150 06:33 07.02.2021
2837 Rain 18 1004 26 10000 9.77 160 05:56 07.02.2021
2838 Clear 20 1006 24 10000 9.77 160 02:53 07.02.2021
2839 Rain 19 1007 26 10000 9.26 170 01:24 07.02.2021
2840 Clear 19 1007 26 10000 7.2 170 00:29 07.02.2021
2841 Clear 18 1008 28 10000 7.2 170 23:42 06.02.2021
2842 Clear 17 1008 34 10000 8.23 160 22:33 06.02.2021
2843 Clear 18 1008 34 10000 8.75 180 21:39 06.02.2021
2844 Clear 17 1009 39 10000 8.23 160 21:21 06.02.2021
2845 Clear 17 1009 42 10000 5.66 170 20:47 06.02.2021
2846 Clear 16 1009 42 10000 7.72 170 20:25 06.02.2021
2847 Clear 16 1009 42 10000 6.17 170 19:55 06.02.2021
2848 Clear 17 1009 51 10000 4.12 160 19:29 06.02.2021
2849 Clear 17 1009 48 10000 4.12 160 18:46 06.02.2021
2850 Clear 17 1010 52 10000 1.54 0 18:28 06.02.2021
2851 Clear 18 1010 52 10000 1.54 0 17:45 06.02.2021
2852 Clear 18 1010 52 10000 1.54 0 17:22 06.02.2021
2853 Clear 18 1010 52 10000 1.54 0 17:22 06.02.2021
2854 Clear 18 1010 42 10000 6.17 170 16:58 06.02.2021
2855 Clear 18 1010 42 10000 6.17 170 16:37 06.02.2021
2856 Clear 20 1010 37 10000 2.57 190 16:19 06.02.2021
2857 Clear 20 1010 37 10000 2.57 190 15:40 06.02.2021
2858 Clear 21 1010 37 10000 2.57 190 15:19 06.02.2021
2859 Clear 21 1011 37 10000 4.12 140 14:44 06.02.2021
2860 Clear 21 1011 37 10000 4.12 140 14:23 06.02.2021
2861 Clear 20 1012 63 10000 1.03 0 13:47 06.02.2021
2862 Clear 19 1013 77 10000 2.06 350 12:56 06.02.2021
2863 Clear 18 1013 77 10000 2.06 350 12:21 06.02.2021
2864 Clear 19 1013 40 10000 5.66 160 11:47 06.02.2021
2865 Clear 18 1013 37 10000 4.63 160 11:22 06.02.2021
2866 Clear 17 1013 42 10000 4.63 160 10:56 06.02.2021
2867 Clear 15 1014 62 10000 1.03 0 10:28 06.02.2021
2868 Clear 14 1014 71 10000 1.54 10 09:56 06.02.2021
2869 Clear 12 1013 71 10000 1.54 20 09:36 06.02.2021
2870 Clear 12 1013 71 10000 1.54 20 09:18 06.02.2021
2871 Clear 10 1014 93 10000 1.54 0 08:33 06.02.2021
2872 Clear 10 1013 71 10000 1.03 0 07:56 06.02.2021
2873 Clear 9 1014 81 10000 1.03 0 05:43 06.02.2021
2874 Clear 10 1014 87 10000 0.51 0 03:53 06.02.2021
2875 Clear 11 1015 87 10000 1.03 0 01:42 06.02.2021
2876 Clear 11 1015 87 10000 2.06 50 00:47 06.02.2021
2877 Clear 12 1015 76 10000 2.06 220 00:19 06.02.2021
2878 Clear 12 1015 82 10000 2.06 250 23:42 05.02.2021
2879 Clear 12 1015 76 10000 1.03 0 23:24 05.02.2021
2880 Clear 13 1015 76 10000 1.54 80 22:47 05.02.2021
2881 Clear 13 1015 76 10000 3.09 100 22:20 05.02.2021
2882 Clear 13 1015 71 10000 1.54 100 21:44 05.02.2021
2883 Clear 13 1015 67 10000 2.06 240 21:25 05.02.2021
2884 Clear 14 1015 62 10000 2.06 200 20:45 05.02.2021
2885 Clear 14 1015 63 10000 4.12 180 19:52 05.02.2021
2886 Clear 14 1015 76 10000 4.12 210 19:19 05.02.2021
2887 Clear 14 1015 76 10000 4.12 210 19:19 05.02.2021
2888 Clear 15 1015 72 10000 3.6 210 18:53 05.02.2021
2889 Clear 15 1015 72 10000 2.06 230 18:23 05.02.2021
2890 Clear 17 1015 63 10000 2.57 220 17:44 05.02.2021
2891 Clear 17 1015 63 10000 2.57 220 17:21 05.02.2021
2892 Clear 18 1016 55 10000 4.63 210 16:49 05.02.2021
2893 Clear 18 1016 55 10000 4.63 210 16:24 05.02.2021
2894 Clear 19 1016 56 10000 4.12 210 15:54 05.02.2021
2895 Clear 19 1016 56 10000 4.12 210 15:26 05.02.2021
2896 Clear 19 1016 59 10000 2.06 250 14:41 05.02.2021
2897 Clear 19 1016 59 10000 2.06 250 14:23 05.02.2021
2898 Clear 19 1016 59 10000 2.06 250 14:23 05.02.2021
2899 Clear 18 1017 72 10000 1.03 0 13:59 05.02.2021
2900 Clear 19 1016 48 10000 5.66 200 13:36 05.02.2021
2901 Clear 18 1017 55 10000 1.54 0 12:55 05.02.2021
2902 Clear 18 1017 55 10000 1.54 0 12:36 05.02.2021
2903 Clear 17 1018 72 10000 2.06 270 11:41 05.02.2021
2904 Clear 16 1018 72 10000 1.03 0 11:21 05.02.2021
2905 Clear 15 1017 76 10000 1.03 0 10:58 05.02.2021
2906 Clouds 13 1018 100 6000 1.03 0 10:27 05.02.2021
2907 Fog 10 1018 100 100 2.06 350 09:48 05.02.2021
2908 Clear 10 1017 93 10000 1.54 50 09:28 05.02.2021
2909 Clear 10 1017 93 10000 1.54 70 08:58 05.02.2021
2910 Fog 8 1018 100 100 3.09 10 08:23 05.02.2021
2911 Clear 9 1016 93 10000 1.54 50 07:37 05.02.2021
2912 Clear 9 1016 81 10000 2.06 60 06:54 05.02.2021
2913 Clear 9 1017 93 10000 1.03 0 05:38 05.02.2021
2914 Clear 9 1018 93 10000 1.03 0 03:22 05.02.2021
2915 Clear 10 1018 93 10000 1.03 110 02:24 05.02.2021
2916 Clear 10 1018 87 10000 0.51 0 00:41 05.02.2021
2917 Clear 10 1018 87 10000 0.51 0 00:41 05.02.2021
2918 Clear 11 1018 87 10000 0.51 170 00:20 05.02.2021
2919 Clear 11 1018 93 10000 0.51 180 23:58 04.02.2021
2920 Clear 11 1018 93 10000 0.51 180 23:39 04.02.2021
2921 Clear 11 1018 93 10000 0.51 0 23:20 04.02.2021
2922 Clear 11 1018 93 10000 1.03 0 22:51 04.02.2021
2923 Clear 12 1018 87 10000 0.51 100 22:27 04.02.2021
2924 Clear 12 1018 87 10000 1.54 80 21:42 04.02.2021
2925 Clear 12 1018 93 10000 1.03 0 21:20 04.02.2021
2926 Clear 13 1018 87 10000 2.57 100 20:49 04.02.2021
2927 Clear 13 1018 87 10000 2.06 160 20:30 04.02.2021
2928 Clear 13 1018 87 10000 2.06 160 20:30 04.02.2021
2929 Clear 13 1018 87 10000 2.06 160 20:30 04.02.2021
2930 Clear 13 1018 87 10000 2.06 160 20:30 04.02.2021
2931 Clear 14 1018 82 10000 2.06 180 19:43 04.02.2021
2932 Clear 13 1018 88 10000 3.6 190 18:57 04.02.2021
2933 Clear 14 1018 77 10000 3.09 220 18:26 04.02.2021
2934 Clear 14 1018 77 10000 3.09 220 18:26 04.02.2021
2935 Clear 14 1018 77 10000 3.09 220 17:53 04.02.2021
2936 Clear 14 1017 82 10000 4.63 200 17:53 04.02.2021
2937 Clear 15 1018 77 10000 3.09 220 17:28 04.02.2021
2938 Clear 16 1018 72 10000 2.57 200 16:57 04.02.2021
2939 Clear 16 1018 72 10000 2.57 200 16:39 04.02.2021
2940 Clear 16 1018 72 10000 2.57 200 16:18 04.02.2021
2941 Clouds 17 1018 68 10000 3.6 190 15:40 04.02.2021
2942 Clouds 17 1018 68 10000 3.6 190 15:20 04.02.2021
2943 Clouds 17 1018 68 10000 3.6 190 15:20 04.02.2021
2944 Clouds 17 1018 67 10000 5.66 190 14:48 04.02.2021
2945 Clouds 18 1018 68 10000 4.12 180 14:21 04.02.2021
2946 Clouds 17 1018 63 10000 5.14 180 13:45 04.02.2021
2947 Clouds 18 1019 67 10000 4.12 190 13:26 04.02.2021
2948 Clouds 17 1019 67 10000 4.12 190 12:54 04.02.2021
2949 Clouds 16 1019 72 10000 3.77 149 11:57 04.02.2021
2950 Clouds 16 1019 72 10000 3.74 149 11:37 04.02.2021
2951 Clouds 16 1019 72 10000 3.42 142 11:18 04.02.2021
2952 Clouds 15 1019 67 10000 4.63 190 10:34 04.02.2021
2953 Clouds 13 1019 87 10000 1.54 0 09:45 04.02.2021
2954 Clouds 12 1019 87 10000 1.54 0 09:23 04.02.2021
2955 Clouds 11 1018 87 10000 1.54 0 08:51 04.02.2021
2956 Clouds 10 1018 87 10000 1.54 0 08:26 04.02.2021
2957 Clouds 10 1018 87 10000 1.54 350 07:57 04.02.2021
2958 Clouds 10 1018 87 10000 1.54 350 07:34 04.02.2021
2959 Clouds 10 1017 82 10000 0.51 0 06:52 04.02.2021
2960 Clouds 10 1017 82 10000 0.51 0 06:34 04.02.2021
2961 Clouds 12 1017 76 10000 4.63 170 02:40 04.02.2021
2962 Clouds 12 1017 76 10000 4.63 170 02:21 04.02.2021
2963 Clouds 12 1018 87 10000 5.66 170 00:24 04.02.2021
2964 Clear 12 1018 82 10000 5.66 200 23:34 03.02.2021
2965 Clear 12 1017 76 10000 1.03 0 22:40 03.02.2021
2966 Clear 12 1017 76 10000 6.17 140 22:21 03.02.2021
2967 Clear 12 1017 76 10000 6.17 140 22:21 03.02.2021
2968 Clear 13 1017 76 10000 4.63 180 21:51 03.02.2021
2969 Clear 13 1017 76 10000 4.12 170 21:24 03.02.2021
2970 Clear 12 1017 82 10000 4.12 150 20:54 03.02.2021
2971 Clear 12 1017 82 10000 4.12 150 20:35 03.02.2021
2972 Clear 13 1017 76 10000 5.14 170 19:56 03.02.2021
2973 Clear 13 1017 82 10000 4.63 170 19:27 03.02.2021
2974 Clouds 13 1014 87 10000 4.33 149 18:58 03.02.2021
2975 Clear 13 1017 87 10000 4.12 190 18:38 03.02.2021
2976 Clear 13 1017 87 10000 4.12 190 18:19 03.02.2021
2977 Clouds 14 1017 77 10000 3.6 180 17:46 03.02.2021
2978 Clouds 15 1017 77 10000 3.6 180 17:26 03.02.2021
2979 Clouds 15 1018 67 10000 3.6 190 16:43 03.02.2021
2980 Clouds 16 1018 67 10000 3.6 190 16:23 03.02.2021
2981 Clouds 16 1018 67 10000 5.14 180 15:41 03.02.2021
2982 Clouds 16 1018 67 10000 5.14 180 15:41 03.02.2021
2983 Clouds 16 1018 67 10000 5.14 180 15:22 03.02.2021
2984 Clouds 16 1018 72 10000 4.63 200 14:47 03.02.2021
2985 Clouds 15 1018 77 10000 3.6 190 14:23 03.02.2021
2986 Clouds 15 1018 77 10000 3.6 190 13:48 03.02.2021
2987 Clouds 15 1018 77 10000 3.6 190 13:21 03.02.2021
2988 Clouds 15 1018 72 10000 5.66 170 12:45 03.02.2021
2989 Clouds 14 1019 82 10000 1.54 0 12:21 03.02.2021
2990 Clouds 14 1018 72 10000 4.63 200 11:43 03.02.2021
2991 Clouds 13 1019 94 10000 3.02 144 11:24 03.02.2021
2992 Clouds 13 1018 71 10000 2.57 160 10:45 03.02.2021
2993 Clouds 12 1018 76 10000 2.57 160 10:21 03.02.2021
2994 Clouds 12 1018 76 10000 2.57 160 09:46 03.02.2021
2995 Clouds 11 1018 76 10000 2.57 160 09:27 03.02.2021
2996 Clouds 10 1018 93 9000 0.51 0 08:49 03.02.2021
2997 Clouds 10 1017 87 8000 1.54 270 07:59 03.02.2021
2998 Clouds 10 1017 81 10000 2.57 100 07:32 03.02.2021
2999 Clouds 10 1017 81 10000 2.57 80 06:38 03.02.2021
3000 Clouds 10 1016 81 10000 1.03 0 04:51 03.02.2021
3001 Clouds 10 1016 81 10000 1.03 0 04:27 03.02.2021
3002 Clouds 9 1017 76 10000 3.09 130 02:43 03.02.2021
3003 Clear 9 1017 87 10000 2.57 140 01:58 03.02.2021
3004 Clear 9 1016 87 10000 2.06 140 00:27 03.02.2021
3005 Clear 10 1016 81 10000 2.06 150 23:44 02.02.2021
3006 Clear 10 1016 87 10000 2.06 130 23:26 02.02.2021
3007 Clear 10 1015 87 10000 2.06 150 22:52 02.02.2021
3008 Clear 10 1015 87 10000 1.54 150 22:22 02.02.2021
3009 Clear 10 1015 82 10000 2.06 160 21:48 02.02.2021
3010 Clear 10 1015 81 10000 2.57 160 21:29 02.02.2021
3011 Clear 11 1015 82 10000 1.54 160 20:52 02.02.2021
3012 Clear 11 1014 82 10000 2.06 160 20:25 02.02.2021
3013 Clear 12 1014 82 10000 2.06 160 19:59 02.02.2021
3014 Clear 12 1014 82 10000 2.06 160 19:40 02.02.2021
3015 Clear 13 1014 76 10000 1.54 190 19:22 02.02.2021
3016 Clear 13 1013 82 10000 2.06 260 18:42 02.02.2021
3017 Clear 14 1013 71 10000 2.06 280 18:24 02.02.2021
3018 Clear 15 1012 67 10000 2.06 250 17:42 02.02.2021
3019 Clear 15 1012 67 10000 2.06 250 17:21 02.02.2021
3020 Clouds 16 1012 67 10000 2.06 280 16:51 02.02.2021
3021 Clouds 16 1012 67 10000 2.06 280 16:31 02.02.2021
3022 Clear 16 1012 67 10000 1.54 0 15:57 02.02.2021
3023 Clear 17 1012 67 10000 1.54 0 15:34 02.02.2021
3024 Clear 17 1012 67 10000 1.03 0 14:56 02.02.2021
3025 Clear 16 1012 67 10000 1.03 0 14:37 02.02.2021
3026 Clear 16 1012 67 10000 1.03 0 14:18 02.02.2021
3027 Clouds 16 1012 67 10000 0.51 0 13:42 02.02.2021
3028 Clouds 16 1012 67 10000 0.51 0 13:24 02.02.2021
3029 Clear 15 1012 72 10000 1.03 0 12:53 02.02.2021
3030 Clear 15 1012 72 10000 1.03 0 12:23 02.02.2021
3031 Clouds 14 1012 82 10000 1.03 0 11:40 02.02.2021
3032 Clouds 13 1012 82 10000 1.03 0 11:19 02.02.2021
3033 Clouds 13 1012 82 10000 1.03 0 11:19 02.02.2021
3034 Clear 13 1011 93 10000 1.54 0 10:45 02.02.2021
3035 Clear 12 1011 93 10000 1.54 0 10:26 02.02.2021
3036 Clear 11 1010 100 6000 0.51 0 09:45 02.02.2021
3037 Clear 10 1010 100 6000 0.51 0 09:23 02.02.2021
3038 Clear 9 1009 87 10000 0.51 0 08:43 02.02.2021
3039 Clear 8 1008 93 9000 2.06 80 07:50 02.02.2021
3040 Clouds 9 1008 87 10000 1.54 60 07:25 02.02.2021
3041 Clouds 9 1007 87 10000 2.06 40 06:40 02.02.2021
3042 Clouds 10 1006 93 10000 1.54 50 05:51 02.02.2021
3043 Clouds 10 1005 87 10000 0.51 210 04:18 02.02.2021
3044 Clouds 10 1004 87 10000 1.03 0 02:25 02.02.2021
3045 Clouds 11 1003 87 10000 0.51 0 00:46 02.02.2021
3046 Drizzle 11 1003 87 10000 2.06 70 23:58 01.02.2021
3047 Clouds 11 1002 81 10000 1.03 0 22:59 01.02.2021
3048 Clouds 11 1002 81 10000 1.03 0 22:59 01.02.2021
3049 Clouds 11 1002 81 10000 1.03 0 22:39 01.02.2021
3050 Clouds 11 1002 81 10000 3.09 200 22:19 01.02.2021
3051 Clouds 11 1002 71 10000 2.06 180 21:46 01.02.2021
3052 Clouds 11 1001 81 10000 0.51 0 21:22 01.02.2021
3053 Clouds 11 1001 76 10000 2.57 200 20:42 01.02.2021
3054 Clouds 11 1001 76 10000 3.09 130 20:24 01.02.2021
3055 Clouds 12 1001 82 10000 3.09 150 19:47 01.02.2021
3056 Clouds 12 1001 76 10000 1.54 210 19:21 01.02.2021
3057 Clouds 12 1001 76 10000 1.54 210 19:21 01.02.2021
3058 Clouds 12 1000 76 10000 2.57 180 18:55 01.02.2021
3059 Clouds 12 1000 71 10000 3.09 180 18:32 01.02.2021
3060 Clouds 12 1000 76 10000 3.6 170 17:57 01.02.2021
3061 Clouds 12 1000 76 10000 3.6 170 17:39 01.02.2021
3062 Clouds 13 1000 76 10000 3.6 170 17:18 01.02.2021
3063 Clouds 14 999 72 10000 3.09 180 16:33 01.02.2021
3064 Clouds 15 999 67 10000 2.06 170 15:50 01.02.2021
3065 Clouds 15 999 67 10000 2.06 170 15:21 01.02.2021
3066 Clouds 15 999 67 10000 3.09 190 14:57 01.02.2021
3067 Clouds 15 999 67 10000 3.09 190 14:39 01.02.2021
3068 Clear 15 999 82 10000 1.03 0 13:56 01.02.2021
3069 Clear 15 999 82 10000 1.03 0 13:38 01.02.2021
3070 Clear 15 999 82 10000 1.03 0 13:38 01.02.2021
3071 Clear 15 999 82 10000 1.03 0 13:38 01.02.2021
3072 Clear 15 999 82 10000 1.03 0 13:19 01.02.2021
3073 Clear 14 1000 94 10000 2.06 340 12:44 01.02.2021
3074 Clear 14 1000 94 10000 2.06 340 12:23 01.02.2021
3075 Clear 13 999 76 10000 4.12 200 11:42 01.02.2021
3076 Clear 13 999 76 10000 1.03 0 11:20 01.02.2021
3077 Clear 11 999 82 10000 1.03 0 10:46 01.02.2021
3078 Clear 10 999 76 10000 1.03 0 10:20 01.02.2021
3079 Fog 9 1000 100 3500 1.03 0 09:44 01.02.2021
3080 Clear 9 999 81 10000 2.57 130 09:24 01.02.2021
3081 Fog 7 1000 100 50 1.42 92 08:51 01.02.2021
3082 Clear 7 999 93 10000 1.03 150 07:53 01.02.2021
3083 Clear 7 998 93 8000 0.51 0 06:37 01.02.2021
3084 Clouds 8 998 93 10000 1.03 0 04:30 01.02.2021
3085 Clouds 9 998 87 10000 2.57 90 01:41 01.02.2021
3086 Clouds 10 998 87 10000 2.06 160 23:45 31.01.2021
3087 Clouds 10 997 87 10000 1.54 170 22:44 31.01.2021
3088 Clouds 10 997 87 10000 1.03 170 22:25 31.01.2021
3089 Clouds 10 997 81 10000 1.03 200 21:56 31.01.2021
3090 Clouds 10 997 81 10000 1.03 160 21:29 31.01.2021
3091 Clouds 10 997 87 10000 2.06 160 21:00 31.01.2021
3092 Clouds 11 997 87 10000 2.06 160 20:37 31.01.2021
3093 Clouds 11 997 87 10000 1.54 290 20:18 31.01.2021
3094 Clouds 11 996 87 10000 1.54 360 19:37 31.01.2021
3095 Clouds 11 996 81 10000 1.03 260 19:19 31.01.2021
3096 Clouds 11 996 76 10000 2.06 50 18:42 31.01.2021
3097 Clouds 11 996 93 10000 1.54 0 18:23 31.01.2021
3098 Clouds 11 996 93 10000 1.54 0 17:49 31.01.2021
3099 Clouds 12 996 93 10000 1.54 0 17:24 31.01.2021
3100 Clouds 12 995 87 10000 2.57 10 16:52 31.01.2021
3101 Clouds 12 995 87 10000 2.57 10 16:34 31.01.2021
3102 Clouds 12 995 76 10000 2.06 40 15:54 31.01.2021
3103 Rain 12 995 76 10000 2.06 40 15:35 31.01.2021
3104 Clouds 13 995 87 8000 4.12 50 14:50 31.01.2021
3105 Clouds 13 995 87 8000 4.12 50 14:26 31.01.2021
3106 Clouds 13 995 93 4000 4.12 350 13:57 31.01.2021
3107 Clouds 13 995 93 4000 4.12 350 13:38 31.01.2021
3108 Clouds 15 994 72 10000 1.54 0 12:51 31.01.2021
3109 Rain 15 994 72 10000 1.54 0 12:29 31.01.2021
3110 Clear 14 995 82 10000 1.54 0 11:58 31.01.2021
3111 Clear 14 995 82 10000 1.54 0 11:38 31.01.2021
3112 Clear 14 995 82 10000 1.54 0 11:19 31.01.2021
3113 Clear 13 994 82 10000 2.57 130 10:43 31.01.2021
3114 Clear 13 994 82 10000 2.57 130 10:24 31.01.2021
3115 Clouds 12 994 87 5000 2.06 140 09:33 31.01.2021
3116 Clouds 11 994 93 6000 2.57 160 08:34 31.01.2021
3117 Rain 11 995 76 7000 4.12 230 07:48 31.01.2021
3118 Clouds 11 995 82 10000 3.09 200 05:53 31.01.2021
3119 Clouds 13 997 71 10000 9.77 170 00:53 31.01.2021
3120 Rain 13 997 71 10000 11.32 170 00:28 31.01.2021
3121 Rain 13 998 71 10000 10.8 170 23:34 30.01.2021
3122 Rain 13 999 67 10000 7.72 190 22:59 30.01.2021
3123 Rain 13 999 67 10000 7.72 190 22:33 30.01.2021
3124 Rain 13 1001 62 10000 5.66 150 21:43 30.01.2021
3125 Rain 13 1001 71 10000 5.66 160 21:23 30.01.2021
3126 Clouds 13 1001 71 10000 6.17 160 20:50 30.01.2021
3127 Clouds 13 1002 71 10000 6.17 160 20:32 30.01.2021
3128 Clouds 13 1002 76 10000 2.57 180 19:55 30.01.2021
3129 Clouds 13 1002 76 10000 2.57 180 19:36 30.01.2021
3130 Clouds 13 1003 76 10000 3.6 180 19:18 30.01.2021
3131 Clouds 13 1003 76 10000 4.12 180 18:39 30.01.2021
3132 Clouds 13 1004 76 10000 4.63 190 18:19 30.01.2021
3133 Clouds 14 1004 76 10000 4.63 200 17:24 30.01.2021
3134 Clouds 14 1004 76 10000 4.63 200 17:24 30.01.2021
3135 Clear 14 1004 67 10000 4.12 200 16:57 30.01.2021
3136 Clear 14 1004 67 10000 4.12 200 16:37 30.01.2021
3137 Clear 15 1004 67 10000 4.12 200 16:19 30.01.2021
3138 Clear 16 1005 63 10000 2.57 160 15:42 30.01.2021
3139 Clear 16 1005 63 10000 2.57 160 15:22 30.01.2021
3140 Clear 16 1006 63 10000 3.6 150 14:52 30.01.2021
3141 Clear 16 1006 63 10000 3.6 150 14:24 30.01.2021
3142 Clear 16 1007 67 10000 1.54 0 13:42 30.01.2021
3143 Clear 16 1007 67 10000 1.54 0 13:20 30.01.2021
3144 Clear 16 1007 58 10000 3.09 230 12:42 30.01.2021
3145 Clear 15 1017 88 10000 1.54 0 12:21 30.01.2021
3146 Clear 13 1008 100 10000 1.86 123 11:40 30.01.2021
3147 Clear 12 1007 71 10000 1.03 0 10:54 30.01.2021
3148 Mist 9 1007 100 5000 0.65 115 09:54 30.01.2021
3149 Fog 8 1007 100 3000 1.54 0 09:31 30.01.2021
3150 Clear 7 1006 87 10000 1.54 100 08:56 30.01.2021
3151 Clear 7 1006 87 10000 1.54 100 08:36 30.01.2021
3152 Clear 7 1006 87 10000 1.54 130 07:23 30.01.2021
3153 Clear 7 1006 76 10000 2.06 90 06:19 30.01.2021
3154 Clear 9 1006 71 10000 0.51 0 03:35 30.01.2021
3155 Clear 10 1006 62 10000 3.6 320 02:26 30.01.2021
3156 Clear 10 1006 76 10000 1.54 310 01:59 30.01.2021
3157 Clear 10 1006 76 10000 1.03 0 00:49 30.01.2021
3158 Clear 11 1006 71 10000 1.03 0 00:21 30.01.2021
3159 Clear 11 1006 66 10000 2.57 300 23:49 29.01.2021
3160 Clear 11 1006 71 10000 1.54 290 23:27 29.01.2021
3161 Clear 11 1005 67 10000 4.12 330 22:45 29.01.2021
3162 Clear 11 1005 71 10000 2.57 310 22:22 29.01.2021
3163 Clear 11 1005 76 10000 2.06 330 21:43 29.01.2021
3164 Clear 11 1005 93 10000 2.57 150 21:25 29.01.2021
3165 Clear 12 1005 93 10000 2.06 170 20:42 29.01.2021
3166 Clear 11 1005 93 10000 2.06 170 20:42 29.01.2021
3167 Clouds 12 1005 87 10000 1.54 190 20:21 29.01.2021
3168 Clouds 12 1005 87 10000 2.06 170 19:39 29.01.2021
3169 Clouds 12 1005 94 10000 3.09 200 19:20 29.01.2021
3170 Clouds 13 1005 88 10000 3.09 200 18:44 29.01.2021
3171 Clouds 13 1005 88 6000 1.54 0 17:45 29.01.2021
3172 Clouds 14 1005 88 6000 1.54 0 17:22 29.01.2021
3173 Clouds 14 1006 82 10000 4.63 190 16:47 29.01.2021
3174 Clouds 14 1006 82 10000 5.14 180 16:24 29.01.2021
3175 Clouds 14 1006 82 10000 6.17 190 15:54 29.01.2021
3176 Clouds 14 1006 82 10000 6.17 190 15:36 29.01.2021
3177 Clouds 14 1007 82 10000 7.2 180 14:57 29.01.2021
3178 Clouds 14 1007 82 10000 5.66 180 14:21 29.01.2021
3179 Mist 13 1009 87 5000 3.6 130 13:45 29.01.2021
3180 Mist 13 1009 87 5000 3.6 130 13:26 29.01.2021
3181 Mist 12 1010 82 5000 1.54 0 12:30 29.01.2021
3182 Clouds 12 1010 71 8000 1.03 0 11:51 29.01.2021
3183 Clouds 12 1010 71 8000 1.03 0 11:21 29.01.2021
3184 Clouds 11 1011 76 10000 1.54 0 10:58 29.01.2021
3185 Clouds 11 1011 76 10000 1.54 0 10:39 29.01.2021
3186 Clouds 9 1012 100 8000 1.03 0 09:50 29.01.2021
3187 Clouds 9 1012 100 8000 1.03 0 09:50 29.01.2021
3188 Clouds 9 1012 100 8000 1.03 0 09:29 29.01.2021
3189 Clouds 8 1012 87 8000 2.06 360 08:48 29.01.2021
3190 Clouds 8 1012 87 8000 2.06 360 08:25 29.01.2021
3191 Clear 8 1011 87 10000 1.03 0 07:43 29.01.2021
3192 Clear 8 1011 81 10000 0.51 120 07:23 29.01.2021
3193 Clear 8 1012 76 10000 1.03 0 06:34 29.01.2021
3194 Clouds 8 1013 76 10000 1.03 0 03:53 29.01.2021
3195 Clouds 9 1013 66 10000 0.51 0 00:47 29.01.2021
3196 Clouds 9 1013 66 10000 1.03 0 00:22 29.01.2021
3197 Clouds 9 1013 66 10000 1.03 0 00:22 29.01.2021
3198 Clouds 9 1013 66 10000 2.06 210 23:47 28.01.2021
3199 Clouds 9 1013 66 10000 0.51 0 23:27 28.01.2021
3200 Clouds 10 1010 49 10000 0.45 39 22:59 28.01.2021
3201 Clouds 10 1010 50 10000 0.45 348 22:38 28.01.2021
3202 Clouds 9 1013 57 10000 0.51 0 22:20 28.01.2021
3203 Clouds 10 1010 49 10000 0.45 348 21:42 28.01.2021
3204 Clouds 9 1013 53 10000 1.03 0 21:21 28.01.2021
3205 Clouds 9 1014 53 10000 2.06 50 20:44 28.01.2021
3206 Clouds 10 1014 57 10000 3.09 150 20:19 28.01.2021
3207 Clouds 10 1014 50 10000 3.09 180 19:49 28.01.2021
3208 Clouds 10 1014 50 10000 3.09 170 19:27 28.01.2021
3209 Clouds 10 1015 50 10000 3.09 170 18:49 28.01.2021
3210 Clear 10 1015 43 10000 1.54 0 18:29 28.01.2021
3211 Clear 11 1015 43 10000 1.54 0 17:53 28.01.2021
3212 Clear 11 1015 43 10000 1.54 0 17:32 28.01.2021
3213 Clear 11 1016 40 10000 1.54 0 16:57 28.01.2021
3214 Clear 11 1016 40 10000 1.54 0 16:37 28.01.2021
3215 Clear 11 1016 40 10000 1.54 0 16:18 28.01.2021
3216 Clear 11 1015 43 10000 1.54 0 15:25 28.01.2021
3217 Clear 11 1016 35 10000 1.03 0 14:47 28.01.2021
3218 Clear 11 1016 35 10000 1.03 0 14:26 28.01.2021
3219 Clear 12 1017 37 10000 0.51 0 13:58 28.01.2021
3220 Clear 12 1017 37 10000 0.51 0 13:23 28.01.2021
3221 Clear 11 1018 43 10000 2.37 179 12:50 28.01.2021
3222 Clear 11 1018 43 10000 1.73 146 12:28 28.01.2021
3223 Clear 9 1018 70 10000 2.06 360 11:55 28.01.2021
3224 Clear 8 1018 70 10000 2.06 360 11:36 28.01.2021
3225 Clear 7 1018 70 10000 2.06 360 11:18 28.01.2021
3226 Clear 6 1018 81 10000 1.54 0 10:40 28.01.2021
3227 Clear 5 1018 81 10000 1.54 0 10:22 28.01.2021
3228 Clear 4 1017 56 10000 2.57 60 09:39 28.01.2021
3229 Clear 2 1018 93 10000 1.03 0 09:19 28.01.2021
3230 Clear 0 1018 100 10000 1.03 0 08:44 28.01.2021
3231 Clear 2 1016 80 10000 1.54 50 07:50 28.01.2021
3232 Clear 2 1016 86 10000 1.54 50 07:21 28.01.2021
3233 Clear 2 1016 86 10000 1.03 0 06:48 28.01.2021
3234 Clear 3 1015 80 10000 1.03 0 04:30 28.01.2021
3235 Clear 3 1016 75 10000 1.03 70 02:45 28.01.2021
3236 Clear 4 1015 75 10000 0.51 0 00:35 28.01.2021
3237 Clear 5 1016 65 10000 1.03 110 23:25 27.01.2021
3238 Clear 5 1016 70 10000 1.03 0 22:44 27.01.2021
3239 Clear 6 1015 65 10000 1.03 120 22:26 27.01.2021
3240 Clear 6 1015 65 10000 0.51 140 21:59 27.01.2021
3241 Clear 6 1015 65 10000 0.51 140 21:41 27.01.2021
3242 Clear 6 1015 65 10000 0.51 140 21:41 27.01.2021
3243 Clear 6 1015 65 10000 1.03 0 21:22 27.01.2021
3244 Clear 7 1015 65 10000 2.06 140 20:41 27.01.2021
3245 Clear 7 1015 65 10000 1.54 130 19:59 27.01.2021
3246 Clear 7 1015 65 10000 1.54 130 19:41 27.01.2021
3247 Clear 8 1015 61 10000 2.06 170 19:20 27.01.2021
3248 Clear 8 1015 61 10000 2.06 150 18:43 27.01.2021
3249 Clear 9 1015 40 10000 1.54 0 18:23 27.01.2021
3250 Clear 10 1015 40 10000 1.54 0 17:46 27.01.2021
3251 Clear 10 1015 40 10000 1.54 0 17:26 27.01.2021
3252 Clear 11 1016 40 10000 1.03 0 16:49 27.01.2021
3253 Clear 11 1016 40 10000 1.03 0 16:28 27.01.2021
3254 Clear 12 1016 37 10000 1.03 0 15:51 27.01.2021
3255 Clear 12 1016 37 10000 1.03 0 15:32 27.01.2021
3256 Clouds 12 1015 37 10000 0.51 0 14:45 27.01.2021
3257 Clear 11 1016 46 10000 1.03 0 14:22 27.01.2021
3258 Clear 11 1017 53 10000 1.03 0 13:48 27.01.2021
3259 Clear 11 1017 53 10000 1.03 0 13:19 27.01.2021
3260 Clear 9 1018 65 10000 1.03 0 12:40 27.01.2021
3261 Clear 8 1018 65 10000 1.03 0 12:21 27.01.2021
3262 Clouds 6 1018 81 10000 2.06 340 11:44 27.01.2021
3263 Clouds 5 1018 81 10000 2.06 340 11:22 27.01.2021
3264 Clouds 5 1018 81 10000 2.06 340 11:22 27.01.2021
3265 Clouds 5 1018 81 10000 2.06 340 11:22 27.01.2021
3266 Clouds 3 1018 93 10000 2.06 360 10:40 27.01.2021
3267 Clouds 3 1018 93 10000 2.06 360 10:21 27.01.2021
3268 Clouds 2 1018 93 10000 1.54 0 09:47 27.01.2021
3269 Clear 1 1019 93 10000 1.81 39 08:59 27.01.2021
3270 Clear 1 1019 93 10000 1.8 39 08:31 27.01.2021
3271 Clear 1 1017 86 10000 1.54 60 07:43 27.01.2021
3272 Clear 1 1017 86 10000 1.54 40 07:19 27.01.2021
3273 Clouds 1 1017 93 10000 1.54 40 06:19 27.01.2021
3274 Clear 1 1017 86 10000 1.54 30 05:43 27.01.2021
3275 Clear 2 1017 80 10000 0.51 0 03:34 27.01.2021
3276 Clear 2 1018 69 10000 1.54 100 02:23 27.01.2021
3277 Clear 2 1018 69 10000 0.51 0 01:49 27.01.2021
3278 Clear 3 1018 69 10000 1.54 100 00:34 27.01.2021
3279 Clear 3 1018 64 10000 0.51 0 23:49 26.01.2021
3280 Clear 4 1018 65 10000 1.03 0 23:28 26.01.2021
3281 Clear 4 1018 65 10000 1.03 0 22:50 26.01.2021
3282 Clear 4 1018 65 10000 0.51 100 22:23 26.01.2021
3283 Clear 5 1017 56 10000 1.03 0 21:54 26.01.2021
3284 Clear 5 1017 56 10000 1.03 0 21:34 26.01.2021
3285 Clear 6 1017 60 10000 0.51 0 20:58 26.01.2021
3286 Clear 7 1017 52 10000 1.54 80 20:39 26.01.2021
3287 Clear 7 1017 52 10000 1.54 80 20:21 26.01.2021
3288 Clear 7 1016 45 10000 0.51 0 19:45 26.01.2021
3289 Clear 7 1016 45 10000 1.54 290 19:20 26.01.2021
3290 Clear 8 1016 39 10000 2.06 20 18:47 26.01.2021
3291 Clear 8 1016 37 10000 3.09 10 18:27 26.01.2021
3292 Clear 9 1016 37 10000 3.09 10 17:52 26.01.2021
3293 Clear 9 1016 37 10000 3.09 10 17:33 26.01.2021
3294 Clouds 11 1016 35 10000 5.66 350 16:56 26.01.2021
3295 Clouds 11 1016 35 10000 5.66 350 16:37 26.01.2021
3296 Clouds 11 1016 35 10000 5.66 350 16:19 26.01.2021
3297 Clear 11 1015 35 10000 6.17 350 15:44 26.01.2021
3298 Clear 11 1015 35 10000 6.17 350 15:24 26.01.2021
3299 Clear 11 1014 40 10000 5.66 10 14:45 26.01.2021
3300 Clear 11 1014 40 10000 5.66 10 14:25 26.01.2021
3301 Clear 11 1014 43 10000 5.14 20 13:35 26.01.2021
3302 Clear 10 1015 61 10000 3.09 10 12:59 26.01.2021
3303 Clear 10 1015 61 10000 3.09 10 12:59 26.01.2021
3304 Clear 10 1015 61 10000 3.09 10 12:40 26.01.2021
3305 Clear 9 1014 65 10000 3.09 10 12:22 26.01.2021
3306 Clear 8 1014 65 10000 3.09 10 11:51 26.01.2021
3307 Clear 8 1014 65 10000 3.09 10 11:25 26.01.2021
3308 Clear 7 1014 65 10000 3.09 10 10:42 26.01.2021
3309 Clear 6 1014 65 10000 3.09 10 10:22 26.01.2021
3310 Clear 5 1013 70 10000 3.6 10 09:40 26.01.2021
3311 Clear 5 1013 70 10000 3.6 10 09:22 26.01.2021
3312 Clear 4 1012 75 10000 3.09 10 08:49 26.01.2021
3313 Clear 4 1012 75 10000 3.09 10 08:18 26.01.2021
3314 Clear 4 1009 80 10000 3.09 60 07:19 26.01.2021
3315 Clear 4 1008 75 10000 3.09 50 05:53 26.01.2021
3316 Clear 4 1008 75 10000 3.09 50 05:34 26.01.2021
3317 Clear 5 1007 87 10000 2.57 30 03:42 26.01.2021
3318 Clouds 6 1005 93 10000 1.03 0 01:35 26.01.2021
3319 Clouds 7 1005 87 10000 1.03 40 00:36 26.01.2021
3320 Clouds 8 1005 81 10000 0.51 0 23:33 25.01.2021
3321 Rain 8 1005 81 10000 2.06 160 22:51 25.01.2021
3322 Clouds 8 1005 81 10000 3.6 130 22:33 25.01.2021
3323 Clouds 8 1005 71 10000 4.63 20 21:48 25.01.2021
3324 Rain 8 1005 81 10000 3.09 50 21:22 25.01.2021
3325 Rain 8 1004 87 10000 2.06 100 20:45 25.01.2021
3326 Rain 8 1004 87 10000 2.06 140 20:27 25.01.2021
3327 Clouds 9 1004 87 10000 1.54 150 19:50 25.01.2021
3328 Clouds 9 1004 87 10000 2.57 170 19:27 25.01.2021
3329 Rain 9 1004 87 10000 2.57 170 19:27 25.01.2021
3330 Rain 9 1004 76 10000 1.54 310 18:48 25.01.2021
3331 Rain 9 1004 76 10000 1.54 310 18:48 25.01.2021
3332 Rain 9 1003 82 5000 7.72 310 18:26 25.01.2021
3333 Rain 10 1003 82 5000 7.72 310 17:49 25.01.2021
3334 Rain 11 1003 82 5000 7.72 310 17:26 25.01.2021
3335 Rain 12 1002 77 8000 3.09 250 16:57 25.01.2021
3336 Rain 13 1002 77 8000 3.09 250 16:39 25.01.2021
3337 Rain 13 1002 77 8000 3.09 250 16:20 25.01.2021
3338 Clouds 14 1002 72 8000 7.2 240 15:41 25.01.2021
3339 Clouds 14 1002 72 8000 7.2 240 15:22 25.01.2021
3340 Clouds 14 1002 72 9000 7.72 240 14:39 25.01.2021
3341 Clouds 14 1002 72 9000 7.72 240 14:19 25.01.2021
3342 Clouds 14 1003 72 9000 8.75 230 13:45 25.01.2021
3343 Clouds 14 1003 72 9000 8.75 230 13:25 25.01.2021
3344 Clouds 13 1003 76 4000 9.26 230 12:45 25.01.2021
3345 Rain 13 1004 82 9000 5.14 220 12:19 25.01.2021
3346 Clouds 12 1004 82 9000 5.14 220 11:31 25.01.2021
3347 Clouds 12 1004 71 10000 5.66 220 10:53 25.01.2021
3348 Clouds 10 1004 100 9000 1.03 0 10:23 25.01.2021
3349 Clouds 9 1005 100 6000 1.54 0 09:55 25.01.2021
3350 Clouds 8 1005 100 6000 1.54 0 09:37 25.01.2021
3351 Clouds 7 1005 100 4000 3.62 212 08:56 25.01.2021
3352 Clouds 6 1005 100 4000 2.53 189 08:23 25.01.2021
3353 Clear 6 1005 70 10000 4.12 170 07:31 25.01.2021
3354 Clear 5 1005 75 10000 4.63 160 06:52 25.01.2021
3355 Clear 4 1006 65 10000 3.09 110 03:23 25.01.2021
3356 Clear 4 1006 93 10000 2.06 130 01:22 25.01.2021
3357 Clear 5 1005 87 10000 1.03 0 23:40 24.01.2021
3358 Clear 5 1004 93 10000 1.03 0 23:19 24.01.2021
3359 Clear 6 1003 87 10000 1.03 0 22:42 24.01.2021
3360 Clear 6 1003 81 10000 2.57 70 22:20 24.01.2021
3361 Clouds 7 1002 81 10000 2.57 70 21:46 24.01.2021
3362 Clouds 7 1001 81 10000 2.57 50 21:23 24.01.2021
3363 Clouds 7 1000 76 10000 3.09 20 20:44 24.01.2021
3364 Clouds 9 1000 76 10000 5.66 360 20:21 24.01.2021
3365 Clouds 9 999 87 10000 4.12 360 19:51 24.01.2021
3366 Clouds 9 998 87 10000 4.63 10 19:27 24.01.2021
3367 Clouds 10 998 87 10000 2.06 320 18:57 24.01.2021
3368 Clouds 10 998 87 10000 2.06 320 18:38 24.01.2021
3369 Clouds 10 996 87 10000 1.54 0 18:20 24.01.2021
3370 Clouds 10 996 87 10000 1.54 0 17:49 24.01.2021
3371 Clouds 11 996 87 10000 1.54 0 17:25 24.01.2021
3372 Clouds 11 995 87 10000 1.03 0 16:43 24.01.2021
3373 Clouds 11 995 87 10000 1.03 0 16:25 24.01.2021
3374 Clouds 11 994 82 10000 2.57 280 15:58 24.01.2021
3375 Clouds 10 994 82 10000 2.57 280 15:40 24.01.2021
3376 Rain 11 994 82 10000 2.57 280 15:18 24.01.2021
3377 Rain 12 992 94 10000 8.75 290 14:38 24.01.2021
3378 Clouds 12 993 93 10000 3.6 110 13:45 24.01.2021
3379 Rain 12 993 93 10000 3.6 110 13:24 24.01.2021
3380 Clouds 11 995 100 3000 2.57 130 12:47 24.01.2021
3381 Clouds 10 995 100 3000 2.57 130 12:20 24.01.2021
3382 Rain 10 995 100 3500 3.09 130 11:50 24.01.2021
3383 Rain 10 997 93 5000 4.63 140 11:24 24.01.2021
3384 Rain 9 998 93 10000 5.14 130 10:46 24.01.2021
3385 Rain 9 998 93 10000 5.14 130 10:19 24.01.2021
3386 Rain 10 999 87 4000 3.6 160 09:22 24.01.2021
3387 Rain 9 1000 87 4000 1.54 0 08:57 24.01.2021
3388 Rain 10 1000 87 4000 1.54 0 08:23 24.01.2021
3389 Clouds 12 1003 66 10000 4.63 240 02:52 24.01.2021
3390 Clouds 12 1004 66 10000 5.14 240 01:52 24.01.2021
3391 Clouds 12 1004 76 10000 4.63 230 00:26 24.01.2021
3392 Clouds 11 1005 71 10000 3.6 230 23:53 23.01.2021
3393 Clouds 12 1004 76 10000 5.14 250 23:26 23.01.2021
3394 Clouds 12 1004 71 10000 4.12 240 22:53 23.01.2021
3395 Clouds 11 1004 71 10000 4.12 240 22:33 23.01.2021
3396 Clouds 11 1005 76 10000 4.12 240 21:53 23.01.2021
3397 Clouds 11 1005 76 10000 3.6 230 21:22 23.01.2021
3398 Clouds 10 1004 76 10000 2.57 210 20:48 23.01.2021
3399 Clouds 10 1004 76 10000 2.57 210 20:48 23.01.2021
3400 Clouds 11 1004 76 10000 3.09 200 20:25 23.01.2021
3401 Clouds 10 1004 71 10000 2.57 190 19:47 23.01.2021
3402 Clouds 10 1004 71 10000 2.06 170 19:24 23.01.2021
3403 Clear 10 1004 71 10000 1.03 150 18:51 23.01.2021
3404 Clear 10 1003 66 10000 0.51 0 18:26 23.01.2021
3405 Clouds 11 1003 54 10000 3.09 280 17:55 23.01.2021
3406 Clouds 12 1003 54 10000 3.09 280 17:27 23.01.2021
3407 Clouds 13 1003 51 10000 6.17 280 16:51 23.01.2021
3408 Clouds 13 1003 51 10000 6.17 280 16:31 23.01.2021
3409 Clouds 13 1002 58 10000 6.17 250 15:48 23.01.2021
3410 Clouds 14 1002 58 10000 6.17 250 15:26 23.01.2021
3411 Clouds 14 1001 58 10000 7.72 260 14:37 23.01.2021
3412 Clouds 13 1001 58 10000 7.2 260 14:19 23.01.2021
3413 Clouds 13 1001 58 10000 7.2 260 13:40 23.01.2021
3414 Clouds 13 1001 58 10000 7.2 260 13:21 23.01.2021
3415 Clouds 14 1001 58 10000 9.26 240 12:41 23.01.2021
3416 Clouds 13 1001 58 10000 9.26 240 12:21 23.01.2021
3417 Clouds 12 1002 82 10000 3.09 160 11:34 23.01.2021
3418 Clouds 10 1001 81 8000 4.12 150 10:52 23.01.2021
3419 Clouds 10 1001 81 8000 4.12 150 10:22 23.01.2021
3420 Rain 10 1002 71 1000 6.17 230 09:49 23.01.2021
3421 Clouds 11 1002 66 3000 5.14 210 08:57 23.01.2021
3422 Rain 12 1002 58 3000 7.2 210 08:38 23.01.2021
3423 Clouds 11 1002 62 10000 5.66 220 07:37 23.01.2021
3424 Clear 11 1001 66 10000 7.2 220 05:44 23.01.2021
3425 Rain 11 1001 87 10000 4.63 200 01:44 23.01.2021
3426 Rain 11 1002 81 9000 7.2 190 23:59 22.01.2021
3427 Rain 11 1002 81 9000 7.2 190 23:35 22.01.2021
3428 Rain 13 1002 82 7000 8.75 210 22:40 22.01.2021
3429 Clouds 14 1003 82 7000 7.72 180 21:56 22.01.2021
3430 Clouds 13 1003 82 7000 7.72 180 21:37 22.01.2021
3431 Clouds 13 1003 82 7000 9.77 170 21:19 22.01.2021
3432 Rain 13 1004 82 7000 9.26 170 20:43 22.01.2021
3433 Clouds 13 1005 82 7000 8.75 180 20:22 22.01.2021
3434 Rain 13 1004 82 10000 10.29 170 19:26 22.01.2021
3435 Clouds 13 1005 82 10000 9.26 170 18:59 22.01.2021
3436 Clouds 13 1006 88 7000 5.66 170 18:41 22.01.2021
3437 Rain 13 1006 88 7000 5.66 170 18:22 22.01.2021
3438 Rain 13 1006 88 7000 5.66 170 17:43 22.01.2021
3439 Rain 14 1006 88 7000 5.66 170 17:24 22.01.2021
3440 Rain 14 1007 77 8000 6.17 170 16:44 22.01.2021
3441 Rain 15 1007 77 8000 6.17 170 16:23 22.01.2021
3442 Clouds 15 1007 77 9000 5.66 170 15:30 22.01.2021
3443 Clouds 15 1008 82 7000 5.14 190 14:59 22.01.2021
3444 Clouds 15 1008 82 7000 5.14 190 14:30 22.01.2021
3445 Clouds 15 1010 82 7000 6.17 190 13:50 22.01.2021
3446 Clouds 15 1010 82 7000 6.17 190 13:31 22.01.2021
3447 Clouds 15 1011 82 8000 4.12 190 12:48 22.01.2021
3448 Clouds 15 1011 82 8000 4.12 190 12:23 22.01.2021
3449 Clouds 15 1012 88 6000 4.12 190 11:46 22.01.2021
3450 Clouds 14 1012 94 8000 2.57 180 10:56 22.01.2021
3451 Clouds 14 1012 94 8000 2.57 180 10:35 22.01.2021
3452 Clouds 14 1012 94 8000 2.57 180 09:59 22.01.2021
3453 Clouds 13 1012 94 8000 2.57 180 09:29 22.01.2021
3454 Clouds 13 1012 94 10000 2.57 190 08:50 22.01.2021
3455 Clouds 13 1012 94 10000 2.57 190 08:27 22.01.2021
3456 Clouds 13 1012 94 10000 4.12 200 07:34 22.01.2021
3457 Rain 13 1013 88 8000 6.17 190 03:38 22.01.2021
3458 Clouds 13 1015 82 10000 6.17 170 00:39 22.01.2021
3459 Clouds 13 1016 76 10000 6.17 170 23:52 21.01.2021
3460 Clouds 13 1016 76 10000 6.17 170 23:32 21.01.2021
3461 Clear 13 1015 82 10000 7.2 160 22:51 21.01.2021
3462 Clear 13 1016 76 10000 8.23 160 22:30 21.01.2021
3463 Clouds 13 1016 82 10000 6.17 170 21:43 21.01.2021
3464 Clouds 13 1017 82 10000 5.66 180 21:20 21.01.2021
3465 Clouds 13 1017 76 10000 5.66 190 20:48 21.01.2021
3466 Clouds 13 1016 71 10000 8.23 160 20:29 21.01.2021
3467 Clouds 13 1016 76 10000 7.72 160 19:52 21.01.2021
3468 Clouds 13 1016 76 10000 5.14 190 19:30 21.01.2021
3469 Clouds 14 1016 72 10000 5.14 190 18:59 21.01.2021
3470 Clouds 14 1016 72 10000 5.14 190 18:39 21.01.2021
3471 Clouds 14 1016 72 10000 3.09 210 18:20 21.01.2021
3472 Clouds 14 1016 72 10000 3.09 210 17:51 21.01.2021
3473 Clouds 14 1016 72 10000 3.09 210 17:20 21.01.2021
3474 Clear 14 1016 77 10000 4.63 160 16:48 21.01.2021
3475 Clear 15 1016 77 10000 4.63 160 16:26 21.01.2021
3476 Clear 15 1016 77 10000 5.66 180 15:59 21.01.2021
3477 Clear 15 1016 77 10000 5.66 180 15:33 21.01.2021
3478 Clear 15 1016 77 10000 5.14 170 14:53 21.01.2021
3479 Clear 15 1016 77 10000 5.14 170 14:35 21.01.2021
3480 Clouds 15 1016 77 10000 7.72 170 13:48 21.01.2021
3481 Clouds 15 1017 72 10000 7.72 170 13:28 21.01.2021
3482 Clouds 15 1018 82 10000 4.63 170 12:55 21.01.2021
3483 Clouds 15 1018 82 10000 4.63 170 12:37 21.01.2021
3484 Clouds 15 1018 82 10000 4.63 170 12:18 21.01.2021
3485 Clouds 14 1018 82 10000 5.14 170 11:43 21.01.2021
3486 Clouds 14 1018 82 10000 5.14 170 11:43 21.01.2021
3487 Clouds 14 1018 82 10000 5.14 170 11:23 21.01.2021
3488 Clouds 14 1018 82 10000 3.09 130 10:45 21.01.2021
3489 Clouds 13 1018 82 10000 3.09 130 10:25 21.01.2021
3490 Clouds 13 1017 82 10000 7.2 180 09:43 21.01.2021
3491 Clouds 13 1017 82 10000 7.72 170 09:24 21.01.2021
3492 Clouds 13 1017 82 10000 7.2 170 08:39 21.01.2021
3493 Clouds 12 1017 76 10000 6.69 180 07:59 21.01.2021
3494 Clouds 12 1017 76 10000 6.17 180 07:26 21.01.2021
3495 Clouds 12 1017 76 10000 6.69 170 06:46 21.01.2021
3496 Clouds 11 1017 82 10000 5.66 170 05:19 21.01.2021
3497 Clear 11 1018 82 10000 4.63 180 02:24 21.01.2021
3498 Clouds 11 1019 82 10000 5.14 180 00:44 21.01.2021
3499 Clouds 11 1020 82 10000 5.66 180 23:52 20.01.2021
3500 Clouds 11 1020 87 10000 5.14 170 23:31 20.01.2021
3501 Clouds 11 1020 87 10000 6.17 170 22:57 20.01.2021
3502 Clouds 11 1020 87 10000 6.17 170 22:36 20.01.2021
3503 Clouds 11 1020 87 10000 5.66 170 21:56 20.01.2021
3504 Clouds 11 1020 82 10000 6.17 160 21:24 20.01.2021
3505 Clouds 10 1020 76 10000 4.12 170 20:55 20.01.2021
3506 Clouds 11 1020 76 10000 4.12 170 20:36 20.01.2021
3507 Clouds 11 1020 76 10000 4.12 170 20:36 20.01.2021
3508 Clouds 11 1020 76 10000 6.17 160 20:18 20.01.2021
3509 Clouds 11 1020 76 10000 5.66 160 19:40 20.01.2021
3510 Rain 11 1021 71 10000 5.66 150 19:21 20.01.2021
3511 Rain 11 1021 66 10000 5.66 150 18:41 20.01.2021
3512 Clouds 11 1022 66 10000 5.14 120 17:57 20.01.2021
3513 Clouds 11 1022 66 10000 5.14 120 17:37 20.01.2021
3514 Clear 12 1022 66 10000 3.6 120 16:53 20.01.2021
3515 Clear 12 1022 66 10000 3.6 120 16:33 20.01.2021
3516 Clear 12 1022 67 10000 4.12 110 15:51 20.01.2021
3517 Clear 12 1022 67 10000 4.12 110 15:33 20.01.2021
3518 Rain 12 1023 71 10000 4.12 150 14:48 20.01.2021
3519 Rain 12 1024 58 10000 3.09 150 14:22 20.01.2021
3520 Rain 11 1023 71 10000 5.14 160 13:42 20.01.2021
3521 Clouds 12 1024 58 10000 3.09 150 13:21 20.01.2021
3522 Clouds 12 1025 62 10000 3.09 130 12:39 20.01.2021
3523 Clouds 12 1025 62 10000 2.57 100 11:57 20.01.2021
3524 Clouds 12 1025 62 10000 2.57 100 11:37 20.01.2021
3525 Clouds 10 1025 76 10000 3.19 135 10:56 20.01.2021
3526 Clouds 10 1025 76 10000 3.21 135 10:32 20.01.2021
3527 Clouds 8 1024 76 10000 2.57 140 09:54 20.01.2021
3528 Clouds 7 1025 93 10000 3.11 104 09:26 20.01.2021
3529 Clouds 7 1024 81 10000 3.6 150 08:55 20.01.2021
3530 Clouds 7 1024 70 10000 3.6 130 08:30 20.01.2021
3531 Clouds 7 1024 76 10000 4.12 140 07:57 20.01.2021
3532 Clouds 7 1024 71 10000 4.63 140 07:35 20.01.2021
3533 Clear 7 1024 76 10000 3.09 160 05:51 20.01.2021
3534 Clear 7 1025 81 10000 2.57 150 03:28 20.01.2021
3535 Clouds 8 1025 81 10000 2.57 170 01:19 20.01.2021
3536 Clouds 8 1025 81 10000 2.06 170 00:46 20.01.2021
3537 Clouds 8 1026 81 10000 1.54 180 23:49 19.01.2021
3538 Clouds 8 1025 76 10000 2.57 170 23:26 19.01.2021
3539 Clouds 8 1025 76 10000 2.57 170 23:26 19.01.2021
3540 Clouds 8 1025 81 10000 2.57 160 22:57 19.01.2021
3541 Clouds 8 1025 76 10000 3.09 170 22:36 19.01.2021
3542 Clouds 8 1025 76 10000 3.09 170 22:18 19.01.2021
3543 Clouds 9 1025 76 10000 3.6 160 21:42 19.01.2021
3544 Clouds 9 1025 76 10000 2.57 180 21:23 19.01.2021
3545 Clouds 9 1025 71 10000 3.09 180 20:43 19.01.2021
3546 Clouds 9 1025 71 10000 2.06 180 20:23 19.01.2021
3547 Clouds 9 1025 62 10000 3.09 170 19:53 19.01.2021
3548 Clouds 10 1025 62 10000 3.6 170 19:28 19.01.2021
3549 Clouds 10 1025 62 10000 3.6 170 18:47 19.01.2021
3550 Clouds 10 1025 62 10000 2.06 180 18:26 19.01.2021
3551 Clouds 11 1025 62 10000 2.06 180 17:46 19.01.2021
3552 Clouds 11 1025 62 10000 2.06 180 17:27 19.01.2021
3553 Clouds 11 1025 58 10000 3.09 190 16:50 19.01.2021
3554 Clouds 12 1025 58 10000 3.09 190 16:29 19.01.2021
3555 Clouds 12 1025 54 10000 2.06 170 15:59 19.01.2021
3556 Clouds 12 1025 54 10000 2.06 170 15:40 19.01.2021
3557 Clear 12 1026 58 10000 2.83 163 14:57 19.01.2021
3558 Clear 13 1026 58 10000 2.84 163 14:39 19.01.2021
3559 Clouds 13 1025 50 10000 4.12 200 14:20 19.01.2021
3560 Clear 12 1026 66 10000 1.54 0 13:40 19.01.2021
3561 Clear 12 1026 66 10000 1.54 0 13:21 19.01.2021
3562 Clear 11 1027 76 10000 2.57 360 12:47 19.01.2021
3563 Clear 10 1027 76 10000 2.57 360 12:28 19.01.2021
3564 Clear 9 1027 61 10000 1.03 0 11:43 19.01.2021
3565 Clouds 8 1028 81 10000 2.57 350 11:23 19.01.2021
3566 Clouds 6 1028 86 10000 1.54 0 10:50 19.01.2021
3567 Clouds 5 1028 86 10000 1.54 0 10:31 19.01.2021
3568 Clouds 4 1028 93 10000 2.06 360 09:52 19.01.2021
3569 Clouds 4 1028 93 10000 2.06 360 09:26 19.01.2021
3570 Clouds 3 1027 93 10000 2.57 10 08:52 19.01.2021
3571 Clouds 2 1027 93 10000 2.57 10 08:19 19.01.2021
3572 Clear 2 1023 66 10000 0.45 336 07:36 19.01.2021
3573 Clear 2 1025 86 10000 1.54 50 05:59 19.01.2021
3574 Clear 3 1025 70 10000 1.03 0 02:29 19.01.2021
3575 Clear 3 1025 80 10000 2.06 40 00:48 19.01.2021
3576 Clear 4 1025 70 10000 0.51 0 23:58 18.01.2021
3577 Clear 3 1025 70 10000 1.54 120 23:31 18.01.2021
3578 Clear 4 1025 65 10000 1.54 150 22:51 18.01.2021
3579 Clear 4 1025 65 10000 1.54 150 22:24 18.01.2021
3580 Clear 5 1025 65 10000 2.06 140 21:49 18.01.2021
3581 Clear 5 1025 65 10000 1.54 160 21:24 18.01.2021
3582 Clear 5 1024 70 10000 2.06 140 20:59 18.01.2021
3583 Clear 5 1024 70 10000 2.06 140 20:38 18.01.2021
3584 Clear 6 1024 65 10000 1.54 150 20:20 18.01.2021
3585 Clear 6 1024 65 10000 2.57 150 19:48 18.01.2021
3586 Clear 6 1024 61 10000 2.06 160 19:27 18.01.2021
3587 Clear 7 1024 61 10000 1.03 190 18:44 18.01.2021
3588 Clear 8 1023 53 10000 2.06 260 18:21 18.01.2021
3589 Clear 9 1023 46 10000 1.03 0 17:40 18.01.2021
3590 Clear 10 1023 46 10000 1.03 0 17:18 18.01.2021
3591 Clear 11 1022 40 10000 2.06 350 16:41 18.01.2021
3592 Clear 11 1022 40 10000 2.06 350 16:19 18.01.2021
3593 Clear 12 1022 37 10000 2.57 30 15:41 18.01.2021
3594 Clear 11 1022 37 10000 2.57 30 15:19 18.01.2021
3595 Clear 11 1023 40 10000 2.57 20 14:43 18.01.2021
3596 Clear 11 1023 40 10000 2.57 20 14:25 18.01.2021
3597 Clear 11 1023 40 10000 2.06 300 13:45 18.01.2021
3598 Clear 11 1023 40 10000 2.06 300 13:26 18.01.2021
3599 Clear 10 1023 57 10000 2.57 350 12:51 18.01.2021
3600 Clear 9 1023 57 10000 2.57 350 12:20 18.01.2021
3601 Clear 8 1023 76 10000 1.03 0 11:53 18.01.2021
3602 Clear 7 1023 76 10000 1.03 0 11:30 18.01.2021
3603 Clear 6 1023 93 10000 1.54 0 10:57 18.01.2021
3604 Clear 6 1023 93 10000 1.54 0 10:39 18.01.2021
3605 Clear 4 1022 100 10000 1.03 0 09:43 18.01.2021
3606 Clear 4 1022 100 10000 1.03 0 09:43 18.01.2021
3607 Clear 3 1022 100 10000 1.03 0 09:24 18.01.2021
3608 Clear 2 1022 100 10000 2.06 220 08:50 18.01.2021
3609 Clear 2 1020 86 10000 3.09 60 07:56 18.01.2021
3610 Clear 2 1020 86 10000 3.09 60 07:27 18.01.2021
3611 Clouds 2 1018 86 10000 4.12 60 04:59 18.01.2021
3612 Clouds 2 1018 86 10000 4.12 60 04:33 18.01.2021
3613 Clouds 2 1017 86 10000 2.06 70 03:59 18.01.2021
3614 Clouds 2 1017 86 10000 2.06 70 03:39 18.01.2021
3615 Clouds 2 1017 86 10000 3.6 50 03:19 18.01.2021
3616 Clouds 2 1016 93 10000 2.57 70 02:37 18.01.2021
3617 Clouds 2 1015 93 10000 3.6 60 00:43 18.01.2021
3618 Clouds 2 1014 86 10000 4.12 40 00:23 18.01.2021
3619 Clouds 2 1014 86 10000 2.57 40 23:44 17.01.2021
3620 Clear 2 1014 86 10000 3.09 60 23:20 17.01.2021
3621 Clear 3 1013 80 10000 2.06 40 22:28 17.01.2021
3622 Clear 3 1013 80 10000 2.57 40 21:59 17.01.2021
3623 Clear 3 1013 80 10000 2.57 40 21:39 17.01.2021
3624 Clear 3 1013 81 10000 3.09 50 21:21 17.01.2021
3625 Clear 3 1013 81 10000 3.09 60 20:47 17.01.2021
3626 Clear 3 1013 81 10000 3.09 60 20:47 17.01.2021
3627 Clear 3 1013 81 10000 2.57 80 20:25 17.01.2021
3628 Clear 4 1013 81 10000 2.57 60 19:42 17.01.2021
3629 Clear 4 1013 81 10000 2.06 50 19:21 17.01.2021
3630 Clear 4 1012 75 10000 2.57 80 18:38 17.01.2021
3631 Clear 4 1013 87 10000 2.06 140 18:19 17.01.2021
3632 Clear 5 1013 87 10000 2.06 140 17:45 17.01.2021
3633 Clear 5 1013 87 10000 2.06 140 17:24 17.01.2021
3634 Clear 6 1013 81 10000 3.09 130 16:43 17.01.2021
3635 Clear 6 1013 81 10000 3.09 130 16:20 17.01.2021
3636 Clouds 5 1013 87 10000 2.57 90 15:42 17.01.2021
3637 Clouds 5 1013 87 10000 2.57 90 15:21 17.01.2021
3638 Clouds 5 1013 81 10000 3.09 110 14:48 17.01.2021
3639 Clouds 5 1013 81 10000 3.09 110 14:26 17.01.2021
3640 Rain 5 1014 65 10000 2.06 100 13:45 17.01.2021
3641 Rain 5 1014 65 10000 2.06 100 13:27 17.01.2021
3642 Rain 6 1013 75 10000 3.09 90 12:52 17.01.2021
3643 Rain 5 1014 75 10000 4.12 80 12:31 17.01.2021
3644 Clouds 5 1016 75 10000 1.54 0 11:54 17.01.2021
3645 Rain 4 1016 75 10000 1.54 0 11:22 17.01.2021
3646 Rain 4 1015 60 10000 3.6 120 10:46 17.01.2021
3647 Rain 3 1016 86 10000 1.54 0 10:21 17.01.2021
3648 Clouds 2 1016 86 10000 2.06 350 09:21 17.01.2021
3649 Clear 1 1017 93 10000 2.06 350 08:43 17.01.2021
3650 Clear 1 1017 74 10000 1.54 130 06:52 17.01.2021
3651 Clear 1 1018 74 10000 1.03 0 04:28 17.01.2021
3652 Clear 2 1019 74 10000 1.54 30 02:42 17.01.2021
3653 Clear 1 1019 64 10000 1.54 40 00:47 17.01.2021
3654 Clear 2 1020 64 10000 3.6 60 00:18 17.01.2021
3655 Clear 2 1020 64 10000 3.6 80 23:48 16.01.2021
3656 Clear 2 1020 64 10000 3.09 50 23:19 16.01.2021
3657 Clear 3 1020 60 10000 2.57 40 22:36 16.01.2021
3658 Clear 3 1019 55 10000 2.06 350 21:58 16.01.2021
3659 Clear 4 1019 64 10000 2.57 360 21:24 16.01.2021
3660 Clear 4 1019 56 10000 2.06 60 20:59 16.01.2021
3661 Clear 5 1019 56 10000 2.06 60 20:40 16.01.2021
3662 Clear 4 1019 56 10000 2.57 40 20:18 16.01.2021
3663 Clear 5 1019 52 10000 3.09 50 19:41 16.01.2021
3664 Clear 6 1018 45 10000 2.06 30 19:23 16.01.2021
3665 Clear 7 1018 48 10000 1.54 10 18:42 16.01.2021
3666 Clear 7 1018 42 10000 3.09 360 18:21 16.01.2021
3667 Clear 8 1018 42 10000 3.09 360 17:41 16.01.2021
3668 Clear 8 1018 42 10000 3.09 360 17:23 16.01.2021
3669 Clear 10 1017 32 10000 4.63 10 16:45 16.01.2021
3670 Clear 10 1017 32 10000 4.63 10 16:25 16.01.2021
3671 Clear 10 1017 32 10000 6.17 20 15:48 16.01.2021
3672 Clear 10 1017 34 10000 5.66 360 14:59 16.01.2021
3673 Clear 10 1017 34 10000 5.66 360 14:18 16.01.2021
3674 Clear 9 1017 34 10000 6.69 30 13:47 16.01.2021
3675 Clear 9 1017 34 10000 6.69 30 13:19 16.01.2021
3676 Clear 9 1017 46 10000 5.66 40 12:39 16.01.2021
3677 Clear 9 1017 46 10000 5.66 40 12:20 16.01.2021
3678 Clear 9 1017 46 10000 5.66 40 12:20 16.01.2021
3679 Clear 8 1017 49 10000 6.69 10 11:46 16.01.2021
3680 Clear 8 1017 49 10000 6.69 10 11:24 16.01.2021
3681 Clear 7 1017 52 10000 5.66 10 10:43 16.01.2021
3682 Clear 6 1017 52 10000 5.66 10 10:19 16.01.2021
3683 Clear 5 1017 70 10000 0.51 0 09:32 16.01.2021
3684 Clear 4 1016 65 10000 2.57 350 08:35 16.01.2021
3685 Clouds 4 1015 69 10000 4.12 40 07:31 16.01.2021
3686 Clouds 3 1014 69 10000 4.12 30 06:43 16.01.2021
3687 Clear 4 1013 69 10000 3.6 50 04:39 16.01.2021
3688 Clear 4 1013 75 10000 2.57 50 02:55 16.01.2021
3689 Clear 5 1013 70 10000 3.6 30 00:49 16.01.2021
3690 Clear 5 1013 70 10000 3.09 30 00:26 16.01.2021
3691 Clear 6 1013 75 10000 4.12 30 23:49 15.01.2021
3692 Clear 6 1012 70 10000 3.6 20 22:51 15.01.2021
3693 Clear 6 1012 65 10000 3.6 40 22:23 15.01.2021
3694 Clear 6 1012 65 10000 2.57 40 21:46 15.01.2021
3695 Clear 7 1011 61 10000 2.06 50 20:58 15.01.2021
3696 Clear 7 1011 61 10000 2.06 50 20:40 15.01.2021
3697 Clear 7 1011 65 10000 2.57 40 20:19 15.01.2021
3698 Clear 8 1011 57 10000 2.06 20 19:40 15.01.2021
3699 Clear 8 1010 61 10000 1.03 0 19:22 15.01.2021
3700 Clear 8 1010 61 10000 3.09 10 18:43 15.01.2021
3701 Clear 9 1010 57 10000 4.12 350 18:19 15.01.2021
3702 Clear 9 1010 57 10000 4.12 350 17:51 15.01.2021
3703 Clear 10 1010 57 10000 4.12 350 17:25 15.01.2021
3704 Clear 11 1009 54 10000 4.63 330 16:52 15.01.2021
3705 Clear 12 1009 54 10000 4.63 330 16:25 15.01.2021
3706 Clear 12 1009 50 10000 5.14 10 15:42 15.01.2021
3707 Clear 12 1009 50 10000 5.14 10 15:22 15.01.2021
3708 Clear 11 1009 62 10000 3.6 10 14:50 15.01.2021
3709 Clear 11 1009 62 10000 3.6 10 14:27 15.01.2021
3710 Clear 11 1009 62 10000 3.6 10 14:27 15.01.2021
3711 Clouds 10 1009 71 10000 2.57 340 13:44 15.01.2021
3712 Clouds 10 1009 71 10000 2.57 340 13:23 15.01.2021
3713 Clear 10 1010 76 10000 4.11 16 12:59 15.01.2021
3714 Clear 10 1010 76 10000 4.11 16 12:36 15.01.2021
3715 Clear 10 1010 76 10000 4.4 21 12:18 15.01.2021
3716 Clear 9 1010 81 10000 0.51 0 11:41 15.01.2021
3717 Rain 9 1009 66 10000 2.06 70 10:58 15.01.2021
3718 Clouds 9 1010 93 10000 1.54 0 10:39 15.01.2021
3719 Clouds 9 1010 93 10000 1.54 0 10:19 15.01.2021
3720 Clouds 9 1009 57 10000 3.6 120 09:46 15.01.2021
3721 Clouds 9 1009 61 10000 4.12 110 09:27 15.01.2021
3722 Rain 9 1009 61 10000 4.12 100 08:27 15.01.2021
3723 Clouds 9 1009 61 10000 3.09 100 07:41 15.01.2021
3724 Clouds 9 1009 61 10000 3.6 120 07:21 15.01.2021
3725 Clouds 9 1009 71 10000 3.6 90 05:36 15.01.2021
3726 Clear 7 1010 93 10000 1.03 0 02:19 15.01.2021
3727 Clear 7 1010 93 10000 1.03 0 00:20 15.01.2021
3728 Clear 8 1010 93 10000 1.03 0 23:29 14.01.2021
3729 Clear 8 1010 93 10000 2.57 90 22:50 14.01.2021
3730 Clear 9 1010 93 10000 1.03 0 22:27 14.01.2021
3731 Clear 9 1010 93 10000 1.03 0 21:56 14.01.2021
3732 Clear 9 1010 93 10000 1.03 0 21:37 14.01.2021
3733 Clear 9 1010 87 10000 1.03 190 21:19 14.01.2021
3734 Clouds 10 1009 81 10000 2.06 180 20:42 14.01.2021
3735 Clouds 11 1009 81 10000 1.03 0 19:54 14.01.2021
3736 Clouds 11 1009 81 10000 1.03 0 19:35 14.01.2021
3737 Clouds 11 1009 82 10000 1.03 210 18:56 14.01.2021
3738 Clouds 11 1009 82 10000 1.03 210 18:34 14.01.2021
3739 Clouds 12 1009 76 10000 1.03 0 17:54 14.01.2021
3740 Clouds 13 1009 76 10000 1.03 0 17:28 14.01.2021
3741 Clouds 14 1009 72 10000 1.54 70 16:54 14.01.2021
3742 Clouds 14 1009 72 10000 1.54 70 16:27 14.01.2021
3743 Clouds 14 1009 63 10000 1.54 0 15:54 14.01.2021
3744 Clouds 14 1009 63 10000 1.54 0 15:28 14.01.2021
3745 Clouds 14 1009 67 10000 1.54 0 14:44 14.01.2021
3746 Clouds 14 1009 67 10000 1.54 0 14:22 14.01.2021
3747 Clouds 14 1010 67 10000 2.57 110 13:55 14.01.2021
3748 Clouds 14 1010 67 10000 2.57 110 13:24 14.01.2021
3749 Clouds 13 1010 71 10000 3.6 110 12:56 14.01.2021
3750 Clouds 13 1010 71 10000 3.6 110 12:21 14.01.2021
3751 Clouds 13 1010 76 10000 4.63 170 11:55 14.01.2021
3752 Clouds 12 1010 71 10000 4.12 190 11:28 14.01.2021
3753 Clouds 12 1011 76 10000 4.12 180 10:58 14.01.2021
3754 Clouds 11 1011 76 10000 4.12 180 10:40 14.01.2021
3755 Clouds 11 1010 82 10000 3.6 180 10:18 14.01.2021
3756 Clouds 10 1011 82 10000 4.12 170 09:42 14.01.2021
3757 Clouds 9 1011 82 10000 3.6 180 09:20 14.01.2021
3758 Clouds 8 1011 76 10000 4.63 170 08:33 14.01.2021
3759 Clouds 8 1011 87 10000 3.6 180 07:57 14.01.2021
3760 Drizzle 6 1012 87 10000 1.54 0 07:31 14.01.2021
3761 Clouds 5 1012 93 10000 1.54 10 06:34 14.01.2021
3762 Clouds 4 1013 87 10000 1.54 190 04:57 14.01.2021
3763 Clear 5 1015 87 10000 1.54 150 00:27 14.01.2021
3764 Clear 6 1016 87 10000 2.06 120 23:31 13.01.2021
3765 Clear 6 1016 93 10000 1.54 110 22:49 13.01.2021
3766 Clear 7 1016 87 10000 1.03 0 22:21 13.01.2021
3767 Clear 7 1016 87 10000 1.54 120 21:43 13.01.2021
3768 Clear 7 1016 87 10000 2.06 80 21:22 13.01.2021
3769 Clear 7 1015 87 10000 1.03 0 20:51 13.01.2021
3770 Clear 7 1016 81 10000 1.03 0 20:25 13.01.2021
3771 Clear 8 1015 76 10000 2.06 270 19:49 13.01.2021
3772 Clear 8 1014 76 10000 0.51 160 19:27 13.01.2021
3773 Clear 8 1014 71 10000 1.03 0 18:51 13.01.2021
3774 Clear 8 1014 71 10000 1.03 0 18:32 13.01.2021
3775 Clear 10 1014 66 10000 1.54 40 17:47 13.01.2021
3776 Clear 11 1014 58 10000 2.06 10 17:18 13.01.2021
3777 Clear 11 1014 58 10000 2.06 10 16:45 13.01.2021
3778 Clear 12 1014 58 10000 2.06 10 16:21 13.01.2021
3779 Clear 11 1014 62 10000 3.09 350 15:49 13.01.2021
3780 Clear 12 1014 62 10000 3.09 350 15:29 13.01.2021
3781 Clear 11 1014 62 10000 3.6 360 14:30 13.01.2021
3782 Clear 11 1015 62 10000 3.09 350 13:48 13.01.2021
3783 Clear 11 1015 62 10000 3.09 350 13:25 13.01.2021
3784 Clear 10 1016 71 10000 1.03 0 12:46 13.01.2021
3785 Clear 10 1016 71 10000 1.03 0 12:25 13.01.2021
3786 Clear 8 1016 81 10000 3.34 0 11:51 13.01.2021
3787 Clear 8 1016 81 10000 3.34 0 11:33 13.01.2021
3788 Clear 6 1015 75 10000 2.57 30 10:49 13.01.2021
3789 Clear 5 1015 75 10000 2.06 30 10:29 13.01.2021
3790 Clear 4 1014 81 10000 2.06 60 09:49 13.01.2021
3791 Clear 3 1015 100 10000 1.03 0 09:26 13.01.2021
3792 Clear 3 1014 93 10000 2.57 80 08:46 13.01.2021
3793 Mist 2 1014 100 5000 1.03 0 08:23 13.01.2021
3794 Clear 2 1013 93 10000 1.03 0 07:29 13.01.2021
3795 Clouds 3 1010 100 10000 0.89 285 06:21 13.01.2021
3796 Clear 3 1014 93 10000 2.06 30 04:19 13.01.2021
3797 Clear 3 1013 87 10000 1.54 40 03:44 13.01.2021
3798 Clear 3 1014 87 10000 1.54 40 03:22 13.01.2021
3799 Clear 4 1014 87 10000 2.06 100 00:51 13.01.2021
3800 Clear 4 1014 87 10000 0.51 0 23:44 12.01.2021
3801 Clear 5 1014 87 10000 0.51 0 22:59 12.01.2021
3802 Clear 5 1014 87 10000 0.51 0 22:39 12.01.2021
3803 Clear 5 1014 87 10000 2.06 160 22:19 12.01.2021
3804 Clear 5 1014 87 10000 0.51 0 21:44 12.01.2021
3805 Clear 5 1014 93 10000 1.03 170 21:25 12.01.2021
3806 Clear 6 1014 87 10000 1.03 0 20:47 12.01.2021
3807 Clear 6 1014 81 10000 1.03 170 20:27 12.01.2021
3808 Clear 6 1013 87 10000 1.03 0 19:44 12.01.2021
3809 Clear 7 1010 100 10000 1.34 298 18:59 12.01.2021
3810 Clear 8 1010 100 10000 1.34 289 18:41 12.01.2021
3811 Clear 8 1013 76 10000 1.03 330 18:21 12.01.2021
3812 Clear 8 1013 71 10000 2.06 310 17:34 12.01.2021
3813 Clear 10 1014 62 10000 3.09 290 16:56 12.01.2021
3814 Clear 10 1014 62 10000 3.09 290 16:38 12.01.2021
3815 Clear 10 1014 62 10000 3.09 290 16:18 12.01.2021
3816 Clear 10 1014 62 10000 3.09 290 16:18 12.01.2021
3817 Clear 11 1014 58 10000 1.54 0 15:29 12.01.2021
3818 Clear 11 1014 62 10000 2.57 300 14:58 12.01.2021
3819 Clear 10 1014 62 10000 2.57 300 14:40 12.01.2021
3820 Clear 11 1014 62 10000 2.57 300 14:19 12.01.2021
3821 Clear 10 1014 71 10000 1.54 0 13:47 12.01.2021
3822 Clear 9 1015 71 10000 1.54 0 12:40 12.01.2021
3823 Clear 8 1015 71 10000 1.54 0 12:21 12.01.2021
3824 Clear 7 1015 93 10000 2.25 357 11:40 12.01.2021
3825 Clouds 6 1015 81 10000 3.09 60 10:50 12.01.2021
3826 Clear 4 1015 100 10000 1.03 0 10:20 12.01.2021
3827 Clouds 4 1014 87 10000 3.09 40 09:55 12.01.2021
3828 Clouds 4 1015 93 10000 1.03 0 09:26 12.01.2021
3829 Fog 3 1015 100 2000 1.03 0 08:42 12.01.2021
3830 Fog 3 1015 100 2000 1.03 0 08:23 12.01.2021
3831 Clouds 3 1013 93 7000 1.03 0 07:35 12.01.2021
3832 Clear 3 1013 93 10000 2.57 80 06:22 12.01.2021
3833 Clear 3 1013 93 10000 1.54 50 05:30 12.01.2021
3834 Clear 4 1014 93 10000 1.03 0 03:26 12.01.2021
3835 Clouds 4 1014 87 10000 1.54 360 02:18 12.01.2021
3836 Clouds 4 1014 87 10000 2.57 60 01:27 12.01.2021
3837 Clouds 5 1014 87 10000 1.03 0 23:51 11.01.2021
3838 Clouds 5 1014 87 10000 1.54 350 23:23 11.01.2021
3839 Clouds 5 1014 81 10000 2.57 20 22:57 11.01.2021
3840 Clouds 5 1014 81 10000 2.57 20 22:39 11.01.2021
3841 Clouds 5 1014 81 10000 2.06 40 22:18 11.01.2021
3842 Clouds 6 1014 81 10000 2.57 30 21:37 11.01.2021
3843 Clouds 6 1014 75 10000 2.06 50 21:18 11.01.2021
3844 Clouds 6 1014 75 10000 3.09 30 20:40 11.01.2021
3845 Clouds 6 1014 81 10000 2.57 20 20:22 11.01.2021
3846 Clouds 6 1013 81 10000 2.57 360 19:53 11.01.2021
3847 Clouds 6 1013 81 10000 2.06 360 19:24 11.01.2021
3848 Clouds 6 1013 81 10000 2.06 360 19:24 11.01.2021
3849 Clouds 6 1013 81 10000 2.57 40 18:45 11.01.2021
3850 Clouds 7 1013 70 10000 3.6 10 18:25 11.01.2021
3851 Rain 7 1013 70 10000 3.6 10 17:44 11.01.2021
3852 Clouds 7 1013 70 10000 3.6 10 17:25 11.01.2021
3853 Clouds 8 1013 71 10000 2.57 360 16:55 11.01.2021
3854 Clouds 8 1013 71 10000 2.57 360 16:35 11.01.2021
3855 Clouds 8 1013 71 10000 2.57 350 15:59 11.01.2021
3856 Clouds 8 1013 71 10000 2.57 350 15:39 11.01.2021
3857 Clouds 8 1013 71 10000 2.57 350 15:19 11.01.2021
3858 Clouds 8 1013 71 10000 3.6 30 14:39 11.01.2021
3859 Clouds 8 1013 71 10000 4.12 10 13:49 11.01.2021
3860 Clouds 8 1013 71 10000 4.12 10 13:25 11.01.2021
3861 Clouds 7 1014 70 10000 3.09 10 12:49 11.01.2021
3862 Clouds 7 1014 70 10000 3.09 10 12:30 11.01.2021
3863 Clouds 7 1014 75 10000 2.57 40 11:56 11.01.2021
3864 Clouds 7 1014 75 10000 2.57 40 11:26 11.01.2021
3865 Clouds 6 1013 75 10000 2.57 20 10:47 11.01.2021
3866 Clouds 6 1013 75 10000 2.57 20 10:24 11.01.2021
3867 Clouds 5 1013 81 10000 1.03 0 09:39 11.01.2021
3868 Clouds 5 1013 81 10000 1.03 0 09:20 11.01.2021
3869 Clouds 4 1012 87 10000 1.03 0 08:44 11.01.2021
3870 Clouds 4 1012 87 10000 1.03 0 08:18 11.01.2021
3871 Clear 4 1011 87 10000 2.06 30 07:26 11.01.2021
3872 Clouds 4 1010 93 10000 2.57 40 06:58 11.01.2021
3873 Clouds 4 1010 87 10000 3.09 60 03:51 11.01.2021
3874 Clear 4 1010 93 10000 2.57 60 01:30 11.01.2021
3875 Clear 4 1009 87 10000 2.57 70 23:59 10.01.2021
3876 Clear 5 1009 93 10000 3.09 60 23:30 10.01.2021
3877 Clear 5 1009 93 10000 2.57 50 22:48 10.01.2021
3878 Clouds 5 1009 87 10000 3.09 40 22:24 10.01.2021
3879 Clouds 5 1008 93 10000 3.09 50 21:45 10.01.2021
3880 Clouds 6 1008 87 10000 3.6 60 21:21 10.01.2021
3881 Clouds 6 1008 87 10000 3.6 60 21:21 10.01.2021
3882 Clouds 6 1008 87 10000 4.12 40 20:56 10.01.2021
3883 Clouds 6 1008 87 10000 4.12 40 20:33 10.01.2021
3884 Clouds 6 1008 87 10000 4.12 40 20:33 10.01.2021
3885 Clouds 6 1008 93 10000 4.12 30 19:44 10.01.2021
3886 Clouds 6 1007 93 10000 5.14 30 19:26 10.01.2021
3887 Clouds 6 1007 93 10000 5.14 20 18:56 10.01.2021
3888 Clouds 6 1007 93 10000 5.14 20 18:36 10.01.2021
3889 Clouds 6 1008 93 5000 3.6 350 18:18 10.01.2021
3890 Clouds 7 1008 93 5000 3.6 350 17:21 10.01.2021
3891 Clouds 7 1007 93 2000 3.6 10 16:33 10.01.2021
3892 Clouds 7 1007 93 2000 3.6 10 16:33 10.01.2021
3893 Rain 7 1007 93 2500 4.63 10 15:57 10.01.2021
3894 Rain 7 1007 93 2500 4.63 10 15:25 10.01.2021
3895 Clouds 8 1007 93 7000 5.14 20 14:50 10.01.2021
3896 Clouds 8 1007 93 7000 5.14 20 14:32 10.01.2021
3897 Clouds 8 1007 93 8000 3.6 10 13:55 10.01.2021
3898 Clouds 8 1007 93 8000 3.6 10 13:37 10.01.2021
3899 Clouds 8 1007 93 8000 3.6 10 13:18 10.01.2021
3900 Clouds 8 1006 87 8000 3.09 10 12:47 10.01.2021
3901 Clouds 9 1006 87 8000 3.09 10 12:27 10.01.2021
3902 Clouds 8 1009 93 6000 2.57 20 11:39 10.01.2021
3903 Clouds 8 1009 93 6000 2.57 20 11:18 10.01.2021
3904 Clouds 8 1009 93 3000 2.57 20 10:36 10.01.2021
3905 Clouds 8 1009 93 3000 2.57 20 10:18 10.01.2021
3906 Clouds 8 1009 87 10000 2.57 20 09:27 10.01.2021
3907 Clouds 7 1009 87 10000 2.57 10 08:21 10.01.2021
3908 Clouds 7 1007 81 10000 4.63 30 07:29 10.01.2021
3909 Clouds 7 1008 87 10000 4.12 30 06:20 10.01.2021
3910 Clear 6 1008 87 10000 4.12 40 05:36 10.01.2021
3911 Clouds 6 1009 87 10000 5.66 50 03:26 10.01.2021
3912 Clouds 7 1009 81 10000 5.14 40 01:28 10.01.2021
3913 Clouds 8 1010 81 10000 4.12 30 23:51 09.01.2021
3914 Clouds 7 1010 81 10000 4.12 30 23:33 09.01.2021
3915 Clouds 7 1010 81 10000 4.63 30 22:48 09.01.2021
3916 Clouds 8 1009 87 10000 3.09 50 22:19 09.01.2021
3917 Clouds 8 1009 87 10000 4.12 50 21:57 09.01.2021
3918 Clouds 8 1009 87 10000 4.12 50 21:39 09.01.2021
3919 Clouds 8 1009 87 10000 3.09 10 21:19 09.01.2021
3920 Clouds 8 1009 81 10000 5.14 80 20:44 09.01.2021
3921 Clouds 7 1009 87 8000 5.14 60 19:45 09.01.2021
3922 Clouds 7 1009 87 7000 5.66 50 19:23 09.01.2021
3923 Clouds 7 1009 87 10000 5.66 50 18:56 09.01.2021
3924 Clouds 8 1009 87 10000 5.66 50 18:34 09.01.2021
3925 Clouds 8 1009 81 10000 3.09 10 17:50 09.01.2021
3926 Clouds 8 1009 81 10000 3.09 10 17:31 09.01.2021
3927 Clouds 8 1009 81 10000 3.6 30 16:36 09.01.2021
3928 Clouds 8 1009 81 10000 4.63 20 15:53 09.01.2021
3929 Clouds 7 1009 81 10000 4.63 20 15:33 09.01.2021
3930 Clouds 7 1009 93 10000 4.63 20 14:42 09.01.2021
3931 Clouds 7 1009 93 10000 4.63 20 14:21 09.01.2021
3932 Clouds 6 1011 87 7000 3.09 20 13:50 09.01.2021
3933 Clouds 6 1011 87 7000 3.09 20 13:31 09.01.2021
3934 Rain 6 1012 87 7000 2.06 30 12:59 09.01.2021
3935 Rain 6 1012 87 7000 2.06 30 12:27 09.01.2021
3936 Rain 6 1012 81 7000 1.03 0 11:56 09.01.2021
3937 Rain 6 1012 81 7000 1.03 0 11:35 09.01.2021
3938 Rain 7 1012 87 10000 2.06 360 10:56 09.01.2021
3939 Rain 7 1012 87 10000 2.06 360 10:37 09.01.2021
3940 Rain 6 1011 87 10000 2.89 38 09:59 09.01.2021
3941 Clouds 6 1011 87 10000 2.89 38 09:40 09.01.2021
3942 Clouds 6 1011 87 10000 3.55 37 09:18 09.01.2021
3943 Clear 5 1011 87 10000 3.6 50 07:43 09.01.2021
3944 Clear 5 1011 87 10000 3.6 40 06:41 09.01.2021
3945 Clear 5 1011 87 10000 3.09 40 06:22 09.01.2021
3946 Clear 4 1011 87 10000 4.12 50 03:47 09.01.2021
3947 Clouds 5 1011 87 9000 3.6 50 02:39 09.01.2021
3948 Clouds 5 1011 87 9000 3.09 40 02:19 09.01.2021
3949 Clouds 5 1011 93 7000 1.54 60 00:46 09.01.2021
3950 Clouds 4 1011 93 7000 2.06 60 00:22 09.01.2021
3951 Mist 5 1011 93 5000 1.54 20 23:30 08.01.2021
3952 Clouds 6 1011 87 7000 1.54 50 22:38 08.01.2021
3953 Clouds 5 1011 87 7000 2.06 30 21:46 08.01.2021
3954 Clear 5 1011 87 10000 1.03 70 20:57 08.01.2021
3955 Clear 6 1010 81 10000 2.06 50 20:27 08.01.2021
3956 Clear 6 1010 81 10000 2.57 40 19:57 08.01.2021
3957 Clear 7 1009 87 10000 2.57 60 19:23 08.01.2021
3958 Clear 7 1009 87 10000 2.06 50 18:48 08.01.2021
3959 Clear 8 1009 76 10000 3.09 360 18:20 08.01.2021
3960 Clear 8 1009 76 10000 3.09 360 17:48 08.01.2021
3961 Clear 9 1009 76 10000 3.09 360 17:22 08.01.2021
3962 Clear 9 1009 71 10000 2.57 10 16:35 08.01.2021
3963 Clear 9 1008 76 10000 3.6 40 15:44 08.01.2021
3964 Clear 9 1009 76 10000 2.57 30 15:18 08.01.2021
3965 Clear 9 1009 76 10000 2.57 30 14:35 08.01.2021
3966 Clear 8 1010 81 10000 3.09 20 13:47 08.01.2021
3967 Clear 8 1010 81 10000 3.09 20 13:18 08.01.2021
3968 Clear 8 1010 81 10000 1.03 0 12:49 08.01.2021
3969 Clear 7 1010 81 10000 1.03 0 12:20 08.01.2021
3970 Rain 7 1010 76 10000 2.06 40 11:45 08.01.2021
3971 Clear 7 1010 76 10000 2.06 40 11:27 08.01.2021
3972 Clear 7 1010 87 10000 2.06 20 10:52 08.01.2021
3973 Clear 7 1010 87 10000 2.06 20 10:32 08.01.2021
3974 Clear 6 1009 87 10000 1.54 0 09:45 08.01.2021
3975 Clear 6 1009 87 10000 1.54 0 09:27 08.01.2021
3976 Clear 5 1009 93 10000 0.51 0 08:33 08.01.2021
3977 Clouds 6 1008 87 10000 2.06 30 07:26 08.01.2021
3978 Clear 5 1008 81 10000 3.6 50 05:51 08.01.2021
3979 Clear 6 1009 87 10000 1.54 10 23:47 07.01.2021
3980 Clear 7 1009 87 10000 1.54 20 23:29 07.01.2021
3981 Clear 7 1009 87 10000 2.06 40 22:46 07.01.2021
3982 Clear 7 1009 81 10000 2.06 10 22:25 07.01.2021
3983 Clear 7 1009 76 10000 3.09 70 21:44 07.01.2021
3984 Clear 7 1010 81 10000 2.57 50 21:26 07.01.2021
3985 Clear 7 1010 81 10000 3.09 60 20:47 07.01.2021
3986 Clear 7 1010 81 10000 3.6 60 20:28 07.01.2021
3987 Clear 7 1010 70 10000 5.66 90 19:44 07.01.2021
3988 Clouds 7 1010 76 10000 3.09 110 19:21 07.01.2021
3989 Drizzle 7 1012 76 10000 1.03 0 18:30 07.01.2021
3990 Clear 7 1012 81 10000 1.54 0 18:30 07.01.2021
3991 Clear 7 1012 81 10000 1.54 0 17:47 07.01.2021
3992 Clear 7 1012 81 10000 1.54 0 17:27 07.01.2021
3993 Clear 7 1012 71 10000 2.57 140 16:53 07.01.2021
3994 Clear 7 1012 71 10000 2.57 140 16:27 07.01.2021
3995 Rain 7 1013 81 10000 1.43 57 15:41 07.01.2021
3996 Rain 8 1013 81 10000 3.09 40 14:57 07.01.2021
3997 Rain 8 1013 81 10000 3.09 40 14:27 07.01.2021
3998 Rain 8 1013 87 10000 2.57 10 13:45 07.01.2021
3999 Rain 8 1013 87 10000 2.57 10 13:18 07.01.2021
4000 Rain 8 1014 75 10000 1.5 40 12:42 07.01.2021
4001 Clear 8 1014 75 10000 1.5 40 11:55 07.01.2021
4002 Clear 7 1015 93 10000 2.1 360 11:36 07.01.2021
4003 Clear 5 1015 93 10000 2.1 0 10:50 07.01.2021
4004 Clear 5 1015 93 10000 2.1 0 10:27 07.01.2021
4005 Clouds 4 1015 93 10000 1.5 0 09:48 07.01.2021
4006 Clouds 4 1015 93 10000 1.5 0 09:19 07.01.2021
4007 Clouds 3 1015 100 8000 2.6 360 08:29 07.01.2021
4008 Clear 3 1014 86 10000 1 0 07:51 07.01.2021
4009 Clear 3 1014 93 10000 1.5 10 07:26 07.01.2021
4010 Clear 4 1014 80 10000 2.1 120 05:26 07.01.2021
4011 Clear 5 1014 75 10000 2.6 160 00:31 07.01.2021
4012 Clear 5 1014 86 10000 1.5 90 23:49 06.01.2021
4013 Clear 6 1014 80 10000 0.5 0 22:44 06.01.2021
4014 Clear 7 1013 65 10000 2.1 170 21:44 06.01.2021
4015 Clear 7 1013 65 10000 2.1 170 21:23 06.01.2021
4016 Clear 7 1013 75 10000 3.1 160 20:58 06.01.2021
4017 Clear 7 1013 75 10000 3.1 160 20:36 06.01.2021
4018 Clear 7 1013 70 10000 3.1 160 20:18 06.01.2021
4019 Clear 8 1013 70 10000 2.6 160 19:38 06.01.2021
4020 Clear 8 1013 70 10000 2.6 160 19:19 06.01.2021
4021 Clouds 8 1013 70 10000 2.1 170 18:41 06.01.2021
4022 Clouds 8 1013 70 10000 1 0 18:23 06.01.2021
4023 Clouds 9 1013 70 10000 1 0 17:42 06.01.2021
4024 Clouds 9 1013 70 10000 1 0 17:24 06.01.2021
4025 Clouds 10 1013 71 10000 2.6 180 16:42 06.01.2021
4026 Clouds 10 1013 71 10000 2.6 180 16:19 06.01.2021
4027 Clouds 10 1013 57 10000 3.1 170 15:52 06.01.2021
4028 Clouds 10 1012 61 10000 3.6 190 15:31 06.01.2021
4029 Clouds 11 1013 62 10000 3.1 220 14:48 06.01.2021
4030 Clouds 11 1013 62 10000 3.1 220 14:21 06.01.2021
4031 Clouds 11 1013 62 10000 4.6 210 13:45 06.01.2021
4032 Clouds 11 1013 62 10000 4.6 210 13:23 06.01.2021
4033 Clouds 11 1013 62 10000 4.1 190 12:48 06.01.2021
4034 Clouds 11 1014 76 10000 2.6 140 12:20 06.01.2021
4035 Clouds 10 1014 76 10000 2.6 140 11:36 06.01.2021
4036 Clouds 10 1013 66 10000 2.1 190 11:18 06.01.2021
4037 Clouds 8 1013 66 10000 3.1 190 10:20 06.01.2021
4038 Clouds 7 1013 100 10000 2.74 202 09:49 06.01.2021
4039 Clouds 7 1012 75 10000 3.1 170 08:57 06.01.2021
4040 Clouds 6 1012 75 10000 2.6 190 08:30 06.01.2021
4041 Clouds 6 1012 75 10000 2.6 190 07:54 06.01.2021
4042 Clouds 7 1011 70 10000 3.1 180 06:48 06.01.2021
4043 Clouds 7 1011 70 10000 3.1 180 05:33 06.01.2021
4044 Clouds 6 1011 70 10000 3.1 190 04:34 06.01.2021
4045 Clouds 6 1010 75 10000 2.6 180 02:47 06.01.2021
4046 Clouds 7 1010 75 10000 2.6 180 02:23 06.01.2021
4047 Clouds 6 1010 94 10000 2.68 150 00:34 06.01.2021
4048 Clouds 7 1009 81 10000 2.6 200 23:29 05.01.2021
4049 Clouds 6 1009 81 10000 2.6 170 22:43 05.01.2021
4050 Clouds 6 1009 81 10000 3.1 170 22:21 05.01.2021
4051 Rain 6 1009 81 10000 3.1 170 21:56 05.01.2021
4052 Clouds 6 1009 87 10000 3.1 170 20:56 05.01.2021
4053 Clouds 6 1008 87 10000 3.1 160 20:25 05.01.2021
4054 Clouds 6 1008 87 10000 2.6 230 19:44 05.01.2021
4055 Clouds 7 1008 87 10000 2.6 230 19:21 05.01.2021
4056 Clouds 6 1008 93 10000 3.6 120 18:44 05.01.2021
4057 Clouds 6 1008 93 8000 1.5 0 18:25 05.01.2021
4058 Clouds 7 1008 93 8000 1.5 0 17:50 05.01.2021
4059 Clouds 7 1008 93 8000 1.5 0 17:29 05.01.2021
4060 Clouds 7 1008 87 1000 1.5 0 16:53 05.01.2021
4061 Rain 8 1008 87 1000 1.5 0 16:22 05.01.2021
4062 Rain 8 1008 87 3000 2.1 240 15:50 05.01.2021
4063 Rain 9 1008 87 3000 2.1 240 15:25 05.01.2021
4064 Rain 9 1007 81 3000 3.6 220 14:41 05.01.2021
4065 Rain 10 1007 81 5000 4.1 180 13:51 05.01.2021
4066 Clouds 9 1007 93 8000 1 0 13:30 05.01.2021
4067 Clouds 9 1008 93 8000 1.5 0 12:50 05.01.2021
4068 Clouds 9 1008 93 8000 1.5 0 12:28 05.01.2021
4069 Rain 9 1009 100 3500 1 0 11:40 05.01.2021
4070 Thunderstorm 9 1008 87 2500 4.6 120 11:20 05.01.2021
4071 Rain 9 1008 87 2500 4.6 120 11:19 05.01.2021
4072 Rain 8 1008 87 2500 4.6 120 10:43 05.01.2021
4073 Rain 8 1008 87 6000 2.6 200 09:51 05.01.2021
4074 Rain 8 1008 93 6000 7.2 130 09:30 05.01.2021
4075 Rain 8 1008 87 7000 7.2 120 08:29 05.01.2021
4076 Rain 8 1008 87 7000 7.2 120 08:29 05.01.2021
4077 Rain 7 1008 81 10000 5.7 150 07:50 05.01.2021
4078 Clouds 7 1009 81 10000 5.7 160 04:59 05.01.2021
4079 Clouds 7 1009 75 4000 8.2 170 02:36 05.01.2021
4080 Clear 7 1010 75 10000 3.6 130 00:22 05.01.2021
4081 Rain 7 1010 87 8000 2.6 130 23:39 04.01.2021
4082 Rain 7 1011 93 7000 3.6 340 23:19 04.01.2021
4083 Clouds 7 1011 87 8000 1.5 110 22:42 04.01.2021
4084 Clouds 7 1011 87 5000 2.6 110 21:56 04.01.2021
4085 Rain 7 1010 87 10000 4.6 70 21:37 04.01.2021
4086 Rain 7 1010 87 10000 4.1 100 20:56 04.01.2021
4087 Rain 7 1011 81 10000 3.1 90 20:34 04.01.2021
4088 Clouds 7 1011 81 10000 3.6 60 19:55 04.01.2021
4089 Clouds 7 1011 87 8000 4.1 350 19:29 04.01.2021
4090 Clouds 8 1010 81 8000 3.6 100 18:58 04.01.2021
4091 Rain 8 1010 81 8000 3.6 100 18:31 04.01.2021
4092 Clouds 8 1011 87 10000 1 0 17:45 04.01.2021
4093 Clouds 8 1011 87 10000 1 0 17:27 04.01.2021
4094 Clouds 9 1011 93 10000 1 0 16:48 04.01.2021
4095 Clouds 9 1011 93 10000 1 0 16:28 04.01.2021
4096 Clouds 9 1011 93 6000 2.6 330 15:52 04.01.2021
4097 Clouds 10 1011 93 6000 2.6 330 15:34 04.01.2021
4098 Clouds 10 1010 66 10000 1.5 0 14:50 04.01.2021
4099 Clouds 11 1010 66 10000 1.5 0 13:53 04.01.2021
4100 Clouds 11 1010 66 10000 1.5 0 13:34 04.01.2021
4101 Clear 10 1011 71 10000 0.5 0 12:50 04.01.2021
4102 Clear 10 1011 71 10000 0.5 0 12:25 04.01.2021
4103 Clouds 9 1012 81 10000 1 0 11:31 04.01.2021
4104 Clouds 8 1012 87 10000 1 0 10:56 04.01.2021
4105 Rain 8 1012 87 10000 1 0 10:37 04.01.2021
4106 Clouds 7 1011 86 10000 1 0 10:18 04.01.2021
4107 Clouds 6 1011 86 10000 1 0 09:23 04.01.2021
4108 Clouds 5 1011 87 10000 5.1 120 08:50 04.01.2021
4109 Rain 5 1011 87 10000 5.1 120 08:21 04.01.2021
4110 Clouds 5 1010 86 10000 2.1 110 07:45 04.01.2021
4111 Rain 6 1010 87 9000 2.1 0 05:35 04.01.2021
4112 Clouds 6 1009 81 10000 1.5 90 04:44 04.01.2021
4113 Rain 6 1010 87 8000 2.1 140 01:26 04.01.2021
4114 Rain 5 1011 93 9000 3.1 80 23:51 03.01.2021
4115 Clouds 5 1011 93 5000 1.5 300 23:25 03.01.2021
4116 Rain 6 1010 87 10000 4.1 130 22:56 03.01.2021
4117 Rain 6 1010 81 10000 3.6 110 22:33 03.01.2021
4118 Clouds 6 1010 87 10000 2.6 70 21:57 03.01.2021
4119 Clouds 6 1011 93 6000 3.1 60 21:30 03.01.2021
4120 Rain 6 1011 93 5000 2.6 100 20:50 03.01.2021
4121 Rain 6 1011 93 5000 2.1 100 20:32 03.01.2021
4122 Rain 7 1010 87 5000 1 0 19:58 03.01.2021
4123 Rain 7 1010 87 5000 2.6 220 19:35 03.01.2021
4124 Rain 6 1010 93 5000 2.1 150 18:58 03.01.2021
4125 Rain 6 1010 93 6000 1 0 18:39 03.01.2021
4126 Rain 6 1010 93 6000 4.6 20 18:19 03.01.2021
4127 Rain 6 1010 93 6000 4.6 20 18:19 03.01.2021
4128 Rain 6 1010 93 6000 4.6 20 17:48 03.01.2021
4129 Rain 6 1010 93 4000 3.6 80 17:23 03.01.2021
4130 Clouds 6 1010 93 4000 3.6 80 16:43 03.01.2021
4131 Rain 6 1010 93 3500 4.1 120 16:20 03.01.2021
4132 Rain 6 1010 93 3500 4.1 120 15:46 03.01.2021
4133 Rain 6 1010 93 3500 4.1 120 15:27 03.01.2021
4134 Rain 6 1010 81 10000 5.7 110 14:55 03.01.2021
4135 Rain 7 1010 81 10000 5.7 110 14:29 03.01.2021
4136 Rain 6 1010 93 10000 5.7 90 13:41 03.01.2021
4137 Clouds 6 1010 93 10000 5.7 90 13:23 03.01.2021
4138 Rain 6 1011 87 4000 4.6 130 12:33 03.01.2021
4139 Rain 7 1011 81 10000 7.2 110 11:42 03.01.2021
4140 Rain 7 1011 81 10000 7.2 110 11:24 03.01.2021
4141 Clouds 8 1011 87 10000 5.1 110 10:36 03.01.2021
4142 Clouds 8 1011 87 10000 5.1 110 10:36 03.01.2021
4143 Clouds 8 1011 87 10000 4.6 140 10:18 03.01.2021
4144 Rain 7 1010 81 10000 7.2 120 09:40 03.01.2021
4145 Rain 7 1009 100 10000 5.7 110 09:21 03.01.2021
4146 Rain 7 1009 87 10000 4.1 110 07:38 03.01.2021
4147 Rain 7 1008 81 10000 2.1 150 05:58 03.01.2021
4148 Rain 8 1008 81 10000 2.1 200 02:27 03.01.2021
4149 Clouds 8 1008 81 10000 4.6 170 01:45 03.01.2021
4150 Clouds 8 1008 81 10000 5.1 180 00:18 03.01.2021
4151 Clouds 9 1008 76 10000 3.6 170 23:27 02.01.2021
4152 Clouds 9 1008 81 10000 2.1 180 22:52 02.01.2021
4153 Clouds 8 1008 81 10000 3.1 160 22:32 02.01.2021
4154 Clouds 8 1007 81 10000 4.1 170 21:50 02.01.2021
4155 Clouds 8 1007 81 10000 4.1 170 21:31 02.01.2021
4156 Clouds 9 1007 81 10000 3.6 170 20:50 02.01.2021
4157 Clouds 9 1007 87 9000 3.6 130 20:28 02.01.2021
4158 Rain 9 1007 93 10000 1 0 19:59 02.01.2021
4159 Clouds 9 1007 81 10000 2.1 140 19:20 02.01.2021
4160 Clouds 9 1007 87 9000 2.6 140 18:56 02.01.2021
4161 Clouds 9 1006 87 9000 4.6 170 18:38 02.01.2021
4162 Clouds 10 1006 81 10000 1.5 0 18:19 02.01.2021
4163 Clouds 10 1006 81 10000 1.5 0 17:38 02.01.2021
4164 Clouds 11 1005 76 7000 3.6 190 16:53 02.01.2021
4165 Clouds 11 1005 76 7000 3.6 190 16:23 02.01.2021
4166 Clouds 11 1004 87 7000 6.7 160 15:54 02.01.2021
4167 Clouds 11 1004 87 7000 6.7 160 15:31 02.01.2021
4168 Clouds 11 1004 76 3000 7.7 160 14:54 02.01.2021
4169 Clouds 11 1004 76 3000 7.7 160 14:34 02.01.2021
4170 Rain 11 1004 76 10000 5.1 180 13:44 02.01.2021
4171 Rain 12 1004 76 3000 5.1 180 12:59 02.01.2021
4172 Rain 12 1005 71 10000 2.6 170 12:41 02.01.2021
4173 Clouds 12 1005 81 4000 5.1 160 12:22 02.01.2021
4174 Clouds 11 1005 81 4000 5.1 160 11:42 02.01.2021
4175 Rain 11 1006 87 8000 3.1 150 11:20 02.01.2021
4176 Clouds 11 1006 87 8000 3.1 150 10:42 02.01.2021
4177 Clouds 11 1006 87 8000 3.1 150 10:23 02.01.2021
4178 Clouds 10 1005 93 8000 2.1 130 09:43 02.01.2021
4179 Clouds 10 1005 87 3500 2.6 170 09:21 02.01.2021
4180 Clouds 10 1005 87 3500 2.6 170 08:48 02.01.2021
4181 Clouds 10 1004 81 7000 7.2 170 08:19 02.01.2021
4182 Rain 10 1003 81 10000 8.7 160 07:25 02.01.2021
4183 Rain 10 1004 76 10000 7.7 170 06:58 02.01.2021
4184 Rain 9 1005 87 9000 8.7 150 06:18 02.01.2021
4185 Clouds 9 1006 81 7000 9.3 150 04:26 02.01.2021
4186 Rain 9 1008 87 10000 4.6 150 00:49 02.01.2021
4187 Rain 9 1009 87 10000 5.7 160 00:28 02.01.2021
4188 Rain 10 1009 81 10000 6.7 160 23:39 01.01.2021
4189 Clouds 9 1009 81 10000 6.7 160 23:19 01.01.2021
4190 Rain 9 1009 81 10000 6.2 150 22:46 01.01.2021
4191 Clouds 10 1009 81 10000 6.2 150 22:21 01.01.2021
4192 Clouds 10 1009 76 10000 8.2 160 21:43 01.01.2021
4193 Clouds 10 1009 76 10000 8.2 160 21:20 01.01.2021
4194 Clouds 10 1009 76 10000 5.1 160 20:50 01.01.2021
4195 Clouds 10 1009 76 10000 8.2 150 20:19 01.01.2021
4196 Clouds 9 1009 87 10000 7.2 160 19:42 01.01.2021
4197 Clouds 10 1009 87 10000 7.2 160 19:22 01.01.2021
4198 Rain 10 1009 76 10000 4.6 140 18:48 01.01.2021
4199 Clouds 9 1009 81 10000 7.7 130 18:29 01.01.2021
4200 Clouds 9 1009 81 10000 7.7 130 17:50 01.01.2021
4201 Clouds 9 1009 81 10000 7.7 130 17:24 01.01.2021
4202 Clouds 10 1009 76 10000 5.7 120 16:53 01.01.2021
4203 Clouds 11 1009 76 10000 5.7 120 16:29 01.01.2021
4204 Clouds 11 1009 76 10000 6.2 110 15:43 01.01.2021
4205 Clouds 11 1010 87 10000 5.7 120 14:51 01.01.2021
4206 Clouds 11 1010 87 10000 5.7 120 14:32 01.01.2021
4207 Clouds 9 1011 87 5000 4.6 140 13:42 01.01.2021
4208 Clouds 9 1011 87 5000 4.6 140 13:23 01.01.2021
4209 Rain 9 1011 87 10000 5.1 110 12:39 01.01.2021
4210 Clouds 9 1012 81 6000 6.2 130 12:18 01.01.2021
4211 Clouds 9 1012 81 6000 6.2 130 11:39 01.01.2021
4212 Rain 9 1012 75 8000 6.2 120 11:18 01.01.2021
4213 Rain 9 1012 75 8000 6.2 120 10:35 01.01.2021
4214 Rain 9 1012 75 10000 5.7 120 09:47 01.01.2021
4215 Clouds 8 1012 81 10000 5.7 110 09:20 01.01.2021
4216 Clouds 8 1012 81 10000 5.7 110 08:25 01.01.2021
4217 Clear 7 1012 70 10000 5.1 120 04:53 01.01.2021
4218 Clear 6 1012 81 10000 2.1 250 02:39 01.01.2021
4219 Clear 6 1012 81 10000 3.1 150 01:35 01.01.2021
4220 Clear 5 1013 86 10000 0.5 0 00:28 01.01.2021
4221 Clear 5 1013 75 10000 2.6 140 23:22 31.12.2020
4222 Clear 6 1013 75 10000 2.6 140 22:58 31.12.2020
4223 Clear 6 1013 81 10000 2.6 140 22:38 31.12.2020
4224 Clear 6 1013 81 10000 2.6 140 22:19 31.12.2020
4225 Clear 6 1013 86 10000 2.6 140 21:47 31.12.2020
4226 Clear 6 1013 86 10000 2.6 140 21:47 31.12.2020
4227 Clear 6 1013 86 10000 2.6 140 21:23 31.12.2020
4228 Clear 6 1012 81 10000 2.6 150 20:49 31.12.2020
4229 Clear 6 1013 81 10000 2.1 140 20:18 31.12.2020
4230 Clear 7 1012 81 10000 2.6 140 19:46 31.12.2020
4231 Clear 7 1012 81 10000 2.6 140 19:24 31.12.2020
4232 Clear 8 1012 81 10000 1.5 130 18:44 31.12.2020
4233 Clear 8 1012 87 10000 1 0 18:24 31.12.2020
4234 Clear 8 1012 87 10000 1 0 17:44 31.12.2020
4235 Clear 8 1012 87 10000 1 0 17:44 31.12.2020
4236 Clear 9 1012 87 10000 1 0 17:23 31.12.2020
4237 Clouds 10 1012 81 10000 1.5 0 16:43 31.12.2020
4238 Clear 10 1012 81 10000 2.1 20 16:22 31.12.2020
4239 Clear 10 1012 81 10000 2.1 20 15:46 31.12.2020
4240 Clear 11 1012 81 10000 2.1 20 15:22 31.12.2020
4241 Clear 11 1012 81 10000 2.1 20 15:22 31.12.2020
4242 Clear 10 1012 87 10000 1.5 0 14:56 31.12.2020
4243 Clear 10 1012 87 10000 1.5 0 14:38 31.12.2020
4244 Clear 10 1012 87 10000 1.5 0 14:20 31.12.2020
4245 Clear 10 1012 100 10000 2.1 350 13:39 31.12.2020
4246 Fog 9 1013 93 8000 2.1 360 13:20 31.12.2020
4247 Fog 9 1013 93 8000 2.1 360 12:53 31.12.2020
4248 Fog 9 1013 93 8000 2.1 360 12:35 31.12.2020
4249 Clouds 8 1013 93 10000 2.1 10 11:52 31.12.2020
4250 Clouds 8 1013 93 10000 2.1 10 11:32 31.12.2020
4251 Clear 7 1012 93 10000 2.1 30 10:49 31.12.2020
4252 Clear 7 1012 93 10000 2.1 30 10:29 31.12.2020
4253 Clear 6 1011 100 10000 2.1 350 09:57 31.12.2020
4254 Clear 6 1011 100 10000 2.1 350 09:35 31.12.2020
4255 Fog 5 1011 100 7000 1 0 08:51 31.12.2020
4256 Fog 5 1011 100 7000 1 0 08:32 31.12.2020
4257 Clear 5 1009 93 10000 1.5 30 07:59 31.12.2020
4258 Clear 5 1009 86 10000 2.1 90 07:32 31.12.2020
4259 Clear 6 1008 93 10000 1 0 05:56 31.12.2020
4260 Clear 6 1008 93 10000 1 0 05:28 31.12.2020
4261 Clouds 6 1007 93 10000 2.1 250 02:56 31.12.2020
4262 Rain 7 1006 81 10000 2.6 360 02:25 31.12.2020
4263 Rain 7 1007 91 10000 0.89 11 01:46 31.12.2020
4264 Clouds 7 1006 87 10000 3.1 170 01:27 31.12.2020
4265 Clouds 7 1006 87 10000 3.1 170 00:48 31.12.2020
4266 Clouds 8 1006 81 10000 2.6 180 23:52 30.12.2020
4267 Clouds 8 1006 81 8000 4.1 190 23:20 30.12.2020
4268 Clouds 8 1005 81 10000 3.1 170 22:49 30.12.2020
4269 Rain 8 1005 81 10000 3.1 170 22:30 30.12.2020
4270 Clouds 8 1005 87 10000 3.1 150 21:46 30.12.2020
4271 Clouds 8 1005 87 10000 3.1 150 21:24 30.12.2020
4272 Clouds 8 1005 81 10000 2.6 160 20:51 30.12.2020
4273 Clouds 8 1005 81 10000 2.1 180 20:22 30.12.2020
4274 Clouds 8 1005 87 10000 2.1 180 19:41 30.12.2020
4275 Clouds 9 1005 87 10000 2.1 180 19:23 30.12.2020
4276 Clouds 9 1005 81 10000 2.1 190 18:47 30.12.2020
4277 Clouds 10 1005 71 10000 3.6 260 18:29 30.12.2020
4278 Clouds 10 1005 71 10000 3.6 260 17:52 30.12.2020
4279 Clouds 10 1005 71 10000 3.6 260 17:33 30.12.2020
4280 Clouds 11 1005 81 10000 2.1 150 16:58 30.12.2020
4281 Clouds 11 1005 81 10000 2.1 150 16:33 30.12.2020
4282 Clouds 11 1005 76 10000 2.6 150 15:48 30.12.2020
4283 Clouds 12 1005 76 10000 2.6 150 15:25 30.12.2020
4284 Clouds 11 1005 81 10000 2.6 150 14:44 30.12.2020
4285 Clouds 11 1005 81 10000 2.6 150 14:24 30.12.2020
4286 Clouds 11 1005 76 8000 2.1 170 13:42 30.12.2020
4287 Rain 11 1005 76 10000 2.1 170 12:43 30.12.2020
4288 Clouds 11 1005 100 10000 3.47 213 12:21 30.12.2020
4289 Clouds 11 1005 100 10000 3.47 213 11:36 30.12.2020
4290 Clouds 11 1005 76 10000 3.1 170 11:18 30.12.2020
4291 Clouds 11 1004 81 10000 1.5 190 10:49 30.12.2020
4292 Clouds 10 1005 100 10000 2.57 161 10:27 30.12.2020
4293 Clouds 9 1004 81 10000 2.1 170 09:50 30.12.2020
4294 Clouds 8 1005 100 10000 2.15 138 09:29 30.12.2020
4295 Clouds 7 1004 100 8000 0.5 0 08:34 30.12.2020
4296 Clouds 8 1003 81 10000 4.1 160 07:30 30.12.2020
4297 Clouds 8 1003 81 10000 4.1 160 07:30 30.12.2020
4298 Clouds 8 1003 81 10000 1.5 180 06:52 30.12.2020
4299 Clouds 8 1003 87 10000 2.1 180 06:31 30.12.2020
4300 Clouds 9 1003 81 10000 2.6 180 05:44 30.12.2020
4301 Clouds 9 1003 81 10000 2.6 180 05:25 30.12.2020
4302 Clouds 9 1003 76 10000 3.6 180 03:28 30.12.2020
4303 Clouds 9 1003 76 10000 3.6 180 03:28 30.12.2020
4304 Clouds 9 1003 87 10000 2.6 190 02:42 30.12.2020
4305 Clouds 9 1003 81 9000 3.6 190 01:58 30.12.2020
4306 Clouds 9 1003 81 10000 3.1 180 01:33 30.12.2020
4307 Clouds 9 1003 81 10000 2.1 190 00:50 30.12.2020
4308 Clouds 9 1003 81 10000 2.1 190 00:30 30.12.2020
4309 Clouds 9 1003 87 10000 2.1 170 23:56 29.12.2020
4310 Clouds 9 1002 76 10000 3.1 170 23:37 29.12.2020
4311 Clouds 9 1002 81 10000 3.1 170 23:18 29.12.2020
4312 Clouds 9 1002 87 10000 3.1 150 22:40 29.12.2020
4313 Clouds 9 1002 87 10000 1.5 150 22:20 29.12.2020
4314 Clouds 9 1002 87 10000 3.6 150 21:46 29.12.2020
4315 Clouds 9 1003 93 10000 2.6 100 21:25 29.12.2020
4316 Clouds 9 1003 93 8000 1.5 80 20:46 29.12.2020
4317 Clouds 9 1003 93 8000 1.5 80 20:25 29.12.2020
4318 Clouds 9 1003 87 7000 1.5 310 20:25 29.12.2020
4319 Clouds 10 1002 81 8000 3.6 160 19:49 29.12.2020
4320 Rain 10 1002 81 8000 3.6 160 19:24 29.12.2020
4321 Rain 10 1002 81 8000 5.7 170 18:54 29.12.2020
4322 Rain 10 1002 76 8000 5.7 160 18:32 29.12.2020
4323 Rain 11 1002 81 7000 7.7 170 17:56 29.12.2020
4324 Rain 12 1002 62 10000 2.1 180 17:37 29.12.2020
4325 Clouds 13 1002 62 10000 4.6 200 17:18 29.12.2020
4326 Clouds 14 1002 62 10000 4.6 200 16:34 29.12.2020
4327 Clouds 14 1002 58 10000 5.1 210 15:53 29.12.2020
4328 Clouds 14 1002 58 10000 5.1 210 15:33 29.12.2020
4329 Clouds 14 1002 58 10000 6.2 220 14:55 29.12.2020
4330 Clouds 15 1002 58 10000 6.2 210 14:36 29.12.2020
4331 Clouds 15 1003 58 10000 6.2 200 14:18 29.12.2020
4332 Clouds 15 1003 58 10000 6.2 200 13:26 29.12.2020
4333 Clouds 14 1006 67 10000 3.1 190 12:59 29.12.2020
4334 Clouds 14 1006 67 10000 3.1 190 12:36 29.12.2020
4335 Clouds 14 1004 81 10000 2.6 130 12:18 29.12.2020
4336 Clouds 14 1004 81 10000 2.6 130 11:49 29.12.2020
4337 Clouds 14 1004 81 10000 2.6 130 11:27 29.12.2020
4338 Clouds 12 1003 76 10000 2.6 140 10:22 29.12.2020
4339 Clouds 11 1003 81 10000 3.1 130 09:41 29.12.2020
4340 Clouds 10 1003 81 7000 4.1 140 09:19 29.12.2020
4341 Clouds 10 1003 81 7000 4.1 140 09:19 29.12.2020
4342 Clouds 10 1003 81 7000 4.1 140 09:19 29.12.2020
4343 Clouds 10 1003 81 7000 4.1 140 08:49 29.12.2020
4344 Clouds 10 1003 71 10000 3.1 180 07:41 29.12.2020
4345 Clouds 10 1003 71 10000 3.1 180 07:20 29.12.2020
4346 Clouds 10 1002 71 10000 5.1 180 05:50 29.12.2020
4347 Clouds 10 1001 71 10000 2.6 220 02:33 29.12.2020
4348 Clouds 11 999 71 10000 4.1 230 00:43 29.12.2020
4349 Clouds 11 998 66 10000 4.6 240 23:39 28.12.2020
4350 Clouds 11 997 66 10000 5.1 260 22:56 28.12.2020
4351 Clouds 11 997 66 10000 5.1 260 22:20 28.12.2020
4352 Clouds 11 996 71 10000 4.6 240 21:41 28.12.2020
4353 Clouds 11 996 71 10000 4.6 240 21:20 28.12.2020
4354 Clouds 11 994 71 10000 6.2 260 20:40 28.12.2020
4355 Clouds 11 994 71 10000 6.2 260 20:21 28.12.2020
4356 Clouds 11 993 81 7000 4.6 230 19:42 28.12.2020
4357 Clouds 11 993 81 7000 4.6 230 19:22 28.12.2020
4358 Clouds 11 991 81 9000 5.7 230 18:49 28.12.2020
4359 Clouds 11 990 93 8000 3.6 190 18:28 28.12.2020
4360 Clouds 10 990 93 8000 3.6 190 17:42 28.12.2020
4361 Clouds 10 990 93 800 7.7 240 17:20 28.12.2020
4362 Clouds 11 990 93 800 7.7 240 16:34 28.12.2020
4363 Rain 12 989 71 4000 8.2 180 15:59 28.12.2020
4364 Rain 13 989 71 4000 8.2 180 15:41 28.12.2020
4365 Mist 13 990 67 5000 8.2 190 14:54 28.12.2020
4366 Clouds 13 992 67 6000 8.7 180 13:54 28.12.2020
4367 Clouds 13 992 67 6000 8.7 180 13:25 28.12.2020
4368 Clouds 13 992 67 6000 8.7 180 13:25 28.12.2020
4369 Clouds 13 994 71 6000 8.2 170 12:41 28.12.2020
4370 Clouds 13 994 71 6000 8.2 170 12:20 28.12.2020
4371 Clouds 13 996 71 6000 9.3 190 11:45 28.12.2020
4372 Clouds 13 996 71 6000 8.7 200 11:23 28.12.2020
4373 Clouds 13 996 71 6000 8.7 200 10:44 28.12.2020
4374 Clouds 12 996 71 6000 8.7 200 10:26 28.12.2020
4375 Clouds 12 996 87 6000 4.6 170 09:46 28.12.2020
4376 Clouds 11 997 87 4000 5.1 120 09:19 28.12.2020
4377 Clouds 10 998 71 10000 9.3 170 07:30 28.12.2020
4378 Clouds 10 998 71 10000 9.3 170 06:48 28.12.2020
4379 Clear 8 1001 66 10000 6.7 160 04:31 28.12.2020
4380 Clouds 7 1004 75 10000 4.6 160 02:22 28.12.2020
4381 Clouds 4 1005 75 10000 2.1 150 00:30 28.12.2020
4382 Clear 4 1002 82 10000 2.11 101 23:46 27.12.2020
4383 Clear 5 1002 81 10000 1.64 102 23:19 27.12.2020
4384 Clear 5 1002 82 10000 1.34 140 21:57 27.12.2020
4385 Clear 5 1002 82 10000 1.34 140 21:57 27.12.2020
4386 Clear 5 1003 82 10000 0.89 139 21:26 27.12.2020
4387 Clear 6 1003 80 10000 0.73 318 20:45 27.12.2020
4388 Clear 7 1002 74 10000 2.36 322 19:25 27.12.2020
4389 Clouds 7 1002 75 10000 0.45 335 18:57 27.12.2020
4390 Clouds 7 1002 74 10000 0.45 325 18:38 27.12.2020
4391 Clear 8 1005 66 10000 2.1 330 18:19 27.12.2020
4392 Clear 8 1005 66 10000 2.1 330 17:43 27.12.2020
4393 Clear 8 1005 66 10000 2.1 330 17:43 27.12.2020
4394 Clear 9 1005 66 10000 2.1 330 17:22 27.12.2020
4395 Clear 8 1005 100 10000 3.1 340 16:35 27.12.2020
4396 Clear 11 1005 62 10000 2.6 10 15:54 27.12.2020
4397 Clear 11 1005 62 10000 2.6 340 14:59 27.12.2020
4398 Clear 11 1005 62 10000 2.6 340 14:40 27.12.2020
4399 Clear 11 1006 61 10000 2.6 340 14:18 27.12.2020
4400 Clear 10 1006 61 10000 2.6 340 13:22 27.12.2020
4401 Clear 10 1007 66 10000 4.1 30 12:43 27.12.2020
4402 Clear 9 1008 70 10000 4.1 350 11:56 27.12.2020
4403 Clear 8 1008 70 10000 4.1 350 11:35 27.12.2020
4404 Clear 7 1008 70 10000 4.6 10 10:51 27.12.2020
4405 Clear 7 1008 70 10000 4.6 10 10:24 27.12.2020
4406 Clear 6 1008 80 10000 2.1 360 09:46 27.12.2020
4407 Clear 4 1008 86 10000 1 0 08:39 27.12.2020
4408 Clouds 4 1007 80 10000 3.1 90 08:18 27.12.2020
4409 Clouds 4 1008 80 10000 3.1 70 07:26 27.12.2020
4410 Clear 5 1008 86 10000 4.1 60 05:44 27.12.2020
4411 Clouds 5 1009 80 10000 3.6 50 03:33 27.12.2020
4412 Clouds 6 1009 80 10000 3.1 50 02:45 27.12.2020
4413 Clouds 6 1009 80 10000 3.1 50 01:33 27.12.2020
4414 Clouds 6 1010 81 10000 5.1 40 23:57 26.12.2020
4415 Clouds 6 1010 81 10000 5.1 40 23:27 26.12.2020
4416 Clouds 6 1010 87 10000 3.1 60 22:49 26.12.2020
4417 Clouds 6 1010 87 10000 3.1 50 22:21 26.12.2020
4418 Clouds 6 1010 93 10000 3.6 40 21:57 26.12.2020
4419 Clouds 6 1009 93 10000 2.6 20 21:38 26.12.2020
4420 Clouds 6 1009 93 10000 2.6 60 20:59 26.12.2020
4421 Rain 7 1010 93 10000 3.1 70 20:36 26.12.2020
4422 Rain 7 1010 93 10000 3.1 70 20:36 26.12.2020
4423 Rain 6 1009 93 10000 4.1 50 20:18 26.12.2020
4424 Clouds 7 1009 93 10000 3.1 60 19:25 26.12.2020
4425 Clouds 7 1009 93 10000 4.1 70 18:49 26.12.2020
4426 Clouds 7 1010 81 10000 2.6 70 18:27 26.12.2020
4427 Rain 7 1010 81 10000 2.6 70 17:40 26.12.2020
4428 Rain 7 1010 81 10000 4.6 50 17:20 26.12.2020
4429 Rain 7 1010 81 10000 4.6 50 16:35 26.12.2020
4430 Rain 8 1009 81 10000 3.62 6 15:27 26.12.2020
4431 Rain 8 1009 81 10000 3.62 6 15:27 26.12.2020
4432 Rain 9 1009 81 10000 1.5 0 14:50 26.12.2020
4433 Rain 9 1009 81 10000 1.5 0 14:28 26.12.2020
4434 Clouds 8 1010 87 10000 1.5 0 13:47 26.12.2020
4435 Rain 8 1010 87 10000 1.5 0 13:28 26.12.2020
4436 Clear 8 1010 87 10000 2.1 30 12:44 26.12.2020
4437 Clear 8 1010 87 10000 2.1 30 12:22 26.12.2020
4438 Clear 8 1011 93 10000 1.5 0 11:51 26.12.2020
4439 Clear 7 1011 93 10000 1.5 0 11:22 26.12.2020
4440 Clear 7 1011 93 10000 1.5 0 10:54 26.12.2020
4441 Clear 7 1011 93 10000 1.5 0 10:27 26.12.2020
4442 Clouds 6 1010 100 10000 2.1 350 09:51 26.12.2020
4443 Clouds 6 1010 100 10000 2.1 350 09:28 26.12.2020
4444 Clouds 6 1010 100 10000 2.6 10 08:33 26.12.2020
4445 Clouds 7 1009 75 10000 3.1 130 07:52 26.12.2020
4446 Clouds 7 1008 87 10000 2.6 70 06:31 26.12.2020
4447 Clouds 9 1010 76 10000 2.1 200 03:19 26.12.2020
4448 Clouds 9 1010 81 10000 2.6 160 01:35 26.12.2020
4449 Clouds 9 1010 81 10000 2.6 180 00:26 26.12.2020
4450 Clouds 9 1010 81 10000 3.1 180 23:40 25.12.2020
4451 Clouds 9 1010 81 10000 3.1 180 23:22 25.12.2020
4452 Clouds 9 1011 76 10000 4.1 180 22:42 25.12.2020
4453 Clouds 9 1011 76 10000 3.6 170 21:54 25.12.2020
4454 Clouds 9 1011 76 10000 3.6 170 21:34 25.12.2020
4455 Clouds 9 1011 81 8000 4.1 170 20:56 25.12.2020
4456 Rain 9 1011 76 10000 4.1 200 20:37 25.12.2020
4457 Rain 10 1010 71 10000 5.1 180 19:48 25.12.2020
4458 Rain 11 1010 71 10000 5.1 180 19:21 25.12.2020
4459 Rain 11 1011 76 8000 4.1 180 18:39 25.12.2020
4460 Rain 12 1011 62 10000 1.5 0 17:47 25.12.2020
4461 Rain 13 1011 62 10000 1.5 0 17:28 25.12.2020
4462 Clouds 13 1011 66 10000 4.1 210 16:33 25.12.2020
4463 Clouds 13 1011 71 8000 4.6 230 15:59 25.12.2020
4464 Clouds 14 1011 71 8000 4.6 230 15:36 25.12.2020
4465 Clouds 14 1011 67 7000 4.6 240 14:58 25.12.2020
4466 Clouds 14 1011 67 7000 4.6 240 14:30 25.12.2020
4467 Clouds 14 1011 67 10000 6.7 240 13:45 25.12.2020
4468 Clouds 14 1011 67 10000 6.7 240 13:26 25.12.2020
4469 Clouds 14 1012 54 10000 6.7 240 12:46 25.12.2020
4470 Clouds 14 1012 54 10000 6.7 240 12:46 25.12.2020
4471 Clouds 14 1012 67 10000 6.7 220 12:23 25.12.2020
4472 Clouds 14 1012 67 10000 6.7 220 11:44 25.12.2020
4473 Clouds 14 1012 71 10000 5.1 210 11:20 25.12.2020
4474 Clouds 14 1012 71 10000 5.1 210 10:27 25.12.2020
4475 Clouds 13 1012 71 10000 2.6 200 09:47 25.12.2020
4476 Clouds 13 1012 76 8000 2.6 190 08:49 25.12.2020
4477 Clouds 13 1012 76 8000 2.6 190 08:27 25.12.2020
4478 Clouds 13 1012 81 10000 4.1 210 06:48 25.12.2020
4479 Clouds 13 1013 76 10000 3.6 200 04:44 25.12.2020
4480 Clouds 14 1014 82 10000 4.6 200 01:50 25.12.2020
4481 Clouds 14 1015 82 10000 5.7 180 00:18 25.12.2020
4482 Clouds 14 1015 82 10000 5.7 170 23:26 24.12.2020
4483 Clouds 14 1015 82 10000 5.1 180 22:53 24.12.2020
4484 Clouds 14 1015 82 10000 5.1 180 22:22 24.12.2020
4485 Clouds 14 1016 82 10000 5.1 180 21:41 24.12.2020
4486 Clouds 14 1016 82 10000 4.6 180 20:48 24.12.2020
4487 Clouds 14 1017 87 10000 3.6 180 19:20 24.12.2020
4488 Clouds 14 1015 82 10000 3.6 220 18:21 24.12.2020
4489 Clouds 14 1015 82 10000 3.6 220 17:37 24.12.2020
4490 Clouds 14 1015 82 10000 3.6 220 17:37 24.12.2020
4491 Clouds 15 1017 77 10000 5.1 210 16:59 24.12.2020
4492 Clouds 15 1018 77 10000 3.6 200 16:23 24.12.2020
4493 Clouds 16 1018 77 10000 3.6 200 15:43 24.12.2020
4494 Clouds 16 1018 77 10000 3.6 200 15:20 24.12.2020
4495 Clouds 16 1019 72 10000 4.1 180 14:51 24.12.2020
4496 Clouds 16 1019 72 10000 4.1 180 14:24 24.12.2020
4497 Clouds 16 1019 77 10000 3.6 200 13:48 24.12.2020
4498 Clouds 16 1019 77 10000 3.6 200 13:30 24.12.2020
4499 Clouds 16 1020 82 7000 3.1 190 12:45 24.12.2020
4500 Clouds 16 1020 82 7000 3.1 190 12:21 24.12.2020
4501 Clouds 15 1021 87 7000 1 0 11:47 24.12.2020
4502 Clouds 15 1021 87 10000 3.6 190 11:23 24.12.2020
4503 Clouds 15 1021 87 10000 3.6 190 10:56 24.12.2020
4504 Clouds 14 1021 82 10000 3.6 190 10:38 24.12.2020
4505 Clouds 14 1021 87 10000 3.1 190 09:53 24.12.2020
4506 Clouds 13 1021 82 10000 2.6 200 09:30 24.12.2020
4507 Clouds 13 1021 82 10000 3.1 190 08:44 24.12.2020
4508 Clouds 13 1022 82 10000 3.1 180 07:43 24.12.2020
4509 Clouds 13 1022 82 10000 3.1 180 07:21 24.12.2020
4510 Clouds 13 1022 87 10000 1.5 200 05:56 24.12.2020
4511 Clear 13 1024 93 10000 1 0 02:33 24.12.2020
4512 Clear 13 1024 82 10000 0.5 0 01:45 24.12.2020
4513 Clear 13 1025 87 10000 2.1 190 01:18 24.12.2020
4514 Clouds 13 1025 87 10000 1.5 190 00:22 24.12.2020
4515 Clouds 13 1025 87 10000 1.5 190 23:49 23.12.2020
4516 Clouds 13 1025 82 10000 2.6 170 23:31 23.12.2020
4517 Clouds 13 1025 87 10000 2.1 190 22:59 23.12.2020
4518 Clouds 13 1025 87 10000 2.1 190 22:39 23.12.2020
4519 Clouds 13 1025 87 10000 1.5 190 22:18 23.12.2020
4520 Clouds 13 1025 87 10000 1.5 200 21:31 23.12.2020
4521 Clouds 12 1025 87 10000 2.1 190 20:56 23.12.2020
4522 Clouds 12 1025 87 10000 2.1 190 20:37 23.12.2020
4523 Clouds 12 1025 87 10000 1.5 210 20:19 23.12.2020
4524 Clouds 12 1025 87 10000 1 0 19:40 23.12.2020
4525 Clouds 12 1025 93 10000 0.5 0 19:21 23.12.2020
4526 Clouds 12 1025 93 10000 0.5 0 18:49 23.12.2020
4527 Clear 12 1025 87 10000 1 0 18:30 23.12.2020
4528 Clear 13 1025 87 10000 1 0 17:42 23.12.2020
4529 Clear 14 1025 77 10000 0.5 0 17:22 23.12.2020
4530 Clear 14 1025 77 10000 0.5 0 16:52 23.12.2020
4531 Clear 14 1025 77 10000 0.5 0 16:30 23.12.2020
4532 Clear 15 1026 77 10000 1.03 206 15:59 23.12.2020
4533 Clear 15 1026 77 10000 1.03 206 15:39 23.12.2020
4534 Clouds 14 1026 82 8000 1.5 0 15:20 23.12.2020
4535 Clouds 14 1026 82 8000 1.5 0 14:42 23.12.2020
4536 Clouds 14 1026 82 8000 1.5 0 14:21 23.12.2020
4537 Clouds 14 1027 76 9000 2.6 350 13:46 23.12.2020
4538 Clouds 14 1027 76 9000 2.1 350 13:20 23.12.2020
4539 Clouds 14 1027 76 9000 2.1 350 12:55 23.12.2020
4540 Clouds 14 1027 76 9000 2.1 350 12:31 23.12.2020
4541 Clouds 14 1028 87 9000 1.5 0 11:56 23.12.2020
4542 Clouds 13 1028 87 9000 1.5 0 11:36 23.12.2020
4543 Clouds 11 1027 93 9000 2.1 350 10:56 23.12.2020
4544 Clouds 11 1027 93 9000 2.1 350 10:38 23.12.2020
4545 Clouds 8 1027 100 8000 1 0 09:38 23.12.2020
4546 Clouds 8 1027 93 7000 1 0 08:57 23.12.2020
4547 Clouds 8 1027 93 7000 1 0 08:33 23.12.2020
4548 Clouds 9 1026 87 10000 1 60 07:49 23.12.2020
4549 Clouds 9 1026 93 10000 1 30 06:42 23.12.2020
4550 Clouds 9 1026 93 10000 1.5 50 05:58 23.12.2020
4551 Clouds 9 1026 93 10000 1.5 360 05:23 23.12.2020
4552 Clear 8 1026 93 10000 0.5 0 01:59 23.12.2020
4553 Clear 9 1026 87 10000 1.5 150 00:32 23.12.2020
4554 Clear 9 1026 93 10000 1 110 23:43 22.12.2020
4555 Clear 9 1026 87 10000 1 0 23:22 22.12.2020
4556 Clear 10 1026 87 10000 1.5 160 22:42 22.12.2020
4557 Clear 10 1026 87 10000 1.5 160 22:24 22.12.2020
4558 Clear 10 1026 87 10000 1 0 21:50 22.12.2020
4559 Clear 10 1026 87 10000 1.5 160 21:20 22.12.2020
4560 Clear 11 1026 87 10000 1.5 160 20:54 22.12.2020
4561 Clear 11 1026 87 10000 2.1 150 20:35 22.12.2020
4562 Clear 11 1026 87 10000 2.6 160 19:56 22.12.2020
4563 Clear 11 1026 87 10000 2.1 160 19:38 22.12.2020
4564 Clear 11 1026 87 10000 1.5 170 19:19 22.12.2020
4565 Clouds 12 1026 81 10000 0.5 180 18:43 22.12.2020
4566 Clear 12 1026 76 10000 1 0 18:24 22.12.2020
4567 Clear 13 1026 76 10000 1 0 17:38 22.12.2020
4568 Clear 14 1026 67 10000 1.5 0 17:18 22.12.2020
4569 Clear 14 1026 67 10000 1.5 0 16:47 22.12.2020
4570 Clear 15 1026 63 10000 1.1 156 16:21 22.12.2020
4571 Clear 15 1026 63 10000 1.1 156 15:47 22.12.2020
4572 Clear 15 1026 63 10000 1.14 162 15:29 22.12.2020
4573 Clouds 14 1026 71 10000 1 0 14:57 22.12.2020
4574 Clouds 14 1026 71 10000 1 0 14:39 22.12.2020
4575 Clouds 14 1027 76 10000 1.06 178 14:19 22.12.2020
4576 Clouds 13 1027 76 10000 1.06 178 13:43 22.12.2020
4577 Clouds 13 1027 76 10000 1 0 13:19 22.12.2020
4578 Clouds 12 1027 76 10000 1 0 12:46 22.12.2020
4579 Clouds 12 1027 76 10000 1 0 12:27 22.12.2020
4580 Clouds 11 1028 87 8000 2.1 0 11:57 22.12.2020
4581 Clouds 10 1028 87 8000 2.1 0 11:39 22.12.2020
4582 Clear 10 1028 93 10000 1.5 0 11:19 22.12.2020
4583 Clear 10 1028 93 10000 1.5 0 10:51 22.12.2020
4584 Clear 9 1028 93 10000 1.5 0 10:24 22.12.2020
4585 Clear 8 1027 100 10000 1 0 09:56 22.12.2020
4586 Clear 7 1027 100 10000 1 0 09:23 22.12.2020
4587 Clouds 6 1027 100 6000 1 0 08:53 22.12.2020
4588 Clouds 6 1027 100 6000 1 0 08:30 22.12.2020
4589 Clear 6 1026 93 10000 2.1 50 07:48 22.12.2020
4590 Clear 7 1026 93 10000 1.5 10 06:48 22.12.2020
4591 Clear 7 1026 93 10000 0.5 110 05:47 22.12.2020
4592 Clear 7 1027 87 10000 1.5 50 03:40 22.12.2020
4593 Clear 8 1026 87 10000 1 30 01:35 22.12.2020
4594 Clear 8 1026 87 10000 1.5 80 23:55 21.12.2020
4595 Clear 8 1026 93 10000 1.5 360 23:37 21.12.2020
4596 Clear 9 1026 81 10000 2.1 140 22:39 21.12.2020
4597 Clear 9 1026 81 10000 2.6 150 22:20 21.12.2020
4598 Clear 9 1026 81 10000 2.6 150 21:59 21.12.2020
4599 Clear 10 1026 81 10000 1 160 21:40 21.12.2020
4600 Clear 10 1026 81 10000 1 0 21:22 21.12.2020
4601 Clear 10 1026 76 10000 1.5 160 20:40 21.12.2020
4602 Clear 10 1026 76 10000 1.5 160 20:19 21.12.2020
4603 Clear 11 1026 76 10000 1.5 170 19:45 21.12.2020
4604 Clear 11 1026 76 10000 1.5 170 19:20 21.12.2020
4605 Clear 11 1026 76 10000 1.5 170 18:52 21.12.2020
4606 Clear 11 1025 71 10000 1 0 18:34 21.12.2020
4607 Clear 13 1025 71 10000 1.29 6 17:43 21.12.2020
4608 Clear 13 1025 71 10000 0.99 339 17:24 21.12.2020
4609 Clear 15 1025 59 10000 0.99 339 16:48 21.12.2020
4610 Clear 15 1025 58 10000 1.5 0 16:27 21.12.2020
4611 Clear 15 1025 58 10000 1.5 0 15:57 21.12.2020
4612 Clear 15 1025 58 10000 1.5 0 15:37 21.12.2020
4613 Clear 15 1026 71 10000 2.1 360 14:57 21.12.2020
4614 Clear 14 1026 71 10000 1.5 0 14:21 21.12.2020
4615 Clear 14 1026 71 10000 1.5 0 13:45 21.12.2020
4616 Clear 14 1026 71 10000 1.5 0 13:26 21.12.2020
4617 Clear 13 1026 76 10000 1.5 0 12:45 21.12.2020
4618 Clear 12 1026 76 10000 1.5 0 12:25 21.12.2020
4619 Clear 11 1026 87 10000 1 0 11:58 21.12.2020
4620 Clear 10 1026 87 10000 1 0 11:40 21.12.2020
4621 Clear 10 1026 87 10000 1 0 11:22 21.12.2020
4622 Clear 8 1027 100 10000 1.5 0 10:48 21.12.2020
4623 Clear 8 1027 100 10000 1.5 0 10:30 21.12.2020
4624 Clear 4 1026 100 8000 2.5 11 09:47 21.12.2020
4625 Clear 6 1026 100 8000 2.46 14 09:25 21.12.2020
4626 Mist 3 1026 100 4000 1.5 0 08:54 21.12.2020
4627 Clear 6 1025 93 10000 2.1 50 07:56 21.12.2020
4628 Clear 5 1024 86 10000 2.1 60 06:47 21.12.2020
4629 Clear 6 1024 86 10000 1.5 40 04:58 21.12.2020
4630 Clear 7 1024 87 7000 1 0 01:28 21.12.2020
4631 Mist 8 1024 87 5000 1.5 80 00:33 21.12.2020
4632 Clear 9 1023 87 10000 1.5 40 23:36 20.12.2020
4633 Clear 9 1023 87 10000 1.5 20 22:59 20.12.2020
4634 Clear 9 1023 87 10000 1.5 10 22:41 20.12.2020
4635 Clear 9 1023 81 10000 0.5 0 22:22 20.12.2020
4636 Clear 9 1023 81 10000 2.6 100 21:40 20.12.2020
4637 Clear 9 1023 81 10000 2.6 100 21:21 20.12.2020
4638 Clear 10 1023 76 10000 0.5 0 20:51 20.12.2020
4639 Clear 10 1023 81 10000 1.5 150 20:25 20.12.2020
4640 Clear 10 1023 76 10000 1.5 150 19:49 20.12.2020
4641 Clear 10 1023 76 10000 1.5 150 19:31 20.12.2020
4642 Clear 11 1023 76 10000 1 150 18:58 20.12.2020
4643 Clear 12 1023 71 10000 1 150 18:38 20.12.2020
4644 Clear 12 1023 50 10000 1.5 0 18:20 20.12.2020
4645 Clear 13 1023 50 10000 1.5 0 17:44 20.12.2020
4646 Clear 13 1023 50 10000 1.5 0 17:23 20.12.2020
4647 Clear 14 1023 67 10000 1.5 0 16:45 20.12.2020
4648 Clear 15 1023 67 10000 1.5 0 16:27 20.12.2020
4649 Clear 15 1023 62 10000 1.5 0 15:48 20.12.2020
4650 Clear 15 1023 62 10000 1.5 0 15:25 20.12.2020
4651 Clear 15 1023 67 10000 2.1 340 14:54 20.12.2020
4652 Clear 15 1023 67 10000 2.1 340 14:33 20.12.2020
4653 Clear 14 1023 76 10000 2.1 340 13:47 20.12.2020
4654 Clear 14 1023 76 10000 2.1 340 13:25 20.12.2020
4655 Clear 13 1024 81 10000 1.5 0 12:58 20.12.2020
4656 Clear 13 1024 81 10000 1.5 0 12:39 20.12.2020
4657 Clear 12 1024 87 10000 2.1 350 12:19 20.12.2020
4658 Clear 11 1024 87 10000 2.1 350 11:42 20.12.2020
4659 Clear 9 1024 100 10000 2.1 350 10:59 20.12.2020
4660 Clear 9 1024 100 10000 2.1 350 10:41 20.12.2020
4661 Clear 8 1024 93 10000 1.5 0 10:20 20.12.2020
4662 Clear 6 1024 93 10000 1.5 0 09:45 20.12.2020
4663 Clear 6 1024 93 10000 1.5 0 09:27 20.12.2020
4664 Mist 5 1024 100 5000 1.5 0 08:55 20.12.2020
4665 Mist 5 1024 100 5000 1.5 0 08:36 20.12.2020
4666 Clouds 6 1023 86 9000 2.1 50 07:24 20.12.2020
4667 Clouds 7 1023 93 7000 2.1 50 05:44 20.12.2020
4668 Fog 7 1024 93 7000 2.1 30 01:35 20.12.2020
4669 Clouds 7 1024 87 8000 1.5 60 00:37 20.12.2020
4670 Mist 8 1024 87 5000 0.5 0 23:20 19.12.2020
4671 Mist 8 1024 87 5000 0.5 0 22:56 19.12.2020
4672 Clouds 8 1025 87 6000 0.5 0 22:37 19.12.2020
4673 Clouds 8 1025 87 6000 1 100 22:19 19.12.2020
4674 Clouds 8 1024 87 7000 0.5 0 21:42 19.12.2020
4675 Clouds 9 1024 87 7000 0.5 0 21:23 19.12.2020
4676 Clouds 9 1024 81 6000 1 0 20:44 19.12.2020
4677 Clouds 10 1024 87 7000 1.5 120 20:21 19.12.2020
4678 Clouds 10 1024 81 7000 1 0 19:51 19.12.2020
4679 Clouds 10 1024 81 7000 1 0 19:33 19.12.2020
4680 Clouds 11 1024 76 7000 0.73 41 18:41 19.12.2020
4681 Clear 11 1024 81 10000 1 0 18:23 19.12.2020
4682 Clear 11 1024 81 10000 1 0 17:48 19.12.2020
4683 Clear 11 1024 81 10000 1 0 17:48 19.12.2020
4684 Clear 12 1024 81 10000 1 0 17:24 19.12.2020
4685 Clear 12 1024 81 10000 1 0 16:45 19.12.2020
4686 Clear 13 1024 81 10000 1 0 16:27 19.12.2020
4687 Clear 13 1024 81 10000 1.5 0 15:59 19.12.2020
4688 Clear 14 1024 66 10000 1.5 20 15:40 19.12.2020
4689 Clear 14 1025 76 10000 2.6 360 14:43 19.12.2020
4690 Clear 14 1025 76 10000 2.6 360 14:22 19.12.2020
4691 Clouds 13 1025 81 10000 1.5 0 13:42 19.12.2020
4692 Clear 12 1026 81 10000 2.1 360 13:20 19.12.2020
4693 Clouds 13 1026 66 10000 2.1 50 12:46 19.12.2020
4694 Clouds 12 1026 66 10000 2.1 50 12:28 19.12.2020
4695 Clear 11 1026 87 10000 3.1 360 11:58 19.12.2020
4696 Clear 10 1026 87 10000 3.1 360 11:40 19.12.2020
4697 Clear 7 1027 93 10000 2.1 360 10:47 19.12.2020
4698 Clear 8 1027 93 10000 2.1 360 10:27 19.12.2020
4699 Clear 5 1026 100 10000 1 0 09:59 19.12.2020
4700 Clear 5 1026 100 10000 1 0 09:39 19.12.2020
4701 Clouds 4 1026 100 9000 1.5 0 08:52 19.12.2020
4702 Clear 5 1025 93 10000 2.1 60 07:55 19.12.2020
4703 Clear 5 1025 93 10000 1.5 50 07:18 19.12.2020
4704 Clear 6 1025 93 10000 1.5 60 06:39 19.12.2020
4705 Clear 5 1025 93 10000 2.1 30 05:19 19.12.2020
4706 Clear 6 1025 93 10000 1 40 03:29 19.12.2020
4707 Clouds 7 1026 93 10000 1 0 00:41 19.12.2020
4708 Clouds 7 1026 93 9000 1 0 00:19 19.12.2020
4709 Clouds 7 1026 93 9000 1.5 40 23:48 18.12.2020
4710 Clouds 8 1026 93 9000 1.5 40 23:24 18.12.2020
4711 Clouds 8 1026 93 7000 1 60 22:48 18.12.2020
4712 Clouds 8 1026 93 7000 1 60 22:24 18.12.2020
4713 Clouds 9 1026 93 5000 0.5 0 21:51 18.12.2020
4714 Clouds 9 1026 87 8000 0.5 180 21:31 18.12.2020
4715 Clouds 10 1025 87 7000 1.5 160 20:44 18.12.2020
4716 Clouds 10 1025 81 7000 1 160 20:23 18.12.2020
4717 Clouds 10 1025 87 7000 1 170 19:47 18.12.2020
4718 Clouds 11 1025 87 7000 0.5 0 19:23 18.12.2020
4719 Clouds 12 1025 76 9000 0.5 0 18:45 18.12.2020
4720 Clear 12 1026 71 10000 1 0 18:26 18.12.2020
4721 Clear 12 1026 71 10000 1 0 17:36 18.12.2020
4722 Clear 14 1025 62 10000 1.5 0 16:59 18.12.2020
4723 Clear 14 1025 62 10000 1.5 0 16:40 18.12.2020
4724 Clear 15 1025 58 10000 1 0 16:20 18.12.2020
4725 Clear 15 1025 58 10000 1 0 15:51 18.12.2020
4726 Clear 15 1025 58 10000 1 0 15:33 18.12.2020
4727 Clear 16 1026 62 10000 1 0 14:57 18.12.2020
4728 Clear 15 1026 66 10000 2.1 350 14:24 18.12.2020
4729 Clear 14 1026 66 10000 2.1 350 13:53 18.12.2020
4730 Clear 14 1026 66 10000 2.1 350 13:32 18.12.2020
4731 Clear 14 1026 71 10000 2.1 40 12:57 18.12.2020
4732 Clear 13 1026 71 10000 2.1 50 12:34 18.12.2020
4733 Clear 10 1027 100 10000 2.1 360 11:28 18.12.2020
4734 Clear 8 1027 100 10000 2.1 360 10:41 18.12.2020
4735 Clear 8 1027 100 10000 2.1 360 10:41 18.12.2020
4736 Clear 7 1027 100 10000 2.1 360 10:21 18.12.2020
4737 Mist 5 1027 100 3000 1 0 09:58 18.12.2020
4738 Mist 5 1027 100 3000 1 0 09:37 18.12.2020
4739 Mist 4 1027 100 2000 2.1 350 09:18 18.12.2020
4740 Mist 3 1027 100 1000 2.1 350 08:46 18.12.2020
4741 Clear 5 1026 93 10000 1.5 60 07:58 18.12.2020
4742 Clear 5 1026 86 10000 2.1 60 07:20 18.12.2020
4743 Clear 6 1026 93 10000 2.6 70 06:59 18.12.2020
4744 Clear 5 1026 93 10000 1.5 50 05:44 18.12.2020
4745 Clear 5 1026 93 10000 1.5 60 04:52 18.12.2020
4746 Clear 6 1026 93 6000 2.1 60 03:35 18.12.2020
4747 Clear 6 1025 93 6000 1.5 40 01:45 18.12.2020
4748 Clouds 7 1026 93 7000 1.5 50 00:29 18.12.2020
4749 Clouds 8 1026 93 7000 1.5 80 23:52 17.12.2020
4750 Clouds 8 1026 93 7000 1.5 50 23:23 17.12.2020
4751 Clouds 8 1026 93 6000 1 0 22:48 17.12.2020
4752 Clouds 9 1026 93 6000 1 0 22:27 17.12.2020
4753 Clouds 9 1025 87 7000 1 50 21:46 17.12.2020
4754 Clouds 9 1025 87 7000 1 0 21:22 17.12.2020
4755 Clouds 10 1025 87 7000 1 0 20:55 17.12.2020
4756 Clouds 10 1025 87 7000 1 0 20:36 17.12.2020
4757 Clouds 11 1025 81 9000 1.5 140 20:18 17.12.2020
4758 Clouds 11 1025 81 9000 1.5 150 19:39 17.12.2020
4759 Clear 11 1025 81 10000 0.5 0 19:21 17.12.2020
4760 Clear 11 1025 76 10000 1.5 110 18:40 17.12.2020
4761 Clear 12 1025 76 10000 0.5 0 18:19 17.12.2020
4762 Clear 12 1025 76 10000 0.5 0 17:46 17.12.2020
4763 Clear 12 1025 76 10000 0.5 0 17:27 17.12.2020
4764 Clear 13 1025 71 10000 1.5 0 16:41 17.12.2020
4765 Clear 14 1025 50 10000 1.5 0 16:22 17.12.2020
4766 Clear 14 1025 50 10000 1.5 0 15:50 17.12.2020
4767 Clear 15 1025 50 10000 1.5 0 15:28 17.12.2020
4768 Clear 15 1025 54 10000 1.5 0 14:50 17.12.2020
4769 Clear 15 1025 66 10000 1.5 0 14:28 17.12.2020
4770 Clear 15 1025 66 10000 1.5 0 13:50 17.12.2020
4771 Clear 14 1025 66 10000 1.5 0 13:27 17.12.2020
4772 Clear 13 1026 76 10000 2.1 350 12:44 17.12.2020
4773 Clear 11 1026 87 10000 1.5 0 12:24 17.12.2020
4774 Clear 10 1026 87 10000 1.5 0 11:44 17.12.2020
4775 Clear 10 1026 87 10000 1.5 0 11:23 17.12.2020
4776 Clear 7 1026 100 10000 1.5 0 10:49 17.12.2020
4777 Clear 5 1026 100 10000 2.1 0 09:43 17.12.2020
4778 Clear 5 1026 100 10000 2.1 0 09:24 17.12.2020
4779 Clear 5 1024 86 10000 1.5 40 07:50 17.12.2020
4780 Clear 5 1024 93 10000 1.5 20 07:31 17.12.2020
4781 Clear 5 1024 86 10000 2.1 40 06:53 17.12.2020
4782 Clear 6 1024 86 10000 2.1 40 06:32 17.12.2020
4783 Clear 6 1024 86 10000 2.1 40 06:32 17.12.2020
4784 Clear 6 1024 86 10000 1.5 50 04:45 17.12.2020
4785 Clear 7 1024 81 10000 0.5 0 00:33 17.12.2020
4786 Clear 7 1024 87 10000 1 0 23:51 16.12.2020
4787 Clear 8 1024 81 8000 1 120 23:19 16.12.2020
4788 Clear 8 1024 81 8000 1 120 22:52 16.12.2020
4789 Clear 8 1024 87 7000 1 0 22:32 16.12.2020
4790 Clear 9 1024 87 10000 1 120 21:47 16.12.2020
4791 Clear 10 1024 87 10000 1 120 21:27 16.12.2020
4792 Clear 10 1024 81 10000 1 0 20:54 16.12.2020
4793 Clear 10 1023 81 10000 2.6 160 20:21 16.12.2020
4794 Clear 10 1023 81 10000 2.6 160 19:50 16.12.2020
4795 Clear 11 1023 87 10000 2.1 140 19:19 16.12.2020
4796 Clear 11 1023 87 10000 2.1 140 18:52 16.12.2020
4797 Clear 12 1023 76 10000 1.5 0 18:27 16.12.2020
4798 Clear 12 1023 76 10000 1.5 0 17:43 16.12.2020
4799 Clear 14 1023 51 10000 0.8 19 16:58 16.12.2020
4800 Clear 15 1023 51 10000 0.8 19 16:38 16.12.2020
4801 Clear 15 1023 54 10000 1 0 16:19 16.12.2020
4802 Clear 15 1023 54 10000 1 0 15:48 16.12.2020
4803 Clear 15 1023 58 10000 2.6 350 15:23 16.12.2020
4804 Clear 15 1023 58 10000 2.6 350 14:46 16.12.2020
4805 Clear 15 1023 58 10000 2.6 350 14:27 16.12.2020
4806 Clear 14 1023 66 10000 2.1 350 13:42 16.12.2020
4807 Clear 14 1023 66 10000 2.1 350 13:21 16.12.2020
4808 Clear 13 1023 76 10000 2.1 340 12:46 16.12.2020
4809 Clear 13 1023 76 10000 2.1 340 12:25 16.12.2020
4810 Clear 11 1024 87 10000 1.5 0 11:38 16.12.2020
4811 Clear 9 1024 93 10000 1.5 0 11:19 16.12.2020
4812 Clear 9 1024 93 10000 1.5 0 10:41 16.12.2020
4813 Mist 7 1024 100 5000 2.1 360 10:18 16.12.2020
4814 Mist 6 1024 100 5000 2.1 360 09:34 16.12.2020
4815 Mist 4 1023 100 4000 1.5 0 08:23 16.12.2020
4816 Clouds 5 1022 86 10000 1.5 340 07:48 16.12.2020
4817 Clear 6 1022 86 10000 1 0 07:30 16.12.2020
4818 Clear 5 1021 86 10000 1.5 50 05:47 16.12.2020
4819 Clear 7 1021 61 10000 2.1 90 02:22 16.12.2020
4820 Clear 7 1021 81 10000 1.5 30 23:59 15.12.2020
4821 Clear 7 1021 81 10000 1 310 23:40 15.12.2020
4822 Clear 7 1021 70 10000 2.1 110 22:44 15.12.2020
4823 Clear 7 1021 81 10000 0.5 0 22:23 15.12.2020
4824 Clear 8 1021 81 10000 0.5 0 21:49 15.12.2020
4825 Clear 8 1020 81 10000 1 140 21:24 15.12.2020
4826 Clear 8 1020 81 10000 1 140 20:57 15.12.2020
4827 Clear 9 1020 76 10000 0.5 0 20:37 15.12.2020
4828 Clear 9 1020 76 10000 0.5 0 20:37 15.12.2020
4829 Clear 8 1020 81 10000 2.1 120 20:18 15.12.2020
4830 Clear 9 1020 76 10000 1.5 140 19:35 15.12.2020
4831 Clear 9 1020 81 10000 0.5 0 18:59 15.12.2020
4832 Clear 10 1020 76 10000 1 0 18:39 15.12.2020
4833 Clear 10 1020 66 10000 0.66 80 18:20 15.12.2020
4834 Clear 11 1020 66 10000 0.66 80 17:42 15.12.2020
4835 Clear 11 1020 66 10000 0.06 114 17:22 15.12.2020
4836 Clear 12 1020 62 10000 1 0 16:37 15.12.2020
4837 Clear 13 1020 62 10000 2.1 320 16:19 15.12.2020
4838 Clear 13 1020 62 10000 2.1 320 15:37 15.12.2020
4839 Clear 13 1020 62 10000 1.5 0 14:56 15.12.2020
4840 Clear 13 1020 62 10000 1.5 0 14:37 15.12.2020
4841 Clear 11 1020 76 10000 1.5 0 14:19 15.12.2020
4842 Clear 11 1020 76 10000 1.5 0 13:47 15.12.2020
4843 Clear 11 1020 76 10000 1.5 0 13:22 15.12.2020
4844 Clear 9 1021 81 10000 1.5 0 12:44 15.12.2020
4845 Clouds 8 1021 86 10000 1.5 0 12:18 15.12.2020
4846 Clouds 8 1021 86 10000 1.5 0 11:49 15.12.2020
4847 Clouds 6 1020 93 10000 2.1 350 11:20 15.12.2020
4848 Clouds 5 1020 93 10000 2.1 350 10:44 15.12.2020
4849 Clouds 6 1020 93 10000 1.5 0 10:19 15.12.2020
4850 Clouds 5 1020 93 10000 1.5 0 09:39 15.12.2020
4851 Clouds 5 1019 100 10000 1.5 0 09:21 15.12.2020
4852 Clouds 3 1019 100 10000 1.5 0 08:37 15.12.2020
4853 Clear 5 1018 58 10000 1.5 30 08:19 15.12.2020
4854 Clear 4 1018 86 10000 1.5 70 07:40 15.12.2020
4855 Clear 4 1018 60 10000 1.5 50 06:40 15.12.2020
4856 Clear 4 1017 86 10000 1.5 60 04:55 15.12.2020
4857 Clear 7 1017 65 10000 1 0 00:38 15.12.2020
4858 Clear 7 1017 66 10000 1.5 170 23:47 14.12.2020
4859 Clear 7 1017 70 10000 2.1 190 23:19 14.12.2020
4860 Clear 8 1016 65 10000 2.6 100 22:39 14.12.2020
4861 Clear 8 1016 75 10000 2.1 70 21:55 14.12.2020
4862 Clear 8 1016 70 10000 1.5 20 21:36 14.12.2020
4863 Clear 9 1016 75 10000 2.1 70 20:56 14.12.2020
4864 Clear 8 1016 65 10000 1 0 20:38 14.12.2020
4865 Clear 10 1016 61 10000 2.1 80 20:18 14.12.2020
4866 Clear 10 1016 66 10000 2.6 100 19:32 14.12.2020
4867 Clear 11 1016 66 10000 0.5 0 18:57 14.12.2020
4868 Clear 11 1016 62 10000 1.5 70 18:38 14.12.2020
4869 Clear 12 1016 54 10000 1 0 17:58 14.12.2020
4870 Clear 13 1016 54 10000 1 0 17:33 14.12.2020
4871 Clear 14 1016 93 10000 3.1 340 16:56 14.12.2020
4872 Clear 14 1016 93 10000 3.1 340 16:36 14.12.2020
4873 Clear 14 1015 50 10000 1.5 70 16:18 14.12.2020
4874 Clear 15 1015 50 10000 2.1 70 15:32 14.12.2020
4875 Clear 15 1015 44 10000 2.1 10 14:46 14.12.2020
4876 Clear 15 1015 44 10000 2.1 10 14:27 14.12.2020
4877 Clear 13 1015 58 10000 2.6 50 13:55 14.12.2020
4878 Clear 13 1016 54 10000 3.1 50 13:33 14.12.2020
4879 Clear 13 1017 58 10000 2.91 4 12:55 14.12.2020
4880 Clear 12 1017 58 10000 2.8 5 12:31 14.12.2020
4881 Clear 10 1017 66 10000 2.8 5 11:39 14.12.2020
4882 Clear 10 1017 66 10000 2.91 9 11:20 14.12.2020
4883 Clear 7 1017 100 10000 2.91 13 10:27 14.12.2020
4884 Clear 6 1016 100 10000 2.91 13 09:51 14.12.2020
4885 Fog 4 1016 100 9000 2.93 14 08:52 14.12.2020
4886 Fog 4 1016 100 9000 2.93 14 08:33 14.12.2020
4887 Clear 6 1015 69 10000 4.1 80 07:52 14.12.2020
4888 Clear 6 1014 72 10000 3.1 80 06:59 14.12.2020
4889 Clear 6 1014 80 10000 2.6 50 05:55 14.12.2020
4890 Clear 5 1013 80 10000 2.6 60 03:49 14.12.2020
4891 Clear 6 1012 75 10000 2.6 90 00:57 14.12.2020
4892 Clear 6 1012 75 10000 1.5 100 00:35 14.12.2020
4893 Clear 6 1012 75 10000 4.1 60 23:59 13.12.2020
4894 Clear 6 1011 75 10000 3.1 50 23:41 13.12.2020
4895 Clear 7 1011 75 10000 3.1 40 22:51 13.12.2020
4896 Clear 7 1011 75 10000 1.5 80 22:21 13.12.2020
4897 Clear 8 1011 75 10000 1.5 80 21:56 13.12.2020
4898 Clear 8 1011 75 10000 3.1 70 21:35 13.12.2020
4899 Clear 8 1010 75 10000 2.6 70 20:49 13.12.2020
4900 Clear 9 1010 70 10000 3.6 50 20:25 13.12.2020
4901 Clear 9 1009 66 10000 3.6 40 19:45 13.12.2020
4902 Clear 10 1009 66 10000 3.6 40 19:23 13.12.2020
4903 Clear 10 1009 66 10000 3.1 50 18:44 13.12.2020
4904 Clear 11 1008 58 10000 4.1 360 18:22 13.12.2020
4905 Clear 11 1008 58 10000 4.1 360 17:59 13.12.2020
4906 Clear 11 1008 58 10000 4.1 360 17:41 13.12.2020
4907 Clear 12 1007 54 10000 4.1 360 17:18 13.12.2020
4908 Clear 13 1007 54 10000 4.1 360 16:42 13.12.2020
4909 Clear 13 1007 54 10000 4.1 360 16:21 13.12.2020
4910 Clear 13 1007 58 10000 5.1 360 15:45 13.12.2020
4911 Clear 13 1007 58 10000 5.1 360 15:45 13.12.2020
4912 Clear 13 1007 58 10000 5.1 360 15:45 13.12.2020
4913 Clear 13 1007 58 10000 5.1 360 15:45 13.12.2020
4914 Clear 13 1007 58 10000 5.1 360 15:24 13.12.2020
4915 Clear 13 1006 50 10000 4.1 10 14:45 13.12.2020
4916 Clear 14 1006 50 10000 4.1 10 14:27 13.12.2020
4917 Clear 13 1007 58 10000 3.1 10 13:45 13.12.2020
4918 Clear 12 1007 58 10000 3.1 10 13:27 13.12.2020
4919 Clear 12 1007 66 10000 4.1 20 12:55 13.12.2020
4920 Clear 11 1007 66 10000 4.1 20 12:24 13.12.2020
4921 Clear 10 1007 81 10000 3.1 10 11:51 13.12.2020
4922 Clear 9 1007 81 10000 3.1 10 11:23 13.12.2020
4923 Clear 8 1006 100 10000 1 0 10:41 13.12.2020
4924 Clear 6 1006 100 6000 3.33 9 09:59 13.12.2020
4925 Clear 5 1006 100 6000 3.26 9 09:31 13.12.2020
4926 Fog 4 1005 70 50 3.26 9 08:36 13.12.2020
4927 Clear 5 1004 86 10000 4.1 70 07:52 13.12.2020
4928 Clear 5 1003 86 10000 3.1 70 05:49 13.12.2020
4929 Clear 5 1002 86 10000 3.1 70 02:43 13.12.2020
4930 Clear 6 1002 86 10000 2.6 40 01:58 13.12.2020
4931 Clear 6 1001 86 10000 3.1 60 01:19 13.12.2020
4932 Clear 7 1001 87 10000 3.1 70 00:33 13.12.2020
4933 Clear 7 1001 87 10000 2.6 60 23:33 12.12.2020
4934 Clear 7 1001 81 10000 2.6 50 22:58 12.12.2020
4935 Clear 8 1000 87 10000 2.1 40 22:27 12.12.2020
4936 Clouds 9 1000 81 10000 2.6 50 21:45 12.12.2020
4937 Clouds 9 1000 81 10000 3.6 40 21:18 12.12.2020
4938 Clouds 9 1000 87 10000 2.6 50 20:43 12.12.2020
4939 Clouds 9 1000 87 10000 2.6 50 20:19 12.12.2020
4940 Drizzle 10 999 76 10000 1.5 0 19:48 12.12.2020
4941 Drizzle 10 999 76 10000 1.5 0 19:29 12.12.2020
4942 Clouds 10 999 81 10000 2.6 340 18:48 12.12.2020
4943 Clear 10 998 81 10000 1.5 0 18:30 12.12.2020
4944 Rain 11 998 81 10000 1.5 0 17:59 12.12.2020
4945 Rain 11 998 81 10000 1.5 0 17:40 12.12.2020
4946 Clear 11 998 87 10000 1 0 16:28 12.12.2020
4947 Clear 12 998 76 10000 1.5 0 15:53 12.12.2020
4948 Clear 12 998 76 10000 1.5 0 15:35 12.12.2020
4949 Clouds 12 997 58 10000 3.6 180 14:53 12.12.2020
4950 Clouds 13 998 62 10000 1.5 60 13:58 12.12.2020
4951 Clear 13 998 66 10000 1 0 13:38 12.12.2020
4952 Clear 12 999 87 10000 2.1 340 13:19 12.12.2020
4953 Clear 11 999 87 10000 2.1 340 12:31 12.12.2020
4954 Clear 10 999 76 10000 1 0 10:56 12.12.2020
4955 Fog 6 1000 100 800 1.5 0 09:50 12.12.2020
4956 Clouds 4 1000 100 100 1 0 08:57 12.12.2020
4957 Clear 6 1001 87 10000 0.5 0 03:33 12.12.2020
4958 Clouds 7 1002 87 8000 1.5 330 00:48 12.12.2020
4959 Clear 8 1002 93 10000 1 10 22:50 11.12.2020
4960 Clouds 8 1002 87 10000 0.5 0 20:52 11.12.2020
4961 Clouds 9 1002 81 10000 0.5 160 18:56 11.12.2020
4962 Clear 12 1003 66 10000 3.1 280 16:45 11.12.2020
4963 Clear 13 1003 62 10000 1 0 14:24 11.12.2020
4964 Clear 12 1004 66 10000 2.1 30 13:25 11.12.2020
4965 Clear 11 1004 81 10000 1 0 12:21 11.12.2020
4966 Clear 10 1004 81 10000 2.1 30 11:52 11.12.2020
4967 Clear 9 1005 87 10000 1.5 0 10:56 11.12.2020
4968 Clear 7 1006 93 10000 1.5 0 09:42 11.12.2020
4969 Mist 8 1004 93 5000 2.1 60 06:26 11.12.2020
4970 Rain 8 1004 93 6000 2.1 40 05:20 11.12.2020
4971 Rain 8 1004 93 6000 2.1 40 05:20 11.12.2020
4972 Rain 8 1005 87 10000 1 0 02:40 11.12.2020
4973 Rain 9 1005 81 10000 3.1 140 00:39 11.12.2020
4974 Clouds 9 1004 81 10000 3.6 170 22:57 10.12.2020
4975 Clouds 9 1005 81 10000 4.1 190 21:37 10.12.2020
4976 Clear 9 1004 87 10000 1.5 130 20:49 10.12.2020
4977 Clouds 9 1004 87 10000 1.5 150 19:49 10.12.2020
4978 Clouds 9 1004 87 10000 2.6 160 19:21 10.12.2020
4979 Clouds 9 1004 87 10000 3.1 130 18:44 10.12.2020
4980 Clouds 10 1004 81 10000 2.1 180 16:56 10.12.2020
4981 Clouds 10 1004 81 10000 3.1 220 15:51 10.12.2020
4982 Clouds 11 1004 81 10000 2.6 180 14:58 10.12.2020
4983 Clouds 11 1004 81 10000 2.6 180 14:38 10.12.2020
4984 Rain 11 1004 71 10000 1.5 0 13:25 10.12.2020
4985 Clouds 11 1005 76 10000 4.1 120 11:48 10.12.2020
4986 Clouds 9 1005 81 10000 3.6 110 09:33 10.12.2020
4987 Clouds 8 1004 81 10000 2.6 160 08:19 10.12.2020
4988 Clouds 7 1004 87 10000 2.1 120 06:57 10.12.2020
4989 Clouds 7 1004 81 10000 3.1 160 04:45 10.12.2020
4990 Clouds 9 1005 81 10000 1.5 200 02:27 10.12.2020
4991 Rain 9 1005 87 10000 2.6 200 00:48 10.12.2020
4992 Clouds 9 1005 87 7000 4.1 170 23:23 09.12.2020
4993 Clouds 10 1003 81 10000 3.6 190 20:37 09.12.2020
4994 Clouds 10 1003 81 10000 2.1 210 19:37 09.12.2020
4995 Clouds 10 1002 87 10000 3.6 140 17:55 09.12.2020
4996 Rain 11 1002 93 10000 2.1 160 16:54 09.12.2020
4997 Clouds 11 1002 93 10000 2.1 160 16:25 09.12.2020
4998 Rain 11 1001 81 10000 2.1 220 15:38 09.12.2020
4999 Clouds 12 1001 82 10000 1.5 0 14:49 09.12.2020
5000 Clouds 12 1001 82 10000 1.5 0 14:24 09.12.2020
5001 Clouds 11 1002 87 10000 1 0 13:19 09.12.2020
5002 Rain 11 1002 87 10000 1 0 12:47 09.12.2020
5003 Clouds 11 1002 93 10000 3.32 229 11:55 09.12.2020
5004 Clouds 11 1002 93 10000 3.04 230 11:27 09.12.2020
5005 Clouds 9 1001 100 10000 1 0 09:39 09.12.2020
5006 Fog 8 1000 100 7000 0.5 0 08:27 09.12.2020
5007 Clouds 9 999 87 10000 3.1 210 06:18 09.12.2020
5008 Clouds 10 998 87 10000 2.6 150 04:46 09.12.2020
5009 Rain 9 999 93 6000 3.1 170 02:30 09.12.2020
5010 Clouds 10 998 93 10000 4.6 220 23:49 08.12.2020
5011 Clouds 10 997 93 9000 1.5 0 23:23 08.12.2020
5012 Rain 10 998 93 10000 3.1 140 21:36 08.12.2020
5013 Rain 11 999 81 10000 2.6 170 19:46 08.12.2020
5014 Rain 12 999 81 10000 2.6 170 19:25 08.12.2020
5015 Clouds 11 1000 93 10000 1.5 0 18:27 08.12.2020
5016 Clouds 13 999 93 10000 1.5 0 16:27 08.12.2020
5017 Clouds 13 999 93 7000 1.5 0 14:35 08.12.2020
5018 Clouds 12 999 87 2000 4.6 220 13:40 08.12.2020
5019 Clouds 13 999 93 1200 4.1 160 12:35 08.12.2020
5020 Clouds 12 1000 87 6000 3.1 180 11:52 08.12.2020
5021 Clouds 12 1001 87 1000 6.2 180 10:52 08.12.2020
5022 Rain 12 1001 87 1000 6.2 180 10:31 08.12.2020
5023 Clouds 13 1000 87 8000 5.1 150 09:34 08.12.2020
5024 Rain 12 1001 87 7000 6.2 200 07:34 08.12.2020
5025 Rain 11 1003 87 8000 6.7 150 03:43 08.12.2020
5026 Rain 10 1005 81 10000 6.2 170 01:38 08.12.2020
5027 Clouds 11 1005 71 10000 5.1 160 00:44 08.12.2020
5028 Clouds 11 1007 71 10000 5.7 160 22:50 07.12.2020
5029 Clouds 11 1007 71 10000 4.6 150 22:18 07.12.2020
5030 Clear 10 1007 71 10000 4.1 150 20:45 07.12.2020
5031 Clouds 11 1008 76 10000 4.1 150 18:48 07.12.2020
5032 Clouds 11 1008 81 10000 2.1 120 17:31 07.12.2020
5033 Rain 12 1007 71 10000 4.6 160 16:59 07.12.2020
5034 Clouds 12 1007 71 10000 3.1 200 16:19 07.12.2020
5035 Clouds 13 1007 71 10000 3.1 200 15:24 07.12.2020
5036 Clouds 13 1007 71 10000 3.6 220 14:26 07.12.2020
5037 Clouds 12 1007 87 10000 1 0 13:34 07.12.2020
5038 Clouds 11 1008 93 9000 3.6 300 11:46 07.12.2020
5039 Clouds 11 1008 93 9000 3.6 300 11:27 07.12.2020
5040 Clouds 11 1007 76 10000 2.6 170 10:20 07.12.2020
5041 Clouds 9 1006 100 10000 1.5 0 08:32 07.12.2020
5042 Clouds 9 1005 87 10000 3.6 160 06:51 07.12.2020
5043 Clear 9 1005 76 10000 3.6 170 05:21 07.12.2020
5044 Clouds 8 1004 81 10000 2.6 160 02:18 07.12.2020
5045 Clouds 7 1003 87 10000 2.6 150 00:31 07.12.2020
5046 Clouds 7 1002 81 10000 2.6 150 22:45 06.12.2020
5047 Clouds 7 1002 93 10000 2.6 200 21:44 06.12.2020
5048 Clouds 8 1001 87 10000 0.5 0 20:35 06.12.2020
5049 Clouds 8 1001 81 8000 1.5 150 19:57 06.12.2020
5050 Clouds 9 1000 87 8000 3.1 80 18:52 06.12.2020
5051 Clouds 9 999 87 8000 3.6 310 17:23 06.12.2020
5052 Clouds 10 998 87 8000 3.1 260 16:27 06.12.2020
5053 Rain 12 996 93 7000 3.1 140 14:21 06.12.2020
5054 Rain 11 997 93 3000 2.1 190 12:52 06.12.2020
5055 Rain 12 997 93 3000 2.1 190 12:27 06.12.2020
5056 Rain 12 997 93 4000 3.1 250 11:37 06.12.2020
5057 Rain 12 996 87 3000 3.1 120 11:18 06.12.2020
5058 Rain 12 996 87 3000 3.1 120 10:26 06.12.2020
5059 Mist 12 997 100 5000 2.6 90 08:49 06.12.2020
5060 Rain 12 998 93 10000 1.5 160 06:53 06.12.2020
5061 Rain 12 1001 93 7000 1 0 02:40 06.12.2020
5062 Rain 15 1001 72 10000 9.3 170 00:42 06.12.2020
5063 Rain 15 1001 72 10000 9.3 170 00:24 06.12.2020
5064 Rain 16 1000 77 8000 10.3 160 22:52 05.12.2020
5065 Clouds 16 1000 77 10000 10.8 160 22:21 05.12.2020
5066 Clouds 16 1001 77 10000 11.3 160 21:51 05.12.2020
5067 Clouds 16 1001 67 10000 10.3 160 21:26 05.12.2020
5068 Clouds 16 1001 59 10000 11.3 160 19:49 05.12.2020
5069 Clouds 16 1001 63 10000 10.8 160 18:45 05.12.2020
5070 Clouds 17 1002 59 10000 8.7 150 17:35 05.12.2020
5071 Clouds 17 1002 63 10000 7.2 150 16:42 05.12.2020
5072 Clouds 17 1002 63 10000 7.2 150 16:20 05.12.2020
5073 Clouds 17 1002 68 10000 7.7 170 14:30 05.12.2020
5074 Clouds 17 1002 67 10000 10.3 170 12:32 05.12.2020
5075 Clouds 16 1002 67 10000 7.2 170 11:48 05.12.2020
5076 Clouds 15 1003 72 10000 6.7 160 10:32 05.12.2020
5077 Clouds 14 1001 82 8000 7.7 170 07:49 05.12.2020
5078 Clouds 14 1001 82 9000 6.7 170 07:25 05.12.2020
5079 Clouds 14 1001 71 10000 5.7 170 04:46 05.12.2020
5080 Rain 13 1002 67 10000 6.7 180 23:56 04.12.2020
5081 Clouds 13 1002 67 10000 7.7 170 22:39 04.12.2020
5082 Clouds 12 1002 82 10000 7.2 170 20:29 04.12.2020
5083 Clouds 12 1001 81 6000 8.7 170 18:53 04.12.2020
5084 Clouds 12 1002 71 10000 5.7 130 18:20 04.12.2020
5085 Rain 12 1002 71 10000 5.7 130 17:41 04.12.2020
5086 Rain 13 1002 67 10000 7.2 150 15:54 04.12.2020
5087 Clouds 13 1003 71 10000 4.6 120 13:58 04.12.2020
5088 Clouds 13 1003 71 10000 4.6 120 13:31 04.12.2020
5089 Clouds 13 1003 66 10000 6.2 170 12:54 04.12.2020
5090 Clouds 12 1005 100 10000 1.5 0 11:33 04.12.2020
5091 Clouds 9 1004 100 10000 1 0 10:28 04.12.2020
5092 Clouds 6 1004 81 10000 2.1 150 07:43 04.12.2020
5093 Clear 5 1004 93 10000 0.5 0 06:39 04.12.2020
5094 Clear 4 1004 93 10000 0.5 0 04:38 04.12.2020
5095 Clouds 8 1005 87 10000 1.5 130 23:49 03.12.2020
5096 Clouds 7 1005 93 10000 1.5 120 22:45 03.12.2020
5097 Clear 8 1005 93 10000 1.5 140 20:59 03.12.2020
5098 Clouds 9 1005 93 10000 3.1 150 19:38 03.12.2020
5099 Clouds 9 1005 93 10000 3.1 150 19:19 03.12.2020
5100 Clouds 9 1005 87 10000 1.5 250 18:34 03.12.2020
5101 Clouds 11 1005 76 9000 1.5 0 17:20 03.12.2020
5102 Clouds 13 1005 62 10000 1 0 15:58 03.12.2020
5103 Clouds 13 1005 62 10000 1 0 15:31 03.12.2020
5104 Clouds 13 1005 67 10000 1.5 0 14:48 03.12.2020
5105 Clear 12 1006 81 10000 2.83 185 13:49 03.12.2020
5106 Clouds 11 1006 93 10000 1.5 0 12:33 03.12.2020
5107 Clouds 10 1007 93 7000 1 0 11:49 03.12.2020
5108 Clouds 9 1007 100 10000 2.1 30 10:27 03.12.2020
5109 Clouds 7 1006 100 7000 1.5 50 07:48 03.12.2020
5110 Clear 7 1006 93 10000 0.5 0 03:41 03.12.2020
5111 Clear 7 1006 93 10000 1 10 01:39 03.12.2020
5112 Clear 8 1006 93 10000 2.1 70 23:41 02.12.2020
5113 Clear 8 1006 93 10000 2.1 60 22:29 02.12.2020
5114 Clouds 8 1006 93 10000 2.1 40 21:29 02.12.2020
5115 Clouds 8 1006 87 10000 1.5 40 20:48 02.12.2020
5116 Clouds 8 1005 87 10000 2.1 40 20:29 02.12.2020
5117 Clouds 8 1005 93 10000 2.1 330 19:22 02.12.2020
5118 Rain 8 1006 93 5000 2.1 360 17:48 02.12.2020
5119 Rain 8 1006 93 5000 2.1 360 17:29 02.12.2020
5120 Rain 9 1007 93 7000 2.1 330 15:43 02.12.2020
5121 Rain 12 1008 87 8000 1.5 0 13:20 02.12.2020
5122 Rain 12 1010 87 10000 3.1 120 11:20 02.12.2020
5123 Clouds 12 1009 93 10000 3.1 130 10:24 02.12.2020
5124 Clouds 11 1008 87 10000 3.1 170 07:42 02.12.2020
5125 Clouds 11 1009 87 10000 6.7 170 23:22 01.12.2020
5126 Clouds 11 1009 87 10000 7.2 170 22:20 01.12.2020
5127 Clouds 12 1010 81 10000 3.1 170 19:36 01.12.2020
5128 Clouds 11 1010 81 10000 3.1 170 18:55 01.12.2020
5129 Clouds 12 1011 93 2000 3.1 150 16:47 01.12.2020
5130 Clouds 13 1012 93 8000 1 0 14:34 01.12.2020
5131 Clouds 13 1014 87 10000 2.1 360 12:31 01.12.2020
5132 Clouds 11 1015 87 10000 1 0 11:28 01.12.2020
5133 Rain 9 1016 93 9000 2.1 340 10:46 01.12.2020
5134 Clouds 9 1016 93 9000 2.1 340 10:26 01.12.2020
5135 Clear 8 1016 87 10000 0.5 0 07:40 01.12.2020
5136 Mist 7 1018 93 5000 1 0 02:57 01.12.2020
5137 Mist 7 1018 93 5000 1 0 02:57 01.12.2020
5138 Clouds 9 1019 93 6000 1.5 360 00:57 01.12.2020
5139 Clear 9 1019 87 10000 1 0 23:49 30.11.2020
5140 Clear 9 1019 93 10000 2.1 90 23:18 30.11.2020
5141 Clear 9 1019 93 10000 1 0 22:36 30.11.2020
5142 Clear 10 1019 87 10000 0.5 0 22:18 30.11.2020
5143 Clear 11 1019 87 10000 2.1 160 19:46 30.11.2020
5144 Clear 13 1019 81 10000 1.5 170 18:44 30.11.2020
5145 Clear 13 1019 67 10000 1.5 0 18:21 30.11.2020
5146 Clear 14 1019 67 10000 1.5 0 17:43 30.11.2020
5147 Clear 14 1019 67 10000 1.5 0 17:43 30.11.2020
5148 Clear 16 1018 63 10000 1 0 16:44 30.11.2020
5149 Clear 16 1018 59 10000 2.6 330 14:47 30.11.2020
5150 Clear 17 1019 48 10000 2.6 340 13:55 30.11.2020
5151 Clear 15 1019 62 10000 1.5 0 12:57 30.11.2020
5152 Clear 15 1019 62 10000 1.5 0 12:25 30.11.2020
5153 Clear 11 1019 81 10000 2.6 10 10:32 30.11.2020
5154 Clear 9 1019 100 10000 2.72 13 09:53 30.11.2020
5155 Clear 8 1017 93 10000 2.1 50 07:59 30.11.2020
5156 Clouds 10 1014 81 10000 3.6 60 01:23 30.11.2020
5157 Clear 10 1013 81 10000 4.1 80 23:25 29.11.2020
5158 Clear 10 1013 81 10000 4.1 80 23:25 29.11.2020
5159 Clear 11 1012 81 10000 3.1 50 21:44 29.11.2020
5160 Clear 12 1012 81 10000 3.1 50 21:25 29.11.2020
5161 Clear 13 1010 76 10000 1 0 18:46 29.11.2020
5162 Clouds 14 1010 67 10000 4.1 10 17:31 29.11.2020
5163 Clouds 14 1010 72 10000 1 0 13:37 29.11.2020
5164 Drizzle 13 1010 87 10000 2.13 358 12:44 29.11.2020
5165 Rain 12 1011 81 10000 1.5 0 11:25 29.11.2020
5166 Clouds 9 1010 100 10000 3.33 10 08:53 29.11.2020
5167 Rain 10 1010 100 10000 3.33 10 08:34 29.11.2020
5168 Rain 12 1009 71 10000 3.6 80 02:31 29.11.2020
5169 Rain 13 1010 51 10000 5.1 70 22:59 28.11.2020
5170 Rain 14 1010 48 10000 5.1 80 22:18 28.11.2020
5171 Clouds 14 1010 54 10000 4.1 80 19:56 28.11.2020
5172 Clouds 14 1010 54 10000 4.6 80 19:27 28.11.2020
5173 Clouds 14 1010 54 10000 3.1 70 18:55 28.11.2020
5174 Clear 14 1011 76 10000 1 0 17:57 28.11.2020
5175 Clear 15 1011 67 10000 3.1 30 16:56 28.11.2020
5176 Clouds 16 1013 67 10000 3.1 30 14:58 28.11.2020
5177 Clouds 16 1013 72 10000 3.1 20 13:47 28.11.2020
5178 Clouds 14 1015 93 10000 2.6 10 11:25 28.11.2020
5179 Rain 11 1016 100 9000 2.6 360 08:47 28.11.2020
5180 Clear 11 1018 76 10000 1 0 03:38 28.11.2020
5181 Clear 12 1018 81 10000 0.5 0 01:52 28.11.2020
5182 Clear 11 1018 87 10000 0.5 0 01:52 28.11.2020
5183 Clear 11 1018 87 10000 0.5 0 23:19 27.11.2020
5184 Clear 12 1019 81 10000 1 170 22:23 27.11.2020
5185 Clear 13 1019 82 10000 2.6 90 20:39 27.11.2020
5186 Clouds 14 1019 67 10000 2.1 220 19:33 27.11.2020
5187 Clouds 14 1019 62 10000 1.5 220 18:57 27.11.2020
5188 Clouds 17 1019 59 10000 0.5 0 15:50 27.11.2020
5189 Clear 17 1020 59 10000 0.5 0 14:22 27.11.2020
5190 Clear 16 1021 71 10000 2.6 350 12:48 27.11.2020
5191 Clear 15 1022 81 10000 1.5 0 12:20 27.11.2020
5192 Clouds 11 1022 93 10000 3.6 360 10:51 27.11.2020
5193 Clouds 11 1022 93 10000 3.6 360 10:28 27.11.2020
5194 Clouds 9 1018 87 10000 1.34 32 07:39 27.11.2020
5195 Clouds 11 1019 85 10000 0.89 42 22:47 26.11.2020
5196 Clouds 11 1019 84 10000 0.89 32 22:22 26.11.2020
5197 Clear 11 1022 71 10000 2.6 110 21:39 26.11.2020
5198 Clear 11 1022 71 10000 2.6 110 20:39 26.11.2020
5199 Clear 13 1022 71 10000 1 0 18:36 26.11.2020
5200 Clear 16 1022 63 10000 2.6 350 16:38 26.11.2020
5201 Clear 16 1023 62 10000 1.5 0 13:44 26.11.2020
5202 Clear 14 1023 76 10000 2.1 350 12:52 26.11.2020
5203 Clear 14 1023 76 10000 2.1 350 12:29 26.11.2020
5204 Clouds 10 1024 100 7000 2.6 10 10:39 26.11.2020
5205 Clouds 8 1024 100 4000 2.1 10 10:18 26.11.2020
5206 Clouds 8 1024 100 4000 2.1 10 09:34 26.11.2020
5207 Fog 5 1024 100 1500 1.5 0 08:44 26.11.2020
5208 Clear 6 1023 93 10000 1.5 50 07:49 26.11.2020
5209 Clear 8 1023 93 10000 2.1 10 02:18 26.11.2020
5210 Clouds 10 1022 81 7000 1.5 140 21:54 25.11.2020
5211 Clouds 11 1022 87 6000 1.5 150 20:31 25.11.2020
5212 Clear 12 1022 81 10000 1 200 18:59 25.11.2020
5213 Clear 14 1022 67 10000 1 0 17:27 25.11.2020
5214 Clouds 16 1022 67 10000 2.1 20 15:43 25.11.2020
5215 Clear 16 1022 63 10000 1.5 0 14:46 25.11.2020
5216 Clouds 16 1022 62 10000 2.6 350 13:45 25.11.2020
5217 Clouds 15 1023 67 10000 2.6 350 12:30 25.11.2020
5218 Clouds 13 1024 81 10000 2.6 360 11:21 25.11.2020
5219 Clouds 8 1023 93 10000 1.5 0 09:20 25.11.2020
5220 Clouds 6 1023 100 10000 1.5 0 08:49 25.11.2020
5221 Clouds 7 1022 93 10000 1 50 06:59 25.11.2020
5222 Clear 8 1022 93 8000 1 0 03:49 25.11.2020
5223 Clouds 8 1022 93 8000 0.5 0 01:34 25.11.2020
5224 Clouds 9 1022 93 6000 0.5 0 23:59 24.11.2020
5225 Mist 9 1022 93 5000 1 0 23:34 24.11.2020
5226 Clouds 10 1022 81 6000 2.1 120 22:38 24.11.2020
5227 Clouds 10 1022 87 6000 1 90 21:34 24.11.2020
5228 Clouds 11 1022 81 6000 1 170 20:55 24.11.2020
5229 Clouds 11 1022 81 7000 1 170 19:47 24.11.2020
5230 Clear 14 1022 76 10000 0.95 353 17:32 24.11.2020
5231 Clear 15 1022 67 10000 1.5 0 16:57 24.11.2020
5232 Clear 15 1022 67 10000 1.5 0 16:37 24.11.2020
5233 Clear 15 1022 63 10000 0.5 0 15:55 24.11.2020
5234 Clear 15 1023 62 10000 1.5 0 15:19 24.11.2020
5235 Clear 15 1023 62 10000 1.5 0 14:44 24.11.2020
5236 Clear 14 1023 67 10000 2.1 360 13:34 24.11.2020
5237 Clear 14 1024 66 10000 2.1 10 12:38 24.11.2020
5238 Clear 12 1024 81 10000 2.6 10 11:59 24.11.2020
5239 Clear 11 1024 81 10000 2.6 10 11:23 24.11.2020
5240 Clear 10 1024 87 10000 1.5 0 10:25 24.11.2020
5241 Clear 7 1024 100 10000 1 0 09:38 24.11.2020
5242 Clear 6 1024 100 10000 1 0 08:57 24.11.2020
5243 Clear 7 1023 87 10000 2.6 60 04:51 24.11.2020
5244 Clear 9 1024 81 10000 1 70 00:41 24.11.2020
5245 Clear 10 1024 81 10000 1 0 21:56 23.11.2020
5246 Clear 11 1024 66 10000 1 0 21:25 23.11.2020
5247 Clear 11 1024 71 10000 1.5 90 20:29 23.11.2020
5248 Clear 12 1024 66 10000 2.1 80 19:53 23.11.2020
5249 Clear 14 1025 67 10000 1 0 17:29 23.11.2020
5250 Clear 15 1025 59 10000 1.5 0 16:56 23.11.2020
5251 Clear 16 1025 58 10000 2.1 40 14:50 23.11.2020
5252 Clear 16 1026 54 10000 2.1 350 13:56 23.11.2020
5253 Clear 14 1026 62 10000 2.1 350 12:40 23.11.2020
5254 Clear 13 1027 71 10000 2.1 350 11:59 23.11.2020
5255 Clear 12 1027 71 10000 2.1 350 11:40 23.11.2020
5256 Clear 8 1027 81 10000 2.26 14 09:59 23.11.2020
5257 Clear 5 1027 93 10000 1 0 08:58 23.11.2020
5258 Clear 6 1026 80 10000 2.6 50 07:58 23.11.2020
5259 Clear 6 1027 75 10000 3.6 60 03:32 23.11.2020
5260 Clear 7 1027 70 10000 2.6 60 23:51 22.11.2020
5261 Clear 8 1027 65 10000 3.1 50 22:32 22.11.2020
5262 Clear 9 1027 56 10000 3.6 30 21:25 22.11.2020
5263 Clear 9 1027 53 10000 3.1 60 20:27 22.11.2020
5264 Clear 10 1026 50 10000 3.1 40 19:29 22.11.2020
5265 Clear 12 1026 47 10000 0.5 0 18:23 22.11.2020
5266 Clear 14 1026 33 10000 2.1 10 16:29 22.11.2020
5267 Clear 15 1026 33 10000 2.6 30 15:27 22.11.2020
5268 Clear 14 1026 33 10000 3.1 350 13:32 22.11.2020
5269 Clear 14 1027 35 10000 2.6 60 12:43 22.11.2020
5270 Clear 12 1027 40 10000 1.5 0 11:54 22.11.2020
5271 Clear 11 1026 39 10000 2.1 90 10:51 22.11.2020
5272 Clear 10 1026 39 10000 2.1 90 10:33 22.11.2020
5273 Clear 10 1026 39 10000 2.1 90 10:33 22.11.2020
5274 Clear 6 1023 48 10000 4.1 20 04:43 22.11.2020
5275 Clear 7 1023 48 10000 3.6 20 01:47 22.11.2020
5276 Clear 9 1023 52 10000 3.6 30 22:42 21.11.2020
5277 Clear 9 1023 49 10000 4.1 30 21:32 21.11.2020
5278 Clear 9 1023 49 10000 4.1 30 21:32 21.11.2020
5279 Clear 9 1023 49 10000 3.6 30 20:53 21.11.2020
5280 Clear 10 1022 45 10000 5.1 50 20:21 21.11.2020
5281 Clear 10 1022 39 10000 5.1 40 19:49 21.11.2020
5282 Clear 11 1021 39 10000 5.1 40 19:18 21.11.2020
5283 Clear 12 1022 37 10000 5.7 20 17:32 21.11.2020
5284 Clear 14 1021 33 10000 5.7 40 16:45 21.11.2020
5285 Clear 14 1021 35 10000 7.7 30 15:42 21.11.2020
5286 Clear 15 1021 41 10000 9.8 10 15:20 21.11.2020
5287 Clear 15 1021 41 10000 9.8 10 14:42 21.11.2020
5288 Clear 15 1021 39 10000 10.3 10 12:59 21.11.2020
5289 Clear 15 1021 39 10000 10.3 10 12:23 21.11.2020
5290 Clear 14 1021 39 10000 10.3 20 11:50 21.11.2020
5291 Clear 13 1021 46 10000 8.7 20 10:28 21.11.2020
5292 Clear 12 1020 46 10000 8.2 20 09:19 21.11.2020
5293 Clear 11 1019 50 10000 8.2 20 08:44 21.11.2020
5294 Clear 12 1015 43 10000 5.1 30 05:42 21.11.2020
5295 Clear 13 1014 43 10000 6.7 30 03:28 21.11.2020
5296 Clear 14 1014 47 10000 5.1 60 00:22 21.11.2020
5297 Clear 14 1013 50 10000 5.7 40 22:59 20.11.2020
5298 Clear 13 1013 62 10000 5.1 60 21:45 20.11.2020
5299 Clear 13 1013 62 10000 5.1 60 21:22 20.11.2020
5300 Clear 13 1012 54 10000 5.7 60 20:41 20.11.2020
5301 Clouds 13 1012 62 10000 4.6 40 19:28 20.11.2020
5302 Clouds 14 1012 58 10000 6.7 30 18:27 20.11.2020
5303 Clouds 14 1012 58 10000 6.7 30 17:31 20.11.2020
5304 Clouds 14 1011 67 10000 8.7 20 16:47 20.11.2020
5305 Clouds 14 1011 82 10000 6.2 20 15:59 20.11.2020
5306 Clouds 14 1011 82 10000 6.2 20 15:39 20.11.2020
5307 Clouds 15 1010 77 10000 4.6 90 13:54 20.11.2020
5308 Mist 14 1011 100 2000 3.1 80 13:19 20.11.2020
5309 Mist 14 1011 87 10000 4.6 80 12:41 20.11.2020
5310 Clouds 14 1011 77 5000 7.2 100 11:50 20.11.2020
5311 Rain 14 1011 77 5000 7.2 100 11:21 20.11.2020
5312 Clouds 14 1011 87 10000 2.6 90 09:47 20.11.2020
5313 Mist 13 1011 93 4000 2.1 70 08:29 20.11.2020
5314 Drizzle 13 1010 82 7000 6.7 160 07:47 20.11.2020
5315 Clouds 13 1014 76 10000 3.6 120 03:45 20.11.2020
5316 Clouds 13 1018 87 10000 2.1 150 23:36 19.11.2020
5317 Clear 12 1019 87 10000 2.1 160 22:29 19.11.2020
5318 Clear 12 1019 87 7000 1.5 160 21:50 19.11.2020
5319 Clear 13 1019 87 10000 1.5 160 20:42 19.11.2020
5320 Clear 13 1019 87 10000 1.5 160 20:42 19.11.2020
5321 Clouds 13 1019 87 7000 1.5 150 20:19 19.11.2020
5322 Clouds 13 1020 87 7000 2.1 160 19:25 19.11.2020
5323 Clear 14 1020 87 10000 1 0 18:35 19.11.2020
5324 Clouds 17 1021 63 10000 1 0 17:18 19.11.2020
5325 Clouds 18 1021 63 10000 1 0 16:25 19.11.2020
5326 Clear 18 1021 60 10000 1 0 15:28 19.11.2020
5327 Clear 18 1023 68 10000 0.5 0 13:47 19.11.2020
5328 Clear 18 1023 68 10000 0.5 0 13:27 19.11.2020
5329 Clear 18 1024 72 10000 1.13 275 12:51 19.11.2020
5330 Clear 17 1024 72 10000 1.08 294 12:25 19.11.2020
5331 Clear 16 1025 82 10000 1.08 294 11:40 19.11.2020
5332 Clear 16 1025 82 10000 1.08 294 11:40 19.11.2020
5333 Clear 14 1025 93 10000 1 0 11:20 19.11.2020
5334 Clear 13 1025 93 10000 1 0 10:29 19.11.2020
5335 Clear 11 1025 100 10000 1 0 09:45 19.11.2020
5336 Clear 11 1025 100 10000 1 0 09:26 19.11.2020
5337 Clear 9 1025 100 8000 1 0 08:20 19.11.2020
5338 Clear 10 1025 93 10000 1.5 50 06:54 19.11.2020
5339 Clear 11 1026 87 10000 1.5 40 01:46 19.11.2020
5340 Clear 12 1026 81 10000 1 170 00:31 19.11.2020
5341 Clear 12 1026 81 10000 1.5 160 23:31 18.11.2020
5342 Clear 12 1026 76 10000 2.1 150 22:57 18.11.2020
5343 Clear 13 1026 82 10000 2.1 150 22:27 18.11.2020
5344 Clear 13 1026 82 10000 1.5 160 21:41 18.11.2020
5345 Clear 14 1026 82 10000 1.5 160 21:21 18.11.2020
5346 Clear 15 1026 82 10000 1 170 19:54 18.11.2020
5347 Clear 15 1026 82 10000 1.5 170 19:35 18.11.2020
5348 Clear 15 1026 77 10000 1.5 180 18:57 18.11.2020
5349 Clear 15 1026 72 10000 2.1 210 18:38 18.11.2020
5350 Clear 16 1026 82 10000 2.1 240 17:38 18.11.2020
5351 Clear 20 1026 52 10000 1.44 335 16:25 18.11.2020
5352 Clear 20 1025 52 10000 1.44 335 15:57 18.11.2020
5353 Clear 20 1026 52 10000 1.36 336 14:41 18.11.2020
5354 Clear 20 1026 56 10000 2.1 80 13:46 18.11.2020
5355 Clear 20 1026 56 10000 2.1 80 13:20 18.11.2020
5356 Clear 19 1026 63 10000 2.6 360 12:42 18.11.2020
5357 Clear 17 1027 63 10000 2.1 20 11:41 18.11.2020
5358 Clear 16 1026 71 10000 2.1 50 10:36 18.11.2020
5359 Clear 14 1026 76 10000 3.1 40 10:18 18.11.2020
5360 Clear 11 1025 81 10000 3.6 60 07:58 18.11.2020
5361 Clear 10 1024 81 10000 3.6 70 06:35 18.11.2020
5362 Clear 12 1024 81 10000 3.1 60 00:58 18.11.2020
5363 Clear 12 1023 81 10000 3.1 60 23:47 17.11.2020
5364 Clear 13 1023 76 10000 3.1 50 22:53 17.11.2020
5365 Clear 13 1023 76 10000 3.1 50 22:29 17.11.2020
5366 Clear 13 1023 76 10000 3.6 50 21:52 17.11.2020
5367 Clear 13 1022 76 10000 3.6 50 21:30 17.11.2020
5368 Clear 14 1022 71 10000 3.6 50 20:50 17.11.2020
5369 Clear 14 1022 71 10000 3.6 50 20:26 17.11.2020
5370 Clear 14 1021 71 10000 3.1 40 19:54 17.11.2020
5371 Clear 16 1020 59 10000 5.7 20 18:30 17.11.2020
5372 Clear 17 1020 59 10000 5.7 20 17:44 17.11.2020
5373 Clear 18 1019 55 10000 4.6 40 16:54 17.11.2020
5374 Clear 19 1018 52 10000 5.7 10 16:20 17.11.2020
5375 Clear 19 1018 52 10000 5.7 10 15:40 17.11.2020
5376 Clear 19 1019 55 10000 6.2 10 15:22 17.11.2020
5377 Clear 19 1019 55 10000 6.2 10 14:54 17.11.2020
5378 Clear 19 1019 55 10000 6.7 360 14:22 17.11.2020
5379 Clear 18 1019 55 10000 6.7 360 13:35 17.11.2020
5380 Clear 18 1019 59 10000 6.2 360 12:48 17.11.2020
5381 Clear 18 1019 59 10000 6.2 360 12:23 17.11.2020
5382 Clear 17 1019 63 10000 6.7 10 11:41 17.11.2020
5383 Clouds 16 1018 72 10000 6.2 360 10:46 17.11.2020
5384 Clouds 15 1018 72 10000 6.2 360 10:23 17.11.2020
5385 Clouds 15 1018 82 10000 4.6 60 09:49 17.11.2020
5386 Clouds 13 1017 93 10000 1.5 0 09:20 17.11.2020
5387 Clear 12 1016 93 10000 4.1 70 08:22 17.11.2020
5388 Clear 11 1016 87 10000 3.6 70 07:43 17.11.2020
5389 Clear 12 1015 87 10000 3.6 60 05:18 17.11.2020
5390 Clear 12 1015 93 10000 3.1 50 03:29 17.11.2020
5391 Clear 13 1014 82 10000 3.6 30 02:29 17.11.2020
5392 Clouds 13 1015 82 10000 3.6 60 00:57 17.11.2020
5393 Clouds 14 1015 77 10000 3.6 90 23:57 16.11.2020
5394 Clouds 14 1015 82 10000 4.6 100 23:37 16.11.2020
5395 Clouds 14 1015 82 10000 4.6 100 23:19 16.11.2020
5396 Rain 15 1016 87 10000 5.1 50 22:26 16.11.2020
5397 Rain 15 1016 87 10000 5.1 50 22:26 16.11.2020
5398 Rain 16 1015 88 10000 2.1 270 21:58 16.11.2020
5399 Clouds 16 1014 93 10000 3.6 170 21:39 16.11.2020
5400 Clouds 16 1014 93 10000 3.6 170 21:20 16.11.2020
5401 Clouds 16 1014 88 10000 3.1 180 20:26 16.11.2020
5402 Clouds 16 1015 88 10000 3.6 190 19:55 16.11.2020
5403 Clouds 16 1015 93 10000 3.1 190 19:30 16.11.2020
5404 Clouds 17 1015 93 10000 2.6 190 18:52 16.11.2020
5405 Clouds 17 1015 100 8000 1 0 18:21 16.11.2020
5406 Clouds 17 1015 100 8000 1 0 17:36 16.11.2020
5407 Clouds 17 1015 93 4000 1 0 17:18 16.11.2020
5408 Clouds 17 1015 93 4000 1 0 16:49 16.11.2020
5409 Clouds 17 1015 93 4000 1 0 16:26 16.11.2020
5410 Rain 17 1015 93 3000 3.1 250 15:45 16.11.2020
5411 Clouds 17 1015 93 3000 3.1 250 15:27 16.11.2020
5412 Clouds 17 1016 88 5000 3.1 170 14:48 16.11.2020
5413 Rain 17 1017 93 7000 2.1 140 13:46 16.11.2020
5414 Clouds 17 1017 77 9000 0.5 0 12:59 16.11.2020
5415 Rain 17 1017 77 9000 0.5 0 12:29 16.11.2020
5416 Clouds 17 1018 93 9000 1.5 0 11:40 16.11.2020
5417 Clouds 17 1018 88 7000 1 0 11:21 16.11.2020
5418 Clouds 17 1018 88 7000 1 0 10:44 16.11.2020
5419 Clouds 17 1018 88 7000 1 0 10:25 16.11.2020
5420 Rain 17 1018 93 9000 4.53 143 09:49 16.11.2020
5421 Rain 17 1018 93 9000 3.91 138 09:23 16.11.2020
5422 Clouds 17 1018 87 9000 2.6 130 08:41 16.11.2020
5423 Clouds 16 1018 82 10000 4.6 170 07:48 16.11.2020
5424 Rain 16 1018 77 10000 5.1 170 06:53 16.11.2020
5425 Clouds 16 1018 82 10000 4.1 170 06:29 16.11.2020
5426 Clear 17 1018 82 10000 5.1 160 04:48 16.11.2020
5427 Clear 16 1019 82 10000 5.1 160 03:45 16.11.2020
5428 Clear 16 1020 82 10000 4.1 170 01:44 16.11.2020
5429 Clouds 16 1021 82 10000 2.6 190 23:58 15.11.2020
5430 Clouds 16 1021 82 10000 2.6 150 23:28 15.11.2020
5431 Clouds 16 1021 77 10000 2.1 160 22:51 15.11.2020
5432 Clouds 15 1021 82 10000 2.1 160 22:22 15.11.2020
5433 Clouds 15 1021 82 10000 1.5 180 21:47 15.11.2020
5434 Clouds 15 1021 82 10000 1.5 180 21:27 15.11.2020
5435 Clear 16 1021 82 10000 3.1 160 20:48 15.11.2020
5436 Clear 16 1021 87 10000 3.1 160 20:28 15.11.2020
5437 Clear 16 1021 87 10000 2.6 170 19:49 15.11.2020
5438 Clear 16 1021 87 10000 2.6 170 19:24 15.11.2020
5439 Clear 17 1021 82 10000 2.6 170 18:59 15.11.2020
5440 Clear 17 1021 82 10000 2.6 170 18:41 15.11.2020
5441 Clouds 17 1021 82 10000 1 0 18:21 15.11.2020
5442 Clouds 17 1021 82 10000 1 0 17:46 15.11.2020
5443 Clouds 18 1021 82 10000 1 0 17:25 15.11.2020
5444 Clouds 18 1021 77 10000 3.6 180 16:51 15.11.2020
5445 Clouds 19 1021 72 10000 2.6 180 16:21 15.11.2020
5446 Clouds 19 1021 72 10000 2.6 180 15:56 15.11.2020
5447 Clouds 19 1021 72 10000 2.6 180 15:37 15.11.2020
5448 Clouds 19 1021 72 10000 1.5 0 15:19 15.11.2020
5449 Clouds 20 1021 72 10000 1.5 0 14:36 15.11.2020
5450 Clouds 20 1022 68 10000 1 0 14:18 15.11.2020
5451 Clouds 20 1022 68 10000 1 0 13:39 15.11.2020
5452 Clouds 19 1022 77 10000 1.5 0 12:52 15.11.2020
5453 Clouds 19 1022 77 10000 1.5 0 12:26 15.11.2020
5454 Clouds 18 1023 87 10000 3.1 350 11:55 15.11.2020
5455 Clouds 17 1023 87 10000 3.1 350 11:37 15.11.2020
5456 Clouds 17 1023 93 10000 2.1 360 11:18 15.11.2020
5457 Clouds 16 1023 93 10000 2.1 360 10:43 15.11.2020
5458 Clouds 15 1023 93 10000 2.1 360 10:24 15.11.2020
5459 Clouds 13 1023 100 9000 1.5 0 09:41 15.11.2020
5460 Clouds 13 1023 100 9000 1.5 0 09:20 15.11.2020
5461 Clouds 12 1023 100 9000 2.1 10 08:53 15.11.2020
5462 Clouds 12 1023 100 9000 2.1 10 08:28 15.11.2020
5463 Clouds 13 1022 93 10000 1 0 07:43 15.11.2020
5464 Clear 12 1022 93 10000 1.5 10 04:59 15.11.2020
5465 Clear 13 1022 93 10000 1 0 03:40 15.11.2020
5466 Clear 13 1023 87 10000 1 0 00:49 15.11.2020
5467 Clear 13 1023 87 10000 1.5 20 00:27 15.11.2020
5468 Clear 14 1023 82 10000 3.6 130 23:37 14.11.2020
5469 Clear 14 1023 82 10000 3.6 130 22:50 14.11.2020
5470 Clear 14 1023 82 10000 3.1 130 22:30 14.11.2020
5471 Clear 14 1023 87 10000 1.5 110 21:43 14.11.2020
5472 Clear 14 1023 87 10000 1.5 110 21:22 14.11.2020
5473 Clear 15 1023 87 10000 2.1 80 20:56 14.11.2020
5474 Clear 15 1023 87 10000 0.5 0 20:28 14.11.2020
5475 Clear 15 1023 82 10000 1 0 19:51 14.11.2020
5476 Clear 15 1023 82 10000 3.1 140 19:31 14.11.2020
5477 Clear 15 1022 82 10000 1.5 110 18:43 14.11.2020
5478 Clouds 16 1023 82 10000 2.1 110 18:24 14.11.2020
5479 Clouds 16 1023 82 10000 2.1 110 17:51 14.11.2020
5480 Clouds 16 1023 82 10000 2.1 110 17:33 14.11.2020
5481 Clouds 17 1023 82 10000 3.1 100 16:57 14.11.2020
5482 Clouds 17 1023 82 10000 3.1 100 16:36 14.11.2020
5483 Clouds 17 1022 72 10000 0.5 0 16:18 14.11.2020
5484 Clouds 17 1022 72 10000 0.5 0 15:51 14.11.2020
5485 Clouds 18 1023 82 10000 1.5 0 15:25 14.11.2020
5486 Clouds 18 1023 82 10000 1.5 0 14:41 14.11.2020
5487 Clouds 18 1023 82 10000 1.5 0 14:23 14.11.2020
5488 Clouds 18 1023 82 10000 2.6 120 13:41 14.11.2020
5489 Clouds 17 1023 82 10000 2.6 120 13:22 14.11.2020
5490 Clouds 17 1024 82 10000 3.6 110 12:46 14.11.2020
5491 Clouds 17 1024 82 10000 3.6 110 12:27 14.11.2020
5492 Clouds 16 1024 93 10000 1.5 0 11:43 14.11.2020
5493 Clouds 16 1024 93 10000 1.5 0 11:24 14.11.2020
5494 Clouds 16 1024 93 8000 1.5 0 10:43 14.11.2020
5495 Clouds 16 1024 93 8000 1.5 0 10:25 14.11.2020
5496 Clouds 15 1024 93 6000 3.1 20 09:47 14.11.2020
5497 Clouds 15 1024 93 6000 3.1 20 09:28 14.11.2020
5498 Clouds 14 1024 100 6000 2.1 360 08:49 14.11.2020
5499 Clouds 14 1024 100 6000 2.1 360 08:27 14.11.2020
5500 Clouds 14 1023 93 9000 1 0 07:44 14.11.2020
5501 Clouds 14 1023 93 9000 1 0 07:25 14.11.2020
5502 Rain 14 1023 93 7000 2.6 100 06:31 14.11.2020
5503 Rain 13 1023 100 4000 3.6 330 05:29 14.11.2020
5504 Rain 14 1024 82 8000 0.5 0 03:52 14.11.2020
5505 Clear 14 1025 87 10000 1.5 60 00:54 14.11.2020
5506 Clear 14 1025 82 10000 1 0 23:46 13.11.2020
5507 Clear 15 1025 82 10000 1 0 23:23 13.11.2020
5508 Clouds 15 1025 87 10000 1.5 50 22:44 13.11.2020
5509 Clouds 15 1025 87 10000 1.5 50 22:25 13.11.2020
5510 Clouds 16 1024 82 10000 1.5 30 21:51 13.11.2020
5511 Clouds 16 1024 82 10000 2.6 140 21:33 13.11.2020
5512 Clouds 16 1024 82 10000 1 0 20:59 13.11.2020
5513 Clouds 16 1024 82 10000 2.6 150 20:40 13.11.2020
5514 Clouds 16 1024 82 10000 2.6 150 20:20 13.11.2020
5515 Clouds 16 1024 77 10000 2.6 180 19:45 13.11.2020
5516 Clouds 17 1024 77 10000 2.6 180 19:23 13.11.2020
5517 Clouds 17 1024 82 10000 3.1 170 18:53 13.11.2020
5518 Clouds 17 1024 82 10000 2.6 230 18:00 13.11.2020
5519 Clouds 17 1024 82 10000 2.6 230 17:39 13.11.2020
5520 Clear 18 1023 77 10000 0.3 139 17:18 13.11.2020
5521 Clear 18 1023 77 10000 0.3 139 16:47 13.11.2020
5522 Clear 19 1023 77 10000 0.41 176 16:21 13.11.2020
5523 Clouds 20 1023 68 10000 1 0 15:42 13.11.2020
5524 Clouds 20 1023 68 10000 1 0 15:23 13.11.2020
5525 Clouds 20 1024 72 10000 0.57 176 14:41 13.11.2020
5526 Clouds 20 1024 72 10000 0.73 177 14:20 13.11.2020
5527 Clouds 20 1024 60 10000 1.5 0 13:45 13.11.2020
5528 Clouds 19 1024 60 10000 1.5 0 13:21 13.11.2020
5529 Clouds 20 1024 68 10000 1.5 320 12:45 13.11.2020
5530 Clouds 18 1025 100 10000 2.1 350 12:24 13.11.2020
5531 Clouds 17 1025 100 10000 2.1 350 11:48 13.11.2020
5532 Clouds 17 1025 100 10000 2.1 350 11:25 13.11.2020
5533 Mist 15 1026 100 2000 1 0 10:55 13.11.2020
5534 Mist 14 1026 100 2000 1 0 10:34 13.11.2020
5535 Fog 13 1026 100 800 2.1 20 09:56 13.11.2020
5536 Fog 12 1026 100 800 2.1 20 09:34 13.11.2020
5537 Fog 11 1025 100 100 1 0 08:59 13.11.2020
5538 Fog 11 1025 100 100 1 0 08:34 13.11.2020
5539 Clouds 11 1024 93 9000 2.1 60 07:57 13.11.2020
5540 Clouds 11 1024 93 9000 2.6 30 07:38 13.11.2020
5541 Clouds 10 1024 93 9000 1 30 07:20 13.11.2020
5542 Clouds 10 1024 93 9000 1.5 50 06:45 13.11.2020
5543 Clouds 11 1024 93 8000 1.5 60 05:42 13.11.2020
5544 Clouds 11 1024 93 10000 1.5 20 04:57 13.11.2020
5545 Clouds 12 1025 93 10000 1 0 01:45 13.11.2020
5546 Clouds 13 1025 82 10000 1 150 00:37 13.11.2020
5547 Clouds 13 1024 82 10000 1.5 160 00:18 13.11.2020
5548 Clouds 13 1025 87 10000 1 0 23:37 12.11.2020
5549 Clear 14 1025 82 10000 1 0 23:18 12.11.2020
5550 Clear 14 1025 82 10000 1 160 22:42 12.11.2020
5551 Clear 14 1025 82 10000 1 160 22:22 12.11.2020
5552 Clear 14 1024 87 10000 0.5 0 21:42 12.11.2020
5553 Clear 14 1024 87 10000 0.5 0 21:24 12.11.2020
5554 Clear 15 1024 87 10000 2.1 110 20:57 12.11.2020
5555 Clouds 15 1024 87 10000 1 160 20:38 12.11.2020
5556 Clouds 16 1024 87 10000 1 0 20:18 12.11.2020
5557 Clear 16 1024 87 10000 1.5 220 19:43 12.11.2020
5558 Clear 16 1024 87 10000 1.5 220 19:24 12.11.2020
5559 Clear 16 1024 82 10000 2.6 200 18:48 12.11.2020
5560 Clouds 17 1024 82 10000 2.6 220 18:23 12.11.2020
5561 Clouds 17 1024 82 10000 2.6 210 17:45 12.11.2020
5562 Clouds 17 1024 82 10000 2.6 210 17:26 12.11.2020
5563 Clouds 18 1024 72 10000 1.7 242 16:46 12.11.2020
5564 Clouds 19 1024 72 10000 1.72 226 16:25 12.11.2020
5565 Clouds 19 1024 64 10000 1.72 226 15:56 12.11.2020
5566 Clouds 20 1024 64 10000 1.63 224 15:32 12.11.2020
5567 Clouds 20 1024 64 10000 1.5 0 14:59 12.11.2020
5568 Clouds 20 1024 64 10000 1.5 0 14:41 12.11.2020
5569 Clouds 20 1024 64 10000 1.5 0 14:21 12.11.2020
5570 Clouds 20 1024 60 10000 0.5 0 13:46 12.11.2020
5571 Clouds 19 1025 72 10000 0.89 239 13:21 12.11.2020
5572 Clouds 19 1025 72 10000 0.89 239 12:50 12.11.2020
5573 Clouds 19 1025 72 10000 0.62 206 12:28 12.11.2020
5574 Clouds 18 1025 82 6000 1.5 0 11:59 12.11.2020
5575 Clouds 17 1025 82 6000 1.5 0 11:40 12.11.2020
5576 Mist 16 1025 100 5000 1.5 0 11:22 12.11.2020
5577 Mist 15 1025 100 5000 1.5 0 10:41 12.11.2020
5578 Mist 15 1025 100 5000 1.5 0 10:22 12.11.2020
5579 Mist 12 1025 100 2000 1.5 0 09:40 12.11.2020
5580 Mist 13 1025 100 2000 1.5 0 09:20 12.11.2020
5581 Fog 11 1025 100 50 1 0 08:41 12.11.2020
5582 Clouds 11 1024 93 9000 1 0 08:21 12.11.2020
5583 Clouds 11 1024 93 9000 1 0 08:21 12.11.2020
5584 Clouds 11 1024 93 9000 1 0 07:59 12.11.2020
5585 Clouds 10 1024 93 10000 1.5 30 07:40 12.11.2020
5586 Clear 11 1024 87 10000 1 0 06:58 12.11.2020
5587 Clear 11 1024 87 10000 1.5 90 06:40 12.11.2020
5588 Clear 11 1024 93 10000 1 0 04:39 12.11.2020
5589 Clear 12 1024 93 10000 1 0 03:20 12.11.2020
5590 Clear 12 1025 87 10000 1.5 150 00:54 12.11.2020
5591 Clouds 13 1025 87 10000 1 160 23:47 11.11.2020
5592 Clouds 13 1024 87 10000 1 190 23:25 11.11.2020
5593 Clouds 14 1024 82 10000 0.5 0 22:57 11.11.2020
5594 Clouds 14 1024 87 10000 0.5 0 22:38 11.11.2020
5595 Clouds 14 1024 87 10000 0.5 0 22:18 11.11.2020
5596 Clouds 14 1024 87 10000 0.59 2 21:41 11.11.2020
5597 Clouds 14 1024 87 10000 0.49 22 21:23 11.11.2020
5598 Clouds 14 1024 87 10000 0.5 0 20:55 11.11.2020
5599 Clear 15 1024 82 10000 2.1 120 20:37 11.11.2020
5600 Clear 15 1024 87 10000 1.5 130 20:19 11.11.2020
5601 Clear 15 1024 87 10000 1.5 130 19:48 11.11.2020
5602 Clear 16 1024 82 10000 1 190 19:30 11.11.2020
5603 Clear 16 1024 82 10000 1 190 19:30 11.11.2020
5604 Clouds 16 1024 82 10000 1 200 18:48 11.11.2020
5605 Clear 16 1023 72 10000 2.6 270 18:28 11.11.2020
5606 Clear 17 1023 72 10000 2.6 270 17:41 11.11.2020
5607 Clear 17 1023 72 10000 2.6 270 17:22 11.11.2020
5608 Clear 18 1023 64 10000 1.5 0 16:49 11.11.2020
5609 Clear 19 1023 64 10000 1.5 0 16:31 11.11.2020
5610 Clouds 19 1023 64 10000 1 0 15:48 11.11.2020
5611 Clouds 20 1023 64 10000 1 0 15:26 11.11.2020
5612 Clear 20 1023 63 10000 1.5 0 14:55 11.11.2020
5613 Clear 19 1023 63 10000 1.5 0 14:35 11.11.2020
5614 Clear 19 1024 63 10000 1 0 13:57 11.11.2020
5615 Clear 19 1024 63 10000 1 0 13:33 11.11.2020
5616 Clear 19 1024 67 10000 0.5 0 12:44 11.11.2020
5617 Clear 19 1024 67 10000 0.5 0 12:20 11.11.2020
5618 Clear 18 1025 77 10000 1 0 11:49 11.11.2020
5619 Clear 17 1025 77 10000 1 0 11:30 11.11.2020
5620 Clear 14 1025 100 10000 1.5 0 10:42 11.11.2020
5621 Clear 14 1025 100 10000 1.5 0 10:24 11.11.2020
5622 Clear 11 1025 100 4000 1.5 0 09:48 11.11.2020
5623 Clear 10 1025 100 4000 1.5 0 09:28 11.11.2020
5624 Fog 8 1025 100 150 1.5 0 08:46 11.11.2020
5625 Fog 8 1025 100 150 1.5 0 08:28 11.11.2020
5626 Clear 10 1024 87 10000 0.5 0 07:52 11.11.2020
5627 Clear 10 1023 93 10000 1 0 07:32 11.11.2020
5628 Clear 10 1023 93 10000 2.1 70 06:28 11.11.2020
5629 Clear 10 1023 87 10000 1.5 40 04:32 11.11.2020
5630 Clear 11 1024 87 10000 0.5 0 01:32 11.11.2020
5631 Clear 12 1024 87 10000 1 190 00:36 11.11.2020
5632 Clear 12 1024 87 10000 2.1 140 23:55 10.11.2020
5633 Clear 12 1024 87 10000 1.5 160 23:24 10.11.2020
5634 Clear 13 1024 87 10000 2.1 160 22:57 10.11.2020
5635 Clear 13 1024 87 10000 2.1 160 22:28 10.11.2020
5636 Clear 14 1023 82 10000 1.5 170 21:56 10.11.2020
5637 Clear 14 1023 82 10000 2.1 170 21:38 10.11.2020
5638 Clear 14 1023 82 10000 1.5 170 21:18 10.11.2020
5639 Clear 14 1023 87 10000 2.1 160 20:42 10.11.2020
5640 Clear 15 1023 87 10000 2.1 160 20:23 10.11.2020
5641 Clear 15 1023 87 10000 1.5 170 19:53 10.11.2020
5642 Clear 15 1023 87 10000 1.5 170 19:35 10.11.2020
5643 Clear 15 1023 87 10000 1 0 18:59 10.11.2020
5644 Clear 16 1023 82 10000 1.5 200 18:41 10.11.2020
5645 Clear 16 1023 82 10000 1.5 200 18:20 10.11.2020
5646 Clear 17 1023 72 10000 2.6 260 17:44 10.11.2020
5647 Clear 18 1023 72 10000 2.6 260 17:26 10.11.2020
5648 Clear 18 1022 77 10000 2.6 260 16:57 10.11.2020
5649 Clear 20 1022 49 10000 1.9 262 16:38 10.11.2020
5650 Clear 20 1022 49 10000 1.82 256 16:19 10.11.2020
5651 Clear 21 1022 52 10000 1 0 15:45 10.11.2020
5652 Clear 21 1022 52 10000 1 0 15:24 10.11.2020
5653 Clear 21 1022 56 10000 1.2 256 14:42 10.11.2020
5654 Clear 20 1022 56 10000 0.61 278 14:22 10.11.2020
5655 Clear 21 1023 56 10000 1 0 13:57 10.11.2020
5656 Clear 20 1023 59 10000 1.5 310 13:36 10.11.2020
5657 Clear 20 1024 63 10000 1 0 13:18 10.11.2020
5658 Clear 19 1024 63 10000 1 0 12:44 10.11.2020
5659 Clear 19 1024 63 10000 1 0 12:44 10.11.2020
5660 Clear 19 1024 63 10000 1 0 12:24 10.11.2020
5661 Clear 16 1024 77 10000 1.5 0 11:39 10.11.2020
5662 Clear 15 1024 87 10000 2.1 10 11:20 10.11.2020
5663 Clear 13 1024 87 10000 2.1 10 10:45 10.11.2020
5664 Clear 13 1024 87 10000 2.1 10 10:27 10.11.2020
5665 Clear 13 1024 87 10000 2.1 10 10:27 10.11.2020
5666 Clear 11 1024 100 10000 1.5 0 09:51 10.11.2020
5667 Clear 11 1024 100 10000 1.5 0 09:51 10.11.2020
5668 Clear 10 1024 100 10000 1.5 0 09:29 10.11.2020
5669 Clouds 9 1024 100 5000 1.6 18 08:59 10.11.2020
5670 Clouds 8 1024 100 5000 1.6 18 08:40 10.11.2020
5671 Clear 10 1023 87 10000 1.5 60 08:22 10.11.2020
5672 Clear 10 1023 87 10000 1.5 70 07:39 10.11.2020
5673 Clear 10 1023 87 10000 2.1 70 07:19 10.11.2020
5674 Clear 9 1023 87 10000 1.5 50 06:38 10.11.2020
5675 Clear 10 1022 93 10000 1.5 40 05:33 10.11.2020
5676 Clear 10 1023 93 10000 1.5 50 03:36 10.11.2020
5677 Clear 11 1023 93 10000 1 40 01:41 10.11.2020
5678 Clear 12 1023 93 10000 1 30 00:55 10.11.2020
5679 Clear 12 1023 93 10000 0.5 0 23:47 09.11.2020
5680 Clear 13 1023 87 8000 1 150 23:23 09.11.2020
5681 Clear 13 1023 82 10000 1 160 22:42 09.11.2020
5682 Clear 13 1023 82 10000 1 160 22:22 09.11.2020
5683 Clear 14 1023 82 10000 1 150 21:45 09.11.2020
5684 Clear 14 1023 82 10000 1 150 21:27 09.11.2020
5685 Clear 14 1023 82 10000 1.5 170 20:44 09.11.2020
5686 Clear 14 1023 82 10000 1.5 170 20:22 09.11.2020
5687 Clear 15 1023 87 10000 2.1 170 19:49 09.11.2020
5688 Clear 16 1023 82 10000 1 190 19:24 09.11.2020
5689 Clear 16 1023 82 10000 1 190 18:59 09.11.2020
5690 Clear 16 1023 77 10000 1 210 18:40 09.11.2020
5691 Clear 17 1022 72 10000 1.5 0 18:19 09.11.2020
5692 Clear 17 1022 72 10000 1.5 0 17:44 09.11.2020
5693 Clear 18 1022 72 10000 1.5 0 17:26 09.11.2020
5694 Clear 19 1022 52 10000 1 0 16:44 09.11.2020
5695 Clear 20 1022 52 10000 1 0 16:24 09.11.2020
5696 Clear 21 1022 49 10000 1.3 255 15:47 09.11.2020
5697 Clear 21 1022 49 10000 0.81 260 15:29 09.11.2020
5698 Clear 21 1023 56 10000 1 0 14:51 09.11.2020
5699 Clear 21 1023 56 10000 1 0 14:29 09.11.2020
5700 Clear 20 1023 55 10000 0.64 316 13:59 09.11.2020
5701 Clear 20 1023 55 10000 0.64 316 13:38 09.11.2020
5702 Clear 19 1024 59 10000 1 0 13:18 09.11.2020
5703 Clear 19 1024 59 10000 1 0 12:41 09.11.2020
5704 Clear 19 1024 59 10000 1 0 12:21 09.11.2020
5705 Clear 16 1024 77 10000 1.5 0 11:43 09.11.2020
5706 Clear 16 1024 77 10000 1.5 0 11:24 09.11.2020
5707 Clear 14 1024 93 10000 1.5 0 10:58 09.11.2020
5708 Clear 13 1024 93 10000 1.5 0 10:39 09.11.2020
5709 Clear 11 1024 100 10000 1 0 10:21 09.11.2020
5710 Clear 12 1024 100 10000 1 0 09:30 09.11.2020
5711 Fog 8 1024 100 3000 2 17 08:54 09.11.2020
5712 Fog 9 1024 100 3000 2.27 15 08:28 09.11.2020
5713 Clear 10 1023 87 10000 1.5 90 07:55 09.11.2020
5714 Clear 9 1023 93 10000 0.5 40 07:23 09.11.2020
5715 Clear 9 1023 93 10000 1 40 06:52 09.11.2020
5716 Clear 10 1023 93 8000 2.1 60 04:55 09.11.2020
5717 Clear 12 1023 93 9000 2.6 90 01:58 09.11.2020
5718 Clear 12 1024 87 9000 1 0 01:40 09.11.2020
5719 Clear 12 1024 87 9000 1.5 100 00:55 09.11.2020
5720 Clear 12 1024 93 10000 1.5 100 23:46 08.11.2020
5721 Clear 13 1024 87 10000 2.1 70 23:24 08.11.2020
5722 Clear 13 1024 93 10000 0.5 0 22:43 08.11.2020
5723 Clear 14 1024 93 10000 0.5 0 22:21 08.11.2020
5724 Clear 14 1024 93 10000 0.5 0 21:47 08.11.2020
5725 Clear 14 1024 87 10000 1.5 90 21:22 08.11.2020
5726 Clear 15 1024 87 10000 1.5 70 20:57 08.11.2020
5727 Clear 15 1024 93 10000 0.5 150 20:38 08.11.2020
5728 Clear 15 1024 93 10000 0.5 150 20:20 08.11.2020
5729 Clear 15 1024 87 10000 1 0 19:45 08.11.2020
5730 Clear 15 1024 87 10000 1 0 19:22 08.11.2020
5731 Clear 16 1024 87 10000 1 160 18:56 08.11.2020
5732 Clear 16 1024 93 10000 0.5 0 18:38 08.11.2020
5733 Clear 17 1024 82 10000 2.1 270 18:20 08.11.2020
5734 Clear 18 1024 82 10000 2.1 270 17:42 08.11.2020
5735 Clear 19 1024 52 10000 2.1 340 17:20 08.11.2020
5736 Clear 19 1024 52 10000 2.1 340 16:57 08.11.2020
5737 Clear 19 1024 52 10000 2.1 340 16:57 08.11.2020
5738 Clear 20 1024 52 10000 2.1 340 16:38 08.11.2020
5739 Clear 20 1024 52 10000 2.1 360 16:19 08.11.2020
5740 Clear 20 1024 52 10000 2.1 360 15:45 08.11.2020
5741 Clear 21 1024 52 10000 2.1 360 15:26 08.11.2020
5742 Clear 21 1025 56 10000 1.5 0 14:43 08.11.2020
5743 Clear 21 1025 56 10000 1.5 0 14:23 08.11.2020
5744 Clear 20 1026 68 10000 1 0 13:56 08.11.2020
5745 Clear 20 1026 68 10000 1 0 13:25 08.11.2020
5746 Clear 19 1027 72 10000 1.5 0 12:55 08.11.2020
5747 Clear 19 1027 72 10000 1.5 0 12:37 08.11.2020
5748 Clear 17 1027 93 10000 1 0 12:18 08.11.2020
5749 Clear 17 1027 93 10000 1 0 11:42 08.11.2020
5750 Clouds 15 1028 100 10000 1.5 0 11:24 08.11.2020
5751 Clouds 14 1028 100 10000 1.5 0 10:53 08.11.2020
5752 Clouds 14 1028 100 10000 1.5 0 10:21 08.11.2020
5753 Fog 13 1028 100 2500 1 0 09:59 08.11.2020
5754 Fog 12 1028 100 150 1 0 09:41 08.11.2020
5755 Fog 10 1028 100 150 1 0 09:18 08.11.2020
5756 Fog 9 1028 100 150 1 0 08:44 08.11.2020
5757 Fog 10 1028 100 150 1 0 08:22 08.11.2020
5758 Clouds 10 1027 100 7000 2.1 30 07:53 08.11.2020
5759 Clouds 9 1027 93 7000 2.1 30 07:31 08.11.2020
5760 Clear 10 1027 100 8000 1.5 60 06:27 08.11.2020
5761 Clear 10 1026 93 8000 1.5 50 05:54 08.11.2020
5762 Clear 11 1026 100 8000 2.1 40 04:50 08.11.2020
5763 Clouds 11 1027 93 8000 1 50 02:20 08.11.2020
5764 Clear 12 1028 87 9000 2.01 25 01:19 08.11.2020
5765 Clouds 12 1028 87 9000 2.09 29 01:19 08.11.2020
5766 Clear 12 1028 87 9000 2.01 25 01:19 08.11.2020
5767 Clear 12 1028 87 9000 0.5 0 00:30 08.11.2020
5768 Clear 12 1028 87 10000 1 150 23:50 07.11.2020
5769 Clear 13 1028 87 9000 1 160 23:31 07.11.2020
5770 Clear 13 1028 87 9000 1 160 23:31 07.11.2020
5771 Clear 13 1028 87 9000 1 160 23:31 07.11.2020
5772 Clear 13 1028 87 9000 1 170 22:48 07.11.2020
5773 Clear 14 1028 87 9000 1 170 22:28 07.11.2020
5774 Clear 14 1028 93 9000 1 160 21:58 07.11.2020
5775 Clear 14 1028 93 9000 1 0 21:40 07.11.2020
5776 Clear 14 1028 93 9000 1 0 21:19 07.11.2020
5777 Clear 14 1028 93 10000 1 140 20:45 07.11.2020
5778 Clear 15 1028 93 10000 1 140 20:27 07.11.2020
5779 Clear 15 1028 87 10000 0.5 180 19:48 07.11.2020
5780 Clouds 16 1028 87 10000 1.5 150 19:27 07.11.2020
5781 Clouds 16 1028 87 10000 1 200 18:45 07.11.2020
5782 Clear 17 1026 77 10000 1.5 0 18:26 07.11.2020
5783 Clear 18 1026 77 10000 1.5 0 17:53 07.11.2020
5784 Clear 18 1026 77 10000 1.5 0 17:34 07.11.2020
5785 Clear 19 1028 68 10000 3.1 230 16:47 07.11.2020
5786 Clear 19 1028 68 10000 3.1 230 16:26 07.11.2020
5787 Clear 20 1027 56 10000 2.1 290 15:58 07.11.2020
5788 Clear 20 1027 56 10000 2.1 290 15:40 07.11.2020
5789 Clear 20 1027 56 10000 2.1 290 15:20 07.11.2020
5790 Clear 21 1027 56 10000 1 0 14:43 07.11.2020
5791 Clear 21 1027 56 10000 1 0 14:24 07.11.2020
5792 Clear 20 1028 68 10000 1 0 13:52 07.11.2020
5793 Clear 20 1028 68 10000 1 0 13:30 07.11.2020
5794 Clear 19 1028 68 10000 1.5 0 12:44 07.11.2020
5795 Clear 19 1029 72 10000 1.5 0 12:20 07.11.2020
5796 Clear 18 1029 72 10000 1.5 0 11:41 07.11.2020
5797 Clear 17 1029 82 10000 1 0 11:22 07.11.2020
5798 Clear 16 1029 82 10000 1 0 10:45 07.11.2020
5799 Clear 15 1029 82 10000 1 0 10:25 07.11.2020
5800 Clear 13 1029 100 10000 1.5 0 09:52 07.11.2020
5801 Clear 13 1029 100 10000 1.5 0 09:32 07.11.2020
5802 Clouds 11 1029 100 10000 1 0 08:53 07.11.2020
5803 Clouds 11 1029 100 10000 1 0 08:34 07.11.2020
5804 Clouds 12 1028 87 10000 2.1 60 07:50 07.11.2020
5805 Clouds 11 1028 87 10000 2.1 60 07:19 07.11.2020
5806 Clear 11 1028 93 10000 1.5 40 06:47 07.11.2020
5807 Clear 11 1028 87 10000 1.5 60 05:24 07.11.2020
5808 Clear 12 1027 87 10000 1.5 50 03:24 07.11.2020
5809 Clear 13 1028 87 10000 2.1 80 01:29 07.11.2020
5810 Clear 13 1028 81 10000 2.1 80 00:59 07.11.2020
5811 Clear 13 1028 82 10000 2.1 50 23:53 06.11.2020
5812 Clear 14 1028 82 10000 1 60 23:21 06.11.2020
5813 Clear 15 1028 76 10000 1 70 22:42 06.11.2020
5814 Clear 14 1028 76 10000 1 70 22:19 06.11.2020
5815 Clear 15 1027 72 10000 0.5 0 21:46 06.11.2020
5816 Clear 15 1027 72 10000 1 160 21:22 06.11.2020
5817 Clear 16 1027 72 10000 1 160 20:56 06.11.2020
5818 Clear 15 1027 72 10000 1 170 20:38 06.11.2020
5819 Clear 16 1027 67 10000 1 140 20:18 06.11.2020
5820 Clear 16 1027 67 10000 2.1 160 19:44 06.11.2020
5821 Clear 17 1027 67 10000 2.1 160 19:26 06.11.2020
5822 Clear 17 1027 63 10000 1 0 18:45 06.11.2020
5823 Clear 17 1027 63 10000 1 0 18:23 06.11.2020
5824 Clear 18 1027 52 10000 1 10 17:51 06.11.2020
5825 Clear 19 1027 46 10000 1.33 351 17:26 06.11.2020
5826 Clear 21 1027 46 10000 1.33 351 16:50 06.11.2020
5827 Clear 21 1027 46 10000 1.4 353 16:31 06.11.2020
5828 Clear 22 1027 49 10000 1.4 353 15:53 06.11.2020
5829 Clear 22 1027 49 10000 1.4 353 15:33 06.11.2020
5830 Clear 21 1027 52 10000 1.5 340 14:54 06.11.2020
5831 Clouds 21 1027 52 10000 2.1 340 14:27 06.11.2020
5832 Clear 21 1028 52 10000 2.1 50 13:47 06.11.2020
5833 Clear 21 1028 56 10000 1 0 13:25 06.11.2020
5834 Clear 20 1028 56 10000 1 0 12:47 06.11.2020
5835 Clear 20 1028 56 10000 1 0 12:25 06.11.2020
5836 Clear 19 1028 63 10000 2.6 20 11:58 06.11.2020
5837 Clear 18 1028 63 10000 2.6 20 11:36 06.11.2020
5838 Clear 17 1028 72 10000 1 0 10:47 06.11.2020
5839 Clear 16 1028 72 10000 1 0 10:27 06.11.2020
5840 Clear 15 1028 93 10000 1 0 09:50 06.11.2020
5841 Clear 13 1028 100 10000 0.5 0 09:23 06.11.2020
5842 Clear 12 1028 100 10000 0.5 0 08:51 06.11.2020
5843 Clear 12 1028 100 10000 0.5 0 08:31 06.11.2020
5844 Clear 12 1027 87 10000 2.6 50 07:54 06.11.2020
5845 Clear 13 1027 87 10000 3.1 60 07:35 06.11.2020
5846 Clear 12 1027 87 10000 3.1 60 06:59 06.11.2020
5847 Clear 12 1027 87 10000 2.6 60 06:32 06.11.2020
5848 Clear 13 1027 93 10000 1.5 40 05:36 06.11.2020
5849 Clouds 15 1027 82 10000 1 30 01:23 06.11.2020
5850 Clouds 14 1027 87 10000 1.5 30 00:23 06.11.2020
5851 Clouds 14 1027 87 10000 1.5 80 23:39 05.11.2020
5852 Clear 15 1027 87 10000 1 0 22:59 05.11.2020
5853 Clear 15 1027 87 10000 1 0 22:41 05.11.2020
5854 Clouds 15 1026 87 10000 2.1 60 22:22 05.11.2020
5855 Clouds 16 1026 82 10000 1.5 70 21:44 05.11.2020
5856 Clouds 16 1026 82 10000 1.5 50 21:23 05.11.2020
5857 Clouds 16 1026 82 10000 1.5 50 20:58 05.11.2020
5858 Clouds 16 1026 82 10000 1.5 40 20:39 05.11.2020
5859 Clouds 16 1026 82 10000 1.5 40 20:21 05.11.2020
5860 Clouds 17 1026 77 10000 1 350 19:43 05.11.2020
5861 Clouds 17 1026 77 10000 1 350 19:23 05.11.2020
5862 Clouds 17 1026 77 10000 0.5 0 18:49 05.11.2020
5863 Clouds 17 1025 77 10000 0.5 0 18:30 05.11.2020
5864 Clear 18 1025 72 10000 1.5 0 17:54 05.11.2020
5865 Clear 18 1025 72 10000 1.5 0 17:36 05.11.2020
5866 Clear 19 1025 64 10000 1.5 0 17:18 05.11.2020
5867 Clear 19 1025 64 10000 1.5 0 16:41 05.11.2020
5868 Clear 19 1025 64 10000 1.5 0 16:21 05.11.2020
5869 Clear 20 1025 68 10000 1.5 0 15:49 05.11.2020
5870 Clear 19 1025 68 10000 1.5 0 15:24 05.11.2020
5871 Clouds 19 1025 64 10000 1.5 0 14:47 05.11.2020
5872 Clouds 19 1025 64 10000 1.5 0 14:29 05.11.2020
5873 Clouds 19 1026 72 10000 1 0 13:49 05.11.2020
5874 Clouds 19 1026 72 10000 1 0 13:30 05.11.2020
5875 Clouds 18 1027 77 10000 1.5 0 12:53 05.11.2020
5876 Clouds 18 1027 77 10000 1.5 0 12:29 05.11.2020
5877 Clouds 18 1027 77 10000 2.6 10 11:57 05.11.2020
5878 Clouds 18 1027 77 10000 2.6 10 11:37 05.11.2020
5879 Clouds 18 1027 77 10000 2.6 10 11:19 05.11.2020
5880 Clouds 17 1027 93 10000 1 0 10:43 05.11.2020
5881 Clouds 17 1027 93 10000 1 0 10:25 05.11.2020
5882 Clouds 16 1026 93 10000 1.67 22 09:47 05.11.2020
5883 Clouds 16 1026 93 10000 1.82 22 09:22 05.11.2020
5884 Clouds 15 1026 100 10000 1.82 22 08:44 05.11.2020
5885 Clouds 15 1026 100 10000 1.89 17 08:26 05.11.2020
5886 Clouds 15 1025 87 10000 1.5 70 07:41 05.11.2020
5887 Clouds 15 1025 87 10000 1.5 50 07:20 05.11.2020
5888 Clouds 15 1025 87 10000 1.5 50 06:41 05.11.2020
5889 Clouds 15 1025 87 10000 1 60 05:44 05.11.2020
5890 Clouds 16 1024 82 10000 0.5 0 01:38 05.11.2020
5891 Clouds 16 1024 82 10000 2.6 10 00:33 05.11.2020
5892 Clouds 17 1024 77 10000 1.5 60 23:45 04.11.2020
5893 Clouds 17 1024 77 10000 1.5 60 23:45 04.11.2020
5894 Clouds 17 1024 77 10000 1.5 60 23:26 04.11.2020
5895 Clouds 17 1024 82 10000 1.5 40 22:53 04.11.2020
5896 Clouds 17 1024 82 10000 2.1 70 22:27 04.11.2020
5897 Clouds 17 1024 82 10000 1 60 21:59 04.11.2020
5898 Clouds 17 1023 77 10000 0.5 0 21:41 04.11.2020
5899 Clouds 17 1023 77 10000 0.5 0 21:22 04.11.2020
5900 Clouds 17 1023 82 10000 0.5 70 20:44 04.11.2020
5901 Clouds 17 1023 82 10000 0.5 70 20:26 04.11.2020
5902 Clouds 17 1023 82 10000 1 30 19:49 04.11.2020
5903 Clouds 17 1023 77 10000 0.5 0 19:30 04.11.2020
5904 Clouds 17 1023 77 10000 0.5 0 19:30 04.11.2020
5905 Clouds 17 1022 77 10000 1.5 140 18:55 04.11.2020
5906 Clouds 18 1022 68 10000 1.5 70 18:37 04.11.2020
5907 Clouds 18 1022 82 10000 1.5 0 18:18 04.11.2020
5908 Clouds 18 1022 82 10000 1.5 0 17:40 04.11.2020
5909 Clouds 19 1022 82 10000 1.5 0 17:22 04.11.2020
5910 Clear 19 1022 72 10000 1 0 16:41 04.11.2020
5911 Clear 19 1022 72 10000 1 0 16:23 04.11.2020
5912 Clouds 20 1022 68 10000 1.5 0 15:48 04.11.2020
5913 Clouds 20 1022 68 10000 1.5 0 15:25 04.11.2020
5914 Clouds 20 1022 77 10000 1 0 14:59 04.11.2020
5915 Clouds 20 1022 77 10000 1 0 14:41 04.11.2020
5916 Clouds 20 1022 77 10000 1 0 14:21 04.11.2020
5917 Clouds 20 1022 72 10000 1.5 0 13:45 04.11.2020
5918 Clouds 20 1022 72 10000 1.5 0 13:20 04.11.2020
5919 Clear 19 1022 72 10000 1 0 12:53 04.11.2020
5920 Clear 19 1022 72 10000 1 0 12:27 04.11.2020
5921 Clouds 18 1022 82 10000 2.6 330 11:56 04.11.2020
5922 Clouds 19 1022 72 10000 1 0 11:38 04.11.2020
5923 Clouds 18 1022 82 10000 2.6 330 11:20 04.11.2020
5924 Clouds 17 1022 87 10000 1 0 10:46 04.11.2020
5925 Clouds 16 1022 87 10000 1 0 10:22 04.11.2020
5926 Clouds 15 1022 100 8000 0.59 19 09:51 04.11.2020
5927 Clouds 15 1022 87 8000 0.5 0 09:23 04.11.2020
5928 Clouds 13 1022 100 7000 1 0 08:46 04.11.2020
5929 Clouds 13 1022 100 7000 1 0 08:19 04.11.2020
5930 Clouds 12 1021 93 7000 0.5 0 07:50 04.11.2020
5931 Clouds 12 1021 100 8000 1 0 07:27 04.11.2020
5932 Clouds 12 1021 93 8000 1 0 06:45 04.11.2020
5933 Clouds 12 1021 100 8000 0.5 0 06:26 04.11.2020
5934 Clouds 13 1021 93 8000 0.5 50 02:33 04.11.2020
5935 Clouds 12 1022 93 9000 1 60 01:49 04.11.2020
5936 Clouds 13 1022 87 9000 0.5 170 00:43 04.11.2020
5937 Clouds 14 1022 93 9000 1 0 23:44 03.11.2020
5938 Clouds 14 1022 93 8000 1 130 23:21 03.11.2020
5939 Clouds 14 1023 93 8000 1.5 150 22:41 03.11.2020
5940 Clouds 15 1023 87 10000 0.5 170 22:21 03.11.2020
5941 Clouds 15 1023 87 10000 0.5 170 21:56 03.11.2020
5942 Clouds 15 1023 87 8000 1.5 190 21:37 03.11.2020
5943 Clouds 15 1022 87 10000 1.5 170 21:19 03.11.2020
5944 Clouds 15 1022 87 10000 1.5 180 20:43 03.11.2020
5945 Clouds 16 1022 87 8000 2.1 170 20:22 03.11.2020
5946 Clouds 16 1023 82 9000 2.6 160 19:43 03.11.2020
5947 Clouds 16 1023 82 9000 2.6 160 19:22 03.11.2020
5948 Clouds 17 1022 87 10000 1.5 180 18:44 03.11.2020
5949 Clouds 17 1022 77 10000 2.1 230 18:20 03.11.2020
5950 Clouds 18 1022 77 10000 2.1 230 17:56 03.11.2020
5951 Clouds 18 1022 77 10000 2.1 230 17:37 03.11.2020
5952 Clear 18 1022 72 10000 2.6 270 17:18 03.11.2020
5953 Clear 19 1022 72 10000 2.6 270 16:43 03.11.2020
5954 Clouds 19 1022 72 10000 4.1 270 16:21 03.11.2020
5955 Clouds 19 1022 72 10000 4.1 270 15:41 03.11.2020
5956 Clouds 20 1023 60 10000 1 0 15:23 03.11.2020
5957 Clouds 20 1023 60 10000 1 0 14:49 03.11.2020
5958 Clouds 20 1023 60 10000 1 0 14:30 03.11.2020
5959 Clouds 20 1024 60 10000 1 0 13:46 03.11.2020
5960 Clouds 20 1024 60 10000 1 0 13:23 03.11.2020
5961 Clear 20 1024 63 10000 1 0 12:56 03.11.2020
5962 Clear 20 1024 63 10000 1 0 12:36 03.11.2020
5963 Clear 19 1025 63 10000 1 0 12:18 03.11.2020
5964 Clear 18 1025 63 10000 1 0 11:41 03.11.2020
5965 Clear 18 1025 82 10000 1.37 334 11:20 03.11.2020
5966 Clear 16 1025 82 10000 1.37 334 10:39 03.11.2020
5967 Clear 15 1025 100 10000 1.42 358 10:20 03.11.2020
5968 Clear 14 1025 100 10000 1.42 358 09:51 03.11.2020
5969 Clear 13 1025 100 10000 1.55 6 09:33 03.11.2020
5970 Clear 11 1025 100 10000 1.55 6 08:55 03.11.2020
5971 Clear 11 1025 100 10000 1.55 6 08:34 03.11.2020
5972 Clear 10 1024 93 10000 1.5 20 07:49 03.11.2020
5973 Clear 10 1023 93 10000 1 70 07:22 03.11.2020
5974 Clear 10 1023 93 10000 1.5 50 06:46 03.11.2020
5975 Clear 10 1024 93 10000 0.5 0 05:38 03.11.2020
5976 Clear 12 1024 93 10000 1.5 30 02:20 03.11.2020
5977 Clear 12 1024 81 10000 2.1 100 00:41 03.11.2020
5978 Clear 12 1024 81 10000 0.5 0 23:51 02.11.2020
5979 Clear 13 1024 76 10000 1 170 23:33 02.11.2020
5980 Clear 13 1025 76 10000 1 150 22:54 02.11.2020
5981 Clear 13 1024 82 10000 1.5 150 22:35 02.11.2020
5982 Clear 14 1024 76 10000 2.6 150 21:59 02.11.2020
5983 Clear 14 1024 71 10000 2.1 150 21:37 02.11.2020
5984 Clear 14 1024 76 10000 2.1 160 21:19 02.11.2020
5985 Clear 14 1024 76 10000 2.1 160 21:19 02.11.2020
5986 Clear 14 1024 82 10000 3.1 150 20:39 02.11.2020
5987 Clear 15 1024 82 10000 3.1 150 20:20 02.11.2020
5988 Clear 15 1024 82 10000 3.1 150 20:20 02.11.2020
5989 Clear 15 1024 72 10000 1.5 160 19:46 02.11.2020
5990 Clear 15 1024 72 10000 1.5 160 19:27 02.11.2020
5991 Clear 16 1024 67 10000 1 160 18:56 02.11.2020
5992 Clouds 16 1024 67 10000 0.5 0 18:38 02.11.2020
5993 Clouds 17 1024 63 10000 0.5 0 18:19 02.11.2020
5994 Clouds 17 1024 63 10000 0.5 0 17:42 02.11.2020
5995 Clouds 18 1024 63 10000 0.5 0 17:24 02.11.2020
5996 Clouds 18 1024 59 10000 0.55 295 16:49 02.11.2020
5997 Clouds 19 1024 59 10000 0.34 318 16:31 02.11.2020
5998 Clouds 19 1024 59 10000 0.5 0 15:57 02.11.2020
5999 Clouds 19 1024 59 10000 0.5 0 15:38 02.11.2020
6000 Clouds 19 1024 59 10000 0.5 0 15:38 02.11.2020
6001 Clouds 19 1024 63 10000 2.1 10 15:19 02.11.2020
6002 Clouds 19 1024 63 10000 2.1 10 15:19 02.11.2020
6003 Clouds 19 1024 63 10000 2.1 10 14:43 02.11.2020
6004 Clouds 19 1024 63 10000 2.1 10 14:19 02.11.2020
6005 Clouds 19 1024 68 10000 1.5 0 13:48 02.11.2020
6006 Clouds 19 1025 77 10000 2.1 30 13:22 02.11.2020
6007 Clouds 19 1025 77 10000 2.1 30 12:50 02.11.2020
6008 Clouds 19 1025 77 10000 2.1 30 12:27 02.11.2020
6009 Clouds 18 1025 82 10000 1 0 11:46 02.11.2020
6010 Clouds 18 1025 82 10000 1 0 11:20 02.11.2020
6011 Clouds 17 1025 77 10000 1.5 40 10:48 02.11.2020
6012 Clouds 16 1025 93 10000 0.4 330 10:26 02.11.2020
6013 Clouds 16 1024 93 10000 1 0 09:56 02.11.2020
6014 Clouds 15 1024 87 8000 1.5 50 09:30 02.11.2020
6015 Clouds 15 1024 87 8000 1.5 50 09:30 02.11.2020
6016 Clouds 14 1024 100 10000 2.6 10 08:59 02.11.2020
6017 Clouds 14 1024 100 10000 2.6 10 08:38 02.11.2020
6018 Clouds 14 1024 93 6000 1 0 08:19 02.11.2020
6019 Clouds 14 1024 93 7000 0.5 0 07:39 02.11.2020
6020 Clouds 14 1023 87 9000 1 50 06:45 02.11.2020
6021 Clouds 14 1023 93 8000 1 20 05:22 02.11.2020
6022 Clear 15 1023 87 10000 1 340 01:35 02.11.2020
6023 Clouds 15 1024 87 10000 0.5 230 00:39 02.11.2020
6024 Clouds 15 1024 87 10000 1 240 00:20 02.11.2020
6025 Clouds 15 1024 87 10000 1.5 240 23:39 01.11.2020
6026 Clouds 15 1024 82 10000 1.5 210 23:21 01.11.2020
6027 Clouds 15 1023 82 10000 1.5 190 22:43 01.11.2020
6028 Clouds 15 1023 82 10000 1.5 190 22:22 01.11.2020
6029 Clouds 15 1023 87 10000 2.1 170 21:43 01.11.2020
6030 Clouds 15 1023 87 10000 2.1 170 21:25 01.11.2020
6031 Clouds 14 1023 82 10000 2.6 170 20:50 01.11.2020
6032 Clouds 14 1023 87 10000 2.1 160 20:28 01.11.2020
6033 Clear 15 1023 87 10000 2.1 170 19:55 01.11.2020
6034 Clear 15 1023 82 10000 2.1 180 19:37 01.11.2020
6035 Clear 15 1023 82 10000 2.1 180 19:19 01.11.2020
6036 Clouds 16 1019 86 10000 1.28 250 18:40 01.11.2020
6037 Clear 16 1023 82 10000 2.1 210 18:19 01.11.2020
6038 Clear 16 1023 82 10000 2.1 210 18:19 01.11.2020
6039 Clear 17 1023 77 10000 1 0 17:45 01.11.2020
6040 Clear 17 1023 77 10000 1 0 17:27 01.11.2020
6041 Clouds 18 1023 64 10000 2.36 247 16:57 01.11.2020
6042 Clouds 19 1023 64 10000 2.36 247 16:39 01.11.2020
6043 Clouds 19 1023 64 10000 2.78 250 16:18 01.11.2020
6044 Clear 20 1023 63 10000 1 0 15:39 01.11.2020
6045 Clear 19 1023 63 10000 2.38 243 15:20 01.11.2020
6046 Clear 19 1023 63 10000 2.38 243 14:48 01.11.2020
6047 Clear 19 1023 63 10000 1.65 243 14:23 01.11.2020
6048 Clear 19 1024 72 10000 1.5 0 13:58 01.11.2020
6049 Clear 19 1024 72 10000 1.5 0 13:39 01.11.2020
6050 Clear 19 1024 72 10000 1.5 0 13:21 01.11.2020
6051 Clear 18 1024 72 10000 2.1 160 12:43 01.11.2020
6052 Clear 17 1024 72 10000 2.1 160 12:20 01.11.2020
6053 Clouds 17 1024 77 10000 0.7 237 11:49 01.11.2020
6054 Clouds 16 1024 77 10000 0.67 102 11:18 01.11.2020
6055 Clouds 15 1024 87 10000 0.5 0 10:42 01.11.2020
6056 Clouds 15 1024 87 10000 0.5 0 10:24 01.11.2020
6057 Clouds 13 1025 93 8000 2.1 350 09:50 01.11.2020
6058 Clouds 14 1025 93 8000 2.1 350 09:27 01.11.2020
6059 Mist 13 1024 93 3000 1 0 08:44 01.11.2020
6060 Mist 13 1024 93 3000 1 0 08:18 01.11.2020
6061 Clouds 13 1023 87 10000 2.6 30 07:21 01.11.2020
6062 Clouds 14 1023 93 10000 2.1 40 02:32 01.11.2020
6063 Clouds 14 1023 82 10000 1.5 160 01:42 01.11.2020
6064 Clouds 15 1023 87 10000 0.55 307 00:22 01.11.2020
6065 Clouds 15 1023 87 10000 0.5 0 23:24 31.10.2020
6066 Clouds 14 1023 87 10000 0.5 0 22:45 31.10.2020
6067 Clouds 15 1023 87 10000 0.5 0 22:25 31.10.2020
6068 Clouds 15 1023 87 10000 0.5 0 22:25 31.10.2020
6069 Clouds 15 1023 82 10000 0.5 170 21:47 31.10.2020
6070 Clouds 15 1023 82 10000 0.5 170 21:47 31.10.2020
6071 Clouds 15 1023 87 10000 0.5 0 21:23 31.10.2020
6072 Clouds 15 1023 82 10000 1 160 20:59 31.10.2020
6073 Clouds 15 1023 87 10000 1.5 160 20:38 31.10.2020
6074 Clouds 15 1023 87 10000 1.5 160 20:18 31.10.2020
6075 Clouds 15 1023 82 10000 1 170 19:38 31.10.2020
6076 Clouds 16 1023 82 10000 1 170 19:19 31.10.2020
6077 Clear 16 1023 82 10000 1 0 18:45 31.10.2020
6078 Clear 17 1023 82 10000 2.1 260 17:56 31.10.2020
6079 Clear 18 1023 82 10000 2.1 260 17:37 31.10.2020
6080 Clear 19 1023 72 10000 3.1 270 17:18 31.10.2020
6081 Clear 19 1023 72 10000 3.1 270 16:41 31.10.2020
6082 Clear 19 1023 72 10000 3.1 270 16:20 31.10.2020
6083 Clear 20 1023 68 10000 2.6 260 15:42 31.10.2020
6084 Clear 21 1023 68 10000 2.6 260 15:22 31.10.2020
6085 Clear 21 1023 64 10000 2.65 256 14:46 31.10.2020
6086 Clear 21 1023 64 10000 2.23 257 14:27 31.10.2020
6087 Clear 20 1024 72 10000 2.23 257 13:50 31.10.2020
6088 Clear 20 1024 72 10000 1.71 260 13:24 31.10.2020
6089 Clear 19 1025 72 10000 1.5 0 12:42 31.10.2020
6090 Clear 18 1025 82 10000 1.5 0 11:48 31.10.2020
6091 Clear 18 1025 82 10000 1.5 0 11:29 31.10.2020
6092 Clear 16 1025 100 10000 1 0 10:57 31.10.2020
6093 Clear 15 1025 100 10000 1 0 10:35 31.10.2020
6094 Mist 13 1025 100 1100 1.5 0 09:43 31.10.2020
6095 Mist 13 1025 100 1100 1.5 0 09:25 31.10.2020
6096 Fog 11 1025 100 100 1 0 08:33 31.10.2020
6097 Clear 10 1024 93 10000 1.5 30 07:58 31.10.2020
6098 Clear 10 1024 93 10000 1.5 80 07:27 31.10.2020
6099 Clouds 10 1024 93 7000 2.1 30 06:40 31.10.2020
6100 Clouds 10 1024 93 7000 2.1 30 06:19 31.10.2020
6101 Clouds 12 1024 87 7000 1.5 70 03:46 31.10.2020
6102 Clouds 12 1025 93 10000 1 50 01:30 31.10.2020
6103 Clouds 13 1025 87 10000 0.5 0 00:47 31.10.2020
6104 Clouds 13 1025 87 10000 2.1 100 23:52 30.10.2020
6105 Clear 13 1025 87 10000 2.6 90 23:25 30.10.2020
6106 Clear 14 1025 82 10000 1 0 22:48 30.10.2020
6107 Clear 14 1025 82 10000 0.5 0 22:26 30.10.2020
6108 Clear 14 1024 87 10000 0.5 140 21:58 30.10.2020
6109 Clear 14 1024 82 10000 1 130 21:39 30.10.2020
6110 Clear 15 1024 82 10000 1 130 21:20 30.10.2020
6111 Clear 15 1024 82 10000 1.5 160 20:42 30.10.2020
6112 Clear 15 1024 82 10000 1.5 160 20:23 30.10.2020
6113 Clear 15 1024 82 10000 1.5 140 19:49 30.10.2020
6114 Clear 16 1024 82 10000 1.5 140 19:19 30.10.2020
6115 Clear 16 1024 82 10000 1.5 170 18:50 30.10.2020
6116 Clear 16 1023 77 10000 1.5 0 18:28 30.10.2020
6117 Clear 17 1023 77 10000 1.5 0 17:56 30.10.2020
6118 Clear 17 1023 77 10000 1.5 0 17:36 30.10.2020
6119 Clear 18 1023 63 10000 1.43 269 17:18 30.10.2020
6120 Clear 19 1023 63 10000 1.43 269 16:49 30.10.2020
6121 Clear 19 1023 63 10000 1.18 279 16:19 30.10.2020
6122 Clear 20 1023 60 10000 0.5 0 15:41 30.10.2020
6123 Clear 19 1023 63 10000 1.5 0 15:20 30.10.2020
6124 Clear 20 1023 63 10000 1.5 0 14:45 30.10.2020
6125 Clear 20 1023 63 10000 1.5 0 14:26 30.10.2020
6126 Clear 20 1024 59 10000 2.1 330 13:47 30.10.2020
6127 Clear 20 1024 63 10000 2.1 340 13:23 30.10.2020
6128 Clear 20 1024 63 10000 2.1 340 12:58 30.10.2020
6129 Clear 19 1024 63 10000 2.1 340 12:23 30.10.2020
6130 Clear 18 1024 77 10000 1.5 0 11:57 30.10.2020
6131 Clear 18 1024 77 10000 1.5 0 11:57 30.10.2020
6132 Clear 17 1024 77 10000 1.5 0 11:38 30.10.2020
6133 Clear 17 1024 87 10000 1 0 11:18 30.10.2020
6134 Clear 16 1024 87 10000 1 0 10:40 30.10.2020
6135 Clear 16 1024 87 10000 1 0 10:21 30.10.2020
6136 Clear 12 1024 100 10000 1 0 09:44 30.10.2020
6137 Clear 12 1024 100 10000 1 0 09:22 30.10.2020
6138 Clear 10 1023 100 10000 0.5 0 08:41 30.10.2020
6139 Clear 10 1023 100 10000 0.5 0 08:23 30.10.2020
6140 Clear 11 1023 87 10000 2.1 60 07:48 30.10.2020
6141 Clear 11 1022 87 10000 1.5 60 07:30 30.10.2020
6142 Clear 11 1022 93 10000 2.6 40 06:35 30.10.2020
6143 Clear 11 1021 93 10000 3.1 50 04:37 30.10.2020
6144 Clear 12 1022 87 10000 2.1 70 02:24 30.10.2020
6145 Clouds 12 1021 93 9000 1.5 60 00:39 30.10.2020
6146 Clear 13 1022 93 10000 1 0 23:48 29.10.2020
6147 Clear 13 1021 93 10000 1.5 30 23:30 29.10.2020
6148 Clear 13 1021 87 10000 1 0 22:50 29.10.2020
6149 Clear 14 1021 87 10000 2.1 80 22:29 29.10.2020
6150 Clear 14 1021 87 10000 1 0 21:56 29.10.2020
6151 Clear 14 1021 82 10000 0.5 0 21:36 29.10.2020
6152 Clear 14 1020 87 10000 1 0 21:18 29.10.2020
6153 Clear 14 1021 82 10000 0.5 0 21:18 29.10.2020
6154 Clear 14 1020 87 10000 1.5 110 20:40 29.10.2020
6155 Clear 15 1020 82 10000 2.1 150 20:19 29.10.2020
6156 Clouds 15 1020 82 10000 2.1 160 19:42 29.10.2020
6157 Clouds 15 1020 82 10000 2.1 160 19:21 29.10.2020
6158 Clouds 16 1020 82 10000 2.1 190 18:48 29.10.2020
6159 Clouds 16 1020 82 10000 2.1 190 18:29 29.10.2020
6160 Clear 17 1019 77 10000 1.5 0 17:55 29.10.2020
6161 Clear 17 1019 77 10000 1.5 0 17:37 29.10.2020
6162 Clear 18 1019 72 10000 3.6 220 17:18 29.10.2020
6163 Clear 18 1019 72 10000 3.6 220 17:18 29.10.2020
6164 Clear 18 1019 72 10000 3.6 220 16:43 29.10.2020
6165 Clouds 19 1019 60 10000 2.1 200 16:18 29.10.2020
6166 Clouds 19 1019 60 10000 2.1 200 15:41 29.10.2020
6167 Clouds 20 1019 60 10000 2.1 200 15:22 29.10.2020
6168 Clear 20 1019 56 10000 1.5 0 14:59 29.10.2020
6169 Clear 20 1019 56 10000 1.5 0 14:59 29.10.2020
6170 Clear 20 1019 56 10000 1.5 0 14:59 29.10.2020
6171 Clear 20 1019 56 10000 1.5 0 14:40 29.10.2020
6172 Clear 20 1019 56 10000 1.5 0 14:20 29.10.2020
6173 Clear 20 1020 52 10000 1 0 13:45 29.10.2020
6174 Clear 20 1020 52 10000 1 0 13:26 29.10.2020
6175 Clear 19 1020 52 10000 0.5 0 12:43 29.10.2020
6176 Clear 19 1020 52 10000 0.5 0 12:19 29.10.2020
6177 Clear 18 1021 59 10000 1 0 11:49 29.10.2020
6178 Clear 17 1021 59 10000 1 0 11:27 29.10.2020
6179 Clear 16 1020 76 10000 1.19 168 10:58 29.10.2020
6180 Clear 15 1020 76 10000 1.19 168 10:36 29.10.2020
6181 Clear 13 1020 93 10000 0.79 144 10:18 29.10.2020
6182 Clear 12 1020 93 10000 0.79 144 09:46 29.10.2020
6183 Clear 11 1020 93 10000 0.55 57 09:20 29.10.2020
6184 Clouds 9 1020 100 10000 1 0 08:40 29.10.2020
6185 Clouds 10 1020 100 10000 1 0 08:19 29.10.2020
6186 Clear 10 1019 76 10000 2.6 70 07:48 29.10.2020
6187 Clear 9 1019 87 10000 1.5 40 06:58 29.10.2020
6188 Clear 9 1020 81 10000 2.6 60 06:24 29.10.2020
6189 Clear 9 1019 87 10000 2.1 10 04:47 29.10.2020
6190 Clear 10 1016 81 10000 0.45 59 02:18 29.10.2020
6191 Clear 11 1016 78 10000 2.27 356 00:31 29.10.2020
6192 Clear 11 1016 76 10000 2.51 5 23:59 28.10.2020
6193 Clear 11 1016 74 10000 2.39 0 23:22 28.10.2020
6194 Clear 12 1019 71 10000 2.1 50 22:56 28.10.2020
6195 Clear 12 1019 71 10000 2.1 50 22:37 28.10.2020
6196 Clear 12 1019 71 10000 2.1 50 22:19 28.10.2020
6197 Clear 12 1019 71 10000 2.1 90 21:43 28.10.2020
6198 Clear 13 1019 71 10000 2.1 90 21:25 28.10.2020
6199 Clear 14 1018 67 10000 1 0 20:43 28.10.2020
6200 Clear 14 1018 67 10000 1 0 20:23 28.10.2020
6201 Clear 14 1018 71 10000 1 300 19:53 28.10.2020
6202 Clear 15 1018 62 10000 1.5 40 19:30 28.10.2020
6203 Clear 15 1017 58 10000 2.1 40 18:51 28.10.2020
6204 Clear 16 1017 52 10000 3.6 10 18:22 28.10.2020
6205 Clear 17 1017 52 10000 3.6 10 17:58 28.10.2020
6206 Clear 17 1017 52 10000 3.6 10 17:39 28.10.2020
6207 Clear 18 1017 52 10000 3.6 10 17:18 28.10.2020
6208 Clear 18 1017 52 10000 3.6 10 16:44 28.10.2020
6209 Clear 19 1017 52 10000 3.6 10 16:23 28.10.2020
6210 Clear 19 1017 52 10000 3.6 10 16:23 28.10.2020
6211 Clear 19 1016 52 10000 2.1 340 15:40 28.10.2020
6212 Clouds 19 1013 54 10000 2.24 339 15:19 28.10.2020
6213 Clear 19 1016 52 10000 2.1 340 15:19 28.10.2020
6214 Clear 20 1016 48 10000 4.1 350 14:44 28.10.2020
6215 Clear 19 1017 45 10000 4.1 20 14:26 28.10.2020
6216 Clear 19 1013 54 10000 2.68 6 12:50 28.10.2020
6217 Clear 19 1013 55 10000 2.68 15 12:31 28.10.2020
6218 Clear 18 1013 64 10000 0.89 352 11:59 28.10.2020
6219 Clear 18 1013 66 10000 1.34 352 11:41 28.10.2020
6220 Clear 16 1016 76 10000 4.6 60 11:20 28.10.2020
6221 Clear 16 1016 81 10000 4.1 50 10:50 28.10.2020
6222 Clear 14 1016 81 10000 4.1 50 10:32 28.10.2020
6223 Clear 13 1017 93 10000 2.87 356 09:45 28.10.2020
6224 Clear 12 1017 93 10000 3.2 4 09:24 28.10.2020
6225 Clear 11 1016 100 10000 3.2 4 08:51 28.10.2020
6226 Clear 10 1016 100 10000 3.2 4 08:32 28.10.2020
6227 Clear 10 1015 93 10000 4.1 60 07:54 28.10.2020
6228 Clear 10 1015 93 10000 3.1 70 07:31 28.10.2020
6229 Clear 10 1015 87 10000 3.1 70 06:57 28.10.2020
6230 Clear 10 1015 87 10000 2.6 70 06:38 28.10.2020
6231 Clear 10 1014 93 10000 3.1 60 05:44 28.10.2020
6232 Clear 10 1014 87 10000 3.6 60 04:51 28.10.2020
6233 Clear 10 1014 87 10000 2.6 60 04:20 28.10.2020
6234 Clear 11 1014 93 10000 2.1 60 01:56 28.10.2020
6235 Clear 12 1014 87 10000 2.1 50 00:33 28.10.2020
6236 Clear 12 1014 87 10000 2.6 30 23:51 27.10.2020
6237 Clear 13 1014 76 10000 2.1 150 23:22 27.10.2020
6238 Clear 13 1013 81 10000 2.6 130 22:45 27.10.2020
6239 Clear 13 1013 81 10000 2.6 130 22:22 27.10.2020
6240 Clear 14 1013 82 10000 1 0 21:57 27.10.2020
6241 Clear 14 1012 76 10000 1 170 21:38 27.10.2020
6242 Clouds 14 1012 76 10000 1.5 180 21:20 27.10.2020
6243 Clouds 14 1012 72 10000 2.6 160 20:51 27.10.2020
6244 Clouds 15 1012 72 10000 2.6 160 20:25 27.10.2020
6245 Clouds 15 1012 72 10000 2.1 180 19:59 27.10.2020
6246 Clouds 15 1012 72 10000 2.1 160 19:38 27.10.2020
6247 Clouds 15 1012 72 10000 2.1 160 19:20 27.10.2020
6248 Clouds 16 1011 67 10000 1.5 220 18:45 27.10.2020
6249 Clouds 16 1011 67 10000 1.5 220 18:45 27.10.2020
6250 Clouds 17 1011 59 10000 3.1 260 18:27 27.10.2020
6251 Clouds 17 1011 59 10000 3.1 260 17:59 27.10.2020
6252 Clouds 17 1011 59 10000 3.1 260 17:40 27.10.2020
6253 Clouds 17 1010 63 10000 2.6 250 17:19 27.10.2020
6254 Clouds 18 1010 55 10000 2.1 210 16:44 27.10.2020
6255 Clouds 18 1010 55 10000 2.1 210 16:23 27.10.2020
6256 Clouds 19 1010 49 10000 1.5 0 15:42 27.10.2020
6257 Clouds 20 1010 49 10000 1.5 0 15:24 27.10.2020
6258 Clouds 19 1010 52 10000 3.1 230 14:51 27.10.2020
6259 Clouds 19 1010 52 10000 3.1 230 14:32 27.10.2020
6260 Clouds 19 1010 59 10000 2.6 200 13:59 27.10.2020
6261 Clouds 19 1010 59 10000 3.6 190 13:31 27.10.2020
6262 Clouds 19 1011 59 10000 2.6 200 12:49 27.10.2020
6263 Clouds 18 1011 59 10000 2.6 200 12:30 27.10.2020
6264 Clouds 18 1011 67 10000 4.1 210 11:59 27.10.2020
6265 Clouds 17 1011 67 10000 4.1 210 11:41 27.10.2020
6266 Clouds 17 1011 67 10000 4.1 210 11:21 27.10.2020
6267 Clouds 17 1011 67 10000 2.6 180 10:44 27.10.2020
6268 Clouds 17 1011 67 10000 2.6 180 10:21 27.10.2020
6269 Clouds 16 1010 72 10000 2.1 170 09:38 27.10.2020
6270 Clouds 16 1010 77 10000 2.1 160 09:20 27.10.2020
6271 Clouds 15 1010 77 10000 2.1 160 08:33 27.10.2020
6272 Clouds 15 1010 77 10000 2.1 160 08:33 27.10.2020
6273 Clouds 15 1010 72 10000 2.6 190 07:57 27.10.2020
6274 Clouds 15 1010 72 10000 2.6 190 07:38 27.10.2020
6275 Clouds 15 1009 77 10000 2.6 190 07:20 27.10.2020
6276 Rain 16 1009 77 10000 2.6 190 06:21 27.10.2020
6277 Rain 15 1009 77 10000 2.6 220 05:46 27.10.2020
6278 Rain 15 1009 77 10000 2.6 220 05:27 27.10.2020
6279 Clear 15 1009 87 10000 3.6 200 03:20 27.10.2020
6280 Clouds 15 1009 93 10000 5.1 250 01:22 27.10.2020
6281 Rain 16 1008 87 6000 4.1 260 00:42 27.10.2020
6282 Clouds 18 1008 82 10000 9.3 200 23:38 26.10.2020
6283 Rain 19 1008 77 10000 9.8 170 22:59 26.10.2020
6284 Clouds 19 1009 77 10000 9.3 170 22:39 26.10.2020
6285 Clouds 19 1009 77 10000 7.7 170 22:18 26.10.2020
6286 Clouds 18 1009 82 10000 7.2 170 21:40 26.10.2020
6287 Clouds 18 1009 82 10000 7.2 170 21:19 26.10.2020
6288 Clouds 18 1009 82 10000 8.2 170 20:49 26.10.2020
6289 Clouds 18 1009 82 10000 7.7 170 20:27 26.10.2020
6290 Clouds 18 1010 77 10000 6.7 170 19:56 26.10.2020
6291 Clouds 18 1010 72 10000 6.7 160 19:38 26.10.2020
6292 Clouds 18 1010 72 10000 6.7 160 19:19 26.10.2020
6293 Clouds 18 1010 72 10000 5.1 180 18:42 26.10.2020
6294 Clouds 18 1010 72 10000 5.1 180 18:42 26.10.2020
6295 Clouds 18 1010 72 10000 5.1 180 18:22 26.10.2020
6296 Clouds 18 1010 72 10000 5.1 170 17:44 26.10.2020
6297 Clouds 19 1010 72 10000 5.1 170 17:24 26.10.2020
6298 Clouds 19 1010 68 10000 6.2 190 16:56 26.10.2020
6299 Clouds 19 1010 68 10000 4.1 170 16:37 26.10.2020
6300 Clouds 19 1011 72 10000 6.2 160 16:18 26.10.2020
6301 Clouds 19 1011 72 10000 6.2 160 15:39 26.10.2020
6302 Clouds 19 1011 68 10000 7.2 160 15:19 26.10.2020
6303 Clouds 20 1011 68 10000 7.2 160 14:45 26.10.2020
6304 Clouds 20 1011 68 10000 7.2 160 14:19 26.10.2020
6305 Rain 20 1013 68 10000 5.1 170 13:42 26.10.2020
6306 Clouds 20 1013 68 10000 5.1 170 13:22 26.10.2020
6307 Clouds 20 1014 64 10000 5.1 180 12:47 26.10.2020
6308 Clouds 20 1014 64 10000 5.1 180 12:27 26.10.2020
6309 Clouds 20 1014 64 10000 4.1 140 11:55 26.10.2020
6310 Clouds 20 1014 64 10000 4.1 140 11:37 26.10.2020
6311 Clouds 20 1014 64 10000 4.1 140 11:37 26.10.2020
6312 Clouds 19 1014 77 10000 3.6 110 11:18 26.10.2020
6313 Clouds 19 1014 77 10000 3.6 110 10:42 26.10.2020
6314 Clouds 19 1014 77 10000 3.6 110 10:22 26.10.2020
6315 Clear 17 1014 87 10000 6.05 152 09:44 26.10.2020
6316 Clear 17 1014 87 10000 5.38 144 09:23 26.10.2020
6317 Clouds 16 1014 82 10000 4.1 160 08:30 26.10.2020
6318 Clouds 15 1014 82 10000 4.6 160 07:56 26.10.2020
6319 Clouds 15 1014 82 10000 3.1 170 07:37 26.10.2020
6320 Clear 14 1011 92 10000 0.89 145 06:38 26.10.2020
6321 Clouds 13 1015 87 10000 2.6 140 04:44 26.10.2020
6322 Clear 14 1015 87 10000 2.1 150 04:18 26.10.2020
6323 Clouds 14 1016 93 10000 2.1 150 02:27 26.10.2020
6324 Clouds 14 1017 87 10000 2.6 140 01:29 26.10.2020
6325 Clouds 14 1017 87 10000 1.5 140 00:33 26.10.2020
6326 Clouds 14 1017 82 10000 2.1 140 23:42 25.10.2020
6327 Clouds 14 1017 82 10000 2.1 140 23:21 25.10.2020
6328 Clear 14 1017 87 10000 2.1 160 22:41 25.10.2020
6329 Clear 14 1017 87 10000 2.1 160 22:23 25.10.2020
6330 Clear 14 1017 87 10000 1 170 21:45 25.10.2020
6331 Clear 14 1017 87 10000 1 170 21:26 25.10.2020
6332 Clear 14 1017 82 10000 2.1 150 20:56 25.10.2020
6333 Clear 15 1017 87 10000 2.6 150 20:38 25.10.2020
6334 Clear 15 1017 87 10000 2.1 160 20:19 25.10.2020
6335 Clear 15 1017 87 10000 2.1 170 19:48 25.10.2020
6336 Clear 15 1017 87 10000 2.1 170 19:24 25.10.2020
6337 Clear 16 1016 82 10000 1.5 190 18:55 25.10.2020
6338 Clear 16 1016 82 10000 2.1 200 18:37 25.10.2020
6339 Clear 17 1016 77 10000 1.5 0 18:19 25.10.2020
6340 Clear 18 1016 77 10000 1.5 0 17:39 25.10.2020
6341 Clouds 19 1016 64 10000 2.54 240 17:21 25.10.2020
6342 Clouds 19 1016 64 10000 2.54 240 16:58 25.10.2020
6343 Clouds 19 1016 64 10000 2.54 240 16:38 25.10.2020
6344 Clouds 19 1016 72 10000 1 0 16:18 25.10.2020
6345 Clouds 20 1016 72 10000 1 0 15:46 25.10.2020
6346 Clouds 20 1016 72 10000 1 0 15:25 25.10.2020
6347 Clouds 20 1017 68 10000 1 0 14:46 25.10.2020
6348 Clouds 20 1017 68 10000 1 0 14:28 25.10.2020
6349 Clouds 20 1017 68 10000 3.1 360 13:43 25.10.2020
6350 Clear 19 1018 77 10000 1 0 13:21 25.10.2020
6351 Clear 19 1018 77 10000 1 0 12:49 25.10.2020
6352 Clear 19 1018 77 10000 1 0 12:27 25.10.2020
6353 Clear 19 1018 77 10000 1 0 12:27 25.10.2020
6354 Clouds 19 1018 68 10000 2.6 50 11:55 25.10.2020
6355 Clear 18 1018 87 10000 1.5 0 11:37 25.10.2020
6356 Clouds 17 1018 100 10000 1 0 11:18 25.10.2020
6357 Clouds 16 1018 100 10000 1 0 10:44 25.10.2020
6358 Clouds 15 1018 100 10000 1 0 10:25 25.10.2020
6359 Clouds 14 1018 100 10000 1 0 09:48 25.10.2020
6360 Clouds 14 1018 100 10000 1 0 09:20 25.10.2020
6361 Clear 11 1017 100 10000 0.5 0 08:51 25.10.2020
6362 Clear 12 1017 100 10000 0.5 0 08:32 25.10.2020
6363 Clear 12 1017 100 10000 1.5 70 07:53 25.10.2020
6364 Clear 12 1017 93 10000 0.5 120 07:34 25.10.2020
6365 Clouds 12 1017 100 10000 1 50 06:51 25.10.2020
6366 Clouds 12 1017 100 10000 1 0 05:59 25.10.2020
6367 Clear 13 1016 93 10000 1.5 60 04:53 25.10.2020
6368 Clear 13 1016 100 10000 3.1 70 03:53 25.10.2020
6369 Clear 14 1017 100 10000 1 40 02:18 25.10.2020
6370 Clear 14 1017 93 10000 1 80 00:49 25.10.2020
6371 Clear 15 1017 93 10000 1 80 00:20 25.10.2020
6372 Clouds 15 1017 93 10000 2.1 170 23:54 24.10.2020
6373 Clouds 15 1017 87 10000 1.5 180 23:26 24.10.2020
6374 Clouds 16 1017 87 10000 2.1 200 22:57 24.10.2020
6375 Clouds 16 1017 87 10000 2.6 190 22:38 24.10.2020
6376 Clouds 16 1017 87 10000 2.1 200 22:20 24.10.2020
6377 Clouds 16 1017 87 10000 2.1 180 21:42 24.10.2020
6378 Clouds 16 1017 87 10000 2.1 180 21:21 24.10.2020
6379 Clouds 16 1017 87 10000 2.6 170 20:48 24.10.2020
6380 Clouds 16 1016 88 10000 1 0 20:23 24.10.2020
6381 Clouds 17 1016 88 10000 1 0 19:55 24.10.2020
6382 Clouds 17 1016 88 10000 1 0 19:37 24.10.2020
6383 Clouds 17 1016 88 10000 1 0 19:19 24.10.2020
6384 Clouds 17 1017 77 10000 3.6 260 18:43 24.10.2020
6385 Clouds 18 1017 77 10000 4.6 260 18:24 24.10.2020
6386 Clouds 18 1017 77 10000 4.6 260 18:24 24.10.2020
6387 Clouds 19 1017 77 10000 4.6 260 17:39 24.10.2020
6388 Clouds 19 1017 77 10000 4.6 260 17:21 24.10.2020
6389 Clouds 20 1017 68 10000 6.2 230 16:45 24.10.2020
6390 Clouds 20 1017 68 10000 6.2 230 16:23 24.10.2020
6391 Clouds 20 1017 77 10000 5.7 220 15:41 24.10.2020
6392 Clouds 20 1017 77 10000 5.7 220 15:20 24.10.2020
6393 Clouds 20 1017 82 9000 2.6 250 14:54 24.10.2020
6394 Clouds 19 1018 82 10000 2.6 190 14:29 24.10.2020
6395 Clouds 19 1018 88 10000 2.6 180 13:47 24.10.2020
6396 Clouds 19 1018 88 10000 2.6 180 13:29 24.10.2020
6397 Rain 19 1019 88 10000 2.6 210 12:55 24.10.2020
6398 Clouds 19 1019 88 10000 2.6 210 12:37 24.10.2020
6399 Clouds 18 1019 100 10000 2.1 190 12:19 24.10.2020
6400 Clouds 18 1019 100 10000 2.1 190 11:42 24.10.2020
6401 Clouds 18 1018 100 4000 1.5 0 10:54 24.10.2020
6402 Clouds 18 1018 100 4000 1.5 0 10:54 24.10.2020
6403 Clouds 18 1018 100 4000 1.5 0 10:34 24.10.2020
6404 Rain 17 1019 100 3500 1.5 0 09:58 24.10.2020
6405 Rain 17 1019 100 3500 1.5 0 09:40 24.10.2020
6406 Rain 17 1019 100 3500 1.5 0 09:21 24.10.2020
6407 Rain 17 1019 100 1400 1 0 08:40 24.10.2020
6408 Rain 17 1019 93 10000 1 0 08:18 24.10.2020
6409 Clouds 17 1019 93 7000 1 0 07:45 24.10.2020
6410 Rain 17 1019 88 7000 5.1 160 07:19 24.10.2020
6411 Rain 17 1019 88 7000 4.6 190 06:36 24.10.2020
6412 Clouds 18 1019 68 10000 4.1 170 03:51 24.10.2020
6413 Clouds 18 1020 82 10000 1.5 150 02:20 24.10.2020
6414 Clouds 17 1021 88 10000 2.1 190 00:44 24.10.2020
6415 Clouds 17 1021 88 10000 2.1 190 00:22 24.10.2020
6416 Clouds 17 1021 88 10000 2.1 190 23:59 23.10.2020
6417 Clouds 18 1020 82 10000 2.6 190 23:37 23.10.2020
6418 Clouds 18 1020 82 10000 2.6 170 23:18 23.10.2020
6419 Clouds 18 1020 82 10000 3.1 170 22:42 23.10.2020
6420 Clouds 18 1020 82 10000 3.1 170 22:21 23.10.2020
6421 Clouds 18 1021 82 10000 3.6 180 21:52 23.10.2020
6422 Clouds 18 1021 82 10000 3.6 180 21:28 23.10.2020
6423 Clouds 18 1021 82 10000 4.6 190 20:44 23.10.2020
6424 Clouds 19 1021 82 10000 2.6 220 20:25 23.10.2020
6425 Clouds 19 1021 82 10000 2.6 220 19:59 23.10.2020
6426 Clouds 19 1021 82 10000 2.6 220 19:37 23.10.2020
6427 Clouds 19 1021 82 10000 2.6 220 19:18 23.10.2020
6428 Clouds 19 1021 77 10000 1.5 0 18:39 23.10.2020
6429 Clouds 20 1021 77 10000 1.5 0 18:20 23.10.2020
6430 Clouds 20 1021 73 10000 2.6 190 17:44 23.10.2020
6431 Clouds 20 1021 73 10000 2.6 190 17:21 23.10.2020
6432 Clouds 20 1021 73 10000 2.6 190 17:21 23.10.2020
6433 Clouds 21 1021 73 10000 3.1 210 16:47 23.10.2020
6434 Clouds 21 1021 73 10000 3.1 210 16:26 23.10.2020
6435 Clouds 21 1021 68 10000 2.6 200 15:47 23.10.2020
6436 Clouds 21 1021 68 10000 2.6 200 15:25 23.10.2020
6437 Clouds 21 1021 64 10000 2.6 220 14:58 23.10.2020
6438 Clouds 21 1021 64 10000 2.6 220 14:40 23.10.2020
6439 Clouds 21 1021 64 10000 2.6 220 14:21 23.10.2020
6440 Clouds 21 1023 64 10000 1.5 0 13:39 23.10.2020
6441 Clouds 21 1023 68 10000 1 0 13:21 23.10.2020
6442 Clouds 21 1023 68 10000 1 0 12:48 23.10.2020
6443 Clouds 21 1023 68 10000 1 0 12:28 23.10.2020
6444 Clouds 20 1024 77 10000 1 0 11:48 23.10.2020
6445 Clouds 19 1024 77 10000 1 0 11:22 23.10.2020
6446 Clear 18 1024 82 10000 1 0 10:47 23.10.2020
6447 Clear 18 1024 82 10000 1 0 10:25 23.10.2020
6448 Clear 16 1023 93 10000 1 0 09:47 23.10.2020
6449 Clear 15 1023 93 10000 1 0 09:27 23.10.2020
6450 Clear 15 1023 100 10000 0.89 66 08:53 23.10.2020
6451 Clear 14 1023 100 10000 0.89 66 08:35 23.10.2020
6452 Clouds 14 1023 87 10000 1.5 40 07:47 23.10.2020
6453 Clouds 14 1023 87 10000 1 10 07:23 23.10.2020
6454 Clear 14 1023 87 10000 1.5 60 06:40 23.10.2020
6455 Clear 14 1023 87 10000 1.5 60 05:58 23.10.2020
6456 Clear 14 1023 87 10000 1.61 57 02:54 23.10.2020
6457 Clear 14 1023 87 10000 0.5 0 02:25 23.10.2020
6458 Clouds 15 1024 77 10000 1 100 00:48 23.10.2020
6459 Clear 15 1024 82 10000 0.5 110 23:54 22.10.2020
6460 Clear 15 1024 77 10000 1.5 110 23:30 22.10.2020
6461 Clear 15 1024 77 10000 1 0 22:54 22.10.2020
6462 Clear 16 1024 77 10000 1.5 130 22:36 22.10.2020
6463 Clear 16 1024 82 10000 2.6 100 22:18 22.10.2020
6464 Clear 16 1024 82 10000 1.5 200 21:42 22.10.2020
6465 Clear 16 1024 93 10000 1.5 0 21:23 22.10.2020
6466 Clear 16 1024 93 10000 1.5 0 20:56 22.10.2020
6467 Clear 16 1024 93 10000 1.5 0 20:37 22.10.2020
6468 Clear 16 1024 93 10000 1.5 0 20:18 22.10.2020
6469 Clear 17 1024 82 10000 1.5 0 19:40 22.10.2020
6470 Clear 17 1024 82 10000 1.5 0 19:19 22.10.2020
6471 Clouds 20 1023 60 10000 1 0 18:43 22.10.2020
6472 Clouds 20 1023 60 10000 1 0 18:20 22.10.2020
6473 Clouds 21 1023 56 10000 2.6 250 17:46 22.10.2020
6474 Clouds 21 1023 68 10000 3.1 240 17:22 22.10.2020
6475 Clouds 21 1023 68 10000 3.1 240 16:54 22.10.2020
6476 Clouds 21 1023 56 10000 2.1 260 16:36 22.10.2020
6477 Clouds 22 1024 49 10000 2.1 290 16:18 22.10.2020
6478 Clouds 22 1024 49 10000 2.1 290 15:40 22.10.2020
6479 Clouds 22 1024 49 10000 2.1 290 15:22 22.10.2020
6480 Clear 22 1024 49 10000 1 0 14:45 22.10.2020
6481 Clear 22 1025 49 10000 1 0 14:24 22.10.2020
6482 Clear 21 1025 49 10000 1 0 13:48 22.10.2020
6483 Clear 21 1025 49 10000 1 0 13:24 22.10.2020
6484 Clear 20 1025 63 10000 1.5 0 12:47 22.10.2020
6485 Clear 19 1025 63 10000 1.5 0 12:23 22.10.2020
6486 Clear 18 1026 63 10000 1.16 102 11:50 22.10.2020
6487 Clear 16 1026 100 10000 1.5 0 11:20 22.10.2020
6488 Clear 15 1026 100 10000 1.5 0 10:49 22.10.2020
6489 Clear 14 1026 100 10000 1.5 0 10:27 22.10.2020
6490 Clouds 11 1026 100 10000 1.5 0 09:46 22.10.2020
6491 Clouds 11 1026 100 10000 1.5 0 09:28 22.10.2020
6492 Clouds 10 1025 100 10000 2.1 330 08:49 22.10.2020
6493 Clouds 10 1025 100 10000 2.1 330 08:28 22.10.2020
6494 Clouds 11 1025 93 10000 1.5 60 07:57 22.10.2020
6495 Clouds 11 1025 93 10000 1.5 60 07:57 22.10.2020
6496 Clear 11 1025 93 10000 1 0 07:34 22.10.2020
6497 Clear 11 1025 87 10000 1.5 40 06:58 22.10.2020
6498 Clear 11 1025 87 10000 1.5 60 06:26 22.10.2020
6499 Clear 11 1024 93 10000 1.5 80 05:40 22.10.2020
6500 Clear 11 1025 87 10000 2.1 40 03:46 22.10.2020
6501 Clear 12 1025 76 10000 2.1 70 01:43 22.10.2020
6502 Clear 14 1024 67 10000 3.6 120 00:25 22.10.2020
6503 Clear 14 1025 67 10000 1 0 23:47 21.10.2020
6504 Clear 14 1025 67 10000 1 0 23:28 21.10.2020
6505 Clear 15 1024 67 10000 2.1 110 22:40 21.10.2020
6506 Clear 15 1024 67 10000 2.1 110 22:19 21.10.2020
6507 Clear 15 1024 76 10000 2.6 160 21:56 21.10.2020
6508 Clear 15 1024 72 10000 3.1 200 21:37 21.10.2020
6509 Clear 15 1024 67 10000 2.1 190 21:18 21.10.2020
6510 Clear 16 1024 63 10000 3.1 190 20:45 21.10.2020
6511 Clear 16 1023 67 10000 1 0 20:18 21.10.2020
6512 Clear 17 1023 59 10000 2.6 190 19:44 21.10.2020
6513 Clear 17 1023 67 10000 1 0 19:26 21.10.2020
6514 Clear 18 1023 52 10000 2.6 190 18:54 21.10.2020
6515 Clear 19 1023 52 10000 2.6 190 18:32 21.10.2020
6516 Clear 20 1023 46 10000 3.1 170 17:54 21.10.2020
6517 Clear 20 1023 46 10000 3.1 170 17:36 21.10.2020
6518 Clear 20 1024 43 10000 2.1 210 17:18 21.10.2020
6519 Clear 21 1024 43 10000 2.1 210 16:40 21.10.2020
6520 Clouds 21 1024 46 10000 2.6 150 16:20 21.10.2020
6521 Clouds 21 1024 46 10000 2.6 150 15:48 21.10.2020
6522 Clear 21 1025 46 10000 2.1 200 15:28 21.10.2020
6523 Clear 21 1025 46 10000 2.1 200 14:57 21.10.2020
6524 Clear 21 1025 46 10000 2.1 200 14:38 21.10.2020
6525 Clouds 21 1025 46 10000 1 0 14:19 21.10.2020
6526 Clear 21 1025 46 10000 1 0 13:42 21.10.2020
6527 Clear 20 1025 68 10000 1.5 0 13:21 21.10.2020
6528 Clear 19 1025 68 10000 1.5 0 12:41 21.10.2020
6529 Clear 18 1025 77 10000 2.1 350 12:21 21.10.2020
6530 Clear 18 1025 77 10000 2.1 350 11:47 21.10.2020
6531 Clear 16 1025 93 10000 1.5 0 11:22 21.10.2020
6532 Clear 15 1025 93 10000 1.5 0 10:58 21.10.2020
6533 Clear 14 1025 93 10000 1.5 0 10:40 21.10.2020
6534 Clear 13 1025 100 10000 3.1 360 10:20 21.10.2020
6535 Clear 10 1025 100 10000 3.1 360 09:42 21.10.2020
6536 Clear 8 1025 100 10000 0.5 0 09:18 21.10.2020
6537 Clear 7 1025 100 10000 0.5 0 08:40 21.10.2020
6538 Clear 9 1024 93 10000 1.5 50 08:22 21.10.2020
6539 Clear 9 1024 93 10000 1.5 50 08:22 21.10.2020
6540 Clear 9 1024 93 10000 1.5 360 07:49 21.10.2020
6541 Clear 10 1024 93 10000 0.5 0 06:59 21.10.2020
6542 Clear 10 1023 93 10000 1 60 06:37 21.10.2020
6543 Clear 10 1023 93 10000 1 60 06:19 21.10.2020
6544 Clear 11 1024 76 10000 0.5 0 03:35 21.10.2020
6545 Clear 13 1024 71 10000 2.6 130 00:26 21.10.2020
6546 Clear 14 1024 76 10000 1.5 150 23:31 20.10.2020
6547 Clear 14 1025 82 10000 1.5 130 22:41 20.10.2020
6548 Clear 14 1025 82 10000 2.1 130 22:23 20.10.2020
6549 Clear 14 1025 82 10000 2.1 120 21:47 20.10.2020
6550 Clear 15 1025 77 10000 1.5 0 21:19 20.10.2020
6551 Clear 15 1025 77 10000 1.5 0 20:43 20.10.2020
6552 Clouds 16 1025 63 10000 1.5 0 20:24 20.10.2020
6553 Clouds 16 1025 63 10000 1.5 0 19:46 20.10.2020
6554 Clear 17 1024 55 10000 2.6 260 19:22 20.10.2020
6555 Clear 18 1024 55 10000 2.6 260 18:59 20.10.2020
6556 Clear 18 1024 55 10000 2.6 260 18:59 20.10.2020
6557 Clear 18 1024 55 10000 2.6 260 18:38 20.10.2020
6558 Clouds 19 1024 46 10000 2.6 290 17:59 20.10.2020
6559 Clouds 19 1024 46 10000 2.6 290 17:40 20.10.2020
6560 Clear 19 1024 55 10000 3.1 260 17:21 20.10.2020
6561 Clear 20 1024 40 10000 2.67 252 16:42 20.10.2020
6562 Clear 20 1025 43 10000 0.5 0 16:24 20.10.2020
6563 Clear 20 1025 43 10000 0.5 0 15:49 20.10.2020
6564 Clouds 21 1025 42 10000 1 0 15:29 20.10.2020
6565 Clouds 21 1025 42 10000 1 0 14:47 20.10.2020
6566 Clear 20 1026 49 10000 1.47 234 14:25 20.10.2020
6567 Clear 20 1026 49 10000 1.44 229 13:59 20.10.2020
6568 Clear 20 1026 49 10000 1.47 234 13:40 20.10.2020
6569 Clear 19 1026 67 10000 1.5 0 13:20 20.10.2020
6570 Clear 19 1026 67 10000 1.5 0 12:51 20.10.2020
6571 Clear 17 1026 82 10000 1.5 0 12:31 20.10.2020
6572 Clear 16 1026 82 10000 1.5 0 11:48 20.10.2020
6573 Clear 15 1026 100 10000 1 0 11:29 20.10.2020
6574 Clear 14 1026 100 10000 1 0 10:49 20.10.2020
6575 Clear 12 1025 100 10000 2.1 10 10:26 20.10.2020
6576 Clear 10 1025 100 10000 2.1 10 09:46 20.10.2020
6577 Clear 10 1025 100 10000 1.5 0 09:20 20.10.2020
6578 Clear 8 1025 100 10000 1.5 0 08:50 20.10.2020
6579 Clouds 10 1024 93 10000 2.1 60 08:26 20.10.2020
6580 Clouds 10 1024 93 10000 1.5 60 07:48 20.10.2020
6581 Clouds 10 1024 93 10000 1.5 20 07:24 20.10.2020
6582 Clouds 10 1024 93 10000 1 30 06:24 20.10.2020
6583 Clouds 11 1024 93 10000 1.5 50 04:55 20.10.2020
6584 Clouds 11 1024 81 10000 0.5 0 02:31 20.10.2020
6585 Clear 12 1024 71 10000 1.5 150 01:30 20.10.2020
6586 Clear 12 1024 76 10000 2.1 150 00:52 20.10.2020
6587 Clouds 13 1024 71 10000 2.1 150 00:29 20.10.2020
6588 Clouds 13 1024 76 10000 2.1 140 23:54 19.10.2020
6589 Clouds 14 1024 76 10000 2.1 140 23:27 19.10.2020
6590 Clouds 14 1024 82 10000 1 0 22:56 19.10.2020
6591 Clouds 14 1024 76 10000 2.1 150 22:28 19.10.2020
6592 Clouds 14 1024 76 10000 1 0 21:58 19.10.2020
6593 Clouds 14 1024 76 10000 1 0 21:39 19.10.2020
6594 Clouds 15 1023 77 10000 0.97 296 21:19 19.10.2020
6595 Clouds 15 1023 77 10000 0.97 296 20:43 19.10.2020
6596 Clouds 16 1023 63 10000 2.1 260 20:25 19.10.2020
6597 Clouds 16 1023 63 10000 2.1 260 19:46 19.10.2020
6598 Clouds 17 1023 59 10000 3.1 270 19:20 19.10.2020
6599 Clouds 18 1023 59 10000 3.1 270 18:50 19.10.2020
6600 Clouds 18 1023 55 10000 2.6 280 18:31 19.10.2020
6601 Clouds 19 1023 52 10000 3.1 270 17:49 19.10.2020
6602 Clear 20 1023 52 10000 3.1 270 17:28 19.10.2020
6603 Clear 21 1023 43 10000 3.1 310 16:54 19.10.2020
6604 Clouds 20 1023 49 10000 2.1 300 16:30 19.10.2020
6605 Clear 21 1019 59 10000 2.24 279 15:59 19.10.2020
6606 Clear 21 1019 60 10000 2.24 258 15:37 19.10.2020
6607 Clear 21 1019 54 10000 1.79 256 15:19 19.10.2020
6608 Clear 21 1020 56 10000 1.79 330 14:43 19.10.2020
6609 Clear 20 1020 56 10000 1.25 269 14:23 19.10.2020
6610 Clear 20 1020 58 10000 1.4 260 13:46 19.10.2020
6611 Clear 19 1020 63 10000 0.89 131 13:28 19.10.2020
6612 Clear 18 1020 68 10000 0.89 287 12:46 19.10.2020
6613 Clear 18 1020 72 10000 0.58 9 12:26 19.10.2020
6614 Clear 16 1024 76 10000 2.1 40 11:51 19.10.2020
6615 Clear 15 1024 93 10000 1 0 11:24 19.10.2020
6616 Clear 14 1024 93 10000 1 0 10:46 19.10.2020
6617 Clear 13 1024 93 10000 1 0 10:28 19.10.2020
6618 Clear 11 1023 100 10000 1 0 09:58 19.10.2020
6619 Clear 10 1023 100 10000 1 0 09:39 19.10.2020
6620 Clear 11 1023 100 10000 1 0 09:18 19.10.2020
6621 Clear 9 1023 100 10000 1 0 08:45 19.10.2020
6622 Clear 10 1023 100 10000 1 0 08:21 19.10.2020
6623 Clear 10 1022 93 10000 1.5 60 07:21 19.10.2020
6624 Clear 11 1022 93 10000 1.5 30 06:45 19.10.2020
6625 Clear 10 1022 93 10000 1.5 30 05:40 19.10.2020
6626 Clear 12 1022 87 10000 1.5 30 03:46 19.10.2020
6627 Clear 12 1021 87 10000 1.5 80 01:43 19.10.2020
6628 Clear 12 1021 81 10000 1.5 120 00:43 19.10.2020
6629 Clear 13 1021 76 10000 1 120 23:59 18.10.2020
6630 Clear 13 1021 76 10000 0.5 120 23:40 18.10.2020
6631 Clear 13 1021 76 10000 1 0 23:20 18.10.2020
6632 Clear 13 1021 81 10000 1 140 22:44 18.10.2020
6633 Clear 14 1020 76 10000 2.1 150 22:19 18.10.2020
6634 Clear 15 1020 76 10000 1.5 150 21:43 18.10.2020
6635 Clear 15 1020 76 10000 0.5 0 21:23 18.10.2020
6636 Clear 14 1020 76 10000 0.5 0 20:46 18.10.2020
6637 Clear 15 1020 76 10000 0.5 0 20:24 18.10.2020
6638 Clear 16 1019 67 10000 1.63 289 19:50 18.10.2020
6639 Clear 16 1019 67 10000 2.26 273 19:27 18.10.2020
6640 Clear 17 1019 59 10000 3.6 260 18:55 18.10.2020
6641 Clear 18 1019 59 10000 3.6 260 18:36 18.10.2020
6642 Clear 18 1019 45 10000 2.6 270 18:18 18.10.2020
6643 Clear 19 1019 45 10000 2.6 270 17:41 18.10.2020
6644 Clear 19 1019 45 10000 2.6 270 17:22 18.10.2020
6645 Clouds 19 1019 49 10000 2.6 360 16:43 18.10.2020
6646 Clouds 19 1019 49 10000 2.6 360 16:24 18.10.2020
6647 Clouds 20 1019 49 10000 2.6 330 15:43 18.10.2020
6648 Clear 19 1019 55 10000 1.37 328 15:22 18.10.2020
6649 Clear 19 1019 55 10000 1.37 328 14:58 18.10.2020
6650 Clear 19 1019 55 10000 1.37 328 14:37 18.10.2020
6651 Clouds 19 1020 72 10000 2.1 350 14:18 18.10.2020
6652 Clouds 18 1020 72 10000 2.1 350 13:41 18.10.2020
6653 Clouds 18 1020 72 10000 2.1 350 13:23 18.10.2020
6654 Clear 17 1020 82 10000 2.1 350 12:43 18.10.2020
6655 Clear 17 1020 82 10000 2.1 350 12:24 18.10.2020
6656 Clear 15 1020 100 10000 2.6 350 11:47 18.10.2020
6657 Clear 15 1020 100 10000 2.6 350 11:29 18.10.2020
6658 Mist 13 1020 100 1200 2.1 330 10:59 18.10.2020
6659 Mist 12 1020 100 1200 2.1 330 10:39 18.10.2020
6660 Fog 11 1019 100 400 1.5 0 10:18 18.10.2020
6661 Fog 10 1019 100 400 1.5 0 09:44 18.10.2020
6662 Fog 10 1019 100 400 1.5 0 09:20 18.10.2020
6663 Fog 9 1019 100 400 1.5 0 08:52 18.10.2020
6664 Fog 10 1019 100 400 1.5 0 08:26 18.10.2020
6665 Clear 9 1017 93 10000 2.1 30 07:51 18.10.2020
6666 Clear 9 1017 93 10000 1.5 60 05:57 18.10.2020
6667 Clear 11 1017 87 10000 0.5 0 03:46 18.10.2020
6668 Clear 11 1018 87 10000 1 0 02:53 18.10.2020
6669 Clear 12 1017 87 10000 2.1 120 01:31 18.10.2020
6670 Clear 12 1017 81 10000 1.5 170 00:43 18.10.2020
6671 Clear 12 1017 81 10000 1.5 170 00:20 18.10.2020
6672 Clear 13 1017 87 10000 2.1 160 23:41 17.10.2020
6673 Clear 13 1017 82 10000 2.1 150 23:21 17.10.2020
6674 Clear 13 1017 82 10000 2.1 150 22:57 17.10.2020
6675 Clear 13 1017 82 10000 1.5 140 22:36 17.10.2020
6676 Clear 13 1017 82 10000 1.5 180 22:18 17.10.2020
6677 Clear 13 1017 82 10000 1.5 170 21:42 17.10.2020
6678 Clouds 14 1017 82 10000 1.49 312 21:20 17.10.2020
6679 Clouds 14 1017 82 10000 1.49 312 20:45 17.10.2020
6680 Clouds 15 1016 72 10000 2.1 240 20:20 17.10.2020
6681 Clouds 15 1016 72 10000 2.1 240 19:44 17.10.2020
6682 Clouds 16 1016 72 10000 2.1 240 19:22 17.10.2020
6683 Clouds 16 1015 63 10000 2.6 250 18:46 17.10.2020
6684 Clouds 17 1015 63 10000 2.6 250 18:28 17.10.2020
6685 Clouds 18 1014 55 10000 2.6 250 17:56 17.10.2020
6686 Clouds 18 1014 55 10000 2.6 250 17:37 17.10.2020
6687 Clouds 18 1014 55 10000 2.6 250 17:19 17.10.2020
6688 Clouds 19 1015 63 10000 1.5 0 16:41 17.10.2020
6689 Clouds 19 1015 55 10000 1.5 0 16:19 17.10.2020
6690 Clouds 19 1015 55 10000 1.5 0 15:41 17.10.2020
6691 Clouds 19 1015 59 10000 0.5 0 15:22 17.10.2020
6692 Clouds 18 1015 59 10000 0.5 0 14:56 17.10.2020
6693 Clouds